<?xml version="1.0" encoding="UTF-8" standalone="no" ?>
<gpx xmlns="http://www.topografix.com/GPX/1/1" xmlns:xsi="http://www.w3.org/2001/XMLSchema-instance" xsi:schemaLocation="http://www.topografix.com/GPX/1/1 http://www.topografix.com/GPX/1/1/gpx.xsd" version="1.1" creator="VisuGPX - https://www.visugpx.com">
  <metadata>
    <name>ladinhac</name>
  </metadata>
  <trk>
    <name><![CDATA[ladinhac_1]]></name>
    <trkseg>
      <trkpt lat="44.75494" lon="2.50878">
        <ele>659.9</ele>
        <time>2021-11-11T09:06:18Z</time>
      </trkpt>
      <trkpt lat="44.75493" lon="2.50883">
        <ele>663.2</ele>
        <time>2021-11-11T09:06:24Z</time>
      </trkpt>
      <trkpt lat="44.75493" lon="2.50883">
        <ele>663.9</ele>
        <time>2021-11-11T09:06:29Z</time>
      </trkpt>
      <trkpt lat="44.755" lon="2.50879">
        <ele>663.9</ele>
        <time>2021-11-11T09:06:35Z</time>
      </trkpt>
      <trkpt lat="44.75499" lon="2.5088">
        <ele>664.2</ele>
        <time>2021-11-11T09:06:41Z</time>
      </trkpt>
      <trkpt lat="44.75498" lon="2.5088">
        <ele>664</ele>
        <time>2021-11-11T09:06:46Z</time>
      </trkpt>
      <trkpt lat="44.75499" lon="2.50881">
        <ele>664.2</ele>
        <time>2021-11-11T09:06:51Z</time>
      </trkpt>
      <trkpt lat="44.75501" lon="2.5088">
        <ele>664.1</ele>
        <time>2021-11-11T09:06:56Z</time>
      </trkpt>
      <trkpt lat="44.75501" lon="2.50879">
        <ele>664.2</ele>
        <time>2021-11-11T09:07:01Z</time>
      </trkpt>
      <trkpt lat="44.75501" lon="2.50879">
        <ele>664.2</ele>
        <time>2021-11-11T09:07:07Z</time>
      </trkpt>
      <trkpt lat="44.75501" lon="2.50879">
        <ele>664.3</ele>
        <time>2021-11-11T09:07:13Z</time>
      </trkpt>
      <trkpt lat="44.75501" lon="2.50879">
        <ele>664.4</ele>
        <time>2021-11-11T09:07:18Z</time>
      </trkpt>
      <trkpt lat="44.75501" lon="2.50879">
        <ele>664.4</ele>
        <time>2021-11-11T09:07:23Z</time>
      </trkpt>
      <trkpt lat="44.75498" lon="2.50886">
        <ele>664.3</ele>
        <time>2021-11-11T09:07:29Z</time>
      </trkpt>
      <trkpt lat="44.75496" lon="2.50892">
        <ele>664.4</ele>
        <time>2021-11-11T09:07:35Z</time>
      </trkpt>
      <trkpt lat="44.75494" lon="2.50896">
        <ele>664.3</ele>
        <time>2021-11-11T09:07:40Z</time>
      </trkpt>
      <trkpt lat="44.75492" lon="2.50899">
        <ele>664.5</ele>
        <time>2021-11-11T09:07:46Z</time>
      </trkpt>
      <trkpt lat="44.75491" lon="2.50904">
        <ele>664.4</ele>
        <time>2021-11-11T09:07:51Z</time>
      </trkpt>
      <trkpt lat="44.75491" lon="2.50903">
        <ele>664.4</ele>
        <time>2021-11-11T09:07:56Z</time>
      </trkpt>
      <trkpt lat="44.75491" lon="2.50902">
        <ele>664.5</ele>
        <time>2021-11-11T09:08:02Z</time>
      </trkpt>
      <trkpt lat="44.75491" lon="2.50902">
        <ele>664.5</ele>
        <time>2021-11-11T09:08:08Z</time>
      </trkpt>
      <trkpt lat="44.75491" lon="2.50903">
        <ele>664.5</ele>
        <time>2021-11-11T09:08:13Z</time>
      </trkpt>
      <trkpt lat="44.75491" lon="2.50903">
        <ele>664.5</ele>
        <time>2021-11-11T09:08:19Z</time>
      </trkpt>
      <trkpt lat="44.75489" lon="2.50902">
        <ele>664.6</ele>
        <time>2021-11-11T09:08:24Z</time>
      </trkpt>
      <trkpt lat="44.75489" lon="2.50901">
        <ele>664.6</ele>
        <time>2021-11-11T09:08:29Z</time>
      </trkpt>
      <trkpt lat="44.75488" lon="2.50901">
        <ele>664.7</ele>
        <time>2021-11-11T09:08:35Z</time>
      </trkpt>
      <trkpt lat="44.75487" lon="2.509">
        <ele>664.7</ele>
        <time>2021-11-11T09:08:40Z</time>
      </trkpt>
      <trkpt lat="44.75486" lon="2.509">
        <ele>664.7</ele>
        <time>2021-11-11T09:08:45Z</time>
      </trkpt>
      <trkpt lat="44.75486" lon="2.50899">
        <ele>664.6</ele>
        <time>2021-11-11T09:08:51Z</time>
      </trkpt>
      <trkpt lat="44.75487" lon="2.509">
        <ele>664.6</ele>
        <time>2021-11-11T09:08:57Z</time>
      </trkpt>
      <trkpt lat="44.75487" lon="2.50899">
        <ele>664.7</ele>
        <time>2021-11-11T09:09:02Z</time>
      </trkpt>
      <trkpt lat="44.75484" lon="2.509">
        <ele>664.6</ele>
        <time>2021-11-11T09:09:08Z</time>
      </trkpt>
      <trkpt lat="44.75487" lon="2.50909">
        <ele>664.5</ele>
        <time>2021-11-11T09:09:13Z</time>
      </trkpt>
      <trkpt lat="44.75496" lon="2.50914">
        <ele>664.5</ele>
        <time>2021-11-11T09:09:19Z</time>
      </trkpt>
      <trkpt lat="44.75505" lon="2.50916">
        <ele>664.6</ele>
        <time>2021-11-11T09:09:24Z</time>
      </trkpt>
      <trkpt lat="44.7551" lon="2.50916">
        <ele>664.6</ele>
        <time>2021-11-11T09:09:30Z</time>
      </trkpt>
      <trkpt lat="44.75514" lon="2.50919">
        <ele>664.6</ele>
        <time>2021-11-11T09:09:35Z</time>
      </trkpt>
      <trkpt lat="44.75517" lon="2.5092">
        <ele>665.6</ele>
        <time>2021-11-11T09:09:41Z</time>
      </trkpt>
      <trkpt lat="44.75519" lon="2.5092">
        <ele>665.8</ele>
        <time>2021-11-11T09:09:46Z</time>
      </trkpt>
      <trkpt lat="44.7552" lon="2.5092">
        <ele>665.8</ele>
        <time>2021-11-11T09:09:51Z</time>
      </trkpt>
      <trkpt lat="44.7552" lon="2.5092">
        <ele>665.8</ele>
        <time>2021-11-11T09:09:57Z</time>
      </trkpt>
      <trkpt lat="44.75523" lon="2.50923">
        <ele>665.7</ele>
        <time>2021-11-11T09:10:03Z</time>
      </trkpt>
      <trkpt lat="44.75527" lon="2.50926">
        <ele>665.6</ele>
        <time>2021-11-11T09:10:09Z</time>
      </trkpt>
      <trkpt lat="44.7553" lon="2.50928">
        <ele>665.3</ele>
        <time>2021-11-11T09:10:14Z</time>
      </trkpt>
    </trkseg>
  </trk>
  <trk>
    <name><![CDATA[ladinhac_2]]></name>
    <trkseg>
      <trkpt lat="44.7553" lon="2.50928">
        <ele>665.4</ele>
        <time>2021-11-11T09:10:17Z</time>
      </trkpt>
      <trkpt lat="44.7553" lon="2.50927">
        <ele>664.3</ele>
        <time>2021-11-11T09:10:23Z</time>
      </trkpt>
      <trkpt lat="44.75533" lon="2.50929">
        <ele>663.4</ele>
        <time>2021-11-11T09:10:29Z</time>
      </trkpt>
      <trkpt lat="44.75536" lon="2.50934">
        <ele>663.5</ele>
        <time>2021-11-11T09:10:34Z</time>
      </trkpt>
      <trkpt lat="44.75539" lon="2.50943">
        <ele>662.9</ele>
        <time>2021-11-11T09:10:39Z</time>
      </trkpt>
      <trkpt lat="44.75539" lon="2.50952">
        <ele>662.9</ele>
        <time>2021-11-11T09:10:45Z</time>
      </trkpt>
      <trkpt lat="44.75539" lon="2.50957">
        <ele>662.9</ele>
        <time>2021-11-11T09:10:51Z</time>
      </trkpt>
      <trkpt lat="44.7554" lon="2.50956">
        <ele>662.7</ele>
        <time>2021-11-11T09:10:57Z</time>
      </trkpt>
      <trkpt lat="44.75541" lon="2.50955">
        <ele>662.7</ele>
        <time>2021-11-11T09:11:02Z</time>
      </trkpt>
      <trkpt lat="44.75541" lon="2.50955">
        <ele>662.7</ele>
        <time>2021-11-11T09:11:08Z</time>
      </trkpt>
      <trkpt lat="44.75541" lon="2.50954">
        <ele>662.9</ele>
        <time>2021-11-11T09:11:14Z</time>
      </trkpt>
      <trkpt lat="44.75541" lon="2.50954">
        <ele>663</ele>
        <time>2021-11-11T09:11:20Z</time>
      </trkpt>
      <trkpt lat="44.75541" lon="2.50954">
        <ele>662.9</ele>
        <time>2021-11-11T09:11:25Z</time>
      </trkpt>
      <trkpt lat="44.7554" lon="2.50958">
        <ele>662.8</ele>
        <time>2021-11-11T09:11:31Z</time>
      </trkpt>
      <trkpt lat="44.75537" lon="2.50967">
        <ele>662.8</ele>
        <time>2021-11-11T09:11:36Z</time>
      </trkpt>
      <trkpt lat="44.75533" lon="2.50974">
        <ele>662.4</ele>
        <time>2021-11-11T09:11:41Z</time>
      </trkpt>
      <trkpt lat="44.75529" lon="2.50985">
        <ele>662.5</ele>
        <time>2021-11-11T09:11:46Z</time>
      </trkpt>
      <trkpt lat="44.75527" lon="2.50994">
        <ele>662.7</ele>
        <time>2021-11-11T09:11:52Z</time>
      </trkpt>
      <trkpt lat="44.75526" lon="2.51003">
        <ele>662.7</ele>
        <time>2021-11-11T09:11:57Z</time>
      </trkpt>
      <trkpt lat="44.75525" lon="2.5101">
        <ele>663.1</ele>
        <time>2021-11-11T09:12:02Z</time>
      </trkpt>
      <trkpt lat="44.75527" lon="2.51016">
        <ele>663.6</ele>
        <time>2021-11-11T09:12:07Z</time>
      </trkpt>
      <trkpt lat="44.75527" lon="2.51028">
        <ele>663.5</ele>
        <time>2021-11-11T09:12:13Z</time>
      </trkpt>
      <trkpt lat="44.7553" lon="2.5104">
        <ele>663.6</ele>
        <time>2021-11-11T09:12:18Z</time>
      </trkpt>
      <trkpt lat="44.75533" lon="2.51049">
        <ele>663.6</ele>
        <time>2021-11-11T09:12:23Z</time>
      </trkpt>
      <trkpt lat="44.75537" lon="2.51058">
        <ele>663.6</ele>
        <time>2021-11-11T09:12:28Z</time>
      </trkpt>
      <trkpt lat="44.75539" lon="2.51068">
        <ele>663.6</ele>
        <time>2021-11-11T09:12:34Z</time>
      </trkpt>
      <trkpt lat="44.75542" lon="2.51076">
        <ele>663.6</ele>
        <time>2021-11-11T09:12:39Z</time>
      </trkpt>
      <trkpt lat="44.75544" lon="2.51085">
        <ele>663.6</ele>
        <time>2021-11-11T09:12:45Z</time>
      </trkpt>
      <trkpt lat="44.75546" lon="2.51093">
        <ele>663.7</ele>
        <time>2021-11-11T09:12:50Z</time>
      </trkpt>
      <trkpt lat="44.75547" lon="2.51102">
        <ele>663.6</ele>
        <time>2021-11-11T09:12:56Z</time>
      </trkpt>
      <trkpt lat="44.75548" lon="2.51112">
        <ele>663.6</ele>
        <time>2021-11-11T09:13:01Z</time>
      </trkpt>
      <trkpt lat="44.7555" lon="2.51121">
        <ele>664.3</ele>
        <time>2021-11-11T09:13:06Z</time>
      </trkpt>
      <trkpt lat="44.75551" lon="2.51129">
        <ele>664.3</ele>
        <time>2021-11-11T09:13:11Z</time>
      </trkpt>
      <trkpt lat="44.75554" lon="2.51137">
        <ele>664.3</ele>
        <time>2021-11-11T09:13:16Z</time>
      </trkpt>
      <trkpt lat="44.75559" lon="2.51143">
        <ele>664.3</ele>
        <time>2021-11-11T09:13:21Z</time>
      </trkpt>
      <trkpt lat="44.75565" lon="2.51148">
        <ele>664.3</ele>
        <time>2021-11-11T09:13:26Z</time>
      </trkpt>
      <trkpt lat="44.75572" lon="2.51153">
        <ele>664.2</ele>
        <time>2021-11-11T09:13:32Z</time>
      </trkpt>
      <trkpt lat="44.75578" lon="2.51159">
        <ele>664.3</ele>
        <time>2021-11-11T09:13:37Z</time>
      </trkpt>
      <trkpt lat="44.75583" lon="2.51166">
        <ele>664.3</ele>
        <time>2021-11-11T09:13:42Z</time>
      </trkpt>
      <trkpt lat="44.75587" lon="2.51174">
        <ele>664.3</ele>
        <time>2021-11-11T09:13:48Z</time>
      </trkpt>
      <trkpt lat="44.75587" lon="2.51184">
        <ele>664.2</ele>
        <time>2021-11-11T09:13:53Z</time>
      </trkpt>
      <trkpt lat="44.75586" lon="2.51195">
        <ele>664.2</ele>
        <time>2021-11-11T09:13:59Z</time>
      </trkpt>
      <trkpt lat="44.75583" lon="2.51206">
        <ele>664.3</ele>
        <time>2021-11-11T09:14:04Z</time>
      </trkpt>
      <trkpt lat="44.75581" lon="2.51213">
        <ele>664.5</ele>
        <time>2021-11-11T09:14:09Z</time>
      </trkpt>
      <trkpt lat="44.75577" lon="2.5122">
        <ele>664.5</ele>
        <time>2021-11-11T09:14:14Z</time>
      </trkpt>
      <trkpt lat="44.75572" lon="2.51227">
        <ele>664.4</ele>
        <time>2021-11-11T09:14:19Z</time>
      </trkpt>
      <trkpt lat="44.75569" lon="2.51236">
        <ele>664.5</ele>
        <time>2021-11-11T09:14:25Z</time>
      </trkpt>
      <trkpt lat="44.75565" lon="2.51244">
        <ele>664.5</ele>
        <time>2021-11-11T09:14:30Z</time>
      </trkpt>
      <trkpt lat="44.75561" lon="2.51252">
        <ele>664.5</ele>
        <time>2021-11-11T09:14:35Z</time>
      </trkpt>
      <trkpt lat="44.75557" lon="2.51261">
        <ele>664.5</ele>
        <time>2021-11-11T09:14:41Z</time>
      </trkpt>
      <trkpt lat="44.75556" lon="2.51271">
        <ele>664.5</ele>
        <time>2021-11-11T09:14:46Z</time>
      </trkpt>
      <trkpt lat="44.75556" lon="2.51281">
        <ele>664.4</ele>
        <time>2021-11-11T09:14:51Z</time>
      </trkpt>
      <trkpt lat="44.75557" lon="2.51292">
        <ele>664.4</ele>
        <time>2021-11-11T09:14:56Z</time>
      </trkpt>
      <trkpt lat="44.75558" lon="2.51302">
        <ele>664.3</ele>
        <time>2021-11-11T09:15:02Z</time>
      </trkpt>
      <trkpt lat="44.7556" lon="2.51312">
        <ele>664.3</ele>
        <time>2021-11-11T09:15:07Z</time>
      </trkpt>
      <trkpt lat="44.75561" lon="2.5132">
        <ele>664.4</ele>
        <time>2021-11-11T09:15:12Z</time>
      </trkpt>
      <trkpt lat="44.75563" lon="2.51332">
        <ele>664.5</ele>
        <time>2021-11-11T09:15:17Z</time>
      </trkpt>
      <trkpt lat="44.75563" lon="2.51341">
        <ele>664.4</ele>
        <time>2021-11-11T09:15:23Z</time>
      </trkpt>
      <trkpt lat="44.75564" lon="2.51353">
        <ele>664.4</ele>
        <time>2021-11-11T09:15:28Z</time>
      </trkpt>
      <trkpt lat="44.75563" lon="2.51363">
        <ele>664.5</ele>
        <time>2021-11-11T09:15:34Z</time>
      </trkpt>
      <trkpt lat="44.7556" lon="2.51362">
        <ele>664.6</ele>
        <time>2021-11-11T09:15:39Z</time>
      </trkpt>
      <trkpt lat="44.7556" lon="2.51361">
        <ele>664.6</ele>
        <time>2021-11-11T09:15:44Z</time>
      </trkpt>
      <trkpt lat="44.7556" lon="2.51361">
        <ele>664.5</ele>
        <time>2021-11-11T09:15:50Z</time>
      </trkpt>
      <trkpt lat="44.7556" lon="2.51362">
        <ele>664.5</ele>
        <time>2021-11-11T09:15:55Z</time>
      </trkpt>
      <trkpt lat="44.75557" lon="2.5137">
        <ele>667.2</ele>
        <time>2021-11-11T09:16:01Z</time>
      </trkpt>
      <trkpt lat="44.75554" lon="2.51382">
        <ele>651.4</ele>
        <time>2021-11-11T09:16:06Z</time>
      </trkpt>
      <trkpt lat="44.7555" lon="2.51391">
        <ele>656.1</ele>
        <time>2021-11-11T09:16:12Z</time>
      </trkpt>
      <trkpt lat="44.75547" lon="2.51399">
        <ele>668.8</ele>
        <time>2021-11-11T09:16:17Z</time>
      </trkpt>
      <trkpt lat="44.75544" lon="2.5141">
        <ele>650.4</ele>
        <time>2021-11-11T09:16:23Z</time>
      </trkpt>
      <trkpt lat="44.7554" lon="2.51419">
        <ele>666.8</ele>
        <time>2021-11-11T09:16:28Z</time>
      </trkpt>
      <trkpt lat="44.75538" lon="2.51429">
        <ele>649.1</ele>
        <time>2021-11-11T09:16:33Z</time>
      </trkpt>
      <trkpt lat="44.75537" lon="2.51439">
        <ele>637.6</ele>
        <time>2021-11-11T09:16:39Z</time>
      </trkpt>
      <trkpt lat="44.75539" lon="2.5145">
        <ele>659.1</ele>
        <time>2021-11-11T09:16:44Z</time>
      </trkpt>
      <trkpt lat="44.7554" lon="2.51458">
        <ele>671.3</ele>
        <time>2021-11-11T09:16:50Z</time>
      </trkpt>
      <trkpt lat="44.75543" lon="2.51468">
        <ele>662.2</ele>
        <time>2021-11-11T09:16:55Z</time>
      </trkpt>
      <trkpt lat="44.75547" lon="2.51477">
        <ele>653.8</ele>
        <time>2021-11-11T09:17:00Z</time>
      </trkpt>
      <trkpt lat="44.75553" lon="2.51486">
        <ele>639.4</ele>
        <time>2021-11-11T09:17:06Z</time>
      </trkpt>
      <trkpt lat="44.75557" lon="2.51496">
        <ele>661.9</ele>
        <time>2021-11-11T09:17:11Z</time>
      </trkpt>
      <trkpt lat="44.7556" lon="2.51506">
        <ele>654.7</ele>
        <time>2021-11-11T09:17:16Z</time>
      </trkpt>
      <trkpt lat="44.75562" lon="2.51514">
        <ele>650.9</ele>
        <time>2021-11-11T09:17:21Z</time>
      </trkpt>
      <trkpt lat="44.75565" lon="2.51525">
        <ele>647</ele>
        <time>2021-11-11T09:17:26Z</time>
      </trkpt>
      <trkpt lat="44.75566" lon="2.51535">
        <ele>650.6</ele>
        <time>2021-11-11T09:17:32Z</time>
      </trkpt>
      <trkpt lat="44.75566" lon="2.51544">
        <ele>648</ele>
        <time>2021-11-11T09:17:37Z</time>
      </trkpt>
      <trkpt lat="44.75565" lon="2.51551">
        <ele>644.2</ele>
        <time>2021-11-11T09:17:42Z</time>
      </trkpt>
      <trkpt lat="44.75563" lon="2.51557">
        <ele>662.2</ele>
        <time>2021-11-11T09:17:47Z</time>
      </trkpt>
      <trkpt lat="44.75559" lon="2.51567">
        <ele>661</ele>
        <time>2021-11-11T09:17:52Z</time>
      </trkpt>
      <trkpt lat="44.75557" lon="2.51575">
        <ele>648.9</ele>
        <time>2021-11-11T09:17:58Z</time>
      </trkpt>
      <trkpt lat="44.75554" lon="2.51583">
        <ele>656</ele>
        <time>2021-11-11T09:18:03Z</time>
      </trkpt>
      <trkpt lat="44.75555" lon="2.51593">
        <ele>655.2</ele>
        <time>2021-11-11T09:18:08Z</time>
      </trkpt>
      <trkpt lat="44.75554" lon="2.51603">
        <ele>647.9</ele>
        <time>2021-11-11T09:18:13Z</time>
      </trkpt>
      <trkpt lat="44.75553" lon="2.51614">
        <ele>648.3</ele>
        <time>2021-11-11T09:18:19Z</time>
      </trkpt>
      <trkpt lat="44.75552" lon="2.51625">
        <ele>665.3</ele>
        <time>2021-11-11T09:18:24Z</time>
      </trkpt>
      <trkpt lat="44.75549" lon="2.51635">
        <ele>654.3</ele>
        <time>2021-11-11T09:18:29Z</time>
      </trkpt>
      <trkpt lat="44.75548" lon="2.51645">
        <ele>635.2</ele>
        <time>2021-11-11T09:18:35Z</time>
      </trkpt>
      <trkpt lat="44.75547" lon="2.51656">
        <ele>653.5</ele>
        <time>2021-11-11T09:18:40Z</time>
      </trkpt>
      <trkpt lat="44.75546" lon="2.51665">
        <ele>644.3</ele>
        <time>2021-11-11T09:18:45Z</time>
      </trkpt>
      <trkpt lat="44.75544" lon="2.51675">
        <ele>657.9</ele>
        <time>2021-11-11T09:18:51Z</time>
      </trkpt>
      <trkpt lat="44.75543" lon="2.51689">
        <ele>643.8</ele>
        <time>2021-11-11T09:18:57Z</time>
      </trkpt>
      <trkpt lat="44.75543" lon="2.51699">
        <ele>644.5</ele>
        <time>2021-11-11T09:19:02Z</time>
      </trkpt>
      <trkpt lat="44.75543" lon="2.51711">
        <ele>652.3</ele>
        <time>2021-11-11T09:19:08Z</time>
      </trkpt>
      <trkpt lat="44.75543" lon="2.51722">
        <ele>672</ele>
        <time>2021-11-11T09:19:13Z</time>
      </trkpt>
      <trkpt lat="44.75542" lon="2.51732">
        <ele>641.1</ele>
        <time>2021-11-11T09:19:19Z</time>
      </trkpt>
      <trkpt lat="44.75541" lon="2.51741">
        <ele>639.6</ele>
        <time>2021-11-11T09:19:24Z</time>
      </trkpt>
      <trkpt lat="44.75539" lon="2.5175">
        <ele>641.7</ele>
        <time>2021-11-11T09:19:29Z</time>
      </trkpt>
      <trkpt lat="44.75537" lon="2.51758">
        <ele>663.7</ele>
        <time>2021-11-11T09:19:34Z</time>
      </trkpt>
      <trkpt lat="44.75534" lon="2.51768">
        <ele>663.7</ele>
        <time>2021-11-11T09:19:40Z</time>
      </trkpt>
      <trkpt lat="44.75535" lon="2.51778">
        <ele>663.7</ele>
        <time>2021-11-11T09:19:45Z</time>
      </trkpt>
      <trkpt lat="44.75537" lon="2.51787">
        <ele>663.7</ele>
        <time>2021-11-11T09:19:50Z</time>
      </trkpt>
      <trkpt lat="44.75538" lon="2.51796">
        <ele>663.7</ele>
        <time>2021-11-11T09:19:55Z</time>
      </trkpt>
      <trkpt lat="44.75537" lon="2.51802">
        <ele>663.6</ele>
        <time>2021-11-11T09:20:01Z</time>
      </trkpt>
      <trkpt lat="44.75539" lon="2.51811">
        <ele>663.6</ele>
        <time>2021-11-11T09:20:07Z</time>
      </trkpt>
      <trkpt lat="44.75542" lon="2.5182">
        <ele>663.7</ele>
        <time>2021-11-11T09:20:12Z</time>
      </trkpt>
      <trkpt lat="44.75546" lon="2.51831">
        <ele>663.9</ele>
        <time>2021-11-11T09:20:18Z</time>
      </trkpt>
      <trkpt lat="44.7555" lon="2.51837">
        <ele>664</ele>
        <time>2021-11-11T09:20:23Z</time>
      </trkpt>
      <trkpt lat="44.75557" lon="2.51839">
        <ele>664</ele>
        <time>2021-11-11T09:20:29Z</time>
      </trkpt>
      <trkpt lat="44.75564" lon="2.5184">
        <ele>664</ele>
        <time>2021-11-11T09:20:34Z</time>
      </trkpt>
      <trkpt lat="44.7557" lon="2.51843">
        <ele>664.1</ele>
        <time>2021-11-11T09:20:39Z</time>
      </trkpt>
      <trkpt lat="44.75576" lon="2.51847">
        <ele>664.2</ele>
        <time>2021-11-11T09:20:44Z</time>
      </trkpt>
      <trkpt lat="44.75579" lon="2.51853">
        <ele>664.1</ele>
        <time>2021-11-11T09:20:49Z</time>
      </trkpt>
      <trkpt lat="44.75584" lon="2.51856">
        <ele>664.1</ele>
        <time>2021-11-11T09:20:54Z</time>
      </trkpt>
      <trkpt lat="44.75589" lon="2.51856">
        <ele>664.1</ele>
        <time>2021-11-11T09:21:00Z</time>
      </trkpt>
      <trkpt lat="44.75594" lon="2.51855">
        <ele>664</ele>
        <time>2021-11-11T09:21:05Z</time>
      </trkpt>
      <trkpt lat="44.756" lon="2.51851">
        <ele>664.1</ele>
        <time>2021-11-11T09:21:11Z</time>
      </trkpt>
      <trkpt lat="44.75606" lon="2.5185">
        <ele>664</ele>
        <time>2021-11-11T09:21:16Z</time>
      </trkpt>
      <trkpt lat="44.75612" lon="2.51853">
        <ele>659.5</ele>
        <time>2021-11-11T09:21:21Z</time>
      </trkpt>
      <trkpt lat="44.75618" lon="2.51858">
        <ele>630.3</ele>
        <time>2021-11-11T09:21:27Z</time>
      </trkpt>
      <trkpt lat="44.75625" lon="2.51863">
        <ele>630.3</ele>
        <time>2021-11-11T09:21:32Z</time>
      </trkpt>
      <trkpt lat="44.75631" lon="2.51868">
        <ele>645.4</ele>
        <time>2021-11-11T09:21:37Z</time>
      </trkpt>
      <trkpt lat="44.75636" lon="2.51873">
        <ele>664.6</ele>
        <time>2021-11-11T09:21:42Z</time>
      </trkpt>
      <trkpt lat="44.75642" lon="2.51876">
        <ele>643.6</ele>
        <time>2021-11-11T09:21:48Z</time>
      </trkpt>
      <trkpt lat="44.75648" lon="2.51876">
        <ele>646.3</ele>
        <time>2021-11-11T09:21:53Z</time>
      </trkpt>
      <trkpt lat="44.75653" lon="2.51876">
        <ele>647.4</ele>
        <time>2021-11-11T09:21:58Z</time>
      </trkpt>
      <trkpt lat="44.75656" lon="2.51877">
        <ele>655</ele>
        <time>2021-11-11T09:22:04Z</time>
      </trkpt>
      <trkpt lat="44.75661" lon="2.51877">
        <ele>643.4</ele>
        <time>2021-11-11T09:22:09Z</time>
      </trkpt>
      <trkpt lat="44.75666" lon="2.51877">
        <ele>642.7</ele>
        <time>2021-11-11T09:22:14Z</time>
      </trkpt>
      <trkpt lat="44.75671" lon="2.51877">
        <ele>669.7</ele>
        <time>2021-11-11T09:22:19Z</time>
      </trkpt>
      <trkpt lat="44.75676" lon="2.51876">
        <ele>651.5</ele>
        <time>2021-11-11T09:22:25Z</time>
      </trkpt>
      <trkpt lat="44.75679" lon="2.51875">
        <ele>643.1</ele>
        <time>2021-11-11T09:22:30Z</time>
      </trkpt>
      <trkpt lat="44.75686" lon="2.51873">
        <ele>648.3</ele>
        <time>2021-11-11T09:22:36Z</time>
      </trkpt>
      <trkpt lat="44.75693" lon="2.51873">
        <ele>653.1</ele>
        <time>2021-11-11T09:22:41Z</time>
      </trkpt>
      <trkpt lat="44.757" lon="2.51872">
        <ele>650.7</ele>
        <time>2021-11-11T09:22:46Z</time>
      </trkpt>
      <trkpt lat="44.75705" lon="2.5187">
        <ele>631.5</ele>
        <time>2021-11-11T09:22:52Z</time>
      </trkpt>
      <trkpt lat="44.7571" lon="2.51869">
        <ele>645.4</ele>
        <time>2021-11-11T09:22:57Z</time>
      </trkpt>
      <trkpt lat="44.75717" lon="2.51866">
        <ele>636.4</ele>
        <time>2021-11-11T09:23:02Z</time>
      </trkpt>
      <trkpt lat="44.75722" lon="2.51865">
        <ele>630.8</ele>
        <time>2021-11-11T09:23:08Z</time>
      </trkpt>
      <trkpt lat="44.7573" lon="2.51864">
        <ele>655.7</ele>
        <time>2021-11-11T09:23:13Z</time>
      </trkpt>
      <trkpt lat="44.75737" lon="2.51862">
        <ele>641.7</ele>
        <time>2021-11-11T09:23:18Z</time>
      </trkpt>
      <trkpt lat="44.75742" lon="2.51859">
        <ele>635.6</ele>
        <time>2021-11-11T09:23:23Z</time>
      </trkpt>
      <trkpt lat="44.75749" lon="2.51857">
        <ele>646.4</ele>
        <time>2021-11-11T09:23:28Z</time>
      </trkpt>
      <trkpt lat="44.75755" lon="2.51855">
        <ele>639.6</ele>
        <time>2021-11-11T09:23:33Z</time>
      </trkpt>
      <trkpt lat="44.75761" lon="2.51854">
        <ele>637.7</ele>
        <time>2021-11-11T09:23:38Z</time>
      </trkpt>
      <trkpt lat="44.75767" lon="2.51851">
        <ele>629.7</ele>
        <time>2021-11-11T09:23:44Z</time>
      </trkpt>
      <trkpt lat="44.75773" lon="2.5185">
        <ele>632.2</ele>
        <time>2021-11-11T09:23:49Z</time>
      </trkpt>
      <trkpt lat="44.7578" lon="2.51849">
        <ele>637.5</ele>
        <time>2021-11-11T09:23:54Z</time>
      </trkpt>
      <trkpt lat="44.75788" lon="2.51847">
        <ele>637.1</ele>
        <time>2021-11-11T09:24:00Z</time>
      </trkpt>
      <trkpt lat="44.75794" lon="2.51845">
        <ele>648.9</ele>
        <time>2021-11-11T09:24:05Z</time>
      </trkpt>
      <trkpt lat="44.758" lon="2.51843">
        <ele>648.3</ele>
        <time>2021-11-11T09:24:11Z</time>
      </trkpt>
      <trkpt lat="44.75806" lon="2.51841">
        <ele>616.6</ele>
        <time>2021-11-11T09:24:16Z</time>
      </trkpt>
      <trkpt lat="44.75809" lon="2.51838">
        <ele>632.4</ele>
        <time>2021-11-11T09:24:22Z</time>
      </trkpt>
      <trkpt lat="44.75813" lon="2.51831">
        <ele>621</ele>
        <time>2021-11-11T09:24:27Z</time>
      </trkpt>
      <trkpt lat="44.75819" lon="2.51826">
        <ele>642.6</ele>
        <time>2021-11-11T09:24:32Z</time>
      </trkpt>
      <trkpt lat="44.75824" lon="2.5182">
        <ele>612.8</ele>
        <time>2021-11-11T09:24:38Z</time>
      </trkpt>
      <trkpt lat="44.75829" lon="2.51815">
        <ele>649.6</ele>
        <time>2021-11-11T09:24:43Z</time>
      </trkpt>
      <trkpt lat="44.75831" lon="2.51812">
        <ele>651.5</ele>
        <time>2021-11-11T09:24:49Z</time>
      </trkpt>
      <trkpt lat="44.75833" lon="2.51811">
        <ele>632.7</ele>
        <time>2021-11-11T09:24:54Z</time>
      </trkpt>
      <trkpt lat="44.75839" lon="2.51808">
        <ele>642.6</ele>
        <time>2021-11-11T09:24:59Z</time>
      </trkpt>
      <trkpt lat="44.75843" lon="2.51808">
        <ele>611.6</ele>
        <time>2021-11-11T09:25:05Z</time>
      </trkpt>
      <trkpt lat="44.7585" lon="2.51806">
        <ele>619</ele>
        <time>2021-11-11T09:25:10Z</time>
      </trkpt>
      <trkpt lat="44.75857" lon="2.51804">
        <ele>638.1</ele>
        <time>2021-11-11T09:25:15Z</time>
      </trkpt>
      <trkpt lat="44.75863" lon="2.51802">
        <ele>630.2</ele>
        <time>2021-11-11T09:25:20Z</time>
      </trkpt>
      <trkpt lat="44.75869" lon="2.518">
        <ele>630.1</ele>
        <time>2021-11-11T09:25:26Z</time>
      </trkpt>
      <trkpt lat="44.75875" lon="2.518">
        <ele>634.2</ele>
        <time>2021-11-11T09:25:31Z</time>
      </trkpt>
      <trkpt lat="44.7588" lon="2.518">
        <ele>623.8</ele>
        <time>2021-11-11T09:25:36Z</time>
      </trkpt>
      <trkpt lat="44.75885" lon="2.51799">
        <ele>636.9</ele>
        <time>2021-11-11T09:25:41Z</time>
      </trkpt>
      <trkpt lat="44.75891" lon="2.51798">
        <ele>618.7</ele>
        <time>2021-11-11T09:25:46Z</time>
      </trkpt>
      <trkpt lat="44.75894" lon="2.51802">
        <ele>607.2</ele>
        <time>2021-11-11T09:25:52Z</time>
      </trkpt>
      <trkpt lat="44.75893" lon="2.51807">
        <ele>634.7</ele>
        <time>2021-11-11T09:25:57Z</time>
      </trkpt>
      <trkpt lat="44.7589" lon="2.51814">
        <ele>638.6</ele>
        <time>2021-11-11T09:26:03Z</time>
      </trkpt>
      <trkpt lat="44.7589" lon="2.5182">
        <ele>617.6</ele>
        <time>2021-11-11T09:26:08Z</time>
      </trkpt>
      <trkpt lat="44.75887" lon="2.51824">
        <ele>640.7</ele>
        <time>2021-11-11T09:26:13Z</time>
      </trkpt>
      <trkpt lat="44.75885" lon="2.5183">
        <ele>599.9</ele>
        <time>2021-11-11T09:26:18Z</time>
      </trkpt>
      <trkpt lat="44.75883" lon="2.51835">
        <ele>628.6</ele>
        <time>2021-11-11T09:26:23Z</time>
      </trkpt>
      <trkpt lat="44.7588" lon="2.5184">
        <ele>610.5</ele>
        <time>2021-11-11T09:26:28Z</time>
      </trkpt>
      <trkpt lat="44.75875" lon="2.5184">
        <ele>626.8</ele>
        <time>2021-11-11T09:26:34Z</time>
      </trkpt>
      <trkpt lat="44.75873" lon="2.51839">
        <ele>609.4</ele>
        <time>2021-11-11T09:26:39Z</time>
      </trkpt>
      <trkpt lat="44.7587" lon="2.51838">
        <ele>619.9</ele>
        <time>2021-11-11T09:26:44Z</time>
      </trkpt>
      <trkpt lat="44.75868" lon="2.5184">
        <ele>617.4</ele>
        <time>2021-11-11T09:26:50Z</time>
      </trkpt>
      <trkpt lat="44.75866" lon="2.51843">
        <ele>628.4</ele>
        <time>2021-11-11T09:26:55Z</time>
      </trkpt>
      <trkpt lat="44.75864" lon="2.51851">
        <ele>631.1</ele>
        <time>2021-11-11T09:27:00Z</time>
      </trkpt>
      <trkpt lat="44.75861" lon="2.51861">
        <ele>600.9</ele>
        <time>2021-11-11T09:27:05Z</time>
      </trkpt>
      <trkpt lat="44.75856" lon="2.51869">
        <ele>606.8</ele>
        <time>2021-11-11T09:27:11Z</time>
      </trkpt>
      <trkpt lat="44.75851" lon="2.51877">
        <ele>610.3</ele>
        <time>2021-11-11T09:27:16Z</time>
      </trkpt>
      <trkpt lat="44.75849" lon="2.51885">
        <ele>614</ele>
        <time>2021-11-11T09:27:22Z</time>
      </trkpt>
      <trkpt lat="44.75845" lon="2.5189">
        <ele>609.2</ele>
        <time>2021-11-11T09:27:27Z</time>
      </trkpt>
      <trkpt lat="44.75841" lon="2.51895">
        <ele>615.4</ele>
        <time>2021-11-11T09:27:32Z</time>
      </trkpt>
      <trkpt lat="44.75837" lon="2.51897">
        <ele>623.7</ele>
        <time>2021-11-11T09:27:38Z</time>
      </trkpt>
      <trkpt lat="44.75833" lon="2.519">
        <ele>584.3</ele>
        <time>2021-11-11T09:27:44Z</time>
      </trkpt>
      <trkpt lat="44.75827" lon="2.51905">
        <ele>608.7</ele>
        <time>2021-11-11T09:27:49Z</time>
      </trkpt>
      <trkpt lat="44.75821" lon="2.51909">
        <ele>614.9</ele>
        <time>2021-11-11T09:27:54Z</time>
      </trkpt>
      <trkpt lat="44.75816" lon="2.51914">
        <ele>604</ele>
        <time>2021-11-11T09:28:00Z</time>
      </trkpt>
      <trkpt lat="44.75811" lon="2.51919">
        <ele>587.8</ele>
        <time>2021-11-11T09:28:05Z</time>
      </trkpt>
      <trkpt lat="44.75806" lon="2.51925">
        <ele>594.9</ele>
        <time>2021-11-11T09:28:11Z</time>
      </trkpt>
      <trkpt lat="44.758" lon="2.51929">
        <ele>595.8</ele>
        <time>2021-11-11T09:28:16Z</time>
      </trkpt>
      <trkpt lat="44.75795" lon="2.51933">
        <ele>606.6</ele>
        <time>2021-11-11T09:28:22Z</time>
      </trkpt>
      <trkpt lat="44.75792" lon="2.51937">
        <ele>586.8</ele>
        <time>2021-11-11T09:28:27Z</time>
      </trkpt>
      <trkpt lat="44.7579" lon="2.51939">
        <ele>596.3</ele>
        <time>2021-11-11T09:28:33Z</time>
      </trkpt>
      <trkpt lat="44.75785" lon="2.51945">
        <ele>588.3</ele>
        <time>2021-11-11T09:28:38Z</time>
      </trkpt>
      <trkpt lat="44.7578" lon="2.5195">
        <ele>578.4</ele>
        <time>2021-11-11T09:28:44Z</time>
      </trkpt>
      <trkpt lat="44.75774" lon="2.51953">
        <ele>597.3</ele>
        <time>2021-11-11T09:28:49Z</time>
      </trkpt>
      <trkpt lat="44.75769" lon="2.51956">
        <ele>611.1</ele>
        <time>2021-11-11T09:28:55Z</time>
      </trkpt>
      <trkpt lat="44.75765" lon="2.51958">
        <ele>592.6</ele>
        <time>2021-11-11T09:29:00Z</time>
      </trkpt>
      <trkpt lat="44.75762" lon="2.51965">
        <ele>621.2</ele>
        <time>2021-11-11T09:29:06Z</time>
      </trkpt>
      <trkpt lat="44.75768" lon="2.51964">
        <ele>583.9</ele>
        <time>2021-11-11T09:29:11Z</time>
      </trkpt>
      <trkpt lat="44.75772" lon="2.51961">
        <ele>605.2</ele>
        <time>2021-11-11T09:29:17Z</time>
      </trkpt>
      <trkpt lat="44.75776" lon="2.51955">
        <ele>576</ele>
        <time>2021-11-11T09:29:22Z</time>
      </trkpt>
      <trkpt lat="44.75782" lon="2.51952">
        <ele>575.3</ele>
        <time>2021-11-11T09:29:27Z</time>
      </trkpt>
      <trkpt lat="44.75787" lon="2.51958">
        <ele>572.7</ele>
        <time>2021-11-11T09:29:33Z</time>
      </trkpt>
      <trkpt lat="44.75792" lon="2.51965">
        <ele>584.9</ele>
        <time>2021-11-11T09:29:38Z</time>
      </trkpt>
      <trkpt lat="44.75794" lon="2.51972">
        <ele>590.9</ele>
        <time>2021-11-11T09:29:43Z</time>
      </trkpt>
      <trkpt lat="44.75793" lon="2.51981">
        <ele>566.1</ele>
        <time>2021-11-11T09:29:49Z</time>
      </trkpt>
      <trkpt lat="44.75792" lon="2.51988">
        <ele>576.2</ele>
        <time>2021-11-11T09:29:54Z</time>
      </trkpt>
      <trkpt lat="44.75788" lon="2.51993">
        <ele>595.2</ele>
        <time>2021-11-11T09:29:59Z</time>
      </trkpt>
      <trkpt lat="44.75784" lon="2.51999">
        <ele>582.9</ele>
        <time>2021-11-11T09:30:05Z</time>
      </trkpt>
      <trkpt lat="44.7578" lon="2.52005">
        <ele>563.8</ele>
        <time>2021-11-11T09:30:10Z</time>
      </trkpt>
      <trkpt lat="44.75776" lon="2.52011">
        <ele>597.5</ele>
        <time>2021-11-11T09:30:16Z</time>
      </trkpt>
      <trkpt lat="44.7577" lon="2.52014">
        <ele>575.2</ele>
        <time>2021-11-11T09:30:21Z</time>
      </trkpt>
      <trkpt lat="44.75766" lon="2.52016">
        <ele>576.9</ele>
        <time>2021-11-11T09:30:26Z</time>
      </trkpt>
      <trkpt lat="44.7576" lon="2.52019">
        <ele>578.5</ele>
        <time>2021-11-11T09:30:32Z</time>
      </trkpt>
      <trkpt lat="44.75757" lon="2.52024">
        <ele>598.7</ele>
        <time>2021-11-11T09:30:37Z</time>
      </trkpt>
      <trkpt lat="44.75753" lon="2.52029">
        <ele>581.3</ele>
        <time>2021-11-11T09:30:42Z</time>
      </trkpt>
      <trkpt lat="44.75749" lon="2.52034">
        <ele>601.7</ele>
        <time>2021-11-11T09:30:48Z</time>
      </trkpt>
      <trkpt lat="44.75745" lon="2.52037">
        <ele>598.3</ele>
        <time>2021-11-11T09:30:53Z</time>
      </trkpt>
      <trkpt lat="44.75743" lon="2.52041">
        <ele>571.3</ele>
        <time>2021-11-11T09:30:59Z</time>
      </trkpt>
      <trkpt lat="44.7574" lon="2.52045">
        <ele>594.4</ele>
        <time>2021-11-11T09:31:04Z</time>
      </trkpt>
      <trkpt lat="44.75737" lon="2.52046">
        <ele>575.3</ele>
        <time>2021-11-11T09:31:09Z</time>
      </trkpt>
      <trkpt lat="44.75737" lon="2.52046">
        <ele>595.3</ele>
        <time>2021-11-11T09:31:15Z</time>
      </trkpt>
      <trkpt lat="44.75732" lon="2.52048">
        <ele>599.5</ele>
        <time>2021-11-11T09:31:20Z</time>
      </trkpt>
      <trkpt lat="44.75726" lon="2.52053">
        <ele>598.3</ele>
        <time>2021-11-11T09:31:25Z</time>
      </trkpt>
      <trkpt lat="44.75721" lon="2.52058">
        <ele>597.9</ele>
        <time>2021-11-11T09:31:30Z</time>
      </trkpt>
      <trkpt lat="44.75717" lon="2.5206">
        <ele>588.2</ele>
        <time>2021-11-11T09:31:36Z</time>
      </trkpt>
      <trkpt lat="44.75712" lon="2.52062">
        <ele>582.4</ele>
        <time>2021-11-11T09:31:41Z</time>
      </trkpt>
      <trkpt lat="44.75709" lon="2.52059">
        <ele>578.1</ele>
        <time>2021-11-11T09:31:47Z</time>
      </trkpt>
      <trkpt lat="44.75707" lon="2.5206">
        <ele>591.7</ele>
        <time>2021-11-11T09:31:52Z</time>
      </trkpt>
      <trkpt lat="44.75705" lon="2.52058">
        <ele>579.9</ele>
        <time>2021-11-11T09:31:58Z</time>
      </trkpt>
      <trkpt lat="44.75703" lon="2.52055">
        <ele>586.2</ele>
        <time>2021-11-11T09:32:03Z</time>
      </trkpt>
      <trkpt lat="44.75701" lon="2.52053">
        <ele>584</ele>
        <time>2021-11-11T09:32:09Z</time>
      </trkpt>
      <trkpt lat="44.75696" lon="2.52053">
        <ele>573.4</ele>
        <time>2021-11-11T09:32:14Z</time>
      </trkpt>
      <trkpt lat="44.75691" lon="2.52057">
        <ele>575.4</ele>
        <time>2021-11-11T09:32:20Z</time>
      </trkpt>
      <trkpt lat="44.75688" lon="2.52064">
        <ele>577.6</ele>
        <time>2021-11-11T09:32:25Z</time>
      </trkpt>
      <trkpt lat="44.75686" lon="2.52069">
        <ele>601.2</ele>
        <time>2021-11-11T09:32:31Z</time>
      </trkpt>
      <trkpt lat="44.75684" lon="2.52067">
        <ele>586.1</ele>
        <time>2021-11-11T09:32:37Z</time>
      </trkpt>
      <trkpt lat="44.75682" lon="2.52065">
        <ele>571.1</ele>
        <time>2021-11-11T09:32:42Z</time>
      </trkpt>
      <trkpt lat="44.75679" lon="2.52071">
        <ele>588.6</ele>
        <time>2021-11-11T09:32:48Z</time>
      </trkpt>
      <trkpt lat="44.75676" lon="2.52077">
        <ele>570.4</ele>
        <time>2021-11-11T09:32:53Z</time>
      </trkpt>
      <trkpt lat="44.75677" lon="2.52079">
        <ele>582.1</ele>
        <time>2021-11-11T09:32:59Z</time>
      </trkpt>
      <trkpt lat="44.75678" lon="2.52081">
        <ele>576</ele>
        <time>2021-11-11T09:33:04Z</time>
      </trkpt>
      <trkpt lat="44.75686" lon="2.52081">
        <ele>589.1</ele>
        <time>2021-11-11T09:33:10Z</time>
      </trkpt>
      <trkpt lat="44.75695" lon="2.52081">
        <ele>568.1</ele>
        <time>2021-11-11T09:33:15Z</time>
      </trkpt>
      <trkpt lat="44.75699" lon="2.52083">
        <ele>573.9</ele>
        <time>2021-11-11T09:33:20Z</time>
      </trkpt>
      <trkpt lat="44.75699" lon="2.52087">
        <ele>582.6</ele>
        <time>2021-11-11T09:33:25Z</time>
      </trkpt>
      <trkpt lat="44.75699" lon="2.52093">
        <ele>570.8</ele>
        <time>2021-11-11T09:33:31Z</time>
      </trkpt>
      <trkpt lat="44.75702" lon="2.52097">
        <ele>567.3</ele>
        <time>2021-11-11T09:33:36Z</time>
      </trkpt>
      <trkpt lat="44.757" lon="2.52097">
        <ele>579.1</ele>
        <time>2021-11-11T09:33:42Z</time>
      </trkpt>
      <trkpt lat="44.75698" lon="2.52096">
        <ele>593.1</ele>
        <time>2021-11-11T09:33:47Z</time>
      </trkpt>
      <trkpt lat="44.75699" lon="2.52099">
        <ele>580.6</ele>
        <time>2021-11-11T09:33:52Z</time>
      </trkpt>
      <trkpt lat="44.757" lon="2.521">
        <ele>582.7</ele>
        <time>2021-11-11T09:33:58Z</time>
      </trkpt>
      <trkpt lat="44.75698" lon="2.52101">
        <ele>577.4</ele>
        <time>2021-11-11T09:34:03Z</time>
      </trkpt>
      <trkpt lat="44.75697" lon="2.52101">
        <ele>574.6</ele>
        <time>2021-11-11T09:34:09Z</time>
      </trkpt>
      <trkpt lat="44.75696" lon="2.52102">
        <ele>582.6</ele>
        <time>2021-11-11T09:34:14Z</time>
      </trkpt>
      <trkpt lat="44.75696" lon="2.52103">
        <ele>577.5</ele>
        <time>2021-11-11T09:34:19Z</time>
      </trkpt>
      <trkpt lat="44.75696" lon="2.52103">
        <ele>579.2</ele>
        <time>2021-11-11T09:34:24Z</time>
      </trkpt>
      <trkpt lat="44.75694" lon="2.52102">
        <ele>577.4</ele>
        <time>2021-11-11T09:34:30Z</time>
      </trkpt>
      <trkpt lat="44.75693" lon="2.52101">
        <ele>591.4</ele>
        <time>2021-11-11T09:34:36Z</time>
      </trkpt>
      <trkpt lat="44.75691" lon="2.52101">
        <ele>580.9</ele>
        <time>2021-11-11T09:34:41Z</time>
      </trkpt>
      <trkpt lat="44.75689" lon="2.52104">
        <ele>559.3</ele>
        <time>2021-11-11T09:34:47Z</time>
      </trkpt>
      <trkpt lat="44.75688" lon="2.52106">
        <ele>577</ele>
        <time>2021-11-11T09:34:52Z</time>
      </trkpt>
      <trkpt lat="44.75688" lon="2.52107">
        <ele>570.5</ele>
        <time>2021-11-11T09:34:57Z</time>
      </trkpt>
      <trkpt lat="44.75687" lon="2.52107">
        <ele>572.6</ele>
        <time>2021-11-11T09:35:03Z</time>
      </trkpt>
      <trkpt lat="44.75687" lon="2.52107">
        <ele>567.1</ele>
        <time>2021-11-11T09:35:08Z</time>
      </trkpt>
      <trkpt lat="44.75688" lon="2.52105">
        <ele>565.7</ele>
        <time>2021-11-11T09:35:14Z</time>
      </trkpt>
      <trkpt lat="44.75691" lon="2.52102">
        <ele>568.8</ele>
        <time>2021-11-11T09:35:19Z</time>
      </trkpt>
      <trkpt lat="44.75691" lon="2.52102">
        <ele>584.3</ele>
        <time>2021-11-11T09:35:25Z</time>
      </trkpt>
      <trkpt lat="44.75691" lon="2.52102">
        <ele>578.8</ele>
        <time>2021-11-11T09:35:31Z</time>
      </trkpt>
      <trkpt lat="44.75691" lon="2.52102">
        <ele>560.9</ele>
        <time>2021-11-11T09:35:36Z</time>
      </trkpt>
      <trkpt lat="44.75691" lon="2.52102">
        <ele>565.1</ele>
        <time>2021-11-11T09:35:42Z</time>
      </trkpt>
      <trkpt lat="44.75691" lon="2.52102">
        <ele>561.7</ele>
        <time>2021-11-11T09:35:48Z</time>
      </trkpt>
      <trkpt lat="44.75691" lon="2.52102">
        <ele>563.1</ele>
        <time>2021-11-11T09:35:54Z</time>
      </trkpt>
      <trkpt lat="44.75691" lon="2.52102">
        <ele>567.4</ele>
        <time>2021-11-11T09:35:59Z</time>
      </trkpt>
      <trkpt lat="44.7569" lon="2.52101">
        <ele>556.3</ele>
        <time>2021-11-11T09:36:05Z</time>
      </trkpt>
      <trkpt lat="44.75691" lon="2.52103">
        <ele>564.9</ele>
        <time>2021-11-11T09:36:10Z</time>
      </trkpt>
      <trkpt lat="44.7569" lon="2.52105">
        <ele>558.4</ele>
        <time>2021-11-11T09:36:15Z</time>
      </trkpt>
      <trkpt lat="44.75689" lon="2.52106">
        <ele>574.7</ele>
        <time>2021-11-11T09:36:21Z</time>
      </trkpt>
      <trkpt lat="44.75689" lon="2.52107">
        <ele>562.8</ele>
        <time>2021-11-11T09:36:27Z</time>
      </trkpt>
      <trkpt lat="44.75689" lon="2.52107">
        <ele>555.8</ele>
        <time>2021-11-11T09:36:33Z</time>
      </trkpt>
      <trkpt lat="44.75689" lon="2.52106">
        <ele>572.4</ele>
        <time>2021-11-11T09:36:38Z</time>
      </trkpt>
      <trkpt lat="44.7569" lon="2.52106">
        <ele>563.8</ele>
        <time>2021-11-11T09:36:44Z</time>
      </trkpt>
      <trkpt lat="44.7569" lon="2.52106">
        <ele>589</ele>
        <time>2021-11-11T09:36:49Z</time>
      </trkpt>
      <trkpt lat="44.75689" lon="2.52106">
        <ele>566.9</ele>
        <time>2021-11-11T09:36:54Z</time>
      </trkpt>
      <trkpt lat="44.75689" lon="2.52106">
        <ele>562</ele>
        <time>2021-11-11T09:37:00Z</time>
      </trkpt>
      <trkpt lat="44.75688" lon="2.52106">
        <ele>559</ele>
        <time>2021-11-11T09:37:06Z</time>
      </trkpt>
      <trkpt lat="44.75687" lon="2.52105">
        <ele>551.6</ele>
        <time>2021-11-11T09:37:11Z</time>
      </trkpt>
      <trkpt lat="44.75688" lon="2.52104">
        <ele>575.8</ele>
        <time>2021-11-11T09:37:17Z</time>
      </trkpt>
      <trkpt lat="44.75687" lon="2.52104">
        <ele>570.7</ele>
        <time>2021-11-11T09:37:23Z</time>
      </trkpt>
      <trkpt lat="44.75686" lon="2.52104">
        <ele>552</ele>
        <time>2021-11-11T09:37:29Z</time>
      </trkpt>
      <trkpt lat="44.75688" lon="2.52101">
        <ele>577.7</ele>
        <time>2021-11-11T09:37:34Z</time>
      </trkpt>
      <trkpt lat="44.7569" lon="2.52099">
        <ele>569.9</ele>
        <time>2021-11-11T09:37:40Z</time>
      </trkpt>
      <trkpt lat="44.7569" lon="2.52098">
        <ele>562.9</ele>
        <time>2021-11-11T09:37:45Z</time>
      </trkpt>
      <trkpt lat="44.75691" lon="2.52097">
        <ele>565.4</ele>
        <time>2021-11-11T09:37:50Z</time>
      </trkpt>
      <trkpt lat="44.75693" lon="2.52096">
        <ele>556.6</ele>
        <time>2021-11-11T09:37:56Z</time>
      </trkpt>
      <trkpt lat="44.75694" lon="2.52096">
        <ele>545.3</ele>
        <time>2021-11-11T09:38:01Z</time>
      </trkpt>
      <trkpt lat="44.75694" lon="2.52096">
        <ele>581.6</ele>
        <time>2021-11-11T09:38:06Z</time>
      </trkpt>
      <trkpt lat="44.75695" lon="2.52095">
        <ele>561.8</ele>
        <time>2021-11-11T09:38:11Z</time>
      </trkpt>
      <trkpt lat="44.75695" lon="2.52095">
        <ele>580.6</ele>
        <time>2021-11-11T09:38:16Z</time>
      </trkpt>
      <trkpt lat="44.75696" lon="2.52095">
        <ele>567.9</ele>
        <time>2021-11-11T09:38:21Z</time>
      </trkpt>
      <trkpt lat="44.75698" lon="2.52093">
        <ele>581</ele>
        <time>2021-11-11T09:38:27Z</time>
      </trkpt>
      <trkpt lat="44.75699" lon="2.52093">
        <ele>573.1</ele>
        <time>2021-11-11T09:38:32Z</time>
      </trkpt>
      <trkpt lat="44.75701" lon="2.52092">
        <ele>580.2</ele>
        <time>2021-11-11T09:38:38Z</time>
      </trkpt>
      <trkpt lat="44.75705" lon="2.5209">
        <ele>557.9</ele>
        <time>2021-11-11T09:38:44Z</time>
      </trkpt>
      <trkpt lat="44.75705" lon="2.5209">
        <ele>594.6</ele>
        <time>2021-11-11T09:38:49Z</time>
      </trkpt>
      <trkpt lat="44.75703" lon="2.52089">
        <ele>569.4</ele>
        <time>2021-11-11T09:38:54Z</time>
      </trkpt>
      <trkpt lat="44.75698" lon="2.52088">
        <ele>575.2</ele>
        <time>2021-11-11T09:38:59Z</time>
      </trkpt>
      <trkpt lat="44.75698" lon="2.52088">
        <ele>587.5</ele>
        <time>2021-11-11T09:39:05Z</time>
      </trkpt>
      <trkpt lat="44.75692" lon="2.52086">
        <ele>582.6</ele>
        <time>2021-11-11T09:39:11Z</time>
      </trkpt>
      <trkpt lat="44.75687" lon="2.52083">
        <ele>588.4</ele>
        <time>2021-11-11T09:39:16Z</time>
      </trkpt>
      <trkpt lat="44.75681" lon="2.52085">
        <ele>590.5</ele>
        <time>2021-11-11T09:39:22Z</time>
      </trkpt>
      <trkpt lat="44.75677" lon="2.52083">
        <ele>579.2</ele>
        <time>2021-11-11T09:39:28Z</time>
      </trkpt>
      <trkpt lat="44.75677" lon="2.5208">
        <ele>588.5</ele>
        <time>2021-11-11T09:39:33Z</time>
      </trkpt>
      <trkpt lat="44.75678" lon="2.52077">
        <ele>593.1</ele>
        <time>2021-11-11T09:39:39Z</time>
      </trkpt>
      <trkpt lat="44.75679" lon="2.52073">
        <ele>581.9</ele>
        <time>2021-11-11T09:39:44Z</time>
      </trkpt>
      <trkpt lat="44.7568" lon="2.5207">
        <ele>594.6</ele>
        <time>2021-11-11T09:39:50Z</time>
      </trkpt>
      <trkpt lat="44.75682" lon="2.52067">
        <ele>591.3</ele>
        <time>2021-11-11T09:39:55Z</time>
      </trkpt>
      <trkpt lat="44.75683" lon="2.52065">
        <ele>586.9</ele>
        <time>2021-11-11T09:40:00Z</time>
      </trkpt>
      <trkpt lat="44.75683" lon="2.52064">
        <ele>576.6</ele>
        <time>2021-11-11T09:40:06Z</time>
      </trkpt>
      <trkpt lat="44.75683" lon="2.5206">
        <ele>586</ele>
        <time>2021-11-11T09:40:11Z</time>
      </trkpt>
      <trkpt lat="44.75686" lon="2.52057">
        <ele>596</ele>
        <time>2021-11-11T09:40:16Z</time>
      </trkpt>
      <trkpt lat="44.75692" lon="2.52053">
        <ele>589.5</ele>
        <time>2021-11-11T09:40:22Z</time>
      </trkpt>
      <trkpt lat="44.75696" lon="2.52048">
        <ele>586.2</ele>
        <time>2021-11-11T09:40:27Z</time>
      </trkpt>
      <trkpt lat="44.75697" lon="2.52048">
        <ele>592.3</ele>
        <time>2021-11-11T09:40:33Z</time>
      </trkpt>
      <trkpt lat="44.75699" lon="2.52049">
        <ele>601.6</ele>
        <time>2021-11-11T09:40:38Z</time>
      </trkpt>
      <trkpt lat="44.757" lon="2.5205">
        <ele>589.7</ele>
        <time>2021-11-11T09:40:44Z</time>
      </trkpt>
      <trkpt lat="44.75701" lon="2.52051">
        <ele>596.4</ele>
        <time>2021-11-11T09:40:49Z</time>
      </trkpt>
      <trkpt lat="44.75703" lon="2.52052">
        <ele>604.3</ele>
        <time>2021-11-11T09:40:54Z</time>
      </trkpt>
      <trkpt lat="44.75706" lon="2.52053">
        <ele>587.3</ele>
        <time>2021-11-11T09:40:59Z</time>
      </trkpt>
      <trkpt lat="44.75709" lon="2.52055">
        <ele>609.5</ele>
        <time>2021-11-11T09:41:04Z</time>
      </trkpt>
      <trkpt lat="44.75713" lon="2.52055">
        <ele>584.1</ele>
        <time>2021-11-11T09:41:10Z</time>
      </trkpt>
      <trkpt lat="44.75716" lon="2.52054">
        <ele>600.4</ele>
        <time>2021-11-11T09:41:15Z</time>
      </trkpt>
      <trkpt lat="44.75719" lon="2.52054">
        <ele>579.6</ele>
        <time>2021-11-11T09:41:21Z</time>
      </trkpt>
      <trkpt lat="44.7572" lon="2.52053">
        <ele>601.3</ele>
        <time>2021-11-11T09:41:27Z</time>
      </trkpt>
      <trkpt lat="44.75725" lon="2.52053">
        <ele>590.3</ele>
        <time>2021-11-11T09:41:33Z</time>
      </trkpt>
      <trkpt lat="44.75731" lon="2.5205">
        <ele>579.1</ele>
        <time>2021-11-11T09:41:38Z</time>
      </trkpt>
      <trkpt lat="44.75734" lon="2.52049">
        <ele>606.9</ele>
        <time>2021-11-11T09:41:44Z</time>
      </trkpt>
      <trkpt lat="44.75734" lon="2.5205">
        <ele>597.1</ele>
        <time>2021-11-11T09:41:49Z</time>
      </trkpt>
      <trkpt lat="44.75734" lon="2.52049">
        <ele>609</ele>
        <time>2021-11-11T09:41:54Z</time>
      </trkpt>
      <trkpt lat="44.75734" lon="2.52049">
        <ele>588.5</ele>
        <time>2021-11-11T09:42:00Z</time>
      </trkpt>
      <trkpt lat="44.75734" lon="2.52049">
        <ele>597.7</ele>
        <time>2021-11-11T09:42:05Z</time>
      </trkpt>
      <trkpt lat="44.75734" lon="2.52049">
        <ele>587.4</ele>
        <time>2021-11-11T09:42:11Z</time>
      </trkpt>
      <trkpt lat="44.75734" lon="2.52048">
        <ele>589.5</ele>
        <time>2021-11-11T09:42:16Z</time>
      </trkpt>
      <trkpt lat="44.75736" lon="2.52049">
        <ele>591.3</ele>
        <time>2021-11-11T09:42:21Z</time>
      </trkpt>
      <trkpt lat="44.75735" lon="2.52052">
        <ele>609.6</ele>
        <time>2021-11-11T09:42:26Z</time>
      </trkpt>
      <trkpt lat="44.75731" lon="2.52059">
        <ele>580.8</ele>
        <time>2021-11-11T09:42:31Z</time>
      </trkpt>
      <trkpt lat="44.7573" lon="2.52063">
        <ele>604.9</ele>
        <time>2021-11-11T09:42:36Z</time>
      </trkpt>
      <trkpt lat="44.75731" lon="2.52062">
        <ele>586.9</ele>
        <time>2021-11-11T09:42:42Z</time>
      </trkpt>
      <trkpt lat="44.75731" lon="2.52062">
        <ele>594.4</ele>
        <time>2021-11-11T09:42:47Z</time>
      </trkpt>
      <trkpt lat="44.7573" lon="2.52062">
        <ele>601.5</ele>
        <time>2021-11-11T09:42:53Z</time>
      </trkpt>
      <trkpt lat="44.7573" lon="2.52061">
        <ele>591.7</ele>
        <time>2021-11-11T09:42:58Z</time>
      </trkpt>
      <trkpt lat="44.7573" lon="2.52061">
        <ele>594.7</ele>
        <time>2021-11-11T09:43:04Z</time>
      </trkpt>
      <trkpt lat="44.7573" lon="2.52061">
        <ele>594.8</ele>
        <time>2021-11-11T09:43:09Z</time>
      </trkpt>
      <trkpt lat="44.7573" lon="2.52061">
        <ele>592.6</ele>
        <time>2021-11-11T09:43:15Z</time>
      </trkpt>
      <trkpt lat="44.7573" lon="2.52061">
        <ele>600.9</ele>
        <time>2021-11-11T09:43:21Z</time>
      </trkpt>
      <trkpt lat="44.7573" lon="2.52061">
        <ele>581.2</ele>
        <time>2021-11-11T09:43:26Z</time>
      </trkpt>
      <trkpt lat="44.7573" lon="2.52061">
        <ele>603.4</ele>
        <time>2021-11-11T09:43:31Z</time>
      </trkpt>
      <trkpt lat="44.75729" lon="2.52061">
        <ele>590.9</ele>
        <time>2021-11-11T09:43:36Z</time>
      </trkpt>
      <trkpt lat="44.75729" lon="2.52062">
        <ele>593.8</ele>
        <time>2021-11-11T09:43:41Z</time>
      </trkpt>
      <trkpt lat="44.75732" lon="2.52071">
        <ele>601.9</ele>
        <time>2021-11-11T09:43:47Z</time>
      </trkpt>
      <trkpt lat="44.75737" lon="2.52071">
        <ele>594.3</ele>
        <time>2021-11-11T09:43:52Z</time>
      </trkpt>
      <trkpt lat="44.75742" lon="2.52069">
        <ele>600</ele>
        <time>2021-11-11T09:43:57Z</time>
      </trkpt>
      <trkpt lat="44.75747" lon="2.52072">
        <ele>571.9</ele>
        <time>2021-11-11T09:44:02Z</time>
      </trkpt>
      <trkpt lat="44.75749" lon="2.52077">
        <ele>604.5</ele>
        <time>2021-11-11T09:44:08Z</time>
      </trkpt>
      <trkpt lat="44.75751" lon="2.52084">
        <ele>599.8</ele>
        <time>2021-11-11T09:44:13Z</time>
      </trkpt>
      <trkpt lat="44.75751" lon="2.52092">
        <ele>613.7</ele>
        <time>2021-11-11T09:44:19Z</time>
      </trkpt>
      <trkpt lat="44.75751" lon="2.521">
        <ele>599.2</ele>
        <time>2021-11-11T09:44:24Z</time>
      </trkpt>
      <trkpt lat="44.75751" lon="2.52107">
        <ele>608.6</ele>
        <time>2021-11-11T09:44:29Z</time>
      </trkpt>
      <trkpt lat="44.75754" lon="2.52114">
        <ele>618.2</ele>
        <time>2021-11-11T09:44:34Z</time>
      </trkpt>
      <trkpt lat="44.75757" lon="2.52122">
        <ele>592.2</ele>
        <time>2021-11-11T09:44:40Z</time>
      </trkpt>
      <trkpt lat="44.75759" lon="2.52131">
        <ele>606.7</ele>
        <time>2021-11-11T09:44:45Z</time>
      </trkpt>
      <trkpt lat="44.7576" lon="2.52141">
        <ele>611.8</ele>
        <time>2021-11-11T09:44:50Z</time>
      </trkpt>
      <trkpt lat="44.75761" lon="2.52151">
        <ele>604.2</ele>
        <time>2021-11-11T09:44:56Z</time>
      </trkpt>
      <trkpt lat="44.75759" lon="2.5216">
        <ele>599.2</ele>
        <time>2021-11-11T09:45:01Z</time>
      </trkpt>
      <trkpt lat="44.7576" lon="2.52169">
        <ele>631.6</ele>
        <time>2021-11-11T09:45:06Z</time>
      </trkpt>
      <trkpt lat="44.7576" lon="2.52175">
        <ele>619.1</ele>
        <time>2021-11-11T09:45:12Z</time>
      </trkpt>
      <trkpt lat="44.75759" lon="2.52183">
        <ele>607</ele>
        <time>2021-11-11T09:45:17Z</time>
      </trkpt>
      <trkpt lat="44.75757" lon="2.52192">
        <ele>610.2</ele>
        <time>2021-11-11T09:45:22Z</time>
      </trkpt>
      <trkpt lat="44.75756" lon="2.52198">
        <ele>599.7</ele>
        <time>2021-11-11T09:45:28Z</time>
      </trkpt>
      <trkpt lat="44.75755" lon="2.52203">
        <ele>611.8</ele>
        <time>2021-11-11T09:45:33Z</time>
      </trkpt>
      <trkpt lat="44.75753" lon="2.52211">
        <ele>621.5</ele>
        <time>2021-11-11T09:45:38Z</time>
      </trkpt>
      <trkpt lat="44.7575" lon="2.52218">
        <ele>602.8</ele>
        <time>2021-11-11T09:45:44Z</time>
      </trkpt>
      <trkpt lat="44.75746" lon="2.52224">
        <ele>602.9</ele>
        <time>2021-11-11T09:45:49Z</time>
      </trkpt>
      <trkpt lat="44.75746" lon="2.5223">
        <ele>602.8</ele>
        <time>2021-11-11T09:45:54Z</time>
      </trkpt>
      <trkpt lat="44.75746" lon="2.52236">
        <ele>602.7</ele>
        <time>2021-11-11T09:45:59Z</time>
      </trkpt>
      <trkpt lat="44.75745" lon="2.52241">
        <ele>602.7</ele>
        <time>2021-11-11T09:46:04Z</time>
      </trkpt>
      <trkpt lat="44.75743" lon="2.52251">
        <ele>602.6</ele>
        <time>2021-11-11T09:46:10Z</time>
      </trkpt>
      <trkpt lat="44.75743" lon="2.5226">
        <ele>602.6</ele>
        <time>2021-11-11T09:46:15Z</time>
      </trkpt>
      <trkpt lat="44.75742" lon="2.52268">
        <ele>602.7</ele>
        <time>2021-11-11T09:46:20Z</time>
      </trkpt>
      <trkpt lat="44.7574" lon="2.52275">
        <ele>602.6</ele>
        <time>2021-11-11T09:46:26Z</time>
      </trkpt>
      <trkpt lat="44.75738" lon="2.52283">
        <ele>602.6</ele>
        <time>2021-11-11T09:46:31Z</time>
      </trkpt>
      <trkpt lat="44.75737" lon="2.5229">
        <ele>602.7</ele>
        <time>2021-11-11T09:46:36Z</time>
      </trkpt>
      <trkpt lat="44.75736" lon="2.52296">
        <ele>612.2</ele>
        <time>2021-11-11T09:46:41Z</time>
      </trkpt>
      <trkpt lat="44.75735" lon="2.52302">
        <ele>611.9</ele>
        <time>2021-11-11T09:46:47Z</time>
      </trkpt>
      <trkpt lat="44.75734" lon="2.52307">
        <ele>602.7</ele>
        <time>2021-11-11T09:46:53Z</time>
      </trkpt>
      <trkpt lat="44.75731" lon="2.52313">
        <ele>602.7</ele>
        <time>2021-11-11T09:46:58Z</time>
      </trkpt>
      <trkpt lat="44.75729" lon="2.5232">
        <ele>602.7</ele>
        <time>2021-11-11T09:47:03Z</time>
      </trkpt>
      <trkpt lat="44.75728" lon="2.52323">
        <ele>602.7</ele>
        <time>2021-11-11T09:47:09Z</time>
      </trkpt>
      <trkpt lat="44.75728" lon="2.52325">
        <ele>602.7</ele>
        <time>2021-11-11T09:47:14Z</time>
      </trkpt>
      <trkpt lat="44.75729" lon="2.52328">
        <ele>602.6</ele>
        <time>2021-11-11T09:47:20Z</time>
      </trkpt>
      <trkpt lat="44.75727" lon="2.52337">
        <ele>602.6</ele>
        <time>2021-11-11T09:47:25Z</time>
      </trkpt>
      <trkpt lat="44.75724" lon="2.52347">
        <ele>602.7</ele>
        <time>2021-11-11T09:47:31Z</time>
      </trkpt>
      <trkpt lat="44.75719" lon="2.52354">
        <ele>602.7</ele>
        <time>2021-11-11T09:47:37Z</time>
      </trkpt>
      <trkpt lat="44.75716" lon="2.52363">
        <ele>602.7</ele>
        <time>2021-11-11T09:47:42Z</time>
      </trkpt>
      <trkpt lat="44.75706" lon="2.5237">
        <ele>602.7</ele>
        <time>2021-11-11T09:47:48Z</time>
      </trkpt>
      <trkpt lat="44.75702" lon="2.52374">
        <ele>636.2</ele>
        <time>2021-11-11T09:47:53Z</time>
      </trkpt>
      <trkpt lat="44.757" lon="2.5238">
        <ele>647.2</ele>
        <time>2021-11-11T09:47:58Z</time>
      </trkpt>
      <trkpt lat="44.75699" lon="2.52386">
        <ele>611.3</ele>
        <time>2021-11-11T09:48:03Z</time>
      </trkpt>
      <trkpt lat="44.75696" lon="2.52393">
        <ele>620.8</ele>
        <time>2021-11-11T09:48:08Z</time>
      </trkpt>
      <trkpt lat="44.75693" lon="2.524">
        <ele>633.6</ele>
        <time>2021-11-11T09:48:14Z</time>
      </trkpt>
      <trkpt lat="44.75689" lon="2.52406">
        <ele>633</ele>
        <time>2021-11-11T09:48:19Z</time>
      </trkpt>
      <trkpt lat="44.75686" lon="2.52412">
        <ele>622.1</ele>
        <time>2021-11-11T09:48:25Z</time>
      </trkpt>
      <trkpt lat="44.75683" lon="2.52418">
        <ele>633.3</ele>
        <time>2021-11-11T09:48:30Z</time>
      </trkpt>
      <trkpt lat="44.75681" lon="2.52427">
        <ele>616.4</ele>
        <time>2021-11-11T09:48:35Z</time>
      </trkpt>
      <trkpt lat="44.75681" lon="2.52436">
        <ele>613.2</ele>
        <time>2021-11-11T09:48:41Z</time>
      </trkpt>
      <trkpt lat="44.7568" lon="2.52445">
        <ele>612.4</ele>
        <time>2021-11-11T09:48:46Z</time>
      </trkpt>
      <trkpt lat="44.75679" lon="2.52452">
        <ele>628.9</ele>
        <time>2021-11-11T09:48:51Z</time>
      </trkpt>
      <trkpt lat="44.75679" lon="2.52462">
        <ele>626.5</ele>
        <time>2021-11-11T09:48:57Z</time>
      </trkpt>
      <trkpt lat="44.75678" lon="2.5247">
        <ele>629.4</ele>
        <time>2021-11-11T09:49:02Z</time>
      </trkpt>
      <trkpt lat="44.75677" lon="2.52479">
        <ele>612.2</ele>
        <time>2021-11-11T09:49:08Z</time>
      </trkpt>
      <trkpt lat="44.75675" lon="2.52488">
        <ele>637.7</ele>
        <time>2021-11-11T09:49:13Z</time>
      </trkpt>
      <trkpt lat="44.75674" lon="2.52496">
        <ele>608.6</ele>
        <time>2021-11-11T09:49:18Z</time>
      </trkpt>
      <trkpt lat="44.75675" lon="2.52506">
        <ele>619.3</ele>
        <time>2021-11-11T09:49:24Z</time>
      </trkpt>
      <trkpt lat="44.75673" lon="2.52513">
        <ele>622.5</ele>
        <time>2021-11-11T09:49:29Z</time>
      </trkpt>
      <trkpt lat="44.75668" lon="2.52522">
        <ele>646.4</ele>
        <time>2021-11-11T09:49:35Z</time>
      </trkpt>
      <trkpt lat="44.75666" lon="2.52532">
        <ele>618.6</ele>
        <time>2021-11-11T09:49:40Z</time>
      </trkpt>
      <trkpt lat="44.75663" lon="2.5254">
        <ele>620</ele>
        <time>2021-11-11T09:49:45Z</time>
      </trkpt>
      <trkpt lat="44.7566" lon="2.52548">
        <ele>616.8</ele>
        <time>2021-11-11T09:49:50Z</time>
      </trkpt>
      <trkpt lat="44.75656" lon="2.52556">
        <ele>608</ele>
        <time>2021-11-11T09:49:55Z</time>
      </trkpt>
      <trkpt lat="44.75653" lon="2.52564">
        <ele>612.8</ele>
        <time>2021-11-11T09:50:01Z</time>
      </trkpt>
      <trkpt lat="44.75649" lon="2.5257">
        <ele>622.1</ele>
        <time>2021-11-11T09:50:07Z</time>
      </trkpt>
      <trkpt lat="44.75648" lon="2.52577">
        <ele>633.6</ele>
        <time>2021-11-11T09:50:12Z</time>
      </trkpt>
      <trkpt lat="44.75645" lon="2.52586">
        <ele>622.1</ele>
        <time>2021-11-11T09:50:17Z</time>
      </trkpt>
      <trkpt lat="44.75642" lon="2.52593">
        <ele>638.3</ele>
        <time>2021-11-11T09:50:23Z</time>
      </trkpt>
      <trkpt lat="44.7564" lon="2.526">
        <ele>626.4</ele>
        <time>2021-11-11T09:50:28Z</time>
      </trkpt>
      <trkpt lat="44.75639" lon="2.52607">
        <ele>638.1</ele>
        <time>2021-11-11T09:50:34Z</time>
      </trkpt>
      <trkpt lat="44.75638" lon="2.52612">
        <ele>627.7</ele>
        <time>2021-11-11T09:50:39Z</time>
      </trkpt>
      <trkpt lat="44.75635" lon="2.5262">
        <ele>617.2</ele>
        <time>2021-11-11T09:50:44Z</time>
      </trkpt>
      <trkpt lat="44.75635" lon="2.52627">
        <ele>636.7</ele>
        <time>2021-11-11T09:50:49Z</time>
      </trkpt>
      <trkpt lat="44.75634" lon="2.52634">
        <ele>620.5</ele>
        <time>2021-11-11T09:50:55Z</time>
      </trkpt>
      <trkpt lat="44.75634" lon="2.52642">
        <ele>611.2</ele>
        <time>2021-11-11T09:51:01Z</time>
      </trkpt>
      <trkpt lat="44.75633" lon="2.52648">
        <ele>621</ele>
        <time>2021-11-11T09:51:06Z</time>
      </trkpt>
      <trkpt lat="44.75632" lon="2.52656">
        <ele>646.4</ele>
        <time>2021-11-11T09:51:11Z</time>
      </trkpt>
      <trkpt lat="44.75631" lon="2.52664">
        <ele>637.7</ele>
        <time>2021-11-11T09:51:17Z</time>
      </trkpt>
      <trkpt lat="44.75631" lon="2.5267">
        <ele>631.7</ele>
        <time>2021-11-11T09:51:22Z</time>
      </trkpt>
      <trkpt lat="44.75632" lon="2.52676">
        <ele>639</ele>
        <time>2021-11-11T09:51:28Z</time>
      </trkpt>
      <trkpt lat="44.75633" lon="2.5268">
        <ele>628.3</ele>
        <time>2021-11-11T09:51:33Z</time>
      </trkpt>
      <trkpt lat="44.75634" lon="2.52685">
        <ele>635.2</ele>
        <time>2021-11-11T09:51:39Z</time>
      </trkpt>
      <trkpt lat="44.75635" lon="2.52692">
        <ele>635.5</ele>
        <time>2021-11-11T09:51:44Z</time>
      </trkpt>
      <trkpt lat="44.75636" lon="2.52699">
        <ele>639</ele>
        <time>2021-11-11T09:51:49Z</time>
      </trkpt>
      <trkpt lat="44.75635" lon="2.52703">
        <ele>646.5</ele>
        <time>2021-11-11T09:51:54Z</time>
      </trkpt>
      <trkpt lat="44.75634" lon="2.52706">
        <ele>647.4</ele>
        <time>2021-11-11T09:52:00Z</time>
      </trkpt>
      <trkpt lat="44.75634" lon="2.52711">
        <ele>632</ele>
        <time>2021-11-11T09:52:05Z</time>
      </trkpt>
      <trkpt lat="44.75635" lon="2.5272">
        <ele>650</ele>
        <time>2021-11-11T09:52:11Z</time>
      </trkpt>
      <trkpt lat="44.75636" lon="2.52728">
        <ele>647.9</ele>
        <time>2021-11-11T09:52:16Z</time>
      </trkpt>
      <trkpt lat="44.75637" lon="2.52737">
        <ele>647</ele>
        <time>2021-11-11T09:52:22Z</time>
      </trkpt>
      <trkpt lat="44.75637" lon="2.52744">
        <ele>659.8</ele>
        <time>2021-11-11T09:52:27Z</time>
      </trkpt>
      <trkpt lat="44.75636" lon="2.52752">
        <ele>637.8</ele>
        <time>2021-11-11T09:52:33Z</time>
      </trkpt>
      <trkpt lat="44.75634" lon="2.5276">
        <ele>650</ele>
        <time>2021-11-11T09:52:38Z</time>
      </trkpt>
      <trkpt lat="44.75634" lon="2.52768">
        <ele>660</ele>
        <time>2021-11-11T09:52:44Z</time>
      </trkpt>
      <trkpt lat="44.75634" lon="2.52775">
        <ele>653.5</ele>
        <time>2021-11-11T09:52:49Z</time>
      </trkpt>
      <trkpt lat="44.75634" lon="2.52782">
        <ele>667.8</ele>
        <time>2021-11-11T09:52:54Z</time>
      </trkpt>
      <trkpt lat="44.75633" lon="2.52786">
        <ele>666.9</ele>
        <time>2021-11-11T09:52:59Z</time>
      </trkpt>
      <trkpt lat="44.75634" lon="2.52797">
        <ele>640.4</ele>
        <time>2021-11-11T09:53:04Z</time>
      </trkpt>
      <trkpt lat="44.75635" lon="2.52806">
        <ele>665.7</ele>
        <time>2021-11-11T09:53:10Z</time>
      </trkpt>
      <trkpt lat="44.75635" lon="2.52815">
        <ele>652.5</ele>
        <time>2021-11-11T09:53:15Z</time>
      </trkpt>
      <trkpt lat="44.75637" lon="2.52822">
        <ele>657.7</ele>
        <time>2021-11-11T09:53:21Z</time>
      </trkpt>
      <trkpt lat="44.75639" lon="2.5283">
        <ele>655.2</ele>
        <time>2021-11-11T09:53:26Z</time>
      </trkpt>
      <trkpt lat="44.75642" lon="2.52837">
        <ele>627.5</ele>
        <time>2021-11-11T09:53:31Z</time>
      </trkpt>
      <trkpt lat="44.75643" lon="2.52846">
        <ele>643.6</ele>
        <time>2021-11-11T09:53:37Z</time>
      </trkpt>
      <trkpt lat="44.75642" lon="2.52855">
        <ele>633.9</ele>
        <time>2021-11-11T09:53:42Z</time>
      </trkpt>
      <trkpt lat="44.75639" lon="2.5286">
        <ele>659.3</ele>
        <time>2021-11-11T09:53:48Z</time>
      </trkpt>
      <trkpt lat="44.75639" lon="2.52866">
        <ele>655.3</ele>
        <time>2021-11-11T09:53:53Z</time>
      </trkpt>
      <trkpt lat="44.75635" lon="2.52874">
        <ele>651.7</ele>
        <time>2021-11-11T09:53:58Z</time>
      </trkpt>
      <trkpt lat="44.75634" lon="2.52882">
        <ele>637.9</ele>
        <time>2021-11-11T09:54:04Z</time>
      </trkpt>
      <trkpt lat="44.75633" lon="2.52887">
        <ele>661.4</ele>
        <time>2021-11-11T09:54:09Z</time>
      </trkpt>
      <trkpt lat="44.75632" lon="2.52893">
        <ele>634.7</ele>
        <time>2021-11-11T09:54:14Z</time>
      </trkpt>
      <trkpt lat="44.75631" lon="2.52896">
        <ele>646.6</ele>
        <time>2021-11-11T09:54:19Z</time>
      </trkpt>
      <trkpt lat="44.75633" lon="2.52906">
        <ele>637.5</ele>
        <time>2021-11-11T09:54:24Z</time>
      </trkpt>
      <trkpt lat="44.75636" lon="2.52912">
        <ele>662.7</ele>
        <time>2021-11-11T09:54:30Z</time>
      </trkpt>
      <trkpt lat="44.75639" lon="2.52917">
        <ele>631.6</ele>
        <time>2021-11-11T09:54:35Z</time>
      </trkpt>
      <trkpt lat="44.75642" lon="2.52922">
        <ele>655.2</ele>
        <time>2021-11-11T09:54:40Z</time>
      </trkpt>
      <trkpt lat="44.75645" lon="2.52927">
        <ele>653.1</ele>
        <time>2021-11-11T09:54:45Z</time>
      </trkpt>
      <trkpt lat="44.75646" lon="2.52934">
        <ele>636.4</ele>
        <time>2021-11-11T09:54:50Z</time>
      </trkpt>
      <trkpt lat="44.75646" lon="2.5294">
        <ele>650.4</ele>
        <time>2021-11-11T09:54:56Z</time>
      </trkpt>
      <trkpt lat="44.75645" lon="2.52945">
        <ele>650.3</ele>
        <time>2021-11-11T09:55:01Z</time>
      </trkpt>
      <trkpt lat="44.75643" lon="2.52948">
        <ele>650.4</ele>
        <time>2021-11-11T09:55:06Z</time>
      </trkpt>
      <trkpt lat="44.75641" lon="2.52951">
        <ele>650.4</ele>
        <time>2021-11-11T09:55:12Z</time>
      </trkpt>
      <trkpt lat="44.75639" lon="2.5295">
        <ele>650.3</ele>
        <time>2021-11-11T09:55:17Z</time>
      </trkpt>
      <trkpt lat="44.7563" lon="2.52949">
        <ele>650.3</ele>
        <time>2021-11-11T09:55:23Z</time>
      </trkpt>
      <trkpt lat="44.75622" lon="2.52958">
        <ele>650.3</ele>
        <time>2021-11-11T09:55:28Z</time>
      </trkpt>
      <trkpt lat="44.75622" lon="2.52969">
        <ele>650.4</ele>
        <time>2021-11-11T09:55:33Z</time>
      </trkpt>
      <trkpt lat="44.75627" lon="2.52973">
        <ele>650.3</ele>
        <time>2021-11-11T09:55:39Z</time>
      </trkpt>
      <trkpt lat="44.75633" lon="2.52973">
        <ele>650.3</ele>
        <time>2021-11-11T09:55:45Z</time>
      </trkpt>
      <trkpt lat="44.75638" lon="2.52978">
        <ele>650.4</ele>
        <time>2021-11-11T09:55:51Z</time>
      </trkpt>
      <trkpt lat="44.75643" lon="2.52983">
        <ele>645</ele>
        <time>2021-11-11T09:55:56Z</time>
      </trkpt>
      <trkpt lat="44.75646" lon="2.52989">
        <ele>659.3</ele>
        <time>2021-11-11T09:56:01Z</time>
      </trkpt>
      <trkpt lat="44.75648" lon="2.52997">
        <ele>669.2</ele>
        <time>2021-11-11T09:56:06Z</time>
      </trkpt>
      <trkpt lat="44.75652" lon="2.53006">
        <ele>647.4</ele>
        <time>2021-11-11T09:56:12Z</time>
      </trkpt>
      <trkpt lat="44.75657" lon="2.53012">
        <ele>662.7</ele>
        <time>2021-11-11T09:56:17Z</time>
      </trkpt>
      <trkpt lat="44.75662" lon="2.53021">
        <ele>656.5</ele>
        <time>2021-11-11T09:56:23Z</time>
      </trkpt>
      <trkpt lat="44.75665" lon="2.53029">
        <ele>678.6</ele>
        <time>2021-11-11T09:56:28Z</time>
      </trkpt>
      <trkpt lat="44.7567" lon="2.53036">
        <ele>647.3</ele>
        <time>2021-11-11T09:56:33Z</time>
      </trkpt>
      <trkpt lat="44.75675" lon="2.53041">
        <ele>657.1</ele>
        <time>2021-11-11T09:56:39Z</time>
      </trkpt>
      <trkpt lat="44.7568" lon="2.53047">
        <ele>647.9</ele>
        <time>2021-11-11T09:56:44Z</time>
      </trkpt>
      <trkpt lat="44.75684" lon="2.53054">
        <ele>667</ele>
        <time>2021-11-11T09:56:49Z</time>
      </trkpt>
      <trkpt lat="44.7569" lon="2.53059">
        <ele>665.1</ele>
        <time>2021-11-11T09:56:55Z</time>
      </trkpt>
      <trkpt lat="44.75695" lon="2.53063">
        <ele>674.8</ele>
        <time>2021-11-11T09:57:01Z</time>
      </trkpt>
      <trkpt lat="44.75701" lon="2.53069">
        <ele>666.2</ele>
        <time>2021-11-11T09:57:06Z</time>
      </trkpt>
      <trkpt lat="44.75705" lon="2.53073">
        <ele>663.7</ele>
        <time>2021-11-11T09:57:11Z</time>
      </trkpt>
      <trkpt lat="44.7571" lon="2.53075">
        <ele>667.7</ele>
        <time>2021-11-11T09:57:17Z</time>
      </trkpt>
      <trkpt lat="44.75715" lon="2.5308">
        <ele>665.5</ele>
        <time>2021-11-11T09:57:22Z</time>
      </trkpt>
      <trkpt lat="44.7572" lon="2.53084">
        <ele>666.6</ele>
        <time>2021-11-11T09:57:27Z</time>
      </trkpt>
      <trkpt lat="44.75726" lon="2.53087">
        <ele>660.5</ele>
        <time>2021-11-11T09:57:33Z</time>
      </trkpt>
      <trkpt lat="44.75729" lon="2.53087">
        <ele>652.1</ele>
        <time>2021-11-11T09:57:38Z</time>
      </trkpt>
      <trkpt lat="44.75736" lon="2.5309">
        <ele>673.8</ele>
        <time>2021-11-11T09:57:43Z</time>
      </trkpt>
      <trkpt lat="44.75742" lon="2.5309">
        <ele>662.8</ele>
        <time>2021-11-11T09:57:48Z</time>
      </trkpt>
      <trkpt lat="44.75748" lon="2.53092">
        <ele>665.5</ele>
        <time>2021-11-11T09:57:54Z</time>
      </trkpt>
      <trkpt lat="44.7575" lon="2.53098">
        <ele>659.6</ele>
        <time>2021-11-11T09:57:59Z</time>
      </trkpt>
      <trkpt lat="44.75754" lon="2.531">
        <ele>677.7</ele>
        <time>2021-11-11T09:58:04Z</time>
      </trkpt>
      <trkpt lat="44.75763" lon="2.5311">
        <ele>675.5</ele>
        <time>2021-11-11T09:58:10Z</time>
      </trkpt>
      <trkpt lat="44.75768" lon="2.53116">
        <ele>672.5</ele>
        <time>2021-11-11T09:58:15Z</time>
      </trkpt>
      <trkpt lat="44.75774" lon="2.5312">
        <ele>667.9</ele>
        <time>2021-11-11T09:58:21Z</time>
      </trkpt>
      <trkpt lat="44.75779" lon="2.53124">
        <ele>671.9</ele>
        <time>2021-11-11T09:58:26Z</time>
      </trkpt>
      <trkpt lat="44.75784" lon="2.53127">
        <ele>669.6</ele>
        <time>2021-11-11T09:58:31Z</time>
      </trkpt>
      <trkpt lat="44.7579" lon="2.53132">
        <ele>677</ele>
        <time>2021-11-11T09:58:37Z</time>
      </trkpt>
      <trkpt lat="44.75794" lon="2.53135">
        <ele>667.2</ele>
        <time>2021-11-11T09:58:42Z</time>
      </trkpt>
      <trkpt lat="44.75797" lon="2.53141">
        <ele>683.2</ele>
        <time>2021-11-11T09:58:47Z</time>
      </trkpt>
      <trkpt lat="44.75798" lon="2.53149">
        <ele>669.2</ele>
        <time>2021-11-11T09:58:52Z</time>
      </trkpt>
      <trkpt lat="44.75797" lon="2.53161">
        <ele>674.6</ele>
        <time>2021-11-11T09:58:58Z</time>
      </trkpt>
      <trkpt lat="44.75795" lon="2.53171">
        <ele>669</ele>
        <time>2021-11-11T09:59:03Z</time>
      </trkpt>
      <trkpt lat="44.75795" lon="2.53175">
        <ele>674.7</ele>
        <time>2021-11-11T09:59:08Z</time>
      </trkpt>
      <trkpt lat="44.75795" lon="2.53183">
        <ele>693.8</ele>
        <time>2021-11-11T09:59:13Z</time>
      </trkpt>
      <trkpt lat="44.75794" lon="2.53192">
        <ele>668.2</ele>
        <time>2021-11-11T09:59:19Z</time>
      </trkpt>
      <trkpt lat="44.75795" lon="2.53199">
        <ele>687</ele>
        <time>2021-11-11T09:59:25Z</time>
      </trkpt>
      <trkpt lat="44.75795" lon="2.53207">
        <ele>662</ele>
        <time>2021-11-11T09:59:30Z</time>
      </trkpt>
      <trkpt lat="44.75797" lon="2.53215">
        <ele>678.8</ele>
        <time>2021-11-11T09:59:35Z</time>
      </trkpt>
      <trkpt lat="44.75797" lon="2.53229">
        <ele>666</ele>
        <time>2021-11-11T09:59:41Z</time>
      </trkpt>
      <trkpt lat="44.75799" lon="2.53237">
        <ele>677.6</ele>
        <time>2021-11-11T09:59:46Z</time>
      </trkpt>
      <trkpt lat="44.75801" lon="2.53244">
        <ele>651.6</ele>
        <time>2021-11-11T09:59:51Z</time>
      </trkpt>
      <trkpt lat="44.75806" lon="2.53249">
        <ele>670.5</ele>
        <time>2021-11-11T09:59:56Z</time>
      </trkpt>
      <trkpt lat="44.75812" lon="2.53252">
        <ele>676.1</ele>
        <time>2021-11-11T10:00:02Z</time>
      </trkpt>
      <trkpt lat="44.75816" lon="2.53256">
        <ele>681</ele>
        <time>2021-11-11T10:00:07Z</time>
      </trkpt>
      <trkpt lat="44.75821" lon="2.53256">
        <ele>666.2</ele>
        <time>2021-11-11T10:00:13Z</time>
      </trkpt>
      <trkpt lat="44.75828" lon="2.5326">
        <ele>658.9</ele>
        <time>2021-11-11T10:00:18Z</time>
      </trkpt>
      <trkpt lat="44.75833" lon="2.53264">
        <ele>647</ele>
        <time>2021-11-11T10:00:23Z</time>
      </trkpt>
      <trkpt lat="44.75837" lon="2.53265">
        <ele>664</ele>
        <time>2021-11-11T10:00:29Z</time>
      </trkpt>
      <trkpt lat="44.75838" lon="2.53292">
        <ele>660.9</ele>
        <time>2021-11-11T10:00:35Z</time>
      </trkpt>
      <trkpt lat="44.75841" lon="2.53304">
        <ele>676.7</ele>
        <time>2021-11-11T10:00:40Z</time>
      </trkpt>
      <trkpt lat="44.7584" lon="2.53312">
        <ele>689.3</ele>
        <time>2021-11-11T10:00:45Z</time>
      </trkpt>
      <trkpt lat="44.75837" lon="2.5332">
        <ele>650.7</ele>
        <time>2021-11-11T10:00:50Z</time>
      </trkpt>
      <trkpt lat="44.75836" lon="2.53328">
        <ele>670.9</ele>
        <time>2021-11-11T10:00:56Z</time>
      </trkpt>
      <trkpt lat="44.75837" lon="2.53336">
        <ele>666.1</ele>
        <time>2021-11-11T10:01:01Z</time>
      </trkpt>
      <trkpt lat="44.75837" lon="2.53343">
        <ele>680.4</ele>
        <time>2021-11-11T10:01:06Z</time>
      </trkpt>
      <trkpt lat="44.75836" lon="2.53351">
        <ele>674.2</ele>
        <time>2021-11-11T10:01:11Z</time>
      </trkpt>
      <trkpt lat="44.75836" lon="2.53358">
        <ele>657.6</ele>
        <time>2021-11-11T10:01:16Z</time>
      </trkpt>
      <trkpt lat="44.75835" lon="2.53368">
        <ele>661.1</ele>
        <time>2021-11-11T10:01:22Z</time>
      </trkpt>
      <trkpt lat="44.75836" lon="2.53375">
        <ele>668.2</ele>
        <time>2021-11-11T10:01:27Z</time>
      </trkpt>
      <trkpt lat="44.75835" lon="2.53383">
        <ele>682.3</ele>
        <time>2021-11-11T10:01:32Z</time>
      </trkpt>
      <trkpt lat="44.75835" lon="2.53393">
        <ele>682.5</ele>
        <time>2021-11-11T10:01:38Z</time>
      </trkpt>
      <trkpt lat="44.75836" lon="2.53399">
        <ele>668.7</ele>
        <time>2021-11-11T10:01:43Z</time>
      </trkpt>
      <trkpt lat="44.75837" lon="2.53407">
        <ele>673.8</ele>
        <time>2021-11-11T10:01:49Z</time>
      </trkpt>
      <trkpt lat="44.75839" lon="2.53413">
        <ele>677.5</ele>
        <time>2021-11-11T10:01:54Z</time>
      </trkpt>
      <trkpt lat="44.7584" lon="2.5342">
        <ele>678.8</ele>
        <time>2021-11-11T10:02:00Z</time>
      </trkpt>
      <trkpt lat="44.75842" lon="2.53429">
        <ele>675.4</ele>
        <time>2021-11-11T10:02:05Z</time>
      </trkpt>
      <trkpt lat="44.75843" lon="2.53436">
        <ele>677</ele>
        <time>2021-11-11T10:02:10Z</time>
      </trkpt>
      <trkpt lat="44.75845" lon="2.53446">
        <ele>684.1</ele>
        <time>2021-11-11T10:02:15Z</time>
      </trkpt>
      <trkpt lat="44.75845" lon="2.53451">
        <ele>681.9</ele>
        <time>2021-11-11T10:02:21Z</time>
      </trkpt>
      <trkpt lat="44.75847" lon="2.5346">
        <ele>694.9</ele>
        <time>2021-11-11T10:02:26Z</time>
      </trkpt>
      <trkpt lat="44.7585" lon="2.53475">
        <ele>676.4</ele>
        <time>2021-11-11T10:02:31Z</time>
      </trkpt>
      <trkpt lat="44.75851" lon="2.53482">
        <ele>673.5</ele>
        <time>2021-11-11T10:02:36Z</time>
      </trkpt>
      <trkpt lat="44.75853" lon="2.53496">
        <ele>685.3</ele>
        <time>2021-11-11T10:02:42Z</time>
      </trkpt>
      <trkpt lat="44.75854" lon="2.53502">
        <ele>676.8</ele>
        <time>2021-11-11T10:02:47Z</time>
      </trkpt>
      <trkpt lat="44.75855" lon="2.53509">
        <ele>681</ele>
        <time>2021-11-11T10:02:52Z</time>
      </trkpt>
      <trkpt lat="44.75854" lon="2.53521">
        <ele>684</ele>
        <time>2021-11-11T10:02:57Z</time>
      </trkpt>
      <trkpt lat="44.75854" lon="2.53528">
        <ele>681.4</ele>
        <time>2021-11-11T10:03:03Z</time>
      </trkpt>
      <trkpt lat="44.75857" lon="2.53538">
        <ele>663.2</ele>
        <time>2021-11-11T10:03:08Z</time>
      </trkpt>
      <trkpt lat="44.7586" lon="2.53545">
        <ele>675</ele>
        <time>2021-11-11T10:03:14Z</time>
      </trkpt>
      <trkpt lat="44.75863" lon="2.53553">
        <ele>669.5</ele>
        <time>2021-11-11T10:03:20Z</time>
      </trkpt>
      <trkpt lat="44.75864" lon="2.53561">
        <ele>674.5</ele>
        <time>2021-11-11T10:03:25Z</time>
      </trkpt>
      <trkpt lat="44.75867" lon="2.53567">
        <ele>676</ele>
        <time>2021-11-11T10:03:30Z</time>
      </trkpt>
      <trkpt lat="44.75871" lon="2.53572">
        <ele>690.6</ele>
        <time>2021-11-11T10:03:36Z</time>
      </trkpt>
      <trkpt lat="44.75875" lon="2.53578">
        <ele>680.1</ele>
        <time>2021-11-11T10:03:41Z</time>
      </trkpt>
      <trkpt lat="44.75878" lon="2.53585">
        <ele>674</ele>
        <time>2021-11-11T10:03:46Z</time>
      </trkpt>
      <trkpt lat="44.75881" lon="2.53593">
        <ele>660.8</ele>
        <time>2021-11-11T10:03:51Z</time>
      </trkpt>
      <trkpt lat="44.75881" lon="2.53595">
        <ele>669.6</ele>
        <time>2021-11-11T10:03:57Z</time>
      </trkpt>
      <trkpt lat="44.75881" lon="2.53595">
        <ele>685</ele>
        <time>2021-11-11T10:04:02Z</time>
      </trkpt>
      <trkpt lat="44.7588" lon="2.53595">
        <ele>701.5</ele>
        <time>2021-11-11T10:04:08Z</time>
      </trkpt>
      <trkpt lat="44.7588" lon="2.53595">
        <ele>679.8</ele>
        <time>2021-11-11T10:04:14Z</time>
      </trkpt>
      <trkpt lat="44.7588" lon="2.53595">
        <ele>681.3</ele>
        <time>2021-11-11T10:04:19Z</time>
      </trkpt>
      <trkpt lat="44.7588" lon="2.53595">
        <ele>675.1</ele>
        <time>2021-11-11T10:04:25Z</time>
      </trkpt>
      <trkpt lat="44.7588" lon="2.53595">
        <ele>690</ele>
        <time>2021-11-11T10:04:30Z</time>
      </trkpt>
      <trkpt lat="44.75881" lon="2.53595">
        <ele>680.9</ele>
        <time>2021-11-11T10:04:36Z</time>
      </trkpt>
      <trkpt lat="44.75881" lon="2.53594">
        <ele>676.7</ele>
        <time>2021-11-11T10:04:42Z</time>
      </trkpt>
      <trkpt lat="44.75881" lon="2.53594">
        <ele>652.7</ele>
        <time>2021-11-11T10:04:47Z</time>
      </trkpt>
      <trkpt lat="44.7588" lon="2.53595">
        <ele>671.2</ele>
        <time>2021-11-11T10:04:52Z</time>
      </trkpt>
      <trkpt lat="44.7588" lon="2.53595">
        <ele>689.3</ele>
        <time>2021-11-11T10:04:57Z</time>
      </trkpt>
      <trkpt lat="44.7588" lon="2.53595">
        <ele>679.5</ele>
        <time>2021-11-11T10:05:02Z</time>
      </trkpt>
      <trkpt lat="44.7588" lon="2.53595">
        <ele>679.9</ele>
        <time>2021-11-11T10:05:08Z</time>
      </trkpt>
      <trkpt lat="44.75886" lon="2.53598">
        <ele>674</ele>
        <time>2021-11-11T10:05:13Z</time>
      </trkpt>
      <trkpt lat="44.75888" lon="2.53601">
        <ele>666.5</ele>
        <time>2021-11-11T10:05:18Z</time>
      </trkpt>
      <trkpt lat="44.75887" lon="2.536">
        <ele>674</ele>
        <time>2021-11-11T10:05:23Z</time>
      </trkpt>
      <trkpt lat="44.75887" lon="2.536">
        <ele>669.8</ele>
        <time>2021-11-11T10:05:28Z</time>
      </trkpt>
      <trkpt lat="44.75887" lon="2.53599">
        <ele>681.1</ele>
        <time>2021-11-11T10:05:33Z</time>
      </trkpt>
      <trkpt lat="44.75887" lon="2.53599">
        <ele>668.3</ele>
        <time>2021-11-11T10:05:38Z</time>
      </trkpt>
      <trkpt lat="44.75887" lon="2.53599">
        <ele>696.2</ele>
        <time>2021-11-11T10:05:44Z</time>
      </trkpt>
      <trkpt lat="44.75887" lon="2.53599">
        <ele>684.5</ele>
        <time>2021-11-11T10:05:49Z</time>
      </trkpt>
      <trkpt lat="44.75887" lon="2.53599">
        <ele>687.6</ele>
        <time>2021-11-11T10:05:55Z</time>
      </trkpt>
      <trkpt lat="44.75891" lon="2.53602">
        <ele>673.4</ele>
        <time>2021-11-11T10:06:00Z</time>
      </trkpt>
      <trkpt lat="44.75895" lon="2.53604">
        <ele>694.4</ele>
        <time>2021-11-11T10:06:06Z</time>
      </trkpt>
      <trkpt lat="44.75902" lon="2.53605">
        <ele>686.6</ele>
        <time>2021-11-11T10:06:11Z</time>
      </trkpt>
      <trkpt lat="44.75907" lon="2.53605">
        <ele>685</ele>
        <time>2021-11-11T10:06:16Z</time>
      </trkpt>
      <trkpt lat="44.75913" lon="2.53605">
        <ele>672.9</ele>
        <time>2021-11-11T10:06:21Z</time>
      </trkpt>
      <trkpt lat="44.75915" lon="2.53604">
        <ele>685.5</ele>
        <time>2021-11-11T10:06:27Z</time>
      </trkpt>
      <trkpt lat="44.75916" lon="2.53607">
        <ele>698.2</ele>
        <time>2021-11-11T10:06:32Z</time>
      </trkpt>
      <trkpt lat="44.75922" lon="2.53608">
        <ele>666.4</ele>
        <time>2021-11-11T10:06:38Z</time>
      </trkpt>
      <trkpt lat="44.75931" lon="2.53614">
        <ele>680.7</ele>
        <time>2021-11-11T10:06:43Z</time>
      </trkpt>
      <trkpt lat="44.75938" lon="2.5362">
        <ele>695.8</ele>
        <time>2021-11-11T10:06:49Z</time>
      </trkpt>
      <trkpt lat="44.75941" lon="2.53629">
        <ele>686.5</ele>
        <time>2021-11-11T10:06:54Z</time>
      </trkpt>
      <trkpt lat="44.75939" lon="2.53633">
        <ele>671.5</ele>
        <time>2021-11-11T10:07:00Z</time>
      </trkpt>
      <trkpt lat="44.75939" lon="2.53634">
        <ele>682.1</ele>
        <time>2021-11-11T10:07:05Z</time>
      </trkpt>
      <trkpt lat="44.75942" lon="2.53635">
        <ele>678.2</ele>
        <time>2021-11-11T10:07:11Z</time>
      </trkpt>
      <trkpt lat="44.75945" lon="2.53642">
        <ele>668.3</ele>
        <time>2021-11-11T10:07:16Z</time>
      </trkpt>
      <trkpt lat="44.75945" lon="2.53648">
        <ele>696.4</ele>
        <time>2021-11-11T10:07:21Z</time>
      </trkpt>
      <trkpt lat="44.75947" lon="2.53651">
        <ele>684.4</ele>
        <time>2021-11-11T10:07:26Z</time>
      </trkpt>
      <trkpt lat="44.75938" lon="2.5368">
        <ele>675.9</ele>
        <time>2021-11-11T10:07:32Z</time>
      </trkpt>
      <trkpt lat="44.75939" lon="2.5369">
        <ele>660.6</ele>
        <time>2021-11-11T10:07:37Z</time>
      </trkpt>
      <trkpt lat="44.75939" lon="2.537">
        <ele>672.1</ele>
        <time>2021-11-11T10:07:42Z</time>
      </trkpt>
      <trkpt lat="44.75938" lon="2.53708">
        <ele>684.6</ele>
        <time>2021-11-11T10:07:47Z</time>
      </trkpt>
      <trkpt lat="44.75937" lon="2.53718">
        <ele>663.2</ele>
        <time>2021-11-11T10:07:52Z</time>
      </trkpt>
      <trkpt lat="44.75937" lon="2.53728">
        <ele>688.6</ele>
        <time>2021-11-11T10:07:57Z</time>
      </trkpt>
      <trkpt lat="44.75938" lon="2.53737">
        <ele>676.3</ele>
        <time>2021-11-11T10:08:03Z</time>
      </trkpt>
      <trkpt lat="44.7594" lon="2.53746">
        <ele>660.8</ele>
        <time>2021-11-11T10:08:08Z</time>
      </trkpt>
      <trkpt lat="44.75942" lon="2.53755">
        <ele>683.9</ele>
        <time>2021-11-11T10:08:14Z</time>
      </trkpt>
      <trkpt lat="44.75943" lon="2.53766">
        <ele>680.4</ele>
        <time>2021-11-11T10:08:19Z</time>
      </trkpt>
      <trkpt lat="44.75941" lon="2.53776">
        <ele>677.9</ele>
        <time>2021-11-11T10:08:24Z</time>
      </trkpt>
      <trkpt lat="44.75945" lon="2.53783">
        <ele>675.9</ele>
        <time>2021-11-11T10:08:30Z</time>
      </trkpt>
      <trkpt lat="44.75948" lon="2.53789">
        <ele>667.4</ele>
        <time>2021-11-11T10:08:35Z</time>
      </trkpt>
      <trkpt lat="44.7595" lon="2.53799">
        <ele>686.2</ele>
        <time>2021-11-11T10:08:40Z</time>
      </trkpt>
      <trkpt lat="44.75953" lon="2.53804">
        <ele>673</ele>
        <time>2021-11-11T10:08:46Z</time>
      </trkpt>
      <trkpt lat="44.75955" lon="2.53811">
        <ele>693.8</ele>
        <time>2021-11-11T10:08:51Z</time>
      </trkpt>
      <trkpt lat="44.75958" lon="2.5382">
        <ele>676.6</ele>
        <time>2021-11-11T10:08:57Z</time>
      </trkpt>
      <trkpt lat="44.75964" lon="2.53824">
        <ele>684.6</ele>
        <time>2021-11-11T10:09:02Z</time>
      </trkpt>
      <trkpt lat="44.75969" lon="2.53829">
        <ele>675.8</ele>
        <time>2021-11-11T10:09:07Z</time>
      </trkpt>
      <trkpt lat="44.75975" lon="2.53832">
        <ele>678.1</ele>
        <time>2021-11-11T10:09:12Z</time>
      </trkpt>
      <trkpt lat="44.75981" lon="2.53837">
        <ele>686.3</ele>
        <time>2021-11-11T10:09:18Z</time>
      </trkpt>
      <trkpt lat="44.75987" lon="2.5384">
        <ele>668.9</ele>
        <time>2021-11-11T10:09:23Z</time>
      </trkpt>
      <trkpt lat="44.75993" lon="2.53844">
        <ele>668.8</ele>
        <time>2021-11-11T10:09:29Z</time>
      </trkpt>
      <trkpt lat="44.76001" lon="2.53842">
        <ele>679.3</ele>
        <time>2021-11-11T10:09:35Z</time>
      </trkpt>
      <trkpt lat="44.76006" lon="2.53841">
        <ele>695.1</ele>
        <time>2021-11-11T10:09:40Z</time>
      </trkpt>
      <trkpt lat="44.76011" lon="2.53842">
        <ele>689.9</ele>
        <time>2021-11-11T10:09:45Z</time>
      </trkpt>
      <trkpt lat="44.76019" lon="2.53851">
        <ele>685</ele>
        <time>2021-11-11T10:09:50Z</time>
      </trkpt>
      <trkpt lat="44.76026" lon="2.53855">
        <ele>669.9</ele>
        <time>2021-11-11T10:09:56Z</time>
      </trkpt>
      <trkpt lat="44.76031" lon="2.53862">
        <ele>688.6</ele>
        <time>2021-11-11T10:10:01Z</time>
      </trkpt>
      <trkpt lat="44.76032" lon="2.5387">
        <ele>674.7</ele>
        <time>2021-11-11T10:10:06Z</time>
      </trkpt>
      <trkpt lat="44.76032" lon="2.53881">
        <ele>673.1</ele>
        <time>2021-11-11T10:10:11Z</time>
      </trkpt>
      <trkpt lat="44.7603" lon="2.53894">
        <ele>674</ele>
        <time>2021-11-11T10:10:16Z</time>
      </trkpt>
      <trkpt lat="44.76032" lon="2.539">
        <ele>688.2</ele>
        <time>2021-11-11T10:10:22Z</time>
      </trkpt>
      <trkpt lat="44.76032" lon="2.53909">
        <ele>694.1</ele>
        <time>2021-11-11T10:10:28Z</time>
      </trkpt>
      <trkpt lat="44.7603" lon="2.5392">
        <ele>687.3</ele>
        <time>2021-11-11T10:10:33Z</time>
      </trkpt>
      <trkpt lat="44.76028" lon="2.53931">
        <ele>671.5</ele>
        <time>2021-11-11T10:10:39Z</time>
      </trkpt>
      <trkpt lat="44.76027" lon="2.53938">
        <ele>692.5</ele>
        <time>2021-11-11T10:10:44Z</time>
      </trkpt>
      <trkpt lat="44.76028" lon="2.53944">
        <ele>676.4</ele>
        <time>2021-11-11T10:10:50Z</time>
      </trkpt>
      <trkpt lat="44.76027" lon="2.53952">
        <ele>670.1</ele>
        <time>2021-11-11T10:10:56Z</time>
      </trkpt>
      <trkpt lat="44.76025" lon="2.53963">
        <ele>694</ele>
        <time>2021-11-11T10:11:01Z</time>
      </trkpt>
      <trkpt lat="44.76018" lon="2.53971">
        <ele>678.7</ele>
        <time>2021-11-11T10:11:07Z</time>
      </trkpt>
      <trkpt lat="44.76011" lon="2.53977">
        <ele>687.8</ele>
        <time>2021-11-11T10:11:13Z</time>
      </trkpt>
      <trkpt lat="44.76006" lon="2.53983">
        <ele>677.3</ele>
        <time>2021-11-11T10:11:18Z</time>
      </trkpt>
      <trkpt lat="44.76002" lon="2.5399">
        <ele>678.4</ele>
        <time>2021-11-11T10:11:23Z</time>
      </trkpt>
      <trkpt lat="44.75998" lon="2.53997">
        <ele>674.3</ele>
        <time>2021-11-11T10:11:28Z</time>
      </trkpt>
      <trkpt lat="44.75992" lon="2.54003">
        <ele>694.6</ele>
        <time>2021-11-11T10:11:33Z</time>
      </trkpt>
      <trkpt lat="44.75985" lon="2.54011">
        <ele>686.8</ele>
        <time>2021-11-11T10:11:39Z</time>
      </trkpt>
      <trkpt lat="44.7598" lon="2.54016">
        <ele>685.1</ele>
        <time>2021-11-11T10:11:44Z</time>
      </trkpt>
      <trkpt lat="44.75973" lon="2.54022">
        <ele>682.4</ele>
        <time>2021-11-11T10:11:49Z</time>
      </trkpt>
      <trkpt lat="44.75968" lon="2.54027">
        <ele>670.7</ele>
        <time>2021-11-11T10:11:54Z</time>
      </trkpt>
      <trkpt lat="44.75961" lon="2.54031">
        <ele>693.3</ele>
        <time>2021-11-11T10:12:00Z</time>
      </trkpt>
      <trkpt lat="44.75956" lon="2.54037">
        <ele>664.1</ele>
        <time>2021-11-11T10:12:05Z</time>
      </trkpt>
      <trkpt lat="44.75951" lon="2.54043">
        <ele>662.8</ele>
        <time>2021-11-11T10:12:10Z</time>
      </trkpt>
      <trkpt lat="44.75945" lon="2.54048">
        <ele>673.5</ele>
        <time>2021-11-11T10:12:15Z</time>
      </trkpt>
      <trkpt lat="44.75938" lon="2.54052">
        <ele>669.7</ele>
        <time>2021-11-11T10:12:20Z</time>
      </trkpt>
      <trkpt lat="44.75933" lon="2.54058">
        <ele>661.7</ele>
        <time>2021-11-11T10:12:25Z</time>
      </trkpt>
      <trkpt lat="44.75928" lon="2.54064">
        <ele>660.8</ele>
        <time>2021-11-11T10:12:31Z</time>
      </trkpt>
      <trkpt lat="44.75922" lon="2.54068">
        <ele>669.6</ele>
        <time>2021-11-11T10:12:36Z</time>
      </trkpt>
      <trkpt lat="44.75916" lon="2.54069">
        <ele>684.1</ele>
        <time>2021-11-11T10:12:41Z</time>
      </trkpt>
      <trkpt lat="44.7591" lon="2.54073">
        <ele>674</ele>
        <time>2021-11-11T10:12:46Z</time>
      </trkpt>
      <trkpt lat="44.75905" lon="2.54079">
        <ele>666.9</ele>
        <time>2021-11-11T10:12:52Z</time>
      </trkpt>
      <trkpt lat="44.75899" lon="2.54085">
        <ele>661.6</ele>
        <time>2021-11-11T10:12:57Z</time>
      </trkpt>
      <trkpt lat="44.75894" lon="2.54092">
        <ele>685.3</ele>
        <time>2021-11-11T10:13:02Z</time>
      </trkpt>
      <trkpt lat="44.75888" lon="2.54098">
        <ele>662.9</ele>
        <time>2021-11-11T10:13:07Z</time>
      </trkpt>
      <trkpt lat="44.75883" lon="2.54104">
        <ele>672.4</ele>
        <time>2021-11-11T10:13:13Z</time>
      </trkpt>
      <trkpt lat="44.75877" lon="2.54109">
        <ele>687.2</ele>
        <time>2021-11-11T10:13:18Z</time>
      </trkpt>
      <trkpt lat="44.75872" lon="2.54115">
        <ele>678.2</ele>
        <time>2021-11-11T10:13:23Z</time>
      </trkpt>
      <trkpt lat="44.75867" lon="2.54123">
        <ele>662.6</ele>
        <time>2021-11-11T10:13:29Z</time>
      </trkpt>
      <trkpt lat="44.75862" lon="2.54131">
        <ele>652.6</ele>
        <time>2021-11-11T10:13:34Z</time>
      </trkpt>
      <trkpt lat="44.75858" lon="2.54139">
        <ele>667</ele>
        <time>2021-11-11T10:13:39Z</time>
      </trkpt>
      <trkpt lat="44.75853" lon="2.54147">
        <ele>663.1</ele>
        <time>2021-11-11T10:13:44Z</time>
      </trkpt>
      <trkpt lat="44.75848" lon="2.54156">
        <ele>683.2</ele>
        <time>2021-11-11T10:13:50Z</time>
      </trkpt>
      <trkpt lat="44.75845" lon="2.54164">
        <ele>666.1</ele>
        <time>2021-11-11T10:13:55Z</time>
      </trkpt>
      <trkpt lat="44.7584" lon="2.54174">
        <ele>672.9</ele>
        <time>2021-11-11T10:14:01Z</time>
      </trkpt>
      <trkpt lat="44.75835" lon="2.54182">
        <ele>675.3</ele>
        <time>2021-11-11T10:14:06Z</time>
      </trkpt>
      <trkpt lat="44.75831" lon="2.54191">
        <ele>693</ele>
        <time>2021-11-11T10:14:11Z</time>
      </trkpt>
      <trkpt lat="44.75828" lon="2.54201">
        <ele>684.1</ele>
        <time>2021-11-11T10:14:17Z</time>
      </trkpt>
      <trkpt lat="44.75824" lon="2.54211">
        <ele>674.9</ele>
        <time>2021-11-11T10:14:23Z</time>
      </trkpt>
      <trkpt lat="44.75821" lon="2.54221">
        <ele>659.6</ele>
        <time>2021-11-11T10:14:28Z</time>
      </trkpt>
      <trkpt lat="44.75818" lon="2.54229">
        <ele>669.6</ele>
        <time>2021-11-11T10:14:33Z</time>
      </trkpt>
      <trkpt lat="44.75811" lon="2.54238">
        <ele>669.6</ele>
        <time>2021-11-11T10:14:39Z</time>
      </trkpt>
      <trkpt lat="44.75806" lon="2.54243">
        <ele>679.4</ele>
        <time>2021-11-11T10:14:44Z</time>
      </trkpt>
      <trkpt lat="44.75801" lon="2.54252">
        <ele>702</ele>
        <time>2021-11-11T10:14:49Z</time>
      </trkpt>
      <trkpt lat="44.75795" lon="2.54258">
        <ele>681.9</ele>
        <time>2021-11-11T10:14:54Z</time>
      </trkpt>
      <trkpt lat="44.75788" lon="2.5426">
        <ele>666.9</ele>
        <time>2021-11-11T10:14:59Z</time>
      </trkpt>
      <trkpt lat="44.75782" lon="2.54265">
        <ele>677.1</ele>
        <time>2021-11-11T10:15:04Z</time>
      </trkpt>
      <trkpt lat="44.75774" lon="2.54268">
        <ele>648.5</ele>
        <time>2021-11-11T10:15:10Z</time>
      </trkpt>
      <trkpt lat="44.75767" lon="2.54271">
        <ele>683.8</ele>
        <time>2021-11-11T10:15:15Z</time>
      </trkpt>
      <trkpt lat="44.75759" lon="2.54274">
        <ele>680.4</ele>
        <time>2021-11-11T10:15:20Z</time>
      </trkpt>
      <trkpt lat="44.75752" lon="2.54276">
        <ele>675.4</ele>
        <time>2021-11-11T10:15:26Z</time>
      </trkpt>
      <trkpt lat="44.75746" lon="2.5428">
        <ele>674.1</ele>
        <time>2021-11-11T10:15:31Z</time>
      </trkpt>
      <trkpt lat="44.75739" lon="2.54283">
        <ele>691.3</ele>
        <time>2021-11-11T10:15:36Z</time>
      </trkpt>
      <trkpt lat="44.75732" lon="2.54286">
        <ele>675.1</ele>
        <time>2021-11-11T10:15:41Z</time>
      </trkpt>
      <trkpt lat="44.75725" lon="2.54289">
        <ele>659.5</ele>
        <time>2021-11-11T10:15:46Z</time>
      </trkpt>
      <trkpt lat="44.75719" lon="2.54293">
        <ele>667.4</ele>
        <time>2021-11-11T10:15:52Z</time>
      </trkpt>
      <trkpt lat="44.75712" lon="2.54298">
        <ele>681.8</ele>
        <time>2021-11-11T10:15:57Z</time>
      </trkpt>
      <trkpt lat="44.75707" lon="2.54301">
        <ele>666.1</ele>
        <time>2021-11-11T10:16:02Z</time>
      </trkpt>
      <trkpt lat="44.75701" lon="2.54305">
        <ele>681.4</ele>
        <time>2021-11-11T10:16:07Z</time>
      </trkpt>
      <trkpt lat="44.75695" lon="2.5431">
        <ele>663.3</ele>
        <time>2021-11-11T10:16:13Z</time>
      </trkpt>
      <trkpt lat="44.75689" lon="2.54313">
        <ele>681</ele>
        <time>2021-11-11T10:16:18Z</time>
      </trkpt>
      <trkpt lat="44.75682" lon="2.54314">
        <ele>672.2</ele>
        <time>2021-11-11T10:16:23Z</time>
      </trkpt>
      <trkpt lat="44.75674" lon="2.54319">
        <ele>672.7</ele>
        <time>2021-11-11T10:16:29Z</time>
      </trkpt>
      <trkpt lat="44.75669" lon="2.5432">
        <ele>676</ele>
        <time>2021-11-11T10:16:34Z</time>
      </trkpt>
      <trkpt lat="44.75663" lon="2.54321">
        <ele>665</ele>
        <time>2021-11-11T10:16:39Z</time>
      </trkpt>
      <trkpt lat="44.75657" lon="2.54322">
        <ele>664.1</ele>
        <time>2021-11-11T10:16:44Z</time>
      </trkpt>
      <trkpt lat="44.75651" lon="2.54326">
        <ele>680.7</ele>
        <time>2021-11-11T10:16:50Z</time>
      </trkpt>
      <trkpt lat="44.75644" lon="2.54329">
        <ele>671.9</ele>
        <time>2021-11-11T10:16:55Z</time>
      </trkpt>
      <trkpt lat="44.75639" lon="2.54331">
        <ele>668</ele>
        <time>2021-11-11T10:17:00Z</time>
      </trkpt>
      <trkpt lat="44.75634" lon="2.54336">
        <ele>665.6</ele>
        <time>2021-11-11T10:17:06Z</time>
      </trkpt>
      <trkpt lat="44.75628" lon="2.5434">
        <ele>652.7</ele>
        <time>2021-11-11T10:17:12Z</time>
      </trkpt>
      <trkpt lat="44.75624" lon="2.54344">
        <ele>671.1</ele>
        <time>2021-11-11T10:17:17Z</time>
      </trkpt>
      <trkpt lat="44.75617" lon="2.5435">
        <ele>677.9</ele>
        <time>2021-11-11T10:17:23Z</time>
      </trkpt>
      <trkpt lat="44.75612" lon="2.54353">
        <ele>656.6</ele>
        <time>2021-11-11T10:17:28Z</time>
      </trkpt>
      <trkpt lat="44.75608" lon="2.54359">
        <ele>656</ele>
        <time>2021-11-11T10:17:33Z</time>
      </trkpt>
      <trkpt lat="44.75604" lon="2.54366">
        <ele>661</ele>
        <time>2021-11-11T10:17:38Z</time>
      </trkpt>
      <trkpt lat="44.75601" lon="2.54375">
        <ele>662.1</ele>
        <time>2021-11-11T10:17:43Z</time>
      </trkpt>
      <trkpt lat="44.75598" lon="2.54384">
        <ele>675.4</ele>
        <time>2021-11-11T10:17:49Z</time>
      </trkpt>
      <trkpt lat="44.75597" lon="2.54392">
        <ele>680.5</ele>
        <time>2021-11-11T10:17:54Z</time>
      </trkpt>
      <trkpt lat="44.75595" lon="2.54399">
        <ele>663.8</ele>
        <time>2021-11-11T10:17:59Z</time>
      </trkpt>
      <trkpt lat="44.75591" lon="2.54398">
        <ele>652.5</ele>
        <time>2021-11-11T10:18:04Z</time>
      </trkpt>
      <trkpt lat="44.7559" lon="2.54403">
        <ele>664.7</ele>
        <time>2021-11-11T10:18:09Z</time>
      </trkpt>
      <trkpt lat="44.75591" lon="2.54406">
        <ele>676.1</ele>
        <time>2021-11-11T10:18:15Z</time>
      </trkpt>
      <trkpt lat="44.75594" lon="2.54406">
        <ele>674.4</ele>
        <time>2021-11-11T10:18:20Z</time>
      </trkpt>
      <trkpt lat="44.75596" lon="2.5441">
        <ele>679</ele>
        <time>2021-11-11T10:18:25Z</time>
      </trkpt>
      <trkpt lat="44.75598" lon="2.54412">
        <ele>663.5</ele>
        <time>2021-11-11T10:18:30Z</time>
      </trkpt>
      <trkpt lat="44.756" lon="2.54414">
        <ele>675.4</ele>
        <time>2021-11-11T10:18:36Z</time>
      </trkpt>
      <trkpt lat="44.75601" lon="2.54419">
        <ele>663.6</ele>
        <time>2021-11-11T10:18:41Z</time>
      </trkpt>
      <trkpt lat="44.75608" lon="2.54433">
        <ele>659.2</ele>
        <time>2021-11-11T10:18:47Z</time>
      </trkpt>
      <trkpt lat="44.75615" lon="2.54442">
        <ele>669.8</ele>
        <time>2021-11-11T10:18:52Z</time>
      </trkpt>
      <trkpt lat="44.7562" lon="2.54446">
        <ele>671.4</ele>
        <time>2021-11-11T10:18:57Z</time>
      </trkpt>
      <trkpt lat="44.75625" lon="2.54454">
        <ele>647.3</ele>
        <time>2021-11-11T10:19:03Z</time>
      </trkpt>
      <trkpt lat="44.75628" lon="2.54458">
        <ele>671.1</ele>
        <time>2021-11-11T10:19:08Z</time>
      </trkpt>
      <trkpt lat="44.75629" lon="2.54463">
        <ele>658.8</ele>
        <time>2021-11-11T10:19:13Z</time>
      </trkpt>
      <trkpt lat="44.75632" lon="2.54467">
        <ele>679</ele>
        <time>2021-11-11T10:19:18Z</time>
      </trkpt>
      <trkpt lat="44.75632" lon="2.54469">
        <ele>667.1</ele>
        <time>2021-11-11T10:19:24Z</time>
      </trkpt>
      <trkpt lat="44.75634" lon="2.54471">
        <ele>660.6</ele>
        <time>2021-11-11T10:19:29Z</time>
      </trkpt>
      <trkpt lat="44.7564" lon="2.54488">
        <ele>657</ele>
        <time>2021-11-11T10:19:34Z</time>
      </trkpt>
      <trkpt lat="44.75646" lon="2.54501">
        <ele>666.7</ele>
        <time>2021-11-11T10:19:39Z</time>
      </trkpt>
      <trkpt lat="44.7565" lon="2.54508">
        <ele>653.6</ele>
        <time>2021-11-11T10:19:45Z</time>
      </trkpt>
      <trkpt lat="44.75655" lon="2.54515">
        <ele>655.4</ele>
        <time>2021-11-11T10:19:50Z</time>
      </trkpt>
      <trkpt lat="44.7566" lon="2.54522">
        <ele>640.5</ele>
        <time>2021-11-11T10:19:56Z</time>
      </trkpt>
      <trkpt lat="44.75664" lon="2.54531">
        <ele>635.9</ele>
        <time>2021-11-11T10:20:02Z</time>
      </trkpt>
      <trkpt lat="44.75666" lon="2.54536">
        <ele>649.8</ele>
        <time>2021-11-11T10:20:07Z</time>
      </trkpt>
      <trkpt lat="44.7567" lon="2.54541">
        <ele>646.1</ele>
        <time>2021-11-11T10:20:12Z</time>
      </trkpt>
      <trkpt lat="44.75672" lon="2.54548">
        <ele>654.4</ele>
        <time>2021-11-11T10:20:18Z</time>
      </trkpt>
      <trkpt lat="44.7567" lon="2.54553">
        <ele>648.8</ele>
        <time>2021-11-11T10:20:23Z</time>
      </trkpt>
      <trkpt lat="44.7567" lon="2.54555">
        <ele>636.5</ele>
        <time>2021-11-11T10:20:28Z</time>
      </trkpt>
      <trkpt lat="44.75671" lon="2.54558">
        <ele>631</ele>
        <time>2021-11-11T10:20:34Z</time>
      </trkpt>
      <trkpt lat="44.7567" lon="2.54562">
        <ele>641.5</ele>
        <time>2021-11-11T10:20:41Z</time>
      </trkpt>
      <trkpt lat="44.7567" lon="2.54564">
        <ele>636.7</ele>
        <time>2021-11-11T10:20:46Z</time>
      </trkpt>
      <trkpt lat="44.7567" lon="2.54564">
        <ele>651.4</ele>
        <time>2021-11-11T10:20:52Z</time>
      </trkpt>
      <trkpt lat="44.75672" lon="2.54565">
        <ele>643.7</ele>
        <time>2021-11-11T10:20:57Z</time>
      </trkpt>
      <trkpt lat="44.75673" lon="2.54566">
        <ele>649.9</ele>
        <time>2021-11-11T10:21:03Z</time>
      </trkpt>
      <trkpt lat="44.75673" lon="2.54566">
        <ele>636.4</ele>
        <time>2021-11-11T10:21:08Z</time>
      </trkpt>
      <trkpt lat="44.75673" lon="2.54566">
        <ele>656.5</ele>
        <time>2021-11-11T10:21:14Z</time>
      </trkpt>
      <trkpt lat="44.75673" lon="2.54566">
        <ele>658.2</ele>
        <time>2021-11-11T10:21:19Z</time>
      </trkpt>
      <trkpt lat="44.75673" lon="2.54565">
        <ele>651.9</ele>
        <time>2021-11-11T10:21:24Z</time>
      </trkpt>
      <trkpt lat="44.75673" lon="2.54564">
        <ele>647.4</ele>
        <time>2021-11-11T10:21:30Z</time>
      </trkpt>
      <trkpt lat="44.75673" lon="2.54563">
        <ele>642.3</ele>
        <time>2021-11-11T10:21:36Z</time>
      </trkpt>
      <trkpt lat="44.75674" lon="2.54563">
        <ele>634.3</ele>
        <time>2021-11-11T10:21:41Z</time>
      </trkpt>
      <trkpt lat="44.75676" lon="2.54565">
        <ele>641.1</ele>
        <time>2021-11-11T10:21:47Z</time>
      </trkpt>
      <trkpt lat="44.75679" lon="2.54577">
        <ele>636.2</ele>
        <time>2021-11-11T10:21:52Z</time>
      </trkpt>
      <trkpt lat="44.7568" lon="2.54586">
        <ele>647.7</ele>
        <time>2021-11-11T10:21:58Z</time>
      </trkpt>
      <trkpt lat="44.75679" lon="2.54593">
        <ele>642.4</ele>
        <time>2021-11-11T10:22:03Z</time>
      </trkpt>
      <trkpt lat="44.75679" lon="2.54601">
        <ele>649.2</ele>
        <time>2021-11-11T10:22:09Z</time>
      </trkpt>
      <trkpt lat="44.75681" lon="2.54607">
        <ele>641.7</ele>
        <time>2021-11-11T10:22:14Z</time>
      </trkpt>
      <trkpt lat="44.75684" lon="2.54613">
        <ele>635.4</ele>
        <time>2021-11-11T10:22:19Z</time>
      </trkpt>
      <trkpt lat="44.75688" lon="2.54622">
        <ele>635.4</ele>
        <time>2021-11-11T10:22:25Z</time>
      </trkpt>
      <trkpt lat="44.75695" lon="2.54627">
        <ele>630.5</ele>
        <time>2021-11-11T10:22:30Z</time>
      </trkpt>
      <trkpt lat="44.757" lon="2.5463">
        <ele>621.7</ele>
        <time>2021-11-11T10:22:35Z</time>
      </trkpt>
      <trkpt lat="44.75706" lon="2.54634">
        <ele>616.7</ele>
        <time>2021-11-11T10:22:40Z</time>
      </trkpt>
      <trkpt lat="44.75712" lon="2.54639">
        <ele>636.8</ele>
        <time>2021-11-11T10:22:46Z</time>
      </trkpt>
      <trkpt lat="44.75716" lon="2.54642">
        <ele>634.5</ele>
        <time>2021-11-11T10:22:51Z</time>
      </trkpt>
      <trkpt lat="44.75721" lon="2.54645">
        <ele>631.9</ele>
        <time>2021-11-11T10:22:56Z</time>
      </trkpt>
      <trkpt lat="44.75726" lon="2.54648">
        <ele>617.8</ele>
        <time>2021-11-11T10:23:01Z</time>
      </trkpt>
      <trkpt lat="44.7573" lon="2.54648">
        <ele>635.6</ele>
        <time>2021-11-11T10:23:07Z</time>
      </trkpt>
      <trkpt lat="44.75736" lon="2.54647">
        <ele>641</ele>
        <time>2021-11-11T10:23:12Z</time>
      </trkpt>
      <trkpt lat="44.75742" lon="2.54647">
        <ele>625</ele>
        <time>2021-11-11T10:23:17Z</time>
      </trkpt>
      <trkpt lat="44.7575" lon="2.54648">
        <ele>620.2</ele>
        <time>2021-11-11T10:23:23Z</time>
      </trkpt>
      <trkpt lat="44.75755" lon="2.54647">
        <ele>610.6</ele>
        <time>2021-11-11T10:23:28Z</time>
      </trkpt>
      <trkpt lat="44.75759" lon="2.54648">
        <ele>618.5</ele>
        <time>2021-11-11T10:23:33Z</time>
      </trkpt>
      <trkpt lat="44.75761" lon="2.54652">
        <ele>631.9</ele>
        <time>2021-11-11T10:23:39Z</time>
      </trkpt>
      <trkpt lat="44.75766" lon="2.54659">
        <ele>623.9</ele>
        <time>2021-11-11T10:23:44Z</time>
      </trkpt>
      <trkpt lat="44.75768" lon="2.54669">
        <ele>608.2</ele>
        <time>2021-11-11T10:23:50Z</time>
      </trkpt>
      <trkpt lat="44.75765" lon="2.54674">
        <ele>610.5</ele>
        <time>2021-11-11T10:23:55Z</time>
      </trkpt>
      <trkpt lat="44.75761" lon="2.54679">
        <ele>624.6</ele>
        <time>2021-11-11T10:24:01Z</time>
      </trkpt>
      <trkpt lat="44.75758" lon="2.54685">
        <ele>626.8</ele>
        <time>2021-11-11T10:24:06Z</time>
      </trkpt>
      <trkpt lat="44.75752" lon="2.54691">
        <ele>622.4</ele>
        <time>2021-11-11T10:24:11Z</time>
      </trkpt>
      <trkpt lat="44.75749" lon="2.54697">
        <ele>630.7</ele>
        <time>2021-11-11T10:24:16Z</time>
      </trkpt>
      <trkpt lat="44.7575" lon="2.54699">
        <ele>606.6</ele>
        <time>2021-11-11T10:24:22Z</time>
      </trkpt>
      <trkpt lat="44.75754" lon="2.547">
        <ele>623.3</ele>
        <time>2021-11-11T10:24:27Z</time>
      </trkpt>
      <trkpt lat="44.75759" lon="2.54702">
        <ele>621.2</ele>
        <time>2021-11-11T10:24:33Z</time>
      </trkpt>
      <trkpt lat="44.75761" lon="2.54702">
        <ele>623.3</ele>
        <time>2021-11-11T10:24:38Z</time>
      </trkpt>
      <trkpt lat="44.75763" lon="2.54701">
        <ele>619.2</ele>
        <time>2021-11-11T10:24:43Z</time>
      </trkpt>
      <trkpt lat="44.75767" lon="2.54699">
        <ele>624.3</ele>
        <time>2021-11-11T10:24:49Z</time>
      </trkpt>
      <trkpt lat="44.7577" lon="2.54699">
        <ele>616.3</ele>
        <time>2021-11-11T10:24:54Z</time>
      </trkpt>
      <trkpt lat="44.75774" lon="2.54693">
        <ele>609.9</ele>
        <time>2021-11-11T10:25:00Z</time>
      </trkpt>
      <trkpt lat="44.75778" lon="2.54691">
        <ele>607.2</ele>
        <time>2021-11-11T10:25:05Z</time>
      </trkpt>
      <trkpt lat="44.75781" lon="2.5469">
        <ele>612.2</ele>
        <time>2021-11-11T10:25:11Z</time>
      </trkpt>
      <trkpt lat="44.75783" lon="2.54688">
        <ele>614.6</ele>
        <time>2021-11-11T10:25:16Z</time>
      </trkpt>
      <trkpt lat="44.75784" lon="2.54688">
        <ele>602.4</ele>
        <time>2021-11-11T10:25:21Z</time>
      </trkpt>
      <trkpt lat="44.75788" lon="2.54689">
        <ele>608.4</ele>
        <time>2021-11-11T10:25:27Z</time>
      </trkpt>
      <trkpt lat="44.75794" lon="2.54688">
        <ele>603.4</ele>
        <time>2021-11-11T10:25:32Z</time>
      </trkpt>
      <trkpt lat="44.75801" lon="2.54686">
        <ele>615.8</ele>
        <time>2021-11-11T10:25:38Z</time>
      </trkpt>
      <trkpt lat="44.75807" lon="2.54679">
        <ele>610.7</ele>
        <time>2021-11-11T10:25:43Z</time>
      </trkpt>
      <trkpt lat="44.75811" lon="2.54669">
        <ele>592.2</ele>
        <time>2021-11-11T10:25:49Z</time>
      </trkpt>
      <trkpt lat="44.75814" lon="2.54659">
        <ele>613.1</ele>
        <time>2021-11-11T10:25:54Z</time>
      </trkpt>
      <trkpt lat="44.75819" lon="2.54652">
        <ele>616.2</ele>
        <time>2021-11-11T10:25:59Z</time>
      </trkpt>
      <trkpt lat="44.75825" lon="2.54646">
        <ele>607.5</ele>
        <time>2021-11-11T10:26:05Z</time>
      </trkpt>
      <trkpt lat="44.75832" lon="2.54643">
        <ele>598.8</ele>
        <time>2021-11-11T10:26:10Z</time>
      </trkpt>
      <trkpt lat="44.75836" lon="2.54638">
        <ele>605.9</ele>
        <time>2021-11-11T10:26:16Z</time>
      </trkpt>
      <trkpt lat="44.75841" lon="2.54634">
        <ele>603.3</ele>
        <time>2021-11-11T10:26:21Z</time>
      </trkpt>
      <trkpt lat="44.75845" lon="2.54632">
        <ele>606.9</ele>
        <time>2021-11-11T10:26:26Z</time>
      </trkpt>
      <trkpt lat="44.75849" lon="2.54634">
        <ele>598.4</ele>
        <time>2021-11-11T10:26:31Z</time>
      </trkpt>
      <trkpt lat="44.75857" lon="2.54631">
        <ele>595.2</ele>
        <time>2021-11-11T10:26:37Z</time>
      </trkpt>
      <trkpt lat="44.75864" lon="2.54637">
        <ele>592.8</ele>
        <time>2021-11-11T10:26:42Z</time>
      </trkpt>
      <trkpt lat="44.75869" lon="2.5464">
        <ele>597.7</ele>
        <time>2021-11-11T10:26:48Z</time>
      </trkpt>
      <trkpt lat="44.75874" lon="2.54643">
        <ele>604.4</ele>
        <time>2021-11-11T10:26:53Z</time>
      </trkpt>
      <trkpt lat="44.75878" lon="2.54648">
        <ele>614.6</ele>
        <time>2021-11-11T10:26:58Z</time>
      </trkpt>
      <trkpt lat="44.75882" lon="2.54657">
        <ele>585.5</ele>
        <time>2021-11-11T10:27:03Z</time>
      </trkpt>
      <trkpt lat="44.75884" lon="2.54663">
        <ele>558.5</ele>
        <time>2021-11-11T10:27:09Z</time>
      </trkpt>
      <trkpt lat="44.75883" lon="2.54668">
        <ele>564.9</ele>
        <time>2021-11-11T10:27:14Z</time>
      </trkpt>
      <trkpt lat="44.75884" lon="2.54673">
        <ele>576.2</ele>
        <time>2021-11-11T10:27:20Z</time>
      </trkpt>
      <trkpt lat="44.75883" lon="2.54676">
        <ele>579.9</ele>
        <time>2021-11-11T10:27:25Z</time>
      </trkpt>
      <trkpt lat="44.75882" lon="2.54681">
        <ele>574.4</ele>
        <time>2021-11-11T10:27:30Z</time>
      </trkpt>
      <trkpt lat="44.75881" lon="2.54683">
        <ele>604.6</ele>
        <time>2021-11-11T10:27:35Z</time>
      </trkpt>
      <trkpt lat="44.75867" lon="2.54699">
        <ele>588</ele>
        <time>2021-11-11T10:27:40Z</time>
      </trkpt>
      <trkpt lat="44.75868" lon="2.54706">
        <ele>588.9</ele>
        <time>2021-11-11T10:27:46Z</time>
      </trkpt>
      <trkpt lat="44.7587" lon="2.54712">
        <ele>575.1</ele>
        <time>2021-11-11T10:27:51Z</time>
      </trkpt>
      <trkpt lat="44.7587" lon="2.5472">
        <ele>588.8</ele>
        <time>2021-11-11T10:27:56Z</time>
      </trkpt>
      <trkpt lat="44.75867" lon="2.54725">
        <ele>572.2</ele>
        <time>2021-11-11T10:28:01Z</time>
      </trkpt>
      <trkpt lat="44.75865" lon="2.54727">
        <ele>561.1</ele>
        <time>2021-11-11T10:28:07Z</time>
      </trkpt>
      <trkpt lat="44.75864" lon="2.54731">
        <ele>574.5</ele>
        <time>2021-11-11T10:28:12Z</time>
      </trkpt>
      <trkpt lat="44.75864" lon="2.54733">
        <ele>571.7</ele>
        <time>2021-11-11T10:28:17Z</time>
      </trkpt>
      <trkpt lat="44.7586" lon="2.54742">
        <ele>585.1</ele>
        <time>2021-11-11T10:28:22Z</time>
      </trkpt>
      <trkpt lat="44.75854" lon="2.5476">
        <ele>553.8</ele>
        <time>2021-11-11T10:28:27Z</time>
      </trkpt>
      <trkpt lat="44.75852" lon="2.54768">
        <ele>560.3</ele>
        <time>2021-11-11T10:28:32Z</time>
      </trkpt>
      <trkpt lat="44.75844" lon="2.54771">
        <ele>562.9</ele>
        <time>2021-11-11T10:28:38Z</time>
      </trkpt>
      <trkpt lat="44.75836" lon="2.54772">
        <ele>560.4</ele>
        <time>2021-11-11T10:28:43Z</time>
      </trkpt>
      <trkpt lat="44.75833" lon="2.54778">
        <ele>556.9</ele>
        <time>2021-11-11T10:28:48Z</time>
      </trkpt>
      <trkpt lat="44.75829" lon="2.54782">
        <ele>560.2</ele>
        <time>2021-11-11T10:28:53Z</time>
      </trkpt>
      <trkpt lat="44.75824" lon="2.54785">
        <ele>580.2</ele>
        <time>2021-11-11T10:28:58Z</time>
      </trkpt>
      <trkpt lat="44.75822" lon="2.54785">
        <ele>569.1</ele>
        <time>2021-11-11T10:29:04Z</time>
      </trkpt>
      <trkpt lat="44.75819" lon="2.54787">
        <ele>569.5</ele>
        <time>2021-11-11T10:29:09Z</time>
      </trkpt>
      <trkpt lat="44.75816" lon="2.54789">
        <ele>552.3</ele>
        <time>2021-11-11T10:29:14Z</time>
      </trkpt>
      <trkpt lat="44.75814" lon="2.54793">
        <ele>566.4</ele>
        <time>2021-11-11T10:29:19Z</time>
      </trkpt>
      <trkpt lat="44.75811" lon="2.54798">
        <ele>575.7</ele>
        <time>2021-11-11T10:29:25Z</time>
      </trkpt>
      <trkpt lat="44.75808" lon="2.54802">
        <ele>558.1</ele>
        <time>2021-11-11T10:29:30Z</time>
      </trkpt>
      <trkpt lat="44.75805" lon="2.54805">
        <ele>584.1</ele>
        <time>2021-11-11T10:29:35Z</time>
      </trkpt>
      <trkpt lat="44.75801" lon="2.54814">
        <ele>582.2</ele>
        <time>2021-11-11T10:29:40Z</time>
      </trkpt>
      <trkpt lat="44.75795" lon="2.54823">
        <ele>572.5</ele>
        <time>2021-11-11T10:29:47Z</time>
      </trkpt>
      <trkpt lat="44.75778" lon="2.54819">
        <ele>556</ele>
        <time>2021-11-11T10:29:52Z</time>
      </trkpt>
      <trkpt lat="44.75769" lon="2.54819">
        <ele>567.3</ele>
        <time>2021-11-11T10:29:57Z</time>
      </trkpt>
      <trkpt lat="44.75761" lon="2.54817">
        <ele>561.6</ele>
        <time>2021-11-11T10:30:03Z</time>
      </trkpt>
      <trkpt lat="44.75752" lon="2.54812">
        <ele>569.1</ele>
        <time>2021-11-11T10:30:08Z</time>
      </trkpt>
      <trkpt lat="44.75746" lon="2.54806">
        <ele>560.7</ele>
        <time>2021-11-11T10:30:14Z</time>
      </trkpt>
      <trkpt lat="44.7574" lon="2.548">
        <ele>557.3</ele>
        <time>2021-11-11T10:30:19Z</time>
      </trkpt>
      <trkpt lat="44.75732" lon="2.54795">
        <ele>565.6</ele>
        <time>2021-11-11T10:30:25Z</time>
      </trkpt>
      <trkpt lat="44.75725" lon="2.54792">
        <ele>564.3</ele>
        <time>2021-11-11T10:30:30Z</time>
      </trkpt>
      <trkpt lat="44.7572" lon="2.54788">
        <ele>563.6</ele>
        <time>2021-11-11T10:30:35Z</time>
      </trkpt>
      <trkpt lat="44.75717" lon="2.54787">
        <ele>569.9</ele>
        <time>2021-11-11T10:30:41Z</time>
      </trkpt>
      <trkpt lat="44.75712" lon="2.54786">
        <ele>558.1</ele>
        <time>2021-11-11T10:30:46Z</time>
      </trkpt>
      <trkpt lat="44.75708" lon="2.54786">
        <ele>546.7</ele>
        <time>2021-11-11T10:30:52Z</time>
      </trkpt>
      <trkpt lat="44.757" lon="2.54783">
        <ele>555.5</ele>
        <time>2021-11-11T10:30:58Z</time>
      </trkpt>
      <trkpt lat="44.75694" lon="2.5478">
        <ele>563.7</ele>
        <time>2021-11-11T10:31:03Z</time>
      </trkpt>
      <trkpt lat="44.75686" lon="2.54779">
        <ele>548</ele>
        <time>2021-11-11T10:31:09Z</time>
      </trkpt>
      <trkpt lat="44.7568" lon="2.54776">
        <ele>538.4</ele>
        <time>2021-11-11T10:31:14Z</time>
      </trkpt>
      <trkpt lat="44.75676" lon="2.54773">
        <ele>564.6</ele>
        <time>2021-11-11T10:31:19Z</time>
      </trkpt>
      <trkpt lat="44.75674" lon="2.54771">
        <ele>559.7</ele>
        <time>2021-11-11T10:31:25Z</time>
      </trkpt>
      <trkpt lat="44.75669" lon="2.54768">
        <ele>547.6</ele>
        <time>2021-11-11T10:31:30Z</time>
      </trkpt>
      <trkpt lat="44.75663" lon="2.54765">
        <ele>547.5</ele>
        <time>2021-11-11T10:31:36Z</time>
      </trkpt>
      <trkpt lat="44.75658" lon="2.54765">
        <ele>550.7</ele>
        <time>2021-11-11T10:31:41Z</time>
      </trkpt>
      <trkpt lat="44.75653" lon="2.54764">
        <ele>541.3</ele>
        <time>2021-11-11T10:31:46Z</time>
      </trkpt>
      <trkpt lat="44.75647" lon="2.54761">
        <ele>558.8</ele>
        <time>2021-11-11T10:31:51Z</time>
      </trkpt>
      <trkpt lat="44.75643" lon="2.54758">
        <ele>557.2</ele>
        <time>2021-11-11T10:31:56Z</time>
      </trkpt>
      <trkpt lat="44.75637" lon="2.54759">
        <ele>549.2</ele>
        <time>2021-11-11T10:32:02Z</time>
      </trkpt>
      <trkpt lat="44.7563" lon="2.54758">
        <ele>552.9</ele>
        <time>2021-11-11T10:32:07Z</time>
      </trkpt>
      <trkpt lat="44.75624" lon="2.54753">
        <ele>544.3</ele>
        <time>2021-11-11T10:32:12Z</time>
      </trkpt>
      <trkpt lat="44.75617" lon="2.54748">
        <ele>541.1</ele>
        <time>2021-11-11T10:32:17Z</time>
      </trkpt>
      <trkpt lat="44.75612" lon="2.54747">
        <ele>551.8</ele>
        <time>2021-11-11T10:32:23Z</time>
      </trkpt>
      <trkpt lat="44.75606" lon="2.54744">
        <ele>530.3</ele>
        <time>2021-11-11T10:32:29Z</time>
      </trkpt>
      <trkpt lat="44.756" lon="2.54739">
        <ele>548.4</ele>
        <time>2021-11-11T10:32:34Z</time>
      </trkpt>
      <trkpt lat="44.75594" lon="2.54733">
        <ele>556.4</ele>
        <time>2021-11-11T10:32:39Z</time>
      </trkpt>
      <trkpt lat="44.75589" lon="2.54726">
        <ele>537.2</ele>
        <time>2021-11-11T10:32:45Z</time>
      </trkpt>
      <trkpt lat="44.75585" lon="2.54721">
        <ele>553.3</ele>
        <time>2021-11-11T10:32:50Z</time>
      </trkpt>
      <trkpt lat="44.75581" lon="2.54713">
        <ele>544</ele>
        <time>2021-11-11T10:32:55Z</time>
      </trkpt>
      <trkpt lat="44.75577" lon="2.54705">
        <ele>541.8</ele>
        <time>2021-11-11T10:33:01Z</time>
      </trkpt>
      <trkpt lat="44.75575" lon="2.54697">
        <ele>544</ele>
        <time>2021-11-11T10:33:06Z</time>
      </trkpt>
      <trkpt lat="44.75571" lon="2.5469">
        <ele>541.8</ele>
        <time>2021-11-11T10:33:12Z</time>
      </trkpt>
      <trkpt lat="44.75568" lon="2.54682">
        <ele>559.5</ele>
        <time>2021-11-11T10:33:17Z</time>
      </trkpt>
      <trkpt lat="44.75566" lon="2.5468">
        <ele>555</ele>
        <time>2021-11-11T10:33:23Z</time>
      </trkpt>
      <trkpt lat="44.75565" lon="2.54673">
        <ele>554.7</ele>
        <time>2021-11-11T10:33:28Z</time>
      </trkpt>
      <trkpt lat="44.75562" lon="2.5467">
        <ele>560.2</ele>
        <time>2021-11-11T10:33:33Z</time>
      </trkpt>
      <trkpt lat="44.75558" lon="2.54669">
        <ele>549.2</ele>
        <time>2021-11-11T10:33:38Z</time>
      </trkpt>
      <trkpt lat="44.75555" lon="2.54673">
        <ele>527.2</ele>
        <time>2021-11-11T10:33:43Z</time>
      </trkpt>
      <trkpt lat="44.75551" lon="2.54676">
        <ele>548.5</ele>
        <time>2021-11-11T10:33:49Z</time>
      </trkpt>
      <trkpt lat="44.75548" lon="2.54684">
        <ele>549.7</ele>
        <time>2021-11-11T10:33:54Z</time>
      </trkpt>
      <trkpt lat="44.75547" lon="2.54689">
        <ele>558</ele>
        <time>2021-11-11T10:34:00Z</time>
      </trkpt>
      <trkpt lat="44.75546" lon="2.54694">
        <ele>544.8</ele>
        <time>2021-11-11T10:34:06Z</time>
      </trkpt>
      <trkpt lat="44.75542" lon="2.54701">
        <ele>561.2</ele>
        <time>2021-11-11T10:34:11Z</time>
      </trkpt>
      <trkpt lat="44.75537" lon="2.54707">
        <ele>571.3</ele>
        <time>2021-11-11T10:34:16Z</time>
      </trkpt>
      <trkpt lat="44.75532" lon="2.5471">
        <ele>535.4</ele>
        <time>2021-11-11T10:34:22Z</time>
      </trkpt>
      <trkpt lat="44.75524" lon="2.54714">
        <ele>553.4</ele>
        <time>2021-11-11T10:34:27Z</time>
      </trkpt>
      <trkpt lat="44.75517" lon="2.54719">
        <ele>549.7</ele>
        <time>2021-11-11T10:34:32Z</time>
      </trkpt>
      <trkpt lat="44.75508" lon="2.54725">
        <ele>567.7</ele>
        <time>2021-11-11T10:34:38Z</time>
      </trkpt>
      <trkpt lat="44.755" lon="2.54728">
        <ele>548</ele>
        <time>2021-11-11T10:34:43Z</time>
      </trkpt>
      <trkpt lat="44.75492" lon="2.54729">
        <ele>539.5</ele>
        <time>2021-11-11T10:34:49Z</time>
      </trkpt>
      <trkpt lat="44.75487" lon="2.54729">
        <ele>548.7</ele>
        <time>2021-11-11T10:34:54Z</time>
      </trkpt>
      <trkpt lat="44.7548" lon="2.54729">
        <ele>541.8</ele>
        <time>2021-11-11T10:35:00Z</time>
      </trkpt>
      <trkpt lat="44.75472" lon="2.5473">
        <ele>552.6</ele>
        <time>2021-11-11T10:35:05Z</time>
      </trkpt>
      <trkpt lat="44.75465" lon="2.5473">
        <ele>537.2</ele>
        <time>2021-11-11T10:35:10Z</time>
      </trkpt>
      <trkpt lat="44.75458" lon="2.54729">
        <ele>528.3</ele>
        <time>2021-11-11T10:35:16Z</time>
      </trkpt>
      <trkpt lat="44.75451" lon="2.54729">
        <ele>538.1</ele>
        <time>2021-11-11T10:35:21Z</time>
      </trkpt>
      <trkpt lat="44.75447" lon="2.54727">
        <ele>553.3</ele>
        <time>2021-11-11T10:35:27Z</time>
      </trkpt>
      <trkpt lat="44.7544" lon="2.54725">
        <ele>541.7</ele>
        <time>2021-11-11T10:35:32Z</time>
      </trkpt>
      <trkpt lat="44.75437" lon="2.54724">
        <ele>534.8</ele>
        <time>2021-11-11T10:35:37Z</time>
      </trkpt>
      <trkpt lat="44.75435" lon="2.54727">
        <ele>541.7</ele>
        <time>2021-11-11T10:35:42Z</time>
      </trkpt>
      <trkpt lat="44.75431" lon="2.54726">
        <ele>524.9</ele>
        <time>2021-11-11T10:35:47Z</time>
      </trkpt>
      <trkpt lat="44.75425" lon="2.54728">
        <ele>556.8</ele>
        <time>2021-11-11T10:35:53Z</time>
      </trkpt>
      <trkpt lat="44.7542" lon="2.54731">
        <ele>546</ele>
        <time>2021-11-11T10:35:58Z</time>
      </trkpt>
      <trkpt lat="44.75416" lon="2.54734">
        <ele>548.3</ele>
        <time>2021-11-11T10:36:04Z</time>
      </trkpt>
      <trkpt lat="44.75413" lon="2.54737">
        <ele>554.5</ele>
        <time>2021-11-11T10:36:09Z</time>
      </trkpt>
      <trkpt lat="44.75407" lon="2.54741">
        <ele>544.9</ele>
        <time>2021-11-11T10:36:15Z</time>
      </trkpt>
      <trkpt lat="44.75404" lon="2.5475">
        <ele>537</ele>
        <time>2021-11-11T10:36:20Z</time>
      </trkpt>
      <trkpt lat="44.75401" lon="2.54757">
        <ele>550.6</ele>
        <time>2021-11-11T10:36:26Z</time>
      </trkpt>
      <trkpt lat="44.754" lon="2.5476">
        <ele>529.6</ele>
        <time>2021-11-11T10:36:31Z</time>
      </trkpt>
      <trkpt lat="44.75397" lon="2.54765">
        <ele>540.9</ele>
        <time>2021-11-11T10:36:36Z</time>
      </trkpt>
      <trkpt lat="44.75394" lon="2.5477">
        <ele>547.6</ele>
        <time>2021-11-11T10:36:41Z</time>
      </trkpt>
      <trkpt lat="44.7539" lon="2.54778">
        <ele>546</ele>
        <time>2021-11-11T10:36:47Z</time>
      </trkpt>
      <trkpt lat="44.75384" lon="2.54785">
        <ele>525.4</ele>
        <time>2021-11-11T10:36:53Z</time>
      </trkpt>
      <trkpt lat="44.7538" lon="2.54791">
        <ele>535.5</ele>
        <time>2021-11-11T10:36:58Z</time>
      </trkpt>
      <trkpt lat="44.75374" lon="2.54796">
        <ele>513.5</ele>
        <time>2021-11-11T10:37:04Z</time>
      </trkpt>
      <trkpt lat="44.75369" lon="2.54797">
        <ele>547.3</ele>
        <time>2021-11-11T10:37:09Z</time>
      </trkpt>
      <trkpt lat="44.75364" lon="2.54802">
        <ele>531.9</ele>
        <time>2021-11-11T10:37:15Z</time>
      </trkpt>
      <trkpt lat="44.75361" lon="2.54807">
        <ele>538.1</ele>
        <time>2021-11-11T10:37:20Z</time>
      </trkpt>
      <trkpt lat="44.75358" lon="2.54815">
        <ele>516.6</ele>
        <time>2021-11-11T10:37:25Z</time>
      </trkpt>
      <trkpt lat="44.75353" lon="2.54822">
        <ele>530.1</ele>
        <time>2021-11-11T10:37:31Z</time>
      </trkpt>
      <trkpt lat="44.75345" lon="2.54828">
        <ele>512.8</ele>
        <time>2021-11-11T10:37:36Z</time>
      </trkpt>
      <trkpt lat="44.75338" lon="2.54834">
        <ele>522.4</ele>
        <time>2021-11-11T10:37:42Z</time>
      </trkpt>
      <trkpt lat="44.7533" lon="2.5484">
        <ele>528.2</ele>
        <time>2021-11-11T10:37:47Z</time>
      </trkpt>
      <trkpt lat="44.75325" lon="2.54845">
        <ele>536</ele>
        <time>2021-11-11T10:37:53Z</time>
      </trkpt>
      <trkpt lat="44.75323" lon="2.54846">
        <ele>494.4</ele>
        <time>2021-11-11T10:37:59Z</time>
      </trkpt>
      <trkpt lat="44.75321" lon="2.54848">
        <ele>514.7</ele>
        <time>2021-11-11T10:38:04Z</time>
      </trkpt>
      <trkpt lat="44.75316" lon="2.54856">
        <ele>509.4</ele>
        <time>2021-11-11T10:38:09Z</time>
      </trkpt>
      <trkpt lat="44.75313" lon="2.54862">
        <ele>502.6</ele>
        <time>2021-11-11T10:38:15Z</time>
      </trkpt>
      <trkpt lat="44.75311" lon="2.54867">
        <ele>489</ele>
        <time>2021-11-11T10:38:20Z</time>
      </trkpt>
      <trkpt lat="44.75308" lon="2.54874">
        <ele>508.1</ele>
        <time>2021-11-11T10:38:25Z</time>
      </trkpt>
      <trkpt lat="44.75304" lon="2.54878">
        <ele>505.4</ele>
        <time>2021-11-11T10:38:30Z</time>
      </trkpt>
      <trkpt lat="44.753" lon="2.54883">
        <ele>516.1</ele>
        <time>2021-11-11T10:38:35Z</time>
      </trkpt>
      <trkpt lat="44.75293" lon="2.54887">
        <ele>492.8</ele>
        <time>2021-11-11T10:38:40Z</time>
      </trkpt>
      <trkpt lat="44.75289" lon="2.54891">
        <ele>502.1</ele>
        <time>2021-11-11T10:38:46Z</time>
      </trkpt>
      <trkpt lat="44.75287" lon="2.54896">
        <ele>502.3</ele>
        <time>2021-11-11T10:38:51Z</time>
      </trkpt>
      <trkpt lat="44.75285" lon="2.54906">
        <ele>507</ele>
        <time>2021-11-11T10:38:57Z</time>
      </trkpt>
      <trkpt lat="44.75282" lon="2.54912">
        <ele>512.8</ele>
        <time>2021-11-11T10:39:02Z</time>
      </trkpt>
      <trkpt lat="44.7528" lon="2.54921">
        <ele>501.5</ele>
        <time>2021-11-11T10:39:07Z</time>
      </trkpt>
      <trkpt lat="44.75278" lon="2.54927">
        <ele>497.5</ele>
        <time>2021-11-11T10:39:13Z</time>
      </trkpt>
      <trkpt lat="44.75275" lon="2.54933">
        <ele>491.4</ele>
        <time>2021-11-11T10:39:18Z</time>
      </trkpt>
      <trkpt lat="44.75272" lon="2.54941">
        <ele>513.2</ele>
        <time>2021-11-11T10:39:24Z</time>
      </trkpt>
      <trkpt lat="44.75271" lon="2.54947">
        <ele>483.6</ele>
        <time>2021-11-11T10:39:29Z</time>
      </trkpt>
      <trkpt lat="44.7527" lon="2.54949">
        <ele>483.6</ele>
        <time>2021-11-11T10:39:34Z</time>
      </trkpt>
      <trkpt lat="44.75267" lon="2.54958">
        <ele>486.8</ele>
        <time>2021-11-11T10:39:39Z</time>
      </trkpt>
      <trkpt lat="44.75266" lon="2.54963">
        <ele>502.4</ele>
        <time>2021-11-11T10:39:45Z</time>
      </trkpt>
      <trkpt lat="44.75265" lon="2.54968">
        <ele>494</ele>
        <time>2021-11-11T10:39:50Z</time>
      </trkpt>
      <trkpt lat="44.75264" lon="2.54976">
        <ele>475.6</ele>
        <time>2021-11-11T10:39:55Z</time>
      </trkpt>
      <trkpt lat="44.75263" lon="2.54983">
        <ele>508.7</ele>
        <time>2021-11-11T10:40:01Z</time>
      </trkpt>
      <trkpt lat="44.75262" lon="2.54989">
        <ele>495.9</ele>
        <time>2021-11-11T10:40:06Z</time>
      </trkpt>
      <trkpt lat="44.75262" lon="2.54995">
        <ele>490.1</ele>
        <time>2021-11-11T10:40:11Z</time>
      </trkpt>
      <trkpt lat="44.75261" lon="2.55001">
        <ele>485.5</ele>
        <time>2021-11-11T10:40:16Z</time>
      </trkpt>
      <trkpt lat="44.75257" lon="2.55008">
        <ele>496.3</ele>
        <time>2021-11-11T10:40:21Z</time>
      </trkpt>
      <trkpt lat="44.75252" lon="2.55015">
        <ele>481.2</ele>
        <time>2021-11-11T10:40:28Z</time>
      </trkpt>
      <trkpt lat="44.75249" lon="2.55017">
        <ele>491.9</ele>
        <time>2021-11-11T10:40:33Z</time>
      </trkpt>
      <trkpt lat="44.75242" lon="2.55022">
        <ele>462.5</ele>
        <time>2021-11-11T10:40:38Z</time>
      </trkpt>
      <trkpt lat="44.75236" lon="2.55025">
        <ele>474.5</ele>
        <time>2021-11-11T10:40:44Z</time>
      </trkpt>
      <trkpt lat="44.75233" lon="2.55028">
        <ele>488</ele>
        <time>2021-11-11T10:40:49Z</time>
      </trkpt>
      <trkpt lat="44.75229" lon="2.55033">
        <ele>480.5</ele>
        <time>2021-11-11T10:40:55Z</time>
      </trkpt>
      <trkpt lat="44.75224" lon="2.55037">
        <ele>474.9</ele>
        <time>2021-11-11T10:41:00Z</time>
      </trkpt>
      <trkpt lat="44.75217" lon="2.55043">
        <ele>494.4</ele>
        <time>2021-11-11T10:41:05Z</time>
      </trkpt>
      <trkpt lat="44.75215" lon="2.55047">
        <ele>480.3</ele>
        <time>2021-11-11T10:41:10Z</time>
      </trkpt>
      <trkpt lat="44.75214" lon="2.55049">
        <ele>489.8</ele>
        <time>2021-11-11T10:41:16Z</time>
      </trkpt>
      <trkpt lat="44.7521" lon="2.55055">
        <ele>483.4</ele>
        <time>2021-11-11T10:41:22Z</time>
      </trkpt>
      <trkpt lat="44.75206" lon="2.55058">
        <ele>484.5</ele>
        <time>2021-11-11T10:41:27Z</time>
      </trkpt>
      <trkpt lat="44.75202" lon="2.55062">
        <ele>476.6</ele>
        <time>2021-11-11T10:41:32Z</time>
      </trkpt>
      <trkpt lat="44.752" lon="2.5506">
        <ele>463.9</ele>
        <time>2021-11-11T10:41:38Z</time>
      </trkpt>
      <trkpt lat="44.75186" lon="2.55079">
        <ele>463.3</ele>
        <time>2021-11-11T10:41:43Z</time>
      </trkpt>
      <trkpt lat="44.7518" lon="2.55082">
        <ele>477.2</ele>
        <time>2021-11-11T10:41:48Z</time>
      </trkpt>
      <trkpt lat="44.75176" lon="2.55084">
        <ele>473.8</ele>
        <time>2021-11-11T10:41:53Z</time>
      </trkpt>
      <trkpt lat="44.75173" lon="2.55086">
        <ele>467.4</ele>
        <time>2021-11-11T10:41:59Z</time>
      </trkpt>
      <trkpt lat="44.75167" lon="2.55095">
        <ele>477.6</ele>
        <time>2021-11-11T10:42:04Z</time>
      </trkpt>
      <trkpt lat="44.75164" lon="2.55098">
        <ele>492</ele>
        <time>2021-11-11T10:42:10Z</time>
      </trkpt>
      <trkpt lat="44.75158" lon="2.55104">
        <ele>444.9</ele>
        <time>2021-11-11T10:42:15Z</time>
      </trkpt>
      <trkpt lat="44.75152" lon="2.55108">
        <ele>470.1</ele>
        <time>2021-11-11T10:42:20Z</time>
      </trkpt>
      <trkpt lat="44.7515" lon="2.55109">
        <ele>456</ele>
        <time>2021-11-11T10:42:26Z</time>
      </trkpt>
      <trkpt lat="44.75146" lon="2.55111">
        <ele>471.1</ele>
        <time>2021-11-11T10:42:31Z</time>
      </trkpt>
      <trkpt lat="44.75145" lon="2.55115">
        <ele>466.9</ele>
        <time>2021-11-11T10:42:36Z</time>
      </trkpt>
      <trkpt lat="44.75145" lon="2.55118">
        <ele>462</ele>
        <time>2021-11-11T10:42:41Z</time>
      </trkpt>
      <trkpt lat="44.75146" lon="2.55121">
        <ele>472.2</ele>
        <time>2021-11-11T10:42:46Z</time>
      </trkpt>
      <trkpt lat="44.75147" lon="2.55128">
        <ele>457.9</ele>
        <time>2021-11-11T10:42:51Z</time>
      </trkpt>
      <trkpt lat="44.75148" lon="2.55138">
        <ele>454.5</ele>
        <time>2021-11-11T10:42:57Z</time>
      </trkpt>
      <trkpt lat="44.75148" lon="2.55145">
        <ele>473.6</ele>
        <time>2021-11-11T10:43:02Z</time>
      </trkpt>
      <trkpt lat="44.75144" lon="2.5515">
        <ele>454.1</ele>
        <time>2021-11-11T10:43:07Z</time>
      </trkpt>
      <trkpt lat="44.7514" lon="2.55155">
        <ele>464.6</ele>
        <time>2021-11-11T10:43:13Z</time>
      </trkpt>
      <trkpt lat="44.75135" lon="2.55158">
        <ele>447.7</ele>
        <time>2021-11-11T10:43:18Z</time>
      </trkpt>
      <trkpt lat="44.75129" lon="2.5516">
        <ele>455.4</ele>
        <time>2021-11-11T10:43:24Z</time>
      </trkpt>
      <trkpt lat="44.75123" lon="2.55162">
        <ele>450.6</ele>
        <time>2021-11-11T10:43:29Z</time>
      </trkpt>
      <trkpt lat="44.75119" lon="2.55167">
        <ele>449.9</ele>
        <time>2021-11-11T10:43:35Z</time>
      </trkpt>
      <trkpt lat="44.75115" lon="2.55169">
        <ele>435.3</ele>
        <time>2021-11-11T10:43:40Z</time>
      </trkpt>
      <trkpt lat="44.7511" lon="2.55169">
        <ele>469.6</ele>
        <time>2021-11-11T10:43:45Z</time>
      </trkpt>
      <trkpt lat="44.75105" lon="2.55168">
        <ele>459.6</ele>
        <time>2021-11-11T10:43:50Z</time>
      </trkpt>
      <trkpt lat="44.75099" lon="2.55167">
        <ele>453.1</ele>
        <time>2021-11-11T10:43:56Z</time>
      </trkpt>
      <trkpt lat="44.75091" lon="2.5517">
        <ele>464.3</ele>
        <time>2021-11-11T10:44:01Z</time>
      </trkpt>
      <trkpt lat="44.75084" lon="2.55174">
        <ele>449.2</ele>
        <time>2021-11-11T10:44:07Z</time>
      </trkpt>
      <trkpt lat="44.7508" lon="2.55175">
        <ele>446.8</ele>
        <time>2021-11-11T10:44:12Z</time>
      </trkpt>
      <trkpt lat="44.75077" lon="2.55174">
        <ele>449.6</ele>
        <time>2021-11-11T10:44:18Z</time>
      </trkpt>
      <trkpt lat="44.75072" lon="2.55176">
        <ele>439.8</ele>
        <time>2021-11-11T10:44:23Z</time>
      </trkpt>
      <trkpt lat="44.75065" lon="2.55179">
        <ele>423</ele>
        <time>2021-11-11T10:44:29Z</time>
      </trkpt>
      <trkpt lat="44.75059" lon="2.5518">
        <ele>452.8</ele>
        <time>2021-11-11T10:44:34Z</time>
      </trkpt>
      <trkpt lat="44.75055" lon="2.55182">
        <ele>433.8</ele>
        <time>2021-11-11T10:44:39Z</time>
      </trkpt>
      <trkpt lat="44.75051" lon="2.55186">
        <ele>440.7</ele>
        <time>2021-11-11T10:44:45Z</time>
      </trkpt>
      <trkpt lat="44.75046" lon="2.55188">
        <ele>449</ele>
        <time>2021-11-11T10:44:50Z</time>
      </trkpt>
      <trkpt lat="44.75042" lon="2.5519">
        <ele>419.5</ele>
        <time>2021-11-11T10:44:55Z</time>
      </trkpt>
      <trkpt lat="44.75038" lon="2.55192">
        <ele>443.3</ele>
        <time>2021-11-11T10:45:00Z</time>
      </trkpt>
      <trkpt lat="44.75033" lon="2.55195">
        <ele>411</ele>
        <time>2021-11-11T10:45:06Z</time>
      </trkpt>
      <trkpt lat="44.7503" lon="2.55197">
        <ele>435.7</ele>
        <time>2021-11-11T10:45:11Z</time>
      </trkpt>
      <trkpt lat="44.75024" lon="2.55199">
        <ele>443.7</ele>
        <time>2021-11-11T10:45:17Z</time>
      </trkpt>
      <trkpt lat="44.75019" lon="2.55201">
        <ele>433.6</ele>
        <time>2021-11-11T10:45:22Z</time>
      </trkpt>
      <trkpt lat="44.75013" lon="2.55206">
        <ele>442.6</ele>
        <time>2021-11-11T10:45:28Z</time>
      </trkpt>
      <trkpt lat="44.75007" lon="2.55209">
        <ele>424.4</ele>
        <time>2021-11-11T10:45:33Z</time>
      </trkpt>
      <trkpt lat="44.75002" lon="2.55211">
        <ele>421.9</ele>
        <time>2021-11-11T10:45:39Z</time>
      </trkpt>
      <trkpt lat="44.74995" lon="2.55213">
        <ele>425.6</ele>
        <time>2021-11-11T10:45:45Z</time>
      </trkpt>
      <trkpt lat="44.7499" lon="2.55215">
        <ele>414.1</ele>
        <time>2021-11-11T10:45:50Z</time>
      </trkpt>
      <trkpt lat="44.74987" lon="2.5522">
        <ele>435.1</ele>
        <time>2021-11-11T10:45:56Z</time>
      </trkpt>
      <trkpt lat="44.74982" lon="2.55222">
        <ele>411.3</ele>
        <time>2021-11-11T10:46:01Z</time>
      </trkpt>
      <trkpt lat="44.74977" lon="2.55226">
        <ele>419.6</ele>
        <time>2021-11-11T10:46:06Z</time>
      </trkpt>
      <trkpt lat="44.74973" lon="2.5523">
        <ele>426.4</ele>
        <time>2021-11-11T10:46:12Z</time>
      </trkpt>
      <trkpt lat="44.74969" lon="2.55234">
        <ele>411.3</ele>
        <time>2021-11-11T10:46:17Z</time>
      </trkpt>
      <trkpt lat="44.74962" lon="2.55241">
        <ele>437.5</ele>
        <time>2021-11-11T10:46:23Z</time>
      </trkpt>
      <trkpt lat="44.74955" lon="2.55244">
        <ele>411.1</ele>
        <time>2021-11-11T10:46:28Z</time>
      </trkpt>
      <trkpt lat="44.74949" lon="2.55244">
        <ele>410</ele>
        <time>2021-11-11T10:46:33Z</time>
      </trkpt>
      <trkpt lat="44.74945" lon="2.55245">
        <ele>403.7</ele>
        <time>2021-11-11T10:46:39Z</time>
      </trkpt>
      <trkpt lat="44.74941" lon="2.5525">
        <ele>415.1</ele>
        <time>2021-11-11T10:46:44Z</time>
      </trkpt>
      <trkpt lat="44.74939" lon="2.55255">
        <ele>428</ele>
        <time>2021-11-11T10:46:50Z</time>
      </trkpt>
      <trkpt lat="44.74933" lon="2.55258">
        <ele>421.1</ele>
        <time>2021-11-11T10:46:56Z</time>
      </trkpt>
      <trkpt lat="44.74929" lon="2.55259">
        <ele>394.3</ele>
        <time>2021-11-11T10:47:01Z</time>
      </trkpt>
      <trkpt lat="44.74925" lon="2.55259">
        <ele>402.1</ele>
        <time>2021-11-11T10:47:06Z</time>
      </trkpt>
      <trkpt lat="44.74921" lon="2.55256">
        <ele>407.9</ele>
        <time>2021-11-11T10:47:13Z</time>
      </trkpt>
      <trkpt lat="44.74918" lon="2.55258">
        <ele>399.5</ele>
        <time>2021-11-11T10:47:18Z</time>
      </trkpt>
      <trkpt lat="44.74916" lon="2.55259">
        <ele>427.5</ele>
        <time>2021-11-11T10:47:23Z</time>
      </trkpt>
      <trkpt lat="44.74909" lon="2.55265">
        <ele>408.2</ele>
        <time>2021-11-11T10:47:29Z</time>
      </trkpt>
      <trkpt lat="44.74908" lon="2.5527">
        <ele>405.1</ele>
        <time>2021-11-11T10:47:34Z</time>
      </trkpt>
      <trkpt lat="44.74904" lon="2.55277">
        <ele>407.4</ele>
        <time>2021-11-11T10:47:39Z</time>
      </trkpt>
      <trkpt lat="44.749" lon="2.55281">
        <ele>392.6</ele>
        <time>2021-11-11T10:47:45Z</time>
      </trkpt>
      <trkpt lat="44.74894" lon="2.55284">
        <ele>393.6</ele>
        <time>2021-11-11T10:47:51Z</time>
      </trkpt>
      <trkpt lat="44.74891" lon="2.55285">
        <ele>406.9</ele>
        <time>2021-11-11T10:47:56Z</time>
      </trkpt>
      <trkpt lat="44.7489" lon="2.55283">
        <ele>410.7</ele>
        <time>2021-11-11T10:48:01Z</time>
      </trkpt>
      <trkpt lat="44.74887" lon="2.55284">
        <ele>395.9</ele>
        <time>2021-11-11T10:48:06Z</time>
      </trkpt>
      <trkpt lat="44.74884" lon="2.55283">
        <ele>392.4</ele>
        <time>2021-11-11T10:48:11Z</time>
      </trkpt>
      <trkpt lat="44.74882" lon="2.5528">
        <ele>429.6</ele>
        <time>2021-11-11T10:48:17Z</time>
      </trkpt>
      <trkpt lat="44.74881" lon="2.55276">
        <ele>399.3</ele>
        <time>2021-11-11T10:48:22Z</time>
      </trkpt>
      <trkpt lat="44.74879" lon="2.55273">
        <ele>397.9</ele>
        <time>2021-11-11T10:48:27Z</time>
      </trkpt>
      <trkpt lat="44.74879" lon="2.55274">
        <ele>400.6</ele>
        <time>2021-11-11T10:48:32Z</time>
      </trkpt>
      <trkpt lat="44.74885" lon="2.55245">
        <ele>393.5</ele>
        <time>2021-11-11T10:48:38Z</time>
      </trkpt>
      <trkpt lat="44.74886" lon="2.55236">
        <ele>399.7</ele>
        <time>2021-11-11T10:48:43Z</time>
      </trkpt>
      <trkpt lat="44.74888" lon="2.55228">
        <ele>408.1</ele>
        <time>2021-11-11T10:48:49Z</time>
      </trkpt>
      <trkpt lat="44.74889" lon="2.55226">
        <ele>406.2</ele>
        <time>2021-11-11T10:48:54Z</time>
      </trkpt>
      <trkpt lat="44.7489" lon="2.5522">
        <ele>396.6</ele>
        <time>2021-11-11T10:48:59Z</time>
      </trkpt>
      <trkpt lat="44.74892" lon="2.55215">
        <ele>397.2</ele>
        <time>2021-11-11T10:49:05Z</time>
      </trkpt>
      <trkpt lat="44.74892" lon="2.55213">
        <ele>404.8</ele>
        <time>2021-11-11T10:49:10Z</time>
      </trkpt>
      <trkpt lat="44.74893" lon="2.55206">
        <ele>407.4</ele>
        <time>2021-11-11T10:49:16Z</time>
      </trkpt>
      <trkpt lat="44.74893" lon="2.55199">
        <ele>388.9</ele>
        <time>2021-11-11T10:49:21Z</time>
      </trkpt>
      <trkpt lat="44.74894" lon="2.55195">
        <ele>402.8</ele>
        <time>2021-11-11T10:49:26Z</time>
      </trkpt>
      <trkpt lat="44.74895" lon="2.55194">
        <ele>404.2</ele>
        <time>2021-11-11T10:49:31Z</time>
      </trkpt>
      <trkpt lat="44.74896" lon="2.55192">
        <ele>392.2</ele>
        <time>2021-11-11T10:49:37Z</time>
      </trkpt>
      <trkpt lat="44.74897" lon="2.55195">
        <ele>392.3</ele>
        <time>2021-11-11T10:49:42Z</time>
      </trkpt>
      <trkpt lat="44.74895" lon="2.552">
        <ele>403.7</ele>
        <time>2021-11-11T10:49:48Z</time>
      </trkpt>
      <trkpt lat="44.74894" lon="2.55209">
        <ele>396.1</ele>
        <time>2021-11-11T10:49:54Z</time>
      </trkpt>
      <trkpt lat="44.7489" lon="2.55215">
        <ele>386.8</ele>
        <time>2021-11-11T10:49:59Z</time>
      </trkpt>
      <trkpt lat="44.74884" lon="2.55223">
        <ele>408.4</ele>
        <time>2021-11-11T10:50:05Z</time>
      </trkpt>
      <trkpt lat="44.74874" lon="2.55232">
        <ele>370.9</ele>
        <time>2021-11-11T10:50:11Z</time>
      </trkpt>
      <trkpt lat="44.74869" lon="2.55232">
        <ele>369.3</ele>
        <time>2021-11-11T10:50:16Z</time>
      </trkpt>
      <trkpt lat="44.74863" lon="2.55222">
        <ele>383.6</ele>
        <time>2021-11-11T10:50:21Z</time>
      </trkpt>
      <trkpt lat="44.74859" lon="2.55211">
        <ele>398.4</ele>
        <time>2021-11-11T10:50:27Z</time>
      </trkpt>
      <trkpt lat="44.7486" lon="2.55204">
        <ele>390.4</ele>
        <time>2021-11-11T10:50:32Z</time>
      </trkpt>
      <trkpt lat="44.74863" lon="2.55199">
        <ele>384.9</ele>
        <time>2021-11-11T10:50:37Z</time>
      </trkpt>
      <trkpt lat="44.74863" lon="2.55191">
        <ele>380.2</ele>
        <time>2021-11-11T10:50:43Z</time>
      </trkpt>
      <trkpt lat="44.74865" lon="2.55181">
        <ele>386.9</ele>
        <time>2021-11-11T10:50:48Z</time>
      </trkpt>
      <trkpt lat="44.74869" lon="2.55173">
        <ele>373.6</ele>
        <time>2021-11-11T10:50:53Z</time>
      </trkpt>
      <trkpt lat="44.74869" lon="2.55164">
        <ele>382.7</ele>
        <time>2021-11-11T10:50:58Z</time>
      </trkpt>
      <trkpt lat="44.74868" lon="2.55155">
        <ele>392.6</ele>
        <time>2021-11-11T10:51:03Z</time>
      </trkpt>
      <trkpt lat="44.74868" lon="2.55148">
        <ele>370.5</ele>
        <time>2021-11-11T10:51:08Z</time>
      </trkpt>
      <trkpt lat="44.74871" lon="2.55136">
        <ele>382</ele>
        <time>2021-11-11T10:51:14Z</time>
      </trkpt>
      <trkpt lat="44.74872" lon="2.55127">
        <ele>386.1</ele>
        <time>2021-11-11T10:51:19Z</time>
      </trkpt>
      <trkpt lat="44.74873" lon="2.55125">
        <ele>406.2</ele>
        <time>2021-11-11T10:51:24Z</time>
      </trkpt>
      <trkpt lat="44.74873" lon="2.55118">
        <ele>360.7</ele>
        <time>2021-11-11T10:51:29Z</time>
      </trkpt>
      <trkpt lat="44.74875" lon="2.55115">
        <ele>384.7</ele>
        <time>2021-11-11T10:51:35Z</time>
      </trkpt>
      <trkpt lat="44.74875" lon="2.55108">
        <ele>384.7</ele>
        <time>2021-11-11T10:51:40Z</time>
      </trkpt>
      <trkpt lat="44.74875" lon="2.55096">
        <ele>390.8</ele>
        <time>2021-11-11T10:51:45Z</time>
      </trkpt>
      <trkpt lat="44.74876" lon="2.55087">
        <ele>367.6</ele>
        <time>2021-11-11T10:51:50Z</time>
      </trkpt>
      <trkpt lat="44.74879" lon="2.55079">
        <ele>366.4</ele>
        <time>2021-11-11T10:51:56Z</time>
      </trkpt>
      <trkpt lat="44.7488" lon="2.5507">
        <ele>378</ele>
        <time>2021-11-11T10:52:01Z</time>
      </trkpt>
      <trkpt lat="44.74881" lon="2.55064">
        <ele>391.2</ele>
        <time>2021-11-11T10:52:06Z</time>
      </trkpt>
      <trkpt lat="44.74881" lon="2.55058">
        <ele>393.5</ele>
        <time>2021-11-11T10:52:12Z</time>
      </trkpt>
      <trkpt lat="44.74879" lon="2.55054">
        <ele>401.4</ele>
        <time>2021-11-11T10:52:17Z</time>
      </trkpt>
      <trkpt lat="44.7488" lon="2.55051">
        <ele>391.2</ele>
        <time>2021-11-11T10:52:22Z</time>
      </trkpt>
      <trkpt lat="44.74879" lon="2.55045">
        <ele>378.3</ele>
        <time>2021-11-11T10:52:27Z</time>
      </trkpt>
      <trkpt lat="44.74879" lon="2.55042">
        <ele>409.9</ele>
        <time>2021-11-11T10:52:33Z</time>
      </trkpt>
      <trkpt lat="44.74881" lon="2.55038">
        <ele>393.8</ele>
        <time>2021-11-11T10:52:38Z</time>
      </trkpt>
      <trkpt lat="44.74886" lon="2.55035">
        <ele>383.1</ele>
        <time>2021-11-11T10:52:43Z</time>
      </trkpt>
      <trkpt lat="44.74888" lon="2.55027">
        <ele>389.7</ele>
        <time>2021-11-11T10:52:48Z</time>
      </trkpt>
      <trkpt lat="44.74887" lon="2.55013">
        <ele>386.1</ele>
        <time>2021-11-11T10:52:53Z</time>
      </trkpt>
      <trkpt lat="44.74877" lon="2.55006">
        <ele>396</ele>
        <time>2021-11-11T10:52:59Z</time>
      </trkpt>
      <trkpt lat="44.7487" lon="2.55005">
        <ele>388.4</ele>
        <time>2021-11-11T10:53:04Z</time>
      </trkpt>
      <trkpt lat="44.74866" lon="2.54999">
        <ele>376.3</ele>
        <time>2021-11-11T10:53:09Z</time>
      </trkpt>
      <trkpt lat="44.74861" lon="2.54998">
        <ele>385.2</ele>
        <time>2021-11-11T10:53:14Z</time>
      </trkpt>
      <trkpt lat="44.74857" lon="2.54997">
        <ele>368.1</ele>
        <time>2021-11-11T10:53:20Z</time>
      </trkpt>
      <trkpt lat="44.74854" lon="2.54997">
        <ele>373.9</ele>
        <time>2021-11-11T10:53:25Z</time>
      </trkpt>
      <trkpt lat="44.7485" lon="2.54996">
        <ele>376.8</ele>
        <time>2021-11-11T10:53:30Z</time>
      </trkpt>
      <trkpt lat="44.74845" lon="2.54995">
        <ele>397.6</ele>
        <time>2021-11-11T10:53:35Z</time>
      </trkpt>
      <trkpt lat="44.74845" lon="2.54996">
        <ele>380.4</ele>
        <time>2021-11-11T10:53:41Z</time>
      </trkpt>
      <trkpt lat="44.74843" lon="2.54996">
        <ele>390.1</ele>
        <time>2021-11-11T10:53:46Z</time>
      </trkpt>
      <trkpt lat="44.74829" lon="2.54993">
        <ele>394.6</ele>
        <time>2021-11-11T10:53:52Z</time>
      </trkpt>
      <trkpt lat="44.74816" lon="2.54995">
        <ele>368.7</ele>
        <time>2021-11-11T10:53:57Z</time>
      </trkpt>
      <trkpt lat="44.74809" lon="2.54998">
        <ele>365.8</ele>
        <time>2021-11-11T10:54:03Z</time>
      </trkpt>
      <trkpt lat="44.74805" lon="2.55002">
        <ele>383.8</ele>
        <time>2021-11-11T10:54:08Z</time>
      </trkpt>
      <trkpt lat="44.74797" lon="2.55007">
        <ele>383.5</ele>
        <time>2021-11-11T10:54:14Z</time>
      </trkpt>
      <trkpt lat="44.7479" lon="2.5501">
        <ele>395.6</ele>
        <time>2021-11-11T10:54:19Z</time>
      </trkpt>
      <trkpt lat="44.74787" lon="2.55013">
        <ele>387.2</ele>
        <time>2021-11-11T10:54:25Z</time>
      </trkpt>
      <trkpt lat="44.74784" lon="2.55011">
        <ele>384</ele>
        <time>2021-11-11T10:54:30Z</time>
      </trkpt>
      <trkpt lat="44.74781" lon="2.55011">
        <ele>394.4</ele>
        <time>2021-11-11T10:54:35Z</time>
      </trkpt>
      <trkpt lat="44.74773" lon="2.55017">
        <ele>390.5</ele>
        <time>2021-11-11T10:54:40Z</time>
      </trkpt>
      <trkpt lat="44.74763" lon="2.55019">
        <ele>388.4</ele>
        <time>2021-11-11T10:54:46Z</time>
      </trkpt>
      <trkpt lat="44.74754" lon="2.55019">
        <ele>388</ele>
        <time>2021-11-11T10:54:51Z</time>
      </trkpt>
      <trkpt lat="44.74746" lon="2.55021">
        <ele>389</ele>
        <time>2021-11-11T10:54:56Z</time>
      </trkpt>
      <trkpt lat="44.74738" lon="2.55024">
        <ele>381.5</ele>
        <time>2021-11-11T10:55:01Z</time>
      </trkpt>
      <trkpt lat="44.74728" lon="2.55025">
        <ele>392.6</ele>
        <time>2021-11-11T10:55:07Z</time>
      </trkpt>
      <trkpt lat="44.74721" lon="2.55023">
        <ele>383.3</ele>
        <time>2021-11-11T10:55:12Z</time>
      </trkpt>
      <trkpt lat="44.74715" lon="2.55015">
        <ele>380.3</ele>
        <time>2021-11-11T10:55:18Z</time>
      </trkpt>
      <trkpt lat="44.74712" lon="2.55007">
        <ele>378.5</ele>
        <time>2021-11-11T10:55:23Z</time>
      </trkpt>
      <trkpt lat="44.74708" lon="2.54999">
        <ele>381.7</ele>
        <time>2021-11-11T10:55:28Z</time>
      </trkpt>
      <trkpt lat="44.74704" lon="2.5499">
        <ele>381.6</ele>
        <time>2021-11-11T10:55:34Z</time>
      </trkpt>
      <trkpt lat="44.74705" lon="2.54987">
        <ele>380.8</ele>
        <time>2021-11-11T10:55:39Z</time>
      </trkpt>
      <trkpt lat="44.74702" lon="2.54983">
        <ele>377.7</ele>
        <time>2021-11-11T10:55:45Z</time>
      </trkpt>
      <trkpt lat="44.74695" lon="2.54979">
        <ele>379.9</ele>
        <time>2021-11-11T10:55:50Z</time>
      </trkpt>
      <trkpt lat="44.74695" lon="2.5498">
        <ele>360.5</ele>
        <time>2021-11-11T10:55:55Z</time>
      </trkpt>
      <trkpt lat="44.74697" lon="2.54981">
        <ele>380.3</ele>
        <time>2021-11-11T10:56:01Z</time>
      </trkpt>
      <trkpt lat="44.74698" lon="2.5498">
        <ele>375.9</ele>
        <time>2021-11-11T10:56:06Z</time>
      </trkpt>
      <trkpt lat="44.747" lon="2.54981">
        <ele>376.2</ele>
        <time>2021-11-11T10:56:11Z</time>
      </trkpt>
      <trkpt lat="44.74701" lon="2.54987">
        <ele>381.4</ele>
        <time>2021-11-11T10:56:17Z</time>
      </trkpt>
      <trkpt lat="44.74699" lon="2.54989">
        <ele>372.2</ele>
        <time>2021-11-11T10:56:23Z</time>
      </trkpt>
      <trkpt lat="44.74695" lon="2.54993">
        <ele>395.1</ele>
        <time>2021-11-11T10:56:28Z</time>
      </trkpt>
      <trkpt lat="44.74691" lon="2.54997">
        <ele>390.3</ele>
        <time>2021-11-11T10:56:33Z</time>
      </trkpt>
      <trkpt lat="44.74688" lon="2.55007">
        <ele>373</ele>
        <time>2021-11-11T10:56:38Z</time>
      </trkpt>
      <trkpt lat="44.74689" lon="2.55014">
        <ele>398.6</ele>
        <time>2021-11-11T10:56:44Z</time>
      </trkpt>
      <trkpt lat="44.74689" lon="2.55019">
        <ele>394.2</ele>
        <time>2021-11-11T10:56:49Z</time>
      </trkpt>
      <trkpt lat="44.74687" lon="2.55021">
        <ele>401.2</ele>
        <time>2021-11-11T10:56:55Z</time>
      </trkpt>
      <trkpt lat="44.74686" lon="2.55026">
        <ele>398.4</ele>
        <time>2021-11-11T10:57:00Z</time>
      </trkpt>
      <trkpt lat="44.74684" lon="2.55029">
        <ele>406.9</ele>
        <time>2021-11-11T10:57:05Z</time>
      </trkpt>
      <trkpt lat="44.7468" lon="2.55032">
        <ele>380.4</ele>
        <time>2021-11-11T10:57:11Z</time>
      </trkpt>
      <trkpt lat="44.74678" lon="2.55035">
        <ele>399.4</ele>
        <time>2021-11-11T10:57:16Z</time>
      </trkpt>
      <trkpt lat="44.74676" lon="2.55037">
        <ele>392.8</ele>
        <time>2021-11-11T10:57:22Z</time>
      </trkpt>
      <trkpt lat="44.74675" lon="2.55038">
        <ele>402.7</ele>
        <time>2021-11-11T10:57:27Z</time>
      </trkpt>
      <trkpt lat="44.74671" lon="2.55039">
        <ele>398.4</ele>
        <time>2021-11-11T10:57:32Z</time>
      </trkpt>
      <trkpt lat="44.74668" lon="2.55043">
        <ele>429.9</ele>
        <time>2021-11-11T10:57:38Z</time>
      </trkpt>
      <trkpt lat="44.74663" lon="2.5505">
        <ele>406.1</ele>
        <time>2021-11-11T10:57:43Z</time>
      </trkpt>
      <trkpt lat="44.74658" lon="2.55055">
        <ele>392.7</ele>
        <time>2021-11-11T10:57:48Z</time>
      </trkpt>
      <trkpt lat="44.74652" lon="2.55061">
        <ele>395</ele>
        <time>2021-11-11T10:57:54Z</time>
      </trkpt>
      <trkpt lat="44.7465" lon="2.55063">
        <ele>398.4</ele>
        <time>2021-11-11T10:57:59Z</time>
      </trkpt>
      <trkpt lat="44.74646" lon="2.55066">
        <ele>404.7</ele>
        <time>2021-11-11T10:58:05Z</time>
      </trkpt>
      <trkpt lat="44.74643" lon="2.55066">
        <ele>401</ele>
        <time>2021-11-11T10:58:10Z</time>
      </trkpt>
      <trkpt lat="44.7464" lon="2.55068">
        <ele>404.9</ele>
        <time>2021-11-11T10:58:15Z</time>
      </trkpt>
      <trkpt lat="44.74636" lon="2.55068">
        <ele>415.5</ele>
        <time>2021-11-11T10:58:22Z</time>
      </trkpt>
      <trkpt lat="44.74634" lon="2.55069">
        <ele>431.5</ele>
        <time>2021-11-11T10:58:27Z</time>
      </trkpt>
      <trkpt lat="44.74634" lon="2.55069">
        <ele>395.2</ele>
        <time>2021-11-11T10:58:33Z</time>
      </trkpt>
      <trkpt lat="44.74632" lon="2.55072">
        <ele>409.4</ele>
        <time>2021-11-11T10:58:40Z</time>
      </trkpt>
      <trkpt lat="44.74627" lon="2.55071">
        <ele>402.6</ele>
        <time>2021-11-11T10:58:45Z</time>
      </trkpt>
      <trkpt lat="44.74622" lon="2.55075">
        <ele>415.3</ele>
        <time>2021-11-11T10:58:50Z</time>
      </trkpt>
      <trkpt lat="44.74616" lon="2.55081">
        <ele>414.4</ele>
        <time>2021-11-11T10:58:56Z</time>
      </trkpt>
      <trkpt lat="44.74613" lon="2.55087">
        <ele>428</ele>
        <time>2021-11-11T10:59:01Z</time>
      </trkpt>
      <trkpt lat="44.74611" lon="2.5509">
        <ele>411.4</ele>
        <time>2021-11-11T10:59:07Z</time>
      </trkpt>
      <trkpt lat="44.74609" lon="2.55093">
        <ele>415.9</ele>
        <time>2021-11-11T10:59:12Z</time>
      </trkpt>
      <trkpt lat="44.74606" lon="2.55096">
        <ele>407.8</ele>
        <time>2021-11-11T10:59:18Z</time>
      </trkpt>
      <trkpt lat="44.74601" lon="2.55099">
        <ele>411.6</ele>
        <time>2021-11-11T10:59:23Z</time>
      </trkpt>
      <trkpt lat="44.74596" lon="2.55102">
        <ele>432.8</ele>
        <time>2021-11-11T10:59:28Z</time>
      </trkpt>
      <trkpt lat="44.74594" lon="2.55104">
        <ele>428.1</ele>
        <time>2021-11-11T10:59:34Z</time>
      </trkpt>
      <trkpt lat="44.74592" lon="2.55105">
        <ele>411.7</ele>
        <time>2021-11-11T10:59:39Z</time>
      </trkpt>
      <trkpt lat="44.74589" lon="2.55109">
        <ele>422.3</ele>
        <time>2021-11-11T10:59:44Z</time>
      </trkpt>
      <trkpt lat="44.74584" lon="2.55113">
        <ele>427.5</ele>
        <time>2021-11-11T10:59:49Z</time>
      </trkpt>
      <trkpt lat="44.7458" lon="2.55115">
        <ele>437.6</ele>
        <time>2021-11-11T10:59:54Z</time>
      </trkpt>
      <trkpt lat="44.74578" lon="2.55116">
        <ele>412.9</ele>
        <time>2021-11-11T10:59:59Z</time>
      </trkpt>
      <trkpt lat="44.74574" lon="2.55119">
        <ele>419.1</ele>
        <time>2021-11-11T11:00:05Z</time>
      </trkpt>
      <trkpt lat="44.7457" lon="2.55123">
        <ele>446</ele>
        <time>2021-11-11T11:00:11Z</time>
      </trkpt>
      <trkpt lat="44.74567" lon="2.55124">
        <ele>436.3</ele>
        <time>2021-11-11T11:00:16Z</time>
      </trkpt>
      <trkpt lat="44.74562" lon="2.55128">
        <ele>402.8</ele>
        <time>2021-11-11T11:00:21Z</time>
      </trkpt>
      <trkpt lat="44.74558" lon="2.55131">
        <ele>423.3</ele>
        <time>2021-11-11T11:00:27Z</time>
      </trkpt>
      <trkpt lat="44.74557" lon="2.55135">
        <ele>451.6</ele>
        <time>2021-11-11T11:00:32Z</time>
      </trkpt>
      <trkpt lat="44.74553" lon="2.55141">
        <ele>439.1</ele>
        <time>2021-11-11T11:00:37Z</time>
      </trkpt>
      <trkpt lat="44.74549" lon="2.55147">
        <ele>445.4</ele>
        <time>2021-11-11T11:00:44Z</time>
      </trkpt>
      <trkpt lat="44.74544" lon="2.55152">
        <ele>427.5</ele>
        <time>2021-11-11T11:00:49Z</time>
      </trkpt>
      <trkpt lat="44.74541" lon="2.55156">
        <ele>428.9</ele>
        <time>2021-11-11T11:00:55Z</time>
      </trkpt>
      <trkpt lat="44.74535" lon="2.55161">
        <ele>425.5</ele>
        <time>2021-11-11T11:01:00Z</time>
      </trkpt>
      <trkpt lat="44.7453" lon="2.55166">
        <ele>445.4</ele>
        <time>2021-11-11T11:01:05Z</time>
      </trkpt>
      <trkpt lat="44.74526" lon="2.55172">
        <ele>453.6</ele>
        <time>2021-11-11T11:01:10Z</time>
      </trkpt>
      <trkpt lat="44.74524" lon="2.55172">
        <ele>449.9</ele>
        <time>2021-11-11T11:01:16Z</time>
      </trkpt>
      <trkpt lat="44.7452" lon="2.55176">
        <ele>445.3</ele>
        <time>2021-11-11T11:01:21Z</time>
      </trkpt>
      <trkpt lat="44.74517" lon="2.55178">
        <ele>450.1</ele>
        <time>2021-11-11T11:01:27Z</time>
      </trkpt>
      <trkpt lat="44.74514" lon="2.55182">
        <ele>430.9</ele>
        <time>2021-11-11T11:01:32Z</time>
      </trkpt>
      <trkpt lat="44.74509" lon="2.55187">
        <ele>427.4</ele>
        <time>2021-11-11T11:01:38Z</time>
      </trkpt>
      <trkpt lat="44.74503" lon="2.5519">
        <ele>433.9</ele>
        <time>2021-11-11T11:01:43Z</time>
      </trkpt>
      <trkpt lat="44.745" lon="2.55192">
        <ele>445</ele>
        <time>2021-11-11T11:01:49Z</time>
      </trkpt>
      <trkpt lat="44.74498" lon="2.55195">
        <ele>450.3</ele>
        <time>2021-11-11T11:01:54Z</time>
      </trkpt>
      <trkpt lat="44.74494" lon="2.55196">
        <ele>447.5</ele>
        <time>2021-11-11T11:01:59Z</time>
      </trkpt>
      <trkpt lat="44.74489" lon="2.552">
        <ele>430.8</ele>
        <time>2021-11-11T11:02:05Z</time>
      </trkpt>
      <trkpt lat="44.74485" lon="2.55203">
        <ele>432.9</ele>
        <time>2021-11-11T11:02:10Z</time>
      </trkpt>
      <trkpt lat="44.74482" lon="2.55208">
        <ele>453.3</ele>
        <time>2021-11-11T11:02:16Z</time>
      </trkpt>
      <trkpt lat="44.74478" lon="2.5521">
        <ele>459.4</ele>
        <time>2021-11-11T11:02:21Z</time>
      </trkpt>
      <trkpt lat="44.74473" lon="2.55214">
        <ele>445.3</ele>
        <time>2021-11-11T11:02:26Z</time>
      </trkpt>
      <trkpt lat="44.74469" lon="2.55217">
        <ele>451.7</ele>
        <time>2021-11-11T11:02:32Z</time>
      </trkpt>
      <trkpt lat="44.74465" lon="2.55217">
        <ele>435.1</ele>
        <time>2021-11-11T11:02:37Z</time>
      </trkpt>
      <trkpt lat="44.7446" lon="2.55216">
        <ele>462.1</ele>
        <time>2021-11-11T11:02:42Z</time>
      </trkpt>
      <trkpt lat="44.74454" lon="2.55215">
        <ele>432.9</ele>
        <time>2021-11-11T11:02:48Z</time>
      </trkpt>
      <trkpt lat="44.74452" lon="2.55216">
        <ele>437.1</ele>
        <time>2021-11-11T11:02:54Z</time>
      </trkpt>
      <trkpt lat="44.74439" lon="2.55194">
        <ele>457.6</ele>
        <time>2021-11-11T11:03:00Z</time>
      </trkpt>
      <trkpt lat="44.74435" lon="2.55187">
        <ele>455.3</ele>
        <time>2021-11-11T11:03:05Z</time>
      </trkpt>
      <trkpt lat="44.74432" lon="2.55182">
        <ele>455.7</ele>
        <time>2021-11-11T11:03:10Z</time>
      </trkpt>
      <trkpt lat="44.74432" lon="2.55179">
        <ele>424.2</ele>
        <time>2021-11-11T11:03:16Z</time>
      </trkpt>
      <trkpt lat="44.7443" lon="2.55176">
        <ele>453.5</ele>
        <time>2021-11-11T11:03:21Z</time>
      </trkpt>
      <trkpt lat="44.74429" lon="2.55172">
        <ele>441.2</ele>
        <time>2021-11-11T11:03:27Z</time>
      </trkpt>
      <trkpt lat="44.74429" lon="2.55166">
        <ele>447.7</ele>
        <time>2021-11-11T11:03:34Z</time>
      </trkpt>
      <trkpt lat="44.74429" lon="2.55164">
        <ele>444.5</ele>
        <time>2021-11-11T11:03:39Z</time>
      </trkpt>
      <trkpt lat="44.7443" lon="2.55164">
        <ele>438.5</ele>
        <time>2021-11-11T11:03:45Z</time>
      </trkpt>
      <trkpt lat="44.74427" lon="2.55158">
        <ele>457.6</ele>
        <time>2021-11-11T11:03:50Z</time>
      </trkpt>
      <trkpt lat="44.74428" lon="2.55157">
        <ele>448.5</ele>
        <time>2021-11-11T11:03:56Z</time>
      </trkpt>
      <trkpt lat="44.74428" lon="2.55157">
        <ele>450.5</ele>
        <time>2021-11-11T11:04:02Z</time>
      </trkpt>
      <trkpt lat="44.74428" lon="2.55157">
        <ele>447.6</ele>
        <time>2021-11-11T11:04:07Z</time>
      </trkpt>
      <trkpt lat="44.74428" lon="2.55156">
        <ele>458.4</ele>
        <time>2021-11-11T11:04:12Z</time>
      </trkpt>
      <trkpt lat="44.74428" lon="2.55152">
        <ele>450.2</ele>
        <time>2021-11-11T11:04:17Z</time>
      </trkpt>
      <trkpt lat="44.74425" lon="2.55144">
        <ele>443.4</ele>
        <time>2021-11-11T11:04:23Z</time>
      </trkpt>
      <trkpt lat="44.74422" lon="2.55135">
        <ele>456.6</ele>
        <time>2021-11-11T11:04:29Z</time>
      </trkpt>
      <trkpt lat="44.7442" lon="2.55126">
        <ele>449.4</ele>
        <time>2021-11-11T11:04:34Z</time>
      </trkpt>
      <trkpt lat="44.74418" lon="2.55119">
        <ele>453.3</ele>
        <time>2021-11-11T11:04:39Z</time>
      </trkpt>
      <trkpt lat="44.74416" lon="2.55112">
        <ele>464.2</ele>
        <time>2021-11-11T11:04:44Z</time>
      </trkpt>
      <trkpt lat="44.74416" lon="2.55107">
        <ele>460.2</ele>
        <time>2021-11-11T11:04:49Z</time>
      </trkpt>
      <trkpt lat="44.74414" lon="2.55098">
        <ele>463.2</ele>
        <time>2021-11-11T11:04:55Z</time>
      </trkpt>
      <trkpt lat="44.74413" lon="2.55089">
        <ele>465.9</ele>
        <time>2021-11-11T11:05:00Z</time>
      </trkpt>
      <trkpt lat="44.74413" lon="2.55077">
        <ele>460</ele>
        <time>2021-11-11T11:05:05Z</time>
      </trkpt>
      <trkpt lat="44.74415" lon="2.55065">
        <ele>454.5</ele>
        <time>2021-11-11T11:05:11Z</time>
      </trkpt>
      <trkpt lat="44.74423" lon="2.55051">
        <ele>455.2</ele>
        <time>2021-11-11T11:05:16Z</time>
      </trkpt>
      <trkpt lat="44.74422" lon="2.55042">
        <ele>476.2</ele>
        <time>2021-11-11T11:05:22Z</time>
      </trkpt>
      <trkpt lat="44.74421" lon="2.55032">
        <ele>469.7</ele>
        <time>2021-11-11T11:05:27Z</time>
      </trkpt>
      <trkpt lat="44.74422" lon="2.55022">
        <ele>471.9</ele>
        <time>2021-11-11T11:05:32Z</time>
      </trkpt>
      <trkpt lat="44.74423" lon="2.55012">
        <ele>450</ele>
        <time>2021-11-11T11:05:38Z</time>
      </trkpt>
      <trkpt lat="44.74424" lon="2.55001">
        <ele>473.5</ele>
        <time>2021-11-11T11:05:44Z</time>
      </trkpt>
      <trkpt lat="44.74424" lon="2.54992">
        <ele>471.9</ele>
        <time>2021-11-11T11:05:49Z</time>
      </trkpt>
      <trkpt lat="44.74423" lon="2.54984">
        <ele>464.1</ele>
        <time>2021-11-11T11:05:54Z</time>
      </trkpt>
      <trkpt lat="44.74422" lon="2.54977">
        <ele>474.5</ele>
        <time>2021-11-11T11:05:59Z</time>
      </trkpt>
      <trkpt lat="44.74421" lon="2.54968">
        <ele>473.1</ele>
        <time>2021-11-11T11:06:04Z</time>
      </trkpt>
      <trkpt lat="44.74422" lon="2.54959">
        <ele>466</ele>
        <time>2021-11-11T11:06:10Z</time>
      </trkpt>
      <trkpt lat="44.74423" lon="2.5495">
        <ele>460.1</ele>
        <time>2021-11-11T11:06:15Z</time>
      </trkpt>
      <trkpt lat="44.74425" lon="2.54949">
        <ele>478.3</ele>
        <time>2021-11-11T11:06:21Z</time>
      </trkpt>
      <trkpt lat="44.74426" lon="2.54942">
        <ele>454.8</ele>
        <time>2021-11-11T11:06:26Z</time>
      </trkpt>
      <trkpt lat="44.74427" lon="2.54935">
        <ele>470.8</ele>
        <time>2021-11-11T11:06:31Z</time>
      </trkpt>
      <trkpt lat="44.74428" lon="2.54928">
        <ele>471.9</ele>
        <time>2021-11-11T11:06:36Z</time>
      </trkpt>
      <trkpt lat="44.74428" lon="2.54929">
        <ele>443.4</ele>
        <time>2021-11-11T11:06:42Z</time>
      </trkpt>
      <trkpt lat="44.74428" lon="2.54927">
        <ele>477.3</ele>
        <time>2021-11-11T11:06:47Z</time>
      </trkpt>
      <trkpt lat="44.74422" lon="2.54924">
        <ele>447.7</ele>
        <time>2021-11-11T11:06:53Z</time>
      </trkpt>
      <trkpt lat="44.74419" lon="2.54927">
        <ele>471.6</ele>
        <time>2021-11-11T11:06:58Z</time>
      </trkpt>
      <trkpt lat="44.74418" lon="2.54928">
        <ele>471.6</ele>
        <time>2021-11-11T11:07:04Z</time>
      </trkpt>
      <trkpt lat="44.74412" lon="2.54925">
        <ele>471.5</ele>
        <time>2021-11-11T11:07:09Z</time>
      </trkpt>
      <trkpt lat="44.74405" lon="2.54926">
        <ele>471.6</ele>
        <time>2021-11-11T11:07:15Z</time>
      </trkpt>
      <trkpt lat="44.74398" lon="2.54929">
        <ele>471.6</ele>
        <time>2021-11-11T11:07:20Z</time>
      </trkpt>
      <trkpt lat="44.74393" lon="2.54929">
        <ele>471.6</ele>
        <time>2021-11-11T11:07:26Z</time>
      </trkpt>
      <trkpt lat="44.74389" lon="2.54925">
        <ele>471.6</ele>
        <time>2021-11-11T11:07:31Z</time>
      </trkpt>
      <trkpt lat="44.74387" lon="2.54923">
        <ele>471.5</ele>
        <time>2021-11-11T11:07:36Z</time>
      </trkpt>
      <trkpt lat="44.74381" lon="2.54923">
        <ele>471.5</ele>
        <time>2021-11-11T11:07:42Z</time>
      </trkpt>
      <trkpt lat="44.74375" lon="2.54925">
        <ele>471.5</ele>
        <time>2021-11-11T11:07:47Z</time>
      </trkpt>
      <trkpt lat="44.74371" lon="2.54928">
        <ele>471.6</ele>
        <time>2021-11-11T11:07:52Z</time>
      </trkpt>
      <trkpt lat="44.7437" lon="2.54935">
        <ele>471.5</ele>
        <time>2021-11-11T11:07:58Z</time>
      </trkpt>
      <trkpt lat="44.7437" lon="2.54944">
        <ele>471.5</ele>
        <time>2021-11-11T11:08:03Z</time>
      </trkpt>
      <trkpt lat="44.7437" lon="2.54951">
        <ele>471.4</ele>
        <time>2021-11-11T11:08:09Z</time>
      </trkpt>
      <trkpt lat="44.74372" lon="2.54962">
        <ele>471.4</ele>
        <time>2021-11-11T11:08:14Z</time>
      </trkpt>
      <trkpt lat="44.74371" lon="2.54972">
        <ele>471.4</ele>
        <time>2021-11-11T11:08:19Z</time>
      </trkpt>
      <trkpt lat="44.74369" lon="2.54983">
        <ele>471.4</ele>
        <time>2021-11-11T11:08:25Z</time>
      </trkpt>
      <trkpt lat="44.74367" lon="2.54992">
        <ele>471.5</ele>
        <time>2021-11-11T11:08:31Z</time>
      </trkpt>
      <trkpt lat="44.74366" lon="2.55001">
        <ele>471.5</ele>
        <time>2021-11-11T11:08:36Z</time>
      </trkpt>
      <trkpt lat="44.74363" lon="2.5501">
        <ele>471.6</ele>
        <time>2021-11-11T11:08:41Z</time>
      </trkpt>
      <trkpt lat="44.74358" lon="2.55016">
        <ele>471.6</ele>
        <time>2021-11-11T11:08:47Z</time>
      </trkpt>
      <trkpt lat="44.7435" lon="2.5502">
        <ele>471.5</ele>
        <time>2021-11-11T11:08:53Z</time>
      </trkpt>
      <trkpt lat="44.74343" lon="2.55024">
        <ele>471.5</ele>
        <time>2021-11-11T11:08:58Z</time>
      </trkpt>
      <trkpt lat="44.74338" lon="2.55026">
        <ele>471.5</ele>
        <time>2021-11-11T11:09:03Z</time>
      </trkpt>
      <trkpt lat="44.74333" lon="2.55027">
        <ele>460.8</ele>
        <time>2021-11-11T11:09:08Z</time>
      </trkpt>
      <trkpt lat="44.74326" lon="2.55028">
        <ele>457.6</ele>
        <time>2021-11-11T11:09:13Z</time>
      </trkpt>
      <trkpt lat="44.7432" lon="2.5503">
        <ele>448</ele>
        <time>2021-11-11T11:09:19Z</time>
      </trkpt>
      <trkpt lat="44.74314" lon="2.5503">
        <ele>458</ele>
        <time>2021-11-11T11:09:24Z</time>
      </trkpt>
      <trkpt lat="44.74307" lon="2.55032">
        <ele>465.3</ele>
        <time>2021-11-11T11:09:30Z</time>
      </trkpt>
      <trkpt lat="44.74299" lon="2.55032">
        <ele>457.8</ele>
        <time>2021-11-11T11:09:35Z</time>
      </trkpt>
      <trkpt lat="44.74292" lon="2.55033">
        <ele>460.1</ele>
        <time>2021-11-11T11:09:40Z</time>
      </trkpt>
      <trkpt lat="44.74284" lon="2.5503">
        <ele>478.8</ele>
        <time>2021-11-11T11:09:45Z</time>
      </trkpt>
      <trkpt lat="44.74277" lon="2.55027">
        <ele>429.4</ele>
        <time>2021-11-11T11:09:51Z</time>
      </trkpt>
      <trkpt lat="44.7427" lon="2.55025">
        <ele>435.2</ele>
        <time>2021-11-11T11:09:56Z</time>
      </trkpt>
      <trkpt lat="44.74264" lon="2.55024">
        <ele>464.8</ele>
        <time>2021-11-11T11:10:02Z</time>
      </trkpt>
      <trkpt lat="44.74257" lon="2.55023">
        <ele>465.9</ele>
        <time>2021-11-11T11:10:07Z</time>
      </trkpt>
      <trkpt lat="44.7425" lon="2.55018">
        <ele>471.9</ele>
        <time>2021-11-11T11:10:13Z</time>
      </trkpt>
      <trkpt lat="44.74244" lon="2.5501">
        <ele>453.9</ele>
        <time>2021-11-11T11:10:18Z</time>
      </trkpt>
      <trkpt lat="44.74241" lon="2.54998">
        <ele>460</ele>
        <time>2021-11-11T11:10:23Z</time>
      </trkpt>
      <trkpt lat="44.7424" lon="2.54985">
        <ele>454.1</ele>
        <time>2021-11-11T11:10:29Z</time>
      </trkpt>
      <trkpt lat="44.74242" lon="2.54973">
        <ele>452.4</ele>
        <time>2021-11-11T11:10:34Z</time>
      </trkpt>
      <trkpt lat="44.74237" lon="2.54966">
        <ele>465.8</ele>
        <time>2021-11-11T11:10:40Z</time>
      </trkpt>
      <trkpt lat="44.74234" lon="2.54957">
        <ele>440.6</ele>
        <time>2021-11-11T11:10:45Z</time>
      </trkpt>
      <trkpt lat="44.74233" lon="2.54947">
        <ele>449.3</ele>
        <time>2021-11-11T11:10:50Z</time>
      </trkpt>
      <trkpt lat="44.74232" lon="2.54938">
        <ele>447.9</ele>
        <time>2021-11-11T11:10:55Z</time>
      </trkpt>
      <trkpt lat="44.74231" lon="2.5493">
        <ele>472.5</ele>
        <time>2021-11-11T11:11:00Z</time>
      </trkpt>
      <trkpt lat="44.74231" lon="2.54919">
        <ele>477.9</ele>
        <time>2021-11-11T11:11:05Z</time>
      </trkpt>
      <trkpt lat="44.74229" lon="2.54909">
        <ele>478.9</ele>
        <time>2021-11-11T11:11:11Z</time>
      </trkpt>
      <trkpt lat="44.74227" lon="2.54901">
        <ele>455.9</ele>
        <time>2021-11-11T11:11:16Z</time>
      </trkpt>
      <trkpt lat="44.74223" lon="2.54892">
        <ele>457.7</ele>
        <time>2021-11-11T11:11:22Z</time>
      </trkpt>
      <trkpt lat="44.74221" lon="2.54883">
        <ele>446.8</ele>
        <time>2021-11-11T11:11:27Z</time>
      </trkpt>
      <trkpt lat="44.7422" lon="2.54874">
        <ele>447.7</ele>
        <time>2021-11-11T11:11:32Z</time>
      </trkpt>
      <trkpt lat="44.74217" lon="2.54865">
        <ele>451.5</ele>
        <time>2021-11-11T11:11:38Z</time>
      </trkpt>
      <trkpt lat="44.74213" lon="2.54857">
        <ele>489.1</ele>
        <time>2021-11-11T11:11:44Z</time>
      </trkpt>
      <trkpt lat="44.74212" lon="2.54848">
        <ele>475.7</ele>
        <time>2021-11-11T11:11:49Z</time>
      </trkpt>
      <trkpt lat="44.74213" lon="2.54841">
        <ele>452.6</ele>
        <time>2021-11-11T11:11:54Z</time>
      </trkpt>
      <trkpt lat="44.74214" lon="2.54837">
        <ele>461</ele>
        <time>2021-11-11T11:12:01Z</time>
      </trkpt>
      <trkpt lat="44.74208" lon="2.54831">
        <ele>456.7</ele>
        <time>2021-11-11T11:12:06Z</time>
      </trkpt>
      <trkpt lat="44.74202" lon="2.54827">
        <ele>459.5</ele>
        <time>2021-11-11T11:12:11Z</time>
      </trkpt>
      <trkpt lat="44.74197" lon="2.54821">
        <ele>454.3</ele>
        <time>2021-11-11T11:12:17Z</time>
      </trkpt>
      <trkpt lat="44.74193" lon="2.54817">
        <ele>454.3</ele>
        <time>2021-11-11T11:12:22Z</time>
      </trkpt>
      <trkpt lat="44.74187" lon="2.54808">
        <ele>453.4</ele>
        <time>2021-11-11T11:12:28Z</time>
      </trkpt>
      <trkpt lat="44.74182" lon="2.54798">
        <ele>451.3</ele>
        <time>2021-11-11T11:12:33Z</time>
      </trkpt>
      <trkpt lat="44.7418" lon="2.54788">
        <ele>467.7</ele>
        <time>2021-11-11T11:12:38Z</time>
      </trkpt>
      <trkpt lat="44.74177" lon="2.54773">
        <ele>451.5</ele>
        <time>2021-11-11T11:12:44Z</time>
      </trkpt>
      <trkpt lat="44.74174" lon="2.54762">
        <ele>449.7</ele>
        <time>2021-11-11T11:12:49Z</time>
      </trkpt>
      <trkpt lat="44.7417" lon="2.54756">
        <ele>438.2</ele>
        <time>2021-11-11T11:12:54Z</time>
      </trkpt>
      <trkpt lat="44.74167" lon="2.54748">
        <ele>462.3</ele>
        <time>2021-11-11T11:13:00Z</time>
      </trkpt>
      <trkpt lat="44.74163" lon="2.54741">
        <ele>449.6</ele>
        <time>2021-11-11T11:13:06Z</time>
      </trkpt>
      <trkpt lat="44.74161" lon="2.54733">
        <ele>453.4</ele>
        <time>2021-11-11T11:13:11Z</time>
      </trkpt>
      <trkpt lat="44.74157" lon="2.54726">
        <ele>457</ele>
        <time>2021-11-11T11:13:16Z</time>
      </trkpt>
      <trkpt lat="44.74154" lon="2.54717">
        <ele>468.8</ele>
        <time>2021-11-11T11:13:23Z</time>
      </trkpt>
      <trkpt lat="44.74152" lon="2.54713">
        <ele>449.4</ele>
        <time>2021-11-11T11:13:28Z</time>
      </trkpt>
      <trkpt lat="44.74147" lon="2.54707">
        <ele>449.6</ele>
        <time>2021-11-11T11:13:34Z</time>
      </trkpt>
      <trkpt lat="44.74142" lon="2.54699">
        <ele>455.7</ele>
        <time>2021-11-11T11:13:39Z</time>
      </trkpt>
      <trkpt lat="44.7414" lon="2.54689">
        <ele>459.7</ele>
        <time>2021-11-11T11:13:44Z</time>
      </trkpt>
      <trkpt lat="44.74137" lon="2.54679">
        <ele>459.8</ele>
        <time>2021-11-11T11:13:49Z</time>
      </trkpt>
      <trkpt lat="44.74135" lon="2.54671">
        <ele>468.5</ele>
        <time>2021-11-11T11:13:55Z</time>
      </trkpt>
      <trkpt lat="44.74133" lon="2.54662">
        <ele>440.4</ele>
        <time>2021-11-11T11:14:00Z</time>
      </trkpt>
      <trkpt lat="44.7413" lon="2.54657">
        <ele>439.9</ele>
        <time>2021-11-11T11:14:05Z</time>
      </trkpt>
      <trkpt lat="44.74129" lon="2.54653">
        <ele>472.9</ele>
        <time>2021-11-11T11:14:10Z</time>
      </trkpt>
      <trkpt lat="44.74126" lon="2.54651">
        <ele>446.6</ele>
        <time>2021-11-11T11:14:15Z</time>
      </trkpt>
      <trkpt lat="44.74128" lon="2.54646">
        <ele>459.1</ele>
        <time>2021-11-11T11:14:21Z</time>
      </trkpt>
      <trkpt lat="44.74129" lon="2.5464">
        <ele>456.7</ele>
        <time>2021-11-11T11:14:26Z</time>
      </trkpt>
      <trkpt lat="44.74128" lon="2.54635">
        <ele>474.4</ele>
        <time>2021-11-11T11:14:31Z</time>
      </trkpt>
      <trkpt lat="44.74126" lon="2.54635">
        <ele>449.6</ele>
        <time>2021-11-11T11:14:36Z</time>
      </trkpt>
      <trkpt lat="44.74132" lon="2.54645">
        <ele>456.3</ele>
        <time>2021-11-11T11:14:42Z</time>
      </trkpt>
      <trkpt lat="44.74138" lon="2.54652">
        <ele>450.6</ele>
        <time>2021-11-11T11:14:47Z</time>
      </trkpt>
      <trkpt lat="44.74141" lon="2.5466">
        <ele>460</ele>
        <time>2021-11-11T11:14:53Z</time>
      </trkpt>
      <trkpt lat="44.74142" lon="2.54667">
        <ele>457.2</ele>
        <time>2021-11-11T11:14:58Z</time>
      </trkpt>
      <trkpt lat="44.74142" lon="2.54677">
        <ele>478.7</ele>
        <time>2021-11-11T11:15:03Z</time>
      </trkpt>
      <trkpt lat="44.74142" lon="2.54686">
        <ele>466.9</ele>
        <time>2021-11-11T11:15:08Z</time>
      </trkpt>
      <trkpt lat="44.7414" lon="2.54698">
        <ele>466.9</ele>
        <time>2021-11-11T11:15:14Z</time>
      </trkpt>
      <trkpt lat="44.74137" lon="2.54706">
        <ele>475.1</ele>
        <time>2021-11-11T11:15:19Z</time>
      </trkpt>
      <trkpt lat="44.74136" lon="2.54713">
        <ele>468.5</ele>
        <time>2021-11-11T11:15:24Z</time>
      </trkpt>
      <trkpt lat="44.74134" lon="2.54721">
        <ele>463.5</ele>
        <time>2021-11-11T11:15:29Z</time>
      </trkpt>
      <trkpt lat="44.74133" lon="2.5473">
        <ele>462.5</ele>
        <time>2021-11-11T11:15:35Z</time>
      </trkpt>
      <trkpt lat="44.74131" lon="2.54743">
        <ele>461.3</ele>
        <time>2021-11-11T11:15:40Z</time>
      </trkpt>
      <trkpt lat="44.74128" lon="2.54753">
        <ele>477.6</ele>
        <time>2021-11-11T11:15:45Z</time>
      </trkpt>
      <trkpt lat="44.74124" lon="2.54763">
        <ele>468.8</ele>
        <time>2021-11-11T11:15:51Z</time>
      </trkpt>
      <trkpt lat="44.74121" lon="2.54771">
        <ele>476.6</ele>
        <time>2021-11-11T11:15:56Z</time>
      </trkpt>
      <trkpt lat="44.7412" lon="2.54777">
        <ele>473.8</ele>
        <time>2021-11-11T11:16:01Z</time>
      </trkpt>
      <trkpt lat="44.74119" lon="2.54786">
        <ele>456.4</ele>
        <time>2021-11-11T11:16:06Z</time>
      </trkpt>
      <trkpt lat="44.74115" lon="2.54793">
        <ele>463.1</ele>
        <time>2021-11-11T11:16:12Z</time>
      </trkpt>
      <trkpt lat="44.74112" lon="2.54798">
        <ele>459</ele>
        <time>2021-11-11T11:16:18Z</time>
      </trkpt>
      <trkpt lat="44.74113" lon="2.54806">
        <ele>461.3</ele>
        <time>2021-11-11T11:16:23Z</time>
      </trkpt>
      <trkpt lat="44.74112" lon="2.54818">
        <ele>463.2</ele>
        <time>2021-11-11T11:16:28Z</time>
      </trkpt>
      <trkpt lat="44.74114" lon="2.54832">
        <ele>488.9</ele>
        <time>2021-11-11T11:16:33Z</time>
      </trkpt>
      <trkpt lat="44.74119" lon="2.54845">
        <ele>489.9</ele>
        <time>2021-11-11T11:16:38Z</time>
      </trkpt>
      <trkpt lat="44.74123" lon="2.54858">
        <ele>476.4</ele>
        <time>2021-11-11T11:16:44Z</time>
      </trkpt>
      <trkpt lat="44.74124" lon="2.54869">
        <ele>461.5</ele>
        <time>2021-11-11T11:16:49Z</time>
      </trkpt>
      <trkpt lat="44.74125" lon="2.54877">
        <ele>459</ele>
        <time>2021-11-11T11:16:54Z</time>
      </trkpt>
      <trkpt lat="44.74124" lon="2.54888">
        <ele>467.1</ele>
        <time>2021-11-11T11:17:00Z</time>
      </trkpt>
      <trkpt lat="44.74124" lon="2.54898">
        <ele>453.9</ele>
        <time>2021-11-11T11:17:05Z</time>
      </trkpt>
      <trkpt lat="44.74124" lon="2.54909">
        <ele>467.5</ele>
        <time>2021-11-11T11:17:11Z</time>
      </trkpt>
      <trkpt lat="44.74124" lon="2.54919">
        <ele>460</ele>
        <time>2021-11-11T11:17:16Z</time>
      </trkpt>
      <trkpt lat="44.7412" lon="2.54928">
        <ele>458.1</ele>
        <time>2021-11-11T11:17:21Z</time>
      </trkpt>
      <trkpt lat="44.74117" lon="2.54937">
        <ele>470.5</ele>
        <time>2021-11-11T11:17:26Z</time>
      </trkpt>
      <trkpt lat="44.74114" lon="2.54946">
        <ele>473.5</ele>
        <time>2021-11-11T11:17:32Z</time>
      </trkpt>
      <trkpt lat="44.7411" lon="2.54952">
        <ele>449.1</ele>
        <time>2021-11-11T11:17:38Z</time>
      </trkpt>
      <trkpt lat="44.74105" lon="2.54958">
        <ele>470.8</ele>
        <time>2021-11-11T11:17:43Z</time>
      </trkpt>
      <trkpt lat="44.74102" lon="2.54967">
        <ele>447.1</ele>
        <time>2021-11-11T11:17:48Z</time>
      </trkpt>
      <trkpt lat="44.74096" lon="2.54977">
        <ele>476.9</ele>
        <time>2021-11-11T11:17:54Z</time>
      </trkpt>
      <trkpt lat="44.74094" lon="2.54985">
        <ele>464.7</ele>
        <time>2021-11-11T11:17:59Z</time>
      </trkpt>
      <trkpt lat="44.7409" lon="2.54994">
        <ele>461.4</ele>
        <time>2021-11-11T11:18:05Z</time>
      </trkpt>
      <trkpt lat="44.74086" lon="2.54999">
        <ele>468.8</ele>
        <time>2021-11-11T11:18:10Z</time>
      </trkpt>
      <trkpt lat="44.7408" lon="2.55003">
        <ele>472.9</ele>
        <time>2021-11-11T11:18:15Z</time>
      </trkpt>
      <trkpt lat="44.74075" lon="2.55007">
        <ele>457.8</ele>
        <time>2021-11-11T11:18:20Z</time>
      </trkpt>
      <trkpt lat="44.74069" lon="2.55012">
        <ele>459.6</ele>
        <time>2021-11-11T11:18:25Z</time>
      </trkpt>
      <trkpt lat="44.74063" lon="2.55015">
        <ele>467.2</ele>
        <time>2021-11-11T11:18:31Z</time>
      </trkpt>
      <trkpt lat="44.74059" lon="2.5502">
        <ele>462.1</ele>
        <time>2021-11-11T11:18:36Z</time>
      </trkpt>
      <trkpt lat="44.74057" lon="2.55024">
        <ele>465.3</ele>
        <time>2021-11-11T11:18:41Z</time>
      </trkpt>
      <trkpt lat="44.74053" lon="2.55027">
        <ele>471</ele>
        <time>2021-11-11T11:18:47Z</time>
      </trkpt>
      <trkpt lat="44.74047" lon="2.55029">
        <ele>461.4</ele>
        <time>2021-11-11T11:18:52Z</time>
      </trkpt>
      <trkpt lat="44.74036" lon="2.55044">
        <ele>460.7</ele>
        <time>2021-11-11T11:18:57Z</time>
      </trkpt>
      <trkpt lat="44.74029" lon="2.55048">
        <ele>461.6</ele>
        <time>2021-11-11T11:19:02Z</time>
      </trkpt>
      <trkpt lat="44.74021" lon="2.55056">
        <ele>473.9</ele>
        <time>2021-11-11T11:19:08Z</time>
      </trkpt>
      <trkpt lat="44.74015" lon="2.55061">
        <ele>450.6</ele>
        <time>2021-11-11T11:19:14Z</time>
      </trkpt>
      <trkpt lat="44.74013" lon="2.55064">
        <ele>448.8</ele>
        <time>2021-11-11T11:19:19Z</time>
      </trkpt>
      <trkpt lat="44.74007" lon="2.55069">
        <ele>463.6</ele>
        <time>2021-11-11T11:19:25Z</time>
      </trkpt>
      <trkpt lat="44.74" lon="2.55078">
        <ele>448.5</ele>
        <time>2021-11-11T11:19:30Z</time>
      </trkpt>
      <trkpt lat="44.73993" lon="2.55084">
        <ele>457.9</ele>
        <time>2021-11-11T11:19:35Z</time>
      </trkpt>
      <trkpt lat="44.73982" lon="2.55082">
        <ele>449.6</ele>
        <time>2021-11-11T11:19:41Z</time>
      </trkpt>
      <trkpt lat="44.73973" lon="2.5508">
        <ele>466.4</ele>
        <time>2021-11-11T11:19:46Z</time>
      </trkpt>
      <trkpt lat="44.73967" lon="2.55075">
        <ele>463.6</ele>
        <time>2021-11-11T11:19:51Z</time>
      </trkpt>
      <trkpt lat="44.7396" lon="2.55065">
        <ele>455.7</ele>
        <time>2021-11-11T11:19:57Z</time>
      </trkpt>
      <trkpt lat="44.73957" lon="2.55057">
        <ele>462.4</ele>
        <time>2021-11-11T11:20:02Z</time>
      </trkpt>
      <trkpt lat="44.73958" lon="2.55049">
        <ele>454.2</ele>
        <time>2021-11-11T11:20:08Z</time>
      </trkpt>
      <trkpt lat="44.73956" lon="2.55039">
        <ele>466.9</ele>
        <time>2021-11-11T11:20:13Z</time>
      </trkpt>
      <trkpt lat="44.73957" lon="2.55029">
        <ele>469.5</ele>
        <time>2021-11-11T11:20:19Z</time>
      </trkpt>
      <trkpt lat="44.73959" lon="2.55021">
        <ele>467.7</ele>
        <time>2021-11-11T11:20:24Z</time>
      </trkpt>
      <trkpt lat="44.7396" lon="2.55011">
        <ele>453.8</ele>
        <time>2021-11-11T11:20:29Z</time>
      </trkpt>
      <trkpt lat="44.73959" lon="2.55003">
        <ele>475.2</ele>
        <time>2021-11-11T11:20:34Z</time>
      </trkpt>
      <trkpt lat="44.73957" lon="2.54994">
        <ele>450.2</ele>
        <time>2021-11-11T11:20:40Z</time>
      </trkpt>
      <trkpt lat="44.73954" lon="2.54988">
        <ele>475.4</ele>
        <time>2021-11-11T11:20:45Z</time>
      </trkpt>
      <trkpt lat="44.73953" lon="2.54983">
        <ele>477.6</ele>
        <time>2021-11-11T11:20:50Z</time>
      </trkpt>
      <trkpt lat="44.73952" lon="2.54979">
        <ele>476.7</ele>
        <time>2021-11-11T11:20:55Z</time>
      </trkpt>
      <trkpt lat="44.73951" lon="2.54974">
        <ele>472.4</ele>
        <time>2021-11-11T11:21:01Z</time>
      </trkpt>
      <trkpt lat="44.73949" lon="2.54964">
        <ele>482.9</ele>
        <time>2021-11-11T11:21:06Z</time>
      </trkpt>
      <trkpt lat="44.73948" lon="2.54957">
        <ele>471.1</ele>
        <time>2021-11-11T11:21:11Z</time>
      </trkpt>
      <trkpt lat="44.73948" lon="2.54949">
        <ele>474.2</ele>
        <time>2021-11-11T11:21:17Z</time>
      </trkpt>
      <trkpt lat="44.73948" lon="2.5494">
        <ele>467.3</ele>
        <time>2021-11-11T11:21:22Z</time>
      </trkpt>
      <trkpt lat="44.73948" lon="2.54934">
        <ele>470.5</ele>
        <time>2021-11-11T11:21:28Z</time>
      </trkpt>
      <trkpt lat="44.73949" lon="2.54927">
        <ele>473.1</ele>
        <time>2021-11-11T11:21:33Z</time>
      </trkpt>
      <trkpt lat="44.73949" lon="2.54921">
        <ele>480.1</ele>
        <time>2021-11-11T11:21:39Z</time>
      </trkpt>
      <trkpt lat="44.73948" lon="2.54913">
        <ele>463.2</ele>
        <time>2021-11-11T11:21:44Z</time>
      </trkpt>
      <trkpt lat="44.73951" lon="2.54904">
        <ele>490</ele>
        <time>2021-11-11T11:21:49Z</time>
      </trkpt>
      <trkpt lat="44.73954" lon="2.54896">
        <ele>476.7</ele>
        <time>2021-11-11T11:21:54Z</time>
      </trkpt>
      <trkpt lat="44.73956" lon="2.54889">
        <ele>479.2</ele>
        <time>2021-11-11T11:21:59Z</time>
      </trkpt>
      <trkpt lat="44.73958" lon="2.54882">
        <ele>481.4</ele>
        <time>2021-11-11T11:22:05Z</time>
      </trkpt>
      <trkpt lat="44.73959" lon="2.54876">
        <ele>473</ele>
        <time>2021-11-11T11:22:11Z</time>
      </trkpt>
      <trkpt lat="44.7396" lon="2.54872">
        <ele>483.9</ele>
        <time>2021-11-11T11:22:16Z</time>
      </trkpt>
      <trkpt lat="44.73962" lon="2.54867">
        <ele>488.4</ele>
        <time>2021-11-11T11:22:22Z</time>
      </trkpt>
      <trkpt lat="44.73964" lon="2.54859">
        <ele>517.6</ele>
        <time>2021-11-11T11:22:27Z</time>
      </trkpt>
      <trkpt lat="44.73967" lon="2.54849">
        <ele>487.9</ele>
        <time>2021-11-11T11:22:33Z</time>
      </trkpt>
      <trkpt lat="44.7397" lon="2.54846">
        <ele>473.5</ele>
        <time>2021-11-11T11:22:39Z</time>
      </trkpt>
      <trkpt lat="44.73973" lon="2.54836">
        <ele>506.7</ele>
        <time>2021-11-11T11:22:44Z</time>
      </trkpt>
      <trkpt lat="44.73975" lon="2.54829">
        <ele>513.8</ele>
        <time>2021-11-11T11:22:49Z</time>
      </trkpt>
      <trkpt lat="44.73976" lon="2.54824">
        <ele>509.2</ele>
        <time>2021-11-11T11:22:55Z</time>
      </trkpt>
      <trkpt lat="44.73978" lon="2.54816">
        <ele>486.6</ele>
        <time>2021-11-11T11:23:00Z</time>
      </trkpt>
      <trkpt lat="44.73979" lon="2.54812">
        <ele>483.4</ele>
        <time>2021-11-11T11:23:05Z</time>
      </trkpt>
      <trkpt lat="44.7398" lon="2.54807">
        <ele>479.4</ele>
        <time>2021-11-11T11:23:10Z</time>
      </trkpt>
      <trkpt lat="44.73981" lon="2.54804">
        <ele>511</ele>
        <time>2021-11-11T11:23:16Z</time>
      </trkpt>
      <trkpt lat="44.73983" lon="2.54802">
        <ele>503.6</ele>
        <time>2021-11-11T11:23:22Z</time>
      </trkpt>
      <trkpt lat="44.73985" lon="2.54799">
        <ele>501.7</ele>
        <time>2021-11-11T11:23:27Z</time>
      </trkpt>
      <trkpt lat="44.73991" lon="2.54794">
        <ele>485.8</ele>
        <time>2021-11-11T11:23:32Z</time>
      </trkpt>
      <trkpt lat="44.73993" lon="2.54783">
        <ele>507.6</ele>
        <time>2021-11-11T11:23:37Z</time>
      </trkpt>
      <trkpt lat="44.73993" lon="2.54768">
        <ele>477.7</ele>
        <time>2021-11-11T11:23:43Z</time>
      </trkpt>
      <trkpt lat="44.73997" lon="2.54762">
        <ele>500.8</ele>
        <time>2021-11-11T11:23:50Z</time>
      </trkpt>
      <trkpt lat="44.74004" lon="2.54763">
        <ele>500.1</ele>
        <time>2021-11-11T11:23:55Z</time>
      </trkpt>
      <trkpt lat="44.7401" lon="2.54769">
        <ele>505.1</ele>
        <time>2021-11-11T11:24:00Z</time>
      </trkpt>
      <trkpt lat="44.74013" lon="2.54776">
        <ele>505.7</ele>
        <time>2021-11-11T11:24:06Z</time>
      </trkpt>
      <trkpt lat="44.74017" lon="2.54785">
        <ele>480.6</ele>
        <time>2021-11-11T11:24:11Z</time>
      </trkpt>
      <trkpt lat="44.74019" lon="2.54793">
        <ele>491.4</ele>
        <time>2021-11-11T11:24:16Z</time>
      </trkpt>
      <trkpt lat="44.74021" lon="2.54803">
        <ele>496.1</ele>
        <time>2021-11-11T11:24:22Z</time>
      </trkpt>
      <trkpt lat="44.74023" lon="2.5481">
        <ele>483.5</ele>
        <time>2021-11-11T11:24:27Z</time>
      </trkpt>
      <trkpt lat="44.74025" lon="2.54818">
        <ele>501</ele>
        <time>2021-11-11T11:24:33Z</time>
      </trkpt>
      <trkpt lat="44.74025" lon="2.54826">
        <ele>495.5</ele>
        <time>2021-11-11T11:24:38Z</time>
      </trkpt>
      <trkpt lat="44.74024" lon="2.54833">
        <ele>492.8</ele>
        <time>2021-11-11T11:24:43Z</time>
      </trkpt>
      <trkpt lat="44.74025" lon="2.5484">
        <ele>506.4</ele>
        <time>2021-11-11T11:24:49Z</time>
      </trkpt>
      <trkpt lat="44.74026" lon="2.54843">
        <ele>505.2</ele>
        <time>2021-11-11T11:24:54Z</time>
      </trkpt>
      <trkpt lat="44.74025" lon="2.54845">
        <ele>486.6</ele>
        <time>2021-11-11T11:25:00Z</time>
      </trkpt>
      <trkpt lat="44.74023" lon="2.54844">
        <ele>497.9</ele>
        <time>2021-11-11T11:25:05Z</time>
      </trkpt>
      <trkpt lat="44.7402" lon="2.54843">
        <ele>498.6</ele>
        <time>2021-11-11T11:25:10Z</time>
      </trkpt>
      <trkpt lat="44.74019" lon="2.5484">
        <ele>486.2</ele>
        <time>2021-11-11T11:25:16Z</time>
      </trkpt>
      <trkpt lat="44.74019" lon="2.54836">
        <ele>512.7</ele>
        <time>2021-11-11T11:25:21Z</time>
      </trkpt>
      <trkpt lat="44.74018" lon="2.54833">
        <ele>500.8</ele>
        <time>2021-11-11T11:25:27Z</time>
      </trkpt>
      <trkpt lat="44.74017" lon="2.54828">
        <ele>492.2</ele>
        <time>2021-11-11T11:25:32Z</time>
      </trkpt>
      <trkpt lat="44.74017" lon="2.54822">
        <ele>497.7</ele>
        <time>2021-11-11T11:25:37Z</time>
      </trkpt>
      <trkpt lat="44.74016" lon="2.54816">
        <ele>505.9</ele>
        <time>2021-11-11T11:25:43Z</time>
      </trkpt>
      <trkpt lat="44.74014" lon="2.54806">
        <ele>494.4</ele>
        <time>2021-11-11T11:25:48Z</time>
      </trkpt>
      <trkpt lat="44.74021" lon="2.5479">
        <ele>488.8</ele>
        <time>2021-11-11T11:25:53Z</time>
      </trkpt>
      <trkpt lat="44.74023" lon="2.54783">
        <ele>508</ele>
        <time>2021-11-11T11:25:58Z</time>
      </trkpt>
      <trkpt lat="44.74023" lon="2.54774">
        <ele>517.1</ele>
        <time>2021-11-11T11:26:03Z</time>
      </trkpt>
      <trkpt lat="44.74021" lon="2.54768">
        <ele>492.3</ele>
        <time>2021-11-11T11:26:09Z</time>
      </trkpt>
      <trkpt lat="44.74019" lon="2.54765">
        <ele>503.6</ele>
        <time>2021-11-11T11:26:14Z</time>
      </trkpt>
      <trkpt lat="44.74018" lon="2.5476">
        <ele>497.6</ele>
        <time>2021-11-11T11:26:19Z</time>
      </trkpt>
      <trkpt lat="44.74017" lon="2.54754">
        <ele>521.8</ele>
        <time>2021-11-11T11:26:25Z</time>
      </trkpt>
      <trkpt lat="44.74016" lon="2.54746">
        <ele>500.6</ele>
        <time>2021-11-11T11:26:30Z</time>
      </trkpt>
      <trkpt lat="44.74015" lon="2.54737">
        <ele>500.2</ele>
        <time>2021-11-11T11:26:36Z</time>
      </trkpt>
      <trkpt lat="44.74013" lon="2.54731">
        <ele>497.5</ele>
        <time>2021-11-11T11:26:41Z</time>
      </trkpt>
      <trkpt lat="44.74014" lon="2.54732">
        <ele>502.4</ele>
        <time>2021-11-11T11:26:46Z</time>
      </trkpt>
      <trkpt lat="44.74013" lon="2.54727">
        <ele>514</ele>
        <time>2021-11-11T11:26:52Z</time>
      </trkpt>
      <trkpt lat="44.74013" lon="2.54724">
        <ele>513</ele>
        <time>2021-11-11T11:26:57Z</time>
      </trkpt>
      <trkpt lat="44.74014" lon="2.54723">
        <ele>512.3</ele>
        <time>2021-11-11T11:27:02Z</time>
      </trkpt>
      <trkpt lat="44.74014" lon="2.54723">
        <ele>491.3</ele>
        <time>2021-11-11T11:27:07Z</time>
      </trkpt>
      <trkpt lat="44.74015" lon="2.54721">
        <ele>508</ele>
        <time>2021-11-11T11:27:12Z</time>
      </trkpt>
      <trkpt lat="44.74016" lon="2.54721">
        <ele>492.1</ele>
        <time>2021-11-11T11:27:17Z</time>
      </trkpt>
      <trkpt lat="44.74017" lon="2.5472">
        <ele>509.8</ele>
        <time>2021-11-11T11:27:23Z</time>
      </trkpt>
      <trkpt lat="44.74018" lon="2.5472">
        <ele>499.3</ele>
        <time>2021-11-11T11:27:29Z</time>
      </trkpt>
      <trkpt lat="44.74019" lon="2.5472">
        <ele>485.6</ele>
        <time>2021-11-11T11:27:34Z</time>
      </trkpt>
      <trkpt lat="44.74019" lon="2.54719">
        <ele>493.1</ele>
        <time>2021-11-11T11:27:40Z</time>
      </trkpt>
      <trkpt lat="44.74016" lon="2.54709">
        <ele>515.6</ele>
        <time>2021-11-11T11:27:46Z</time>
      </trkpt>
      <trkpt lat="44.74015" lon="2.54699">
        <ele>513.9</ele>
        <time>2021-11-11T11:27:51Z</time>
      </trkpt>
      <trkpt lat="44.74015" lon="2.54689">
        <ele>502.8</ele>
        <time>2021-11-11T11:27:56Z</time>
      </trkpt>
      <trkpt lat="44.74015" lon="2.54682">
        <ele>508.3</ele>
        <time>2021-11-11T11:28:01Z</time>
      </trkpt>
      <trkpt lat="44.74013" lon="2.54673">
        <ele>504.9</ele>
        <time>2021-11-11T11:28:06Z</time>
      </trkpt>
      <trkpt lat="44.74012" lon="2.54665">
        <ele>502.6</ele>
        <time>2021-11-11T11:28:12Z</time>
      </trkpt>
      <trkpt lat="44.74012" lon="2.54656">
        <ele>517</ele>
        <time>2021-11-11T11:28:17Z</time>
      </trkpt>
      <trkpt lat="44.7401" lon="2.54649">
        <ele>534.2</ele>
        <time>2021-11-11T11:28:23Z</time>
      </trkpt>
      <trkpt lat="44.7401" lon="2.54643">
        <ele>506.7</ele>
        <time>2021-11-11T11:28:28Z</time>
      </trkpt>
      <trkpt lat="44.74009" lon="2.54637">
        <ele>507</ele>
        <time>2021-11-11T11:28:33Z</time>
      </trkpt>
      <trkpt lat="44.74008" lon="2.5463">
        <ele>500.8</ele>
        <time>2021-11-11T11:28:39Z</time>
      </trkpt>
      <trkpt lat="44.74009" lon="2.54626">
        <ele>504.7</ele>
        <time>2021-11-11T11:28:44Z</time>
      </trkpt>
      <trkpt lat="44.74007" lon="2.54622">
        <ele>521.6</ele>
        <time>2021-11-11T11:28:49Z</time>
      </trkpt>
      <trkpt lat="44.74008" lon="2.54616">
        <ele>519.3</ele>
        <time>2021-11-11T11:28:54Z</time>
      </trkpt>
      <trkpt lat="44.74006" lon="2.54612">
        <ele>521.9</ele>
        <time>2021-11-11T11:29:00Z</time>
      </trkpt>
      <trkpt lat="44.74005" lon="2.54607">
        <ele>521.5</ele>
        <time>2021-11-11T11:29:05Z</time>
      </trkpt>
      <trkpt lat="44.74005" lon="2.54605">
        <ele>515</ele>
        <time>2021-11-11T11:29:11Z</time>
      </trkpt>
      <trkpt lat="44.74008" lon="2.54596">
        <ele>525.1</ele>
        <time>2021-11-11T11:29:16Z</time>
      </trkpt>
      <trkpt lat="44.74008" lon="2.54581">
        <ele>519.5</ele>
        <time>2021-11-11T11:29:21Z</time>
      </trkpt>
      <trkpt lat="44.74002" lon="2.54573">
        <ele>513.5</ele>
        <time>2021-11-11T11:29:26Z</time>
      </trkpt>
      <trkpt lat="44.73996" lon="2.54569">
        <ele>516.8</ele>
        <time>2021-11-11T11:29:32Z</time>
      </trkpt>
      <trkpt lat="44.73991" lon="2.54568">
        <ele>527.9</ele>
        <time>2021-11-11T11:29:38Z</time>
      </trkpt>
      <trkpt lat="44.73989" lon="2.54564">
        <ele>540</ele>
        <time>2021-11-11T11:29:43Z</time>
      </trkpt>
      <trkpt lat="44.73985" lon="2.54559">
        <ele>523</ele>
        <time>2021-11-11T11:29:48Z</time>
      </trkpt>
      <trkpt lat="44.73982" lon="2.5455">
        <ele>528.3</ele>
        <time>2021-11-11T11:29:53Z</time>
      </trkpt>
      <trkpt lat="44.73979" lon="2.54546">
        <ele>530.7</ele>
        <time>2021-11-11T11:29:58Z</time>
      </trkpt>
      <trkpt lat="44.73974" lon="2.5454">
        <ele>525.1</ele>
        <time>2021-11-11T11:30:03Z</time>
      </trkpt>
      <trkpt lat="44.73974" lon="2.5454">
        <ele>509.2</ele>
        <time>2021-11-11T11:30:08Z</time>
      </trkpt>
      <trkpt lat="44.73975" lon="2.5454">
        <ele>523.3</ele>
        <time>2021-11-11T11:30:14Z</time>
      </trkpt>
      <trkpt lat="44.73975" lon="2.5454">
        <ele>534.1</ele>
        <time>2021-11-11T11:30:19Z</time>
      </trkpt>
      <trkpt lat="44.73975" lon="2.5454">
        <ele>541.4</ele>
        <time>2021-11-11T11:30:24Z</time>
      </trkpt>
      <trkpt lat="44.73971" lon="2.54534">
        <ele>520.4</ele>
        <time>2021-11-11T11:30:30Z</time>
      </trkpt>
      <trkpt lat="44.73967" lon="2.54527">
        <ele>521.1</ele>
        <time>2021-11-11T11:30:35Z</time>
      </trkpt>
      <trkpt lat="44.73963" lon="2.54521">
        <ele>541.3</ele>
        <time>2021-11-11T11:30:40Z</time>
      </trkpt>
      <trkpt lat="44.73961" lon="2.54517">
        <ele>544.2</ele>
        <time>2021-11-11T11:30:45Z</time>
      </trkpt>
      <trkpt lat="44.73961" lon="2.54514">
        <ele>548.4</ele>
        <time>2021-11-11T11:30:51Z</time>
      </trkpt>
      <trkpt lat="44.73959" lon="2.54513">
        <ele>512.4</ele>
        <time>2021-11-11T11:30:57Z</time>
      </trkpt>
      <trkpt lat="44.73954" lon="2.54509">
        <ele>534.1</ele>
        <time>2021-11-11T11:31:02Z</time>
      </trkpt>
      <trkpt lat="44.73951" lon="2.54506">
        <ele>530.2</ele>
        <time>2021-11-11T11:31:07Z</time>
      </trkpt>
      <trkpt lat="44.73947" lon="2.54503">
        <ele>533.2</ele>
        <time>2021-11-11T11:31:12Z</time>
      </trkpt>
      <trkpt lat="44.73943" lon="2.54501">
        <ele>536.9</ele>
        <time>2021-11-11T11:31:17Z</time>
      </trkpt>
      <trkpt lat="44.7394" lon="2.54499">
        <ele>549.4</ele>
        <time>2021-11-11T11:31:23Z</time>
      </trkpt>
      <trkpt lat="44.73934" lon="2.54495">
        <ele>534.8</ele>
        <time>2021-11-11T11:31:28Z</time>
      </trkpt>
      <trkpt lat="44.7393" lon="2.54491">
        <ele>532</ele>
        <time>2021-11-11T11:31:34Z</time>
      </trkpt>
      <trkpt lat="44.73925" lon="2.54486">
        <ele>553.1</ele>
        <time>2021-11-11T11:31:39Z</time>
      </trkpt>
      <trkpt lat="44.73922" lon="2.54484">
        <ele>527.7</ele>
        <time>2021-11-11T11:31:44Z</time>
      </trkpt>
      <trkpt lat="44.73917" lon="2.54481">
        <ele>548</ele>
        <time>2021-11-11T11:31:50Z</time>
      </trkpt>
      <trkpt lat="44.73913" lon="2.54477">
        <ele>537.8</ele>
        <time>2021-11-11T11:31:55Z</time>
      </trkpt>
      <trkpt lat="44.7391" lon="2.54476">
        <ele>527</ele>
        <time>2021-11-11T11:32:00Z</time>
      </trkpt>
      <trkpt lat="44.73906" lon="2.54474">
        <ele>539.4</ele>
        <time>2021-11-11T11:32:06Z</time>
      </trkpt>
      <trkpt lat="44.73901" lon="2.54469">
        <ele>551.3</ele>
        <time>2021-11-11T11:32:11Z</time>
      </trkpt>
      <trkpt lat="44.73896" lon="2.54467">
        <ele>524.1</ele>
        <time>2021-11-11T11:32:17Z</time>
      </trkpt>
      <trkpt lat="44.73891" lon="2.54465">
        <ele>517.5</ele>
        <time>2021-11-11T11:32:22Z</time>
      </trkpt>
      <trkpt lat="44.73888" lon="2.54461">
        <ele>559.1</ele>
        <time>2021-11-11T11:32:27Z</time>
      </trkpt>
      <trkpt lat="44.73884" lon="2.54462">
        <ele>536.5</ele>
        <time>2021-11-11T11:32:34Z</time>
      </trkpt>
      <trkpt lat="44.73879" lon="2.54461">
        <ele>554.8</ele>
        <time>2021-11-11T11:32:39Z</time>
      </trkpt>
      <trkpt lat="44.73874" lon="2.54461">
        <ele>534</ele>
        <time>2021-11-11T11:32:45Z</time>
      </trkpt>
      <trkpt lat="44.7387" lon="2.54461">
        <ele>554.7</ele>
        <time>2021-11-11T11:32:50Z</time>
      </trkpt>
      <trkpt lat="44.73867" lon="2.5446">
        <ele>525.9</ele>
        <time>2021-11-11T11:32:55Z</time>
      </trkpt>
      <trkpt lat="44.73862" lon="2.54459">
        <ele>551.4</ele>
        <time>2021-11-11T11:33:01Z</time>
      </trkpt>
      <trkpt lat="44.73853" lon="2.5446">
        <ele>550.1</ele>
        <time>2021-11-11T11:33:06Z</time>
      </trkpt>
      <trkpt lat="44.73845" lon="2.54463">
        <ele>567.3</ele>
        <time>2021-11-11T11:33:12Z</time>
      </trkpt>
      <trkpt lat="44.73839" lon="2.54462">
        <ele>545</ele>
        <time>2021-11-11T11:33:17Z</time>
      </trkpt>
      <trkpt lat="44.73838" lon="2.54461">
        <ele>528.5</ele>
        <time>2021-11-11T11:33:22Z</time>
      </trkpt>
      <trkpt lat="44.73835" lon="2.54464">
        <ele>529.9</ele>
        <time>2021-11-11T11:33:28Z</time>
      </trkpt>
      <trkpt lat="44.73832" lon="2.54464">
        <ele>546.7</ele>
        <time>2021-11-11T11:33:33Z</time>
      </trkpt>
      <trkpt lat="44.73831" lon="2.54461">
        <ele>562.6</ele>
        <time>2021-11-11T11:33:38Z</time>
      </trkpt>
      <trkpt lat="44.73812" lon="2.54458">
        <ele>550.5</ele>
        <time>2021-11-11T11:33:44Z</time>
      </trkpt>
      <trkpt lat="44.73806" lon="2.54461">
        <ele>534.6</ele>
        <time>2021-11-11T11:33:49Z</time>
      </trkpt>
      <trkpt lat="44.73803" lon="2.54462">
        <ele>534</ele>
        <time>2021-11-11T11:33:54Z</time>
      </trkpt>
      <trkpt lat="44.73798" lon="2.54465">
        <ele>530.7</ele>
        <time>2021-11-11T11:34:00Z</time>
      </trkpt>
      <trkpt lat="44.73793" lon="2.54467">
        <ele>540.5</ele>
        <time>2021-11-11T11:34:05Z</time>
      </trkpt>
      <trkpt lat="44.73787" lon="2.54471">
        <ele>530.8</ele>
        <time>2021-11-11T11:34:11Z</time>
      </trkpt>
      <trkpt lat="44.73782" lon="2.54476">
        <ele>532.1</ele>
        <time>2021-11-11T11:34:16Z</time>
      </trkpt>
      <trkpt lat="44.73776" lon="2.54477">
        <ele>553.2</ele>
        <time>2021-11-11T11:34:22Z</time>
      </trkpt>
      <trkpt lat="44.7377" lon="2.54478">
        <ele>552.5</ele>
        <time>2021-11-11T11:34:27Z</time>
      </trkpt>
      <trkpt lat="44.73762" lon="2.54481">
        <ele>553.5</ele>
        <time>2021-11-11T11:34:33Z</time>
      </trkpt>
      <trkpt lat="44.73754" lon="2.54483">
        <ele>548</ele>
        <time>2021-11-11T11:34:39Z</time>
      </trkpt>
      <trkpt lat="44.73748" lon="2.54481">
        <ele>555.2</ele>
        <time>2021-11-11T11:34:44Z</time>
      </trkpt>
      <trkpt lat="44.73741" lon="2.54478">
        <ele>546.5</ele>
        <time>2021-11-11T11:34:49Z</time>
      </trkpt>
      <trkpt lat="44.73734" lon="2.54478">
        <ele>544.4</ele>
        <time>2021-11-11T11:34:55Z</time>
      </trkpt>
      <trkpt lat="44.73729" lon="2.54479">
        <ele>566.9</ele>
        <time>2021-11-11T11:35:00Z</time>
      </trkpt>
      <trkpt lat="44.73729" lon="2.54479">
        <ele>550.7</ele>
        <time>2021-11-11T11:35:06Z</time>
      </trkpt>
      <trkpt lat="44.73726" lon="2.54481">
        <ele>547.6</ele>
        <time>2021-11-11T11:35:11Z</time>
      </trkpt>
      <trkpt lat="44.73721" lon="2.54482">
        <ele>556.9</ele>
        <time>2021-11-11T11:35:17Z</time>
      </trkpt>
      <trkpt lat="44.73713" lon="2.54482">
        <ele>545.7</ele>
        <time>2021-11-11T11:35:22Z</time>
      </trkpt>
      <trkpt lat="44.73707" lon="2.54481">
        <ele>540.4</ele>
        <time>2021-11-11T11:35:27Z</time>
      </trkpt>
      <trkpt lat="44.73702" lon="2.54481">
        <ele>545</ele>
        <time>2021-11-11T11:35:32Z</time>
      </trkpt>
      <trkpt lat="44.73696" lon="2.54483">
        <ele>547</ele>
        <time>2021-11-11T11:35:37Z</time>
      </trkpt>
      <trkpt lat="44.7369" lon="2.54485">
        <ele>553.1</ele>
        <time>2021-11-11T11:35:42Z</time>
      </trkpt>
      <trkpt lat="44.73683" lon="2.54485">
        <ele>559</ele>
        <time>2021-11-11T11:35:48Z</time>
      </trkpt>
      <trkpt lat="44.73677" lon="2.54483">
        <ele>555.7</ele>
        <time>2021-11-11T11:35:53Z</time>
      </trkpt>
      <trkpt lat="44.7367" lon="2.5448">
        <ele>541.3</ele>
        <time>2021-11-11T11:35:59Z</time>
      </trkpt>
      <trkpt lat="44.73669" lon="2.54477">
        <ele>542.8</ele>
        <time>2021-11-11T11:36:04Z</time>
      </trkpt>
      <trkpt lat="44.73668" lon="2.54475">
        <ele>555</ele>
        <time>2021-11-11T11:36:10Z</time>
      </trkpt>
      <trkpt lat="44.73668" lon="2.54469">
        <ele>561.2</ele>
        <time>2021-11-11T11:36:15Z</time>
      </trkpt>
      <trkpt lat="44.7367" lon="2.54462">
        <ele>538.6</ele>
        <time>2021-11-11T11:36:20Z</time>
      </trkpt>
      <trkpt lat="44.73673" lon="2.54463">
        <ele>556.6</ele>
        <time>2021-11-11T11:36:26Z</time>
      </trkpt>
      <trkpt lat="44.73681" lon="2.54463">
        <ele>567.5</ele>
        <time>2021-11-11T11:36:31Z</time>
      </trkpt>
      <trkpt lat="44.73686" lon="2.54456">
        <ele>571.5</ele>
        <time>2021-11-11T11:36:36Z</time>
      </trkpt>
      <trkpt lat="44.73689" lon="2.5445">
        <ele>563.5</ele>
        <time>2021-11-11T11:36:42Z</time>
      </trkpt>
      <trkpt lat="44.73692" lon="2.54447">
        <ele>564.5</ele>
        <time>2021-11-11T11:36:47Z</time>
      </trkpt>
      <trkpt lat="44.73695" lon="2.54442">
        <ele>561.2</ele>
        <time>2021-11-11T11:36:52Z</time>
      </trkpt>
      <trkpt lat="44.73698" lon="2.54437">
        <ele>568.1</ele>
        <time>2021-11-11T11:36:57Z</time>
      </trkpt>
      <trkpt lat="44.73702" lon="2.54436">
        <ele>560.7</ele>
        <time>2021-11-11T11:37:03Z</time>
      </trkpt>
      <trkpt lat="44.73705" lon="2.54436">
        <ele>547</ele>
        <time>2021-11-11T11:37:08Z</time>
      </trkpt>
      <trkpt lat="44.7371" lon="2.54436">
        <ele>555.2</ele>
        <time>2021-11-11T11:37:13Z</time>
      </trkpt>
      <trkpt lat="44.73714" lon="2.54436">
        <ele>553.7</ele>
        <time>2021-11-11T11:37:19Z</time>
      </trkpt>
      <trkpt lat="44.7372" lon="2.54436">
        <ele>544.2</ele>
        <time>2021-11-11T11:37:24Z</time>
      </trkpt>
      <trkpt lat="44.73726" lon="2.54435">
        <ele>552.5</ele>
        <time>2021-11-11T11:37:29Z</time>
      </trkpt>
      <trkpt lat="44.73732" lon="2.54431">
        <ele>562.5</ele>
        <time>2021-11-11T11:37:34Z</time>
      </trkpt>
      <trkpt lat="44.73736" lon="2.54427">
        <ele>551.7</ele>
        <time>2021-11-11T11:37:39Z</time>
      </trkpt>
      <trkpt lat="44.73741" lon="2.54421">
        <ele>561.5</ele>
        <time>2021-11-11T11:37:45Z</time>
      </trkpt>
      <trkpt lat="44.73744" lon="2.54418">
        <ele>546.9</ele>
        <time>2021-11-11T11:37:50Z</time>
      </trkpt>
      <trkpt lat="44.73747" lon="2.54415">
        <ele>567.6</ele>
        <time>2021-11-11T11:37:56Z</time>
      </trkpt>
      <trkpt lat="44.73753" lon="2.54411">
        <ele>576.1</ele>
        <time>2021-11-11T11:38:01Z</time>
      </trkpt>
      <trkpt lat="44.73756" lon="2.54408">
        <ele>560.6</ele>
        <time>2021-11-11T11:38:06Z</time>
      </trkpt>
      <trkpt lat="44.73758" lon="2.54403">
        <ele>564.9</ele>
        <time>2021-11-11T11:38:11Z</time>
      </trkpt>
      <trkpt lat="44.73761" lon="2.54403">
        <ele>573.6</ele>
        <time>2021-11-11T11:38:16Z</time>
      </trkpt>
      <trkpt lat="44.73763" lon="2.54398">
        <ele>566</ele>
        <time>2021-11-11T11:38:22Z</time>
      </trkpt>
      <trkpt lat="44.73767" lon="2.544">
        <ele>548.3</ele>
        <time>2021-11-11T11:38:27Z</time>
      </trkpt>
      <trkpt lat="44.73774" lon="2.544">
        <ele>563.4</ele>
        <time>2021-11-11T11:38:33Z</time>
      </trkpt>
      <trkpt lat="44.73782" lon="2.54395">
        <ele>569.1</ele>
        <time>2021-11-11T11:38:38Z</time>
      </trkpt>
      <trkpt lat="44.73787" lon="2.54389">
        <ele>579.5</ele>
        <time>2021-11-11T11:38:43Z</time>
      </trkpt>
      <trkpt lat="44.73789" lon="2.54389">
        <ele>576</ele>
        <time>2021-11-11T11:38:48Z</time>
      </trkpt>
      <trkpt lat="44.73789" lon="2.54388">
        <ele>564.3</ele>
        <time>2021-11-11T11:38:54Z</time>
      </trkpt>
      <trkpt lat="44.73789" lon="2.54389">
        <ele>570.7</ele>
        <time>2021-11-11T11:38:59Z</time>
      </trkpt>
      <trkpt lat="44.7379" lon="2.54389">
        <ele>567.5</ele>
        <time>2021-11-11T11:39:04Z</time>
      </trkpt>
      <trkpt lat="44.7379" lon="2.54389">
        <ele>546.9</ele>
        <time>2021-11-11T11:39:10Z</time>
      </trkpt>
      <trkpt lat="44.73792" lon="2.54386">
        <ele>575.3</ele>
        <time>2021-11-11T11:39:15Z</time>
      </trkpt>
      <trkpt lat="44.73792" lon="2.54386">
        <ele>573.2</ele>
        <time>2021-11-11T11:39:21Z</time>
      </trkpt>
      <trkpt lat="44.73792" lon="2.54387">
        <ele>572.2</ele>
        <time>2021-11-11T11:39:26Z</time>
      </trkpt>
      <trkpt lat="44.73792" lon="2.54387">
        <ele>588.2</ele>
        <time>2021-11-11T11:39:32Z</time>
      </trkpt>
      <trkpt lat="44.73792" lon="2.54387">
        <ele>553.4</ele>
        <time>2021-11-11T11:39:37Z</time>
      </trkpt>
      <trkpt lat="44.73792" lon="2.54387">
        <ele>561</ele>
        <time>2021-11-11T11:39:43Z</time>
      </trkpt>
      <trkpt lat="44.73792" lon="2.54387">
        <ele>555.5</ele>
        <time>2021-11-11T11:39:48Z</time>
      </trkpt>
      <trkpt lat="44.73794" lon="2.54389">
        <ele>538.6</ele>
        <time>2021-11-11T11:39:53Z</time>
      </trkpt>
      <trkpt lat="44.73794" lon="2.54389">
        <ele>547.9</ele>
        <time>2021-11-11T11:39:58Z</time>
      </trkpt>
      <trkpt lat="44.73794" lon="2.54389">
        <ele>560.2</ele>
        <time>2021-11-11T11:40:04Z</time>
      </trkpt>
      <trkpt lat="44.73794" lon="2.54389">
        <ele>562.6</ele>
        <time>2021-11-11T11:40:09Z</time>
      </trkpt>
      <trkpt lat="44.73794" lon="2.54389">
        <ele>567.6</ele>
        <time>2021-11-11T11:40:15Z</time>
      </trkpt>
      <trkpt lat="44.73796" lon="2.54391">
        <ele>563.2</ele>
        <time>2021-11-11T11:40:21Z</time>
      </trkpt>
      <trkpt lat="44.73797" lon="2.54391">
        <ele>540.7</ele>
        <time>2021-11-11T11:40:26Z</time>
      </trkpt>
      <trkpt lat="44.73796" lon="2.54391">
        <ele>565.6</ele>
        <time>2021-11-11T11:40:31Z</time>
      </trkpt>
      <trkpt lat="44.73797" lon="2.54391">
        <ele>572.1</ele>
        <time>2021-11-11T11:40:36Z</time>
      </trkpt>
      <trkpt lat="44.73797" lon="2.5439">
        <ele>560.3</ele>
        <time>2021-11-11T11:40:42Z</time>
      </trkpt>
      <trkpt lat="44.73798" lon="2.54389">
        <ele>540.6</ele>
        <time>2021-11-11T11:40:48Z</time>
      </trkpt>
      <trkpt lat="44.73799" lon="2.54387">
        <ele>560.7</ele>
        <time>2021-11-11T11:40:53Z</time>
      </trkpt>
      <trkpt lat="44.73802" lon="2.54385">
        <ele>572.4</ele>
        <time>2021-11-11T11:40:58Z</time>
      </trkpt>
      <trkpt lat="44.73807" lon="2.54382">
        <ele>571.7</ele>
        <time>2021-11-11T11:41:03Z</time>
      </trkpt>
      <trkpt lat="44.73809" lon="2.5438">
        <ele>582.7</ele>
        <time>2021-11-11T11:41:09Z</time>
      </trkpt>
      <trkpt lat="44.73815" lon="2.54379">
        <ele>564.2</ele>
        <time>2021-11-11T11:41:14Z</time>
      </trkpt>
      <trkpt lat="44.73818" lon="2.54378">
        <ele>563.6</ele>
        <time>2021-11-11T11:41:20Z</time>
      </trkpt>
      <trkpt lat="44.73824" lon="2.54376">
        <ele>580.7</ele>
        <time>2021-11-11T11:41:25Z</time>
      </trkpt>
      <trkpt lat="44.73829" lon="2.54375">
        <ele>563.8</ele>
        <time>2021-11-11T11:41:30Z</time>
      </trkpt>
      <trkpt lat="44.73834" lon="2.54373">
        <ele>576.7</ele>
        <time>2021-11-11T11:41:36Z</time>
      </trkpt>
      <trkpt lat="44.73838" lon="2.54371">
        <ele>547.1</ele>
        <time>2021-11-11T11:41:42Z</time>
      </trkpt>
      <trkpt lat="44.73841" lon="2.54369">
        <ele>589.6</ele>
        <time>2021-11-11T11:41:47Z</time>
      </trkpt>
      <trkpt lat="44.73845" lon="2.54365">
        <ele>575.1</ele>
        <time>2021-11-11T11:41:53Z</time>
      </trkpt>
      <trkpt lat="44.73849" lon="2.54361">
        <ele>577.7</ele>
        <time>2021-11-11T11:41:58Z</time>
      </trkpt>
      <trkpt lat="44.73851" lon="2.54355">
        <ele>578</ele>
        <time>2021-11-11T11:42:04Z</time>
      </trkpt>
      <trkpt lat="44.73854" lon="2.5435">
        <ele>574.3</ele>
        <time>2021-11-11T11:42:09Z</time>
      </trkpt>
      <trkpt lat="44.73857" lon="2.54347">
        <ele>564.5</ele>
        <time>2021-11-11T11:42:15Z</time>
      </trkpt>
      <trkpt lat="44.73857" lon="2.54343">
        <ele>573.8</ele>
        <time>2021-11-11T11:42:20Z</time>
      </trkpt>
      <trkpt lat="44.73858" lon="2.54341">
        <ele>569.4</ele>
        <time>2021-11-11T11:42:26Z</time>
      </trkpt>
      <trkpt lat="44.73859" lon="2.54338">
        <ele>569.2</ele>
        <time>2021-11-11T11:42:31Z</time>
      </trkpt>
      <trkpt lat="44.7386" lon="2.54335">
        <ele>564.3</ele>
        <time>2021-11-11T11:42:37Z</time>
      </trkpt>
      <trkpt lat="44.73862" lon="2.54333">
        <ele>589.1</ele>
        <time>2021-11-11T11:42:42Z</time>
      </trkpt>
      <trkpt lat="44.73868" lon="2.54329">
        <ele>569.4</ele>
        <time>2021-11-11T11:42:47Z</time>
      </trkpt>
      <trkpt lat="44.73871" lon="2.54316">
        <ele>581.6</ele>
        <time>2021-11-11T11:42:53Z</time>
      </trkpt>
      <trkpt lat="44.73872" lon="2.54314">
        <ele>584.7</ele>
        <time>2021-11-11T11:42:58Z</time>
      </trkpt>
      <trkpt lat="44.73874" lon="2.54309">
        <ele>590.7</ele>
        <time>2021-11-11T11:43:05Z</time>
      </trkpt>
      <trkpt lat="44.73874" lon="2.54305">
        <ele>580</ele>
        <time>2021-11-11T11:43:10Z</time>
      </trkpt>
      <trkpt lat="44.73875" lon="2.54301">
        <ele>592.9</ele>
        <time>2021-11-11T11:43:15Z</time>
      </trkpt>
      <trkpt lat="44.73876" lon="2.543">
        <ele>572.1</ele>
        <time>2021-11-11T11:43:21Z</time>
      </trkpt>
      <trkpt lat="44.73877" lon="2.54299">
        <ele>581.2</ele>
        <time>2021-11-11T11:43:26Z</time>
      </trkpt>
      <trkpt lat="44.7388" lon="2.54292">
        <ele>583</ele>
        <time>2021-11-11T11:43:32Z</time>
      </trkpt>
      <trkpt lat="44.73881" lon="2.5428">
        <ele>596.6</ele>
        <time>2021-11-11T11:43:37Z</time>
      </trkpt>
      <trkpt lat="44.73876" lon="2.5427">
        <ele>607</ele>
        <time>2021-11-11T11:43:42Z</time>
      </trkpt>
      <trkpt lat="44.73875" lon="2.54263">
        <ele>576.9</ele>
        <time>2021-11-11T11:43:48Z</time>
      </trkpt>
      <trkpt lat="44.73874" lon="2.5426">
        <ele>587.7</ele>
        <time>2021-11-11T11:43:53Z</time>
      </trkpt>
      <trkpt lat="44.73875" lon="2.54255">
        <ele>583.6</ele>
        <time>2021-11-11T11:43:58Z</time>
      </trkpt>
      <trkpt lat="44.73877" lon="2.54253">
        <ele>597.6</ele>
        <time>2021-11-11T11:44:03Z</time>
      </trkpt>
      <trkpt lat="44.7388" lon="2.54247">
        <ele>580.3</ele>
        <time>2021-11-11T11:44:09Z</time>
      </trkpt>
      <trkpt lat="44.7388" lon="2.54241">
        <ele>579.4</ele>
        <time>2021-11-11T11:44:14Z</time>
      </trkpt>
      <trkpt lat="44.73877" lon="2.54232">
        <ele>599.6</ele>
        <time>2021-11-11T11:44:20Z</time>
      </trkpt>
      <trkpt lat="44.73876" lon="2.54229">
        <ele>594.3</ele>
        <time>2021-11-11T11:44:26Z</time>
      </trkpt>
      <trkpt lat="44.73876" lon="2.54221">
        <ele>576.1</ele>
        <time>2021-11-11T11:44:31Z</time>
      </trkpt>
      <trkpt lat="44.73877" lon="2.54217">
        <ele>580.3</ele>
        <time>2021-11-11T11:44:37Z</time>
      </trkpt>
      <trkpt lat="44.73879" lon="2.54217">
        <ele>579.2</ele>
        <time>2021-11-11T11:44:42Z</time>
      </trkpt>
      <trkpt lat="44.73882" lon="2.54211">
        <ele>602</ele>
        <time>2021-11-11T11:44:47Z</time>
      </trkpt>
      <trkpt lat="44.73881" lon="2.54203">
        <ele>595.9</ele>
        <time>2021-11-11T11:44:52Z</time>
      </trkpt>
      <trkpt lat="44.73879" lon="2.54197">
        <ele>596.3</ele>
        <time>2021-11-11T11:44:58Z</time>
      </trkpt>
      <trkpt lat="44.73878" lon="2.54194">
        <ele>595.6</ele>
        <time>2021-11-11T11:45:03Z</time>
      </trkpt>
      <trkpt lat="44.73878" lon="2.54192">
        <ele>586.1</ele>
        <time>2021-11-11T11:45:08Z</time>
      </trkpt>
      <trkpt lat="44.7388" lon="2.54188">
        <ele>616.6</ele>
        <time>2021-11-11T11:45:14Z</time>
      </trkpt>
      <trkpt lat="44.73882" lon="2.5418">
        <ele>601.7</ele>
        <time>2021-11-11T11:45:19Z</time>
      </trkpt>
      <trkpt lat="44.7388" lon="2.54171">
        <ele>615.4</ele>
        <time>2021-11-11T11:45:24Z</time>
      </trkpt>
      <trkpt lat="44.73877" lon="2.54166">
        <ele>604.9</ele>
        <time>2021-11-11T11:45:29Z</time>
      </trkpt>
      <trkpt lat="44.73877" lon="2.54165">
        <ele>604.3</ele>
        <time>2021-11-11T11:45:34Z</time>
      </trkpt>
      <trkpt lat="44.73878" lon="2.54162">
        <ele>588</ele>
        <time>2021-11-11T11:45:40Z</time>
      </trkpt>
      <trkpt lat="44.73878" lon="2.54156">
        <ele>601.4</ele>
        <time>2021-11-11T11:45:45Z</time>
      </trkpt>
      <trkpt lat="44.73876" lon="2.54148">
        <ele>600.9</ele>
        <time>2021-11-11T11:45:50Z</time>
      </trkpt>
      <trkpt lat="44.73874" lon="2.54145">
        <ele>587.7</ele>
        <time>2021-11-11T11:45:56Z</time>
      </trkpt>
      <trkpt lat="44.73874" lon="2.54142">
        <ele>621.9</ele>
        <time>2021-11-11T11:46:01Z</time>
      </trkpt>
      <trkpt lat="44.73873" lon="2.5414">
        <ele>599.2</ele>
        <time>2021-11-11T11:46:07Z</time>
      </trkpt>
      <trkpt lat="44.73875" lon="2.54133">
        <ele>591.2</ele>
        <time>2021-11-11T11:46:12Z</time>
      </trkpt>
      <trkpt lat="44.73873" lon="2.54121">
        <ele>603.7</ele>
        <time>2021-11-11T11:46:18Z</time>
      </trkpt>
      <trkpt lat="44.7387" lon="2.54117">
        <ele>610.3</ele>
        <time>2021-11-11T11:46:23Z</time>
      </trkpt>
      <trkpt lat="44.73869" lon="2.54116">
        <ele>617.9</ele>
        <time>2021-11-11T11:46:28Z</time>
      </trkpt>
      <trkpt lat="44.73869" lon="2.54113">
        <ele>585</ele>
        <time>2021-11-11T11:46:33Z</time>
      </trkpt>
      <trkpt lat="44.7387" lon="2.54108">
        <ele>595.9</ele>
        <time>2021-11-11T11:46:39Z</time>
      </trkpt>
      <trkpt lat="44.73871" lon="2.54099">
        <ele>600.4</ele>
        <time>2021-11-11T11:46:44Z</time>
      </trkpt>
      <trkpt lat="44.73867" lon="2.54094">
        <ele>596.1</ele>
        <time>2021-11-11T11:46:49Z</time>
      </trkpt>
      <trkpt lat="44.73863" lon="2.54092">
        <ele>604.3</ele>
        <time>2021-11-11T11:46:55Z</time>
      </trkpt>
      <trkpt lat="44.73862" lon="2.54089">
        <ele>621.6</ele>
        <time>2021-11-11T11:47:00Z</time>
      </trkpt>
      <trkpt lat="44.73861" lon="2.54088">
        <ele>622.4</ele>
        <time>2021-11-11T11:47:05Z</time>
      </trkpt>
      <trkpt lat="44.73862" lon="2.54081">
        <ele>605.9</ele>
        <time>2021-11-11T11:47:10Z</time>
      </trkpt>
      <trkpt lat="44.73858" lon="2.54069">
        <ele>615.1</ele>
        <time>2021-11-11T11:47:16Z</time>
      </trkpt>
      <trkpt lat="44.73853" lon="2.54065">
        <ele>615.7</ele>
        <time>2021-11-11T11:47:21Z</time>
      </trkpt>
      <trkpt lat="44.7385" lon="2.54064">
        <ele>615.1</ele>
        <time>2021-11-11T11:47:27Z</time>
      </trkpt>
      <trkpt lat="44.73849" lon="2.54061">
        <ele>594.5</ele>
        <time>2021-11-11T11:47:32Z</time>
      </trkpt>
      <trkpt lat="44.73849" lon="2.54058">
        <ele>611.9</ele>
        <time>2021-11-11T11:47:37Z</time>
      </trkpt>
      <trkpt lat="44.73848" lon="2.54054">
        <ele>628.7</ele>
        <time>2021-11-11T11:47:43Z</time>
      </trkpt>
      <trkpt lat="44.73845" lon="2.54048">
        <ele>613.1</ele>
        <time>2021-11-11T11:47:49Z</time>
      </trkpt>
      <trkpt lat="44.73841" lon="2.54048">
        <ele>621</ele>
        <time>2021-11-11T11:47:54Z</time>
      </trkpt>
      <trkpt lat="44.7384" lon="2.54051">
        <ele>621.6</ele>
        <time>2021-11-11T11:47:59Z</time>
      </trkpt>
      <trkpt lat="44.73838" lon="2.54051">
        <ele>617.2</ele>
        <time>2021-11-11T11:48:04Z</time>
      </trkpt>
      <trkpt lat="44.73837" lon="2.5405">
        <ele>618.1</ele>
        <time>2021-11-11T11:48:09Z</time>
      </trkpt>
      <trkpt lat="44.73834" lon="2.54049">
        <ele>623.5</ele>
        <time>2021-11-11T11:48:15Z</time>
      </trkpt>
      <trkpt lat="44.73828" lon="2.54054">
        <ele>619.6</ele>
        <time>2021-11-11T11:48:21Z</time>
      </trkpt>
      <trkpt lat="44.73825" lon="2.54063">
        <ele>618.5</ele>
        <time>2021-11-11T11:48:26Z</time>
      </trkpt>
      <trkpt lat="44.73824" lon="2.54068">
        <ele>637.3</ele>
        <time>2021-11-11T11:48:32Z</time>
      </trkpt>
      <trkpt lat="44.73821" lon="2.54071">
        <ele>620.1</ele>
        <time>2021-11-11T11:48:37Z</time>
      </trkpt>
      <trkpt lat="44.73818" lon="2.54071">
        <ele>618.4</ele>
        <time>2021-11-11T11:48:43Z</time>
      </trkpt>
      <trkpt lat="44.73811" lon="2.54066">
        <ele>624.1</ele>
        <time>2021-11-11T11:48:48Z</time>
      </trkpt>
      <trkpt lat="44.73805" lon="2.54075">
        <ele>628.1</ele>
        <time>2021-11-11T11:48:53Z</time>
      </trkpt>
      <trkpt lat="44.73801" lon="2.54087">
        <ele>633.9</ele>
        <time>2021-11-11T11:48:59Z</time>
      </trkpt>
      <trkpt lat="44.738" lon="2.54095">
        <ele>635.6</ele>
        <time>2021-11-11T11:49:04Z</time>
      </trkpt>
      <trkpt lat="44.73796" lon="2.54101">
        <ele>644.2</ele>
        <time>2021-11-11T11:49:09Z</time>
      </trkpt>
      <trkpt lat="44.73795" lon="2.54107">
        <ele>636.9</ele>
        <time>2021-11-11T11:49:14Z</time>
      </trkpt>
      <trkpt lat="44.73793" lon="2.54109">
        <ele>626</ele>
        <time>2021-11-11T11:49:20Z</time>
      </trkpt>
      <trkpt lat="44.73792" lon="2.54107">
        <ele>635.8</ele>
        <time>2021-11-11T11:49:26Z</time>
      </trkpt>
      <trkpt lat="44.73774" lon="2.54118">
        <ele>630.5</ele>
        <time>2021-11-11T11:49:31Z</time>
      </trkpt>
      <trkpt lat="44.7377" lon="2.54126">
        <ele>618.2</ele>
        <time>2021-11-11T11:49:36Z</time>
      </trkpt>
      <trkpt lat="44.73767" lon="2.54129">
        <ele>639.1</ele>
        <time>2021-11-11T11:49:41Z</time>
      </trkpt>
      <trkpt lat="44.73767" lon="2.54129">
        <ele>599.1</ele>
        <time>2021-11-11T11:49:46Z</time>
      </trkpt>
      <trkpt lat="44.73762" lon="2.54137">
        <ele>615.6</ele>
        <time>2021-11-11T11:49:52Z</time>
      </trkpt>
      <trkpt lat="44.73758" lon="2.54141">
        <ele>621</ele>
        <time>2021-11-11T11:49:57Z</time>
      </trkpt>
      <trkpt lat="44.73755" lon="2.54145">
        <ele>641.9</ele>
        <time>2021-11-11T11:50:02Z</time>
      </trkpt>
      <trkpt lat="44.73753" lon="2.54145">
        <ele>646.3</ele>
        <time>2021-11-11T11:50:07Z</time>
      </trkpt>
      <trkpt lat="44.73751" lon="2.54141">
        <ele>653.7</ele>
        <time>2021-11-11T11:50:13Z</time>
      </trkpt>
      <trkpt lat="44.73746" lon="2.5414">
        <ele>635.3</ele>
        <time>2021-11-11T11:50:18Z</time>
      </trkpt>
      <trkpt lat="44.73739" lon="2.54146">
        <ele>630.3</ele>
        <time>2021-11-11T11:50:23Z</time>
      </trkpt>
      <trkpt lat="44.73733" lon="2.54151">
        <ele>639.1</ele>
        <time>2021-11-11T11:50:28Z</time>
      </trkpt>
      <trkpt lat="44.7373" lon="2.54155">
        <ele>625.1</ele>
        <time>2021-11-11T11:50:33Z</time>
      </trkpt>
      <trkpt lat="44.73724" lon="2.54155">
        <ele>630</ele>
        <time>2021-11-11T11:50:38Z</time>
      </trkpt>
      <trkpt lat="44.7372" lon="2.54155">
        <ele>638</ele>
        <time>2021-11-11T11:50:44Z</time>
      </trkpt>
      <trkpt lat="44.73719" lon="2.54152">
        <ele>650.2</ele>
        <time>2021-11-11T11:50:49Z</time>
      </trkpt>
      <trkpt lat="44.73717" lon="2.54148">
        <ele>634.3</ele>
        <time>2021-11-11T11:50:54Z</time>
      </trkpt>
      <trkpt lat="44.7371" lon="2.54141">
        <ele>637.8</ele>
        <time>2021-11-11T11:51:00Z</time>
      </trkpt>
      <trkpt lat="44.73702" lon="2.54136">
        <ele>631.2</ele>
        <time>2021-11-11T11:51:05Z</time>
      </trkpt>
      <trkpt lat="44.73699" lon="2.54133">
        <ele>633.6</ele>
        <time>2021-11-11T11:51:10Z</time>
      </trkpt>
      <trkpt lat="44.73698" lon="2.54132">
        <ele>637.3</ele>
        <time>2021-11-11T11:51:15Z</time>
      </trkpt>
      <trkpt lat="44.73697" lon="2.54129">
        <ele>642.9</ele>
        <time>2021-11-11T11:51:20Z</time>
      </trkpt>
      <trkpt lat="44.73698" lon="2.54127">
        <ele>653.2</ele>
        <time>2021-11-11T11:51:25Z</time>
      </trkpt>
      <trkpt lat="44.737" lon="2.54123">
        <ele>618.4</ele>
        <time>2021-11-11T11:51:31Z</time>
      </trkpt>
      <trkpt lat="44.73702" lon="2.54117">
        <ele>638.2</ele>
        <time>2021-11-11T11:51:36Z</time>
      </trkpt>
      <trkpt lat="44.73701" lon="2.5411">
        <ele>638.7</ele>
        <time>2021-11-11T11:51:41Z</time>
      </trkpt>
      <trkpt lat="44.737" lon="2.54106">
        <ele>635.6</ele>
        <time>2021-11-11T11:51:47Z</time>
      </trkpt>
      <trkpt lat="44.73701" lon="2.54103">
        <ele>644.5</ele>
        <time>2021-11-11T11:51:53Z</time>
      </trkpt>
      <trkpt lat="44.73706" lon="2.54102">
        <ele>624.9</ele>
        <time>2021-11-11T11:51:58Z</time>
      </trkpt>
      <trkpt lat="44.73712" lon="2.54094">
        <ele>655.7</ele>
        <time>2021-11-11T11:52:04Z</time>
      </trkpt>
      <trkpt lat="44.73713" lon="2.5408">
        <ele>648.7</ele>
        <time>2021-11-11T11:52:10Z</time>
      </trkpt>
      <trkpt lat="44.73713" lon="2.54071">
        <ele>651.7</ele>
        <time>2021-11-11T11:52:15Z</time>
      </trkpt>
      <trkpt lat="44.73715" lon="2.54067">
        <ele>641.9</ele>
        <time>2021-11-11T11:52:21Z</time>
      </trkpt>
      <trkpt lat="44.73716" lon="2.54066">
        <ele>655.5</ele>
        <time>2021-11-11T11:52:26Z</time>
      </trkpt>
      <trkpt lat="44.73719" lon="2.54066">
        <ele>660.3</ele>
        <time>2021-11-11T11:52:31Z</time>
      </trkpt>
      <trkpt lat="44.73721" lon="2.54062">
        <ele>653.3</ele>
        <time>2021-11-11T11:52:36Z</time>
      </trkpt>
      <trkpt lat="44.73726" lon="2.54055">
        <ele>652.3</ele>
        <time>2021-11-11T11:52:41Z</time>
      </trkpt>
      <trkpt lat="44.73726" lon="2.54045">
        <ele>666.3</ele>
        <time>2021-11-11T11:52:47Z</time>
      </trkpt>
      <trkpt lat="44.73725" lon="2.54038">
        <ele>656</ele>
        <time>2021-11-11T11:52:52Z</time>
      </trkpt>
      <trkpt lat="44.73724" lon="2.54035">
        <ele>662.1</ele>
        <time>2021-11-11T11:52:58Z</time>
      </trkpt>
      <trkpt lat="44.73728" lon="2.54034">
        <ele>652.8</ele>
        <time>2021-11-11T11:53:03Z</time>
      </trkpt>
      <trkpt lat="44.73731" lon="2.54029">
        <ele>675.2</ele>
        <time>2021-11-11T11:53:08Z</time>
      </trkpt>
      <trkpt lat="44.73734" lon="2.54022">
        <ele>650.1</ele>
        <time>2021-11-11T11:53:14Z</time>
      </trkpt>
      <trkpt lat="44.73733" lon="2.54013">
        <ele>641.3</ele>
        <time>2021-11-11T11:53:19Z</time>
      </trkpt>
      <trkpt lat="44.73731" lon="2.54007">
        <ele>662.8</ele>
        <time>2021-11-11T11:53:25Z</time>
      </trkpt>
      <trkpt lat="44.73733" lon="2.54006">
        <ele>647.8</ele>
        <time>2021-11-11T11:53:31Z</time>
      </trkpt>
      <trkpt lat="44.73733" lon="2.54005">
        <ele>656.5</ele>
        <time>2021-11-11T11:53:36Z</time>
      </trkpt>
      <trkpt lat="44.73733" lon="2.54002">
        <ele>652.1</ele>
        <time>2021-11-11T11:53:41Z</time>
      </trkpt>
      <trkpt lat="44.7373" lon="2.54002">
        <ele>659.1</ele>
        <time>2021-11-11T11:53:47Z</time>
      </trkpt>
      <trkpt lat="44.73727" lon="2.54005">
        <ele>671.2</ele>
        <time>2021-11-11T11:53:52Z</time>
      </trkpt>
      <trkpt lat="44.73726" lon="2.54006">
        <ele>659.8</ele>
        <time>2021-11-11T11:53:58Z</time>
      </trkpt>
      <trkpt lat="44.73723" lon="2.54008">
        <ele>684.5</ele>
        <time>2021-11-11T11:54:03Z</time>
      </trkpt>
      <trkpt lat="44.7372" lon="2.54014">
        <ele>681.2</ele>
        <time>2021-11-11T11:54:09Z</time>
      </trkpt>
      <trkpt lat="44.73716" lon="2.54017">
        <ele>662.8</ele>
        <time>2021-11-11T11:54:14Z</time>
      </trkpt>
      <trkpt lat="44.73712" lon="2.54017">
        <ele>664.2</ele>
        <time>2021-11-11T11:54:20Z</time>
      </trkpt>
      <trkpt lat="44.73708" lon="2.54014">
        <ele>675.6</ele>
        <time>2021-11-11T11:54:25Z</time>
      </trkpt>
      <trkpt lat="44.73705" lon="2.54012">
        <ele>661.5</ele>
        <time>2021-11-11T11:54:31Z</time>
      </trkpt>
      <trkpt lat="44.73699" lon="2.54012">
        <ele>663</ele>
        <time>2021-11-11T11:54:36Z</time>
      </trkpt>
      <trkpt lat="44.73696" lon="2.54014">
        <ele>677.5</ele>
        <time>2021-11-11T11:54:41Z</time>
      </trkpt>
      <trkpt lat="44.7369" lon="2.54015">
        <ele>663.3</ele>
        <time>2021-11-11T11:54:47Z</time>
      </trkpt>
      <trkpt lat="44.73688" lon="2.54013">
        <ele>683</ele>
        <time>2021-11-11T11:54:53Z</time>
      </trkpt>
      <trkpt lat="44.73686" lon="2.54014">
        <ele>681.1</ele>
        <time>2021-11-11T11:54:58Z</time>
      </trkpt>
      <trkpt lat="44.73684" lon="2.54013">
        <ele>666.1</ele>
        <time>2021-11-11T11:55:03Z</time>
      </trkpt>
      <trkpt lat="44.73681" lon="2.54012">
        <ele>672</ele>
        <time>2021-11-11T11:55:08Z</time>
      </trkpt>
      <trkpt lat="44.73679" lon="2.54009">
        <ele>667.3</ele>
        <time>2021-11-11T11:55:13Z</time>
      </trkpt>
      <trkpt lat="44.73677" lon="2.54005">
        <ele>694</ele>
        <time>2021-11-11T11:55:19Z</time>
      </trkpt>
      <trkpt lat="44.73673" lon="2.54001">
        <ele>674.7</ele>
        <time>2021-11-11T11:55:25Z</time>
      </trkpt>
      <trkpt lat="44.73669" lon="2.53994">
        <ele>687</ele>
        <time>2021-11-11T11:55:30Z</time>
      </trkpt>
      <trkpt lat="44.73664" lon="2.53988">
        <ele>654.1</ele>
        <time>2021-11-11T11:55:36Z</time>
      </trkpt>
      <trkpt lat="44.73663" lon="2.53982">
        <ele>664.8</ele>
        <time>2021-11-11T11:55:42Z</time>
      </trkpt>
      <trkpt lat="44.73663" lon="2.53979">
        <ele>663.1</ele>
        <time>2021-11-11T11:55:47Z</time>
      </trkpt>
      <trkpt lat="44.73664" lon="2.53976">
        <ele>676.3</ele>
        <time>2021-11-11T11:55:52Z</time>
      </trkpt>
      <trkpt lat="44.73669" lon="2.53973">
        <ele>653.5</ele>
        <time>2021-11-11T11:55:57Z</time>
      </trkpt>
      <trkpt lat="44.73676" lon="2.53962">
        <ele>662.5</ele>
        <time>2021-11-11T11:56:03Z</time>
      </trkpt>
      <trkpt lat="44.73677" lon="2.5395">
        <ele>678.9</ele>
        <time>2021-11-11T11:56:08Z</time>
      </trkpt>
      <trkpt lat="44.73676" lon="2.53942">
        <ele>660.9</ele>
        <time>2021-11-11T11:56:13Z</time>
      </trkpt>
      <trkpt lat="44.73676" lon="2.53936">
        <ele>683.4</ele>
        <time>2021-11-11T11:56:18Z</time>
      </trkpt>
      <trkpt lat="44.73675" lon="2.53933">
        <ele>650.2</ele>
        <time>2021-11-11T11:56:24Z</time>
      </trkpt>
      <trkpt lat="44.73679" lon="2.53933">
        <ele>664.6</ele>
        <time>2021-11-11T11:56:29Z</time>
      </trkpt>
      <trkpt lat="44.73685" lon="2.53926">
        <ele>669.2</ele>
        <time>2021-11-11T11:56:35Z</time>
      </trkpt>
      <trkpt lat="44.73687" lon="2.53911">
        <ele>669.9</ele>
        <time>2021-11-11T11:56:40Z</time>
      </trkpt>
      <trkpt lat="44.73684" lon="2.539">
        <ele>675.4</ele>
        <time>2021-11-11T11:56:46Z</time>
      </trkpt>
      <trkpt lat="44.73684" lon="2.53896">
        <ele>668.9</ele>
        <time>2021-11-11T11:56:51Z</time>
      </trkpt>
      <trkpt lat="44.73687" lon="2.53895">
        <ele>677.5</ele>
        <time>2021-11-11T11:56:56Z</time>
      </trkpt>
      <trkpt lat="44.73689" lon="2.53893">
        <ele>683.1</ele>
        <time>2021-11-11T11:57:02Z</time>
      </trkpt>
      <trkpt lat="44.7369" lon="2.53892">
        <ele>675.2</ele>
        <time>2021-11-11T11:57:07Z</time>
      </trkpt>
      <trkpt lat="44.73696" lon="2.53884">
        <ele>669.4</ele>
        <time>2021-11-11T11:57:14Z</time>
      </trkpt>
      <trkpt lat="44.73695" lon="2.53876">
        <ele>691.2</ele>
        <time>2021-11-11T11:57:19Z</time>
      </trkpt>
      <trkpt lat="44.73695" lon="2.53873">
        <ele>666.3</ele>
        <time>2021-11-11T11:57:25Z</time>
      </trkpt>
      <trkpt lat="44.73695" lon="2.5387">
        <ele>699.1</ele>
        <time>2021-11-11T11:57:31Z</time>
      </trkpt>
      <trkpt lat="44.73695" lon="2.53863">
        <ele>702</ele>
        <time>2021-11-11T11:57:36Z</time>
      </trkpt>
      <trkpt lat="44.73697" lon="2.53855">
        <ele>684.6</ele>
        <time>2021-11-11T11:57:42Z</time>
      </trkpt>
      <trkpt lat="44.73698" lon="2.53848">
        <ele>688.9</ele>
        <time>2021-11-11T11:57:47Z</time>
      </trkpt>
      <trkpt lat="44.737" lon="2.53842">
        <ele>694.7</ele>
        <time>2021-11-11T11:57:52Z</time>
      </trkpt>
      <trkpt lat="44.73703" lon="2.53843">
        <ele>705.2</ele>
        <time>2021-11-11T11:57:58Z</time>
      </trkpt>
      <trkpt lat="44.73703" lon="2.53846">
        <ele>692.2</ele>
        <time>2021-11-11T11:58:03Z</time>
      </trkpt>
      <trkpt lat="44.73717" lon="2.53826">
        <ele>687.8</ele>
        <time>2021-11-11T11:58:08Z</time>
      </trkpt>
      <trkpt lat="44.73719" lon="2.53817">
        <ele>685.3</ele>
        <time>2021-11-11T11:58:14Z</time>
      </trkpt>
      <trkpt lat="44.73717" lon="2.53811">
        <ele>673.9</ele>
        <time>2021-11-11T11:58:19Z</time>
      </trkpt>
      <trkpt lat="44.73715" lon="2.53808">
        <ele>695.8</ele>
        <time>2021-11-11T11:58:24Z</time>
      </trkpt>
      <trkpt lat="44.73714" lon="2.53807">
        <ele>704.7</ele>
        <time>2021-11-11T11:58:29Z</time>
      </trkpt>
      <trkpt lat="44.73715" lon="2.53802">
        <ele>689.7</ele>
        <time>2021-11-11T11:58:34Z</time>
      </trkpt>
      <trkpt lat="44.73718" lon="2.53795">
        <ele>700.4</ele>
        <time>2021-11-11T11:58:39Z</time>
      </trkpt>
      <trkpt lat="44.73718" lon="2.53781">
        <ele>704</ele>
        <time>2021-11-11T11:58:45Z</time>
      </trkpt>
      <trkpt lat="44.73715" lon="2.5377">
        <ele>693.6</ele>
        <time>2021-11-11T11:58:50Z</time>
      </trkpt>
      <trkpt lat="44.73713" lon="2.53763">
        <ele>693.3</ele>
        <time>2021-11-11T11:58:56Z</time>
      </trkpt>
      <trkpt lat="44.73711" lon="2.53759">
        <ele>704.4</ele>
        <time>2021-11-11T11:59:01Z</time>
      </trkpt>
      <trkpt lat="44.73708" lon="2.53754">
        <ele>691.4</ele>
        <time>2021-11-11T11:59:06Z</time>
      </trkpt>
      <trkpt lat="44.7371" lon="2.53753">
        <ele>674.6</ele>
        <time>2021-11-11T11:59:11Z</time>
      </trkpt>
      <trkpt lat="44.73711" lon="2.53748">
        <ele>708.6</ele>
        <time>2021-11-11T11:59:16Z</time>
      </trkpt>
      <trkpt lat="44.73714" lon="2.53737">
        <ele>683.2</ele>
        <time>2021-11-11T11:59:22Z</time>
      </trkpt>
      <trkpt lat="44.73711" lon="2.53726">
        <ele>692.8</ele>
        <time>2021-11-11T11:59:27Z</time>
      </trkpt>
      <trkpt lat="44.73708" lon="2.53718">
        <ele>706.2</ele>
        <time>2021-11-11T11:59:33Z</time>
      </trkpt>
      <trkpt lat="44.73706" lon="2.53713">
        <ele>701.7</ele>
        <time>2021-11-11T11:59:38Z</time>
      </trkpt>
      <trkpt lat="44.73705" lon="2.5371">
        <ele>732</ele>
        <time>2021-11-11T11:59:43Z</time>
      </trkpt>
      <trkpt lat="44.73706" lon="2.53706">
        <ele>699.2</ele>
        <time>2021-11-11T11:59:48Z</time>
      </trkpt>
      <trkpt lat="44.7371" lon="2.53699">
        <ele>717.3</ele>
        <time>2021-11-11T11:59:54Z</time>
      </trkpt>
      <trkpt lat="44.73712" lon="2.53688">
        <ele>705.4</ele>
        <time>2021-11-11T11:59:59Z</time>
      </trkpt>
      <trkpt lat="44.73712" lon="2.53676">
        <ele>704</ele>
        <time>2021-11-11T12:00:05Z</time>
      </trkpt>
      <trkpt lat="44.73712" lon="2.53668">
        <ele>711.2</ele>
        <time>2021-11-11T12:00:10Z</time>
      </trkpt>
      <trkpt lat="44.73714" lon="2.53666">
        <ele>722.7</ele>
        <time>2021-11-11T12:00:15Z</time>
      </trkpt>
      <trkpt lat="44.73715" lon="2.53663">
        <ele>724.4</ele>
        <time>2021-11-11T12:00:21Z</time>
      </trkpt>
      <trkpt lat="44.73715" lon="2.5366">
        <ele>713.8</ele>
        <time>2021-11-11T12:00:26Z</time>
      </trkpt>
      <trkpt lat="44.73717" lon="2.53658">
        <ele>716.5</ele>
        <time>2021-11-11T12:00:31Z</time>
      </trkpt>
      <trkpt lat="44.73721" lon="2.53653">
        <ele>705.8</ele>
        <time>2021-11-11T12:00:37Z</time>
      </trkpt>
      <trkpt lat="44.73721" lon="2.53643">
        <ele>700.9</ele>
        <time>2021-11-11T12:00:42Z</time>
      </trkpt>
      <trkpt lat="44.73716" lon="2.53636">
        <ele>715.4</ele>
        <time>2021-11-11T12:00:47Z</time>
      </trkpt>
      <trkpt lat="44.73715" lon="2.53634">
        <ele>703.6</ele>
        <time>2021-11-11T12:00:53Z</time>
      </trkpt>
      <trkpt lat="44.73714" lon="2.53633">
        <ele>716.8</ele>
        <time>2021-11-11T12:00:58Z</time>
      </trkpt>
      <trkpt lat="44.73714" lon="2.5363">
        <ele>713.9</ele>
        <time>2021-11-11T12:01:03Z</time>
      </trkpt>
      <trkpt lat="44.73718" lon="2.53621">
        <ele>705.7</ele>
        <time>2021-11-11T12:01:10Z</time>
      </trkpt>
      <trkpt lat="44.73717" lon="2.53607">
        <ele>721.8</ele>
        <time>2021-11-11T12:01:15Z</time>
      </trkpt>
      <trkpt lat="44.73714" lon="2.53596">
        <ele>717.8</ele>
        <time>2021-11-11T12:01:21Z</time>
      </trkpt>
      <trkpt lat="44.73714" lon="2.5359">
        <ele>721.9</ele>
        <time>2021-11-11T12:01:26Z</time>
      </trkpt>
      <trkpt lat="44.73715" lon="2.53588">
        <ele>734.5</ele>
        <time>2021-11-11T12:01:32Z</time>
      </trkpt>
      <trkpt lat="44.73717" lon="2.53586">
        <ele>701.5</ele>
        <time>2021-11-11T12:01:37Z</time>
      </trkpt>
      <trkpt lat="44.7372" lon="2.53577">
        <ele>720</ele>
        <time>2021-11-11T12:01:42Z</time>
      </trkpt>
      <trkpt lat="44.7372" lon="2.53566">
        <ele>711.8</ele>
        <time>2021-11-11T12:01:48Z</time>
      </trkpt>
      <trkpt lat="44.73717" lon="2.5356">
        <ele>725.6</ele>
        <time>2021-11-11T12:01:53Z</time>
      </trkpt>
      <trkpt lat="44.73715" lon="2.53556">
        <ele>714.5</ele>
        <time>2021-11-11T12:01:59Z</time>
      </trkpt>
      <trkpt lat="44.73715" lon="2.53553">
        <ele>719.4</ele>
        <time>2021-11-11T12:02:04Z</time>
      </trkpt>
      <trkpt lat="44.73717" lon="2.5355">
        <ele>717.2</ele>
        <time>2021-11-11T12:02:10Z</time>
      </trkpt>
      <trkpt lat="44.73718" lon="2.53541">
        <ele>729.2</ele>
        <time>2021-11-11T12:02:15Z</time>
      </trkpt>
      <trkpt lat="44.73712" lon="2.53531">
        <ele>719.5</ele>
        <time>2021-11-11T12:02:21Z</time>
      </trkpt>
      <trkpt lat="44.73708" lon="2.53526">
        <ele>742.8</ele>
        <time>2021-11-11T12:02:26Z</time>
      </trkpt>
      <trkpt lat="44.7371" lon="2.53523">
        <ele>727.3</ele>
        <time>2021-11-11T12:02:31Z</time>
      </trkpt>
      <trkpt lat="44.73711" lon="2.53523">
        <ele>711.4</ele>
        <time>2021-11-11T12:02:36Z</time>
      </trkpt>
      <trkpt lat="44.73713" lon="2.53515">
        <ele>750.2</ele>
        <time>2021-11-11T12:02:41Z</time>
      </trkpt>
      <trkpt lat="44.73709" lon="2.53504">
        <ele>728.8</ele>
        <time>2021-11-11T12:02:47Z</time>
      </trkpt>
      <trkpt lat="44.73704" lon="2.53501">
        <ele>712.9</ele>
        <time>2021-11-11T12:02:52Z</time>
      </trkpt>
      <trkpt lat="44.737" lon="2.53498">
        <ele>733.4</ele>
        <time>2021-11-11T12:02:57Z</time>
      </trkpt>
      <trkpt lat="44.737" lon="2.53495">
        <ele>714.8</ele>
        <time>2021-11-11T12:03:03Z</time>
      </trkpt>
      <trkpt lat="44.73699" lon="2.53492">
        <ele>723.1</ele>
        <time>2021-11-11T12:03:08Z</time>
      </trkpt>
      <trkpt lat="44.73702" lon="2.53484">
        <ele>715.3</ele>
        <time>2021-11-11T12:03:13Z</time>
      </trkpt>
      <trkpt lat="44.73702" lon="2.53471">
        <ele>725.9</ele>
        <time>2021-11-11T12:03:18Z</time>
      </trkpt>
      <trkpt lat="44.73697" lon="2.5346">
        <ele>722.3</ele>
        <time>2021-11-11T12:03:24Z</time>
      </trkpt>
      <trkpt lat="44.73692" lon="2.53455">
        <ele>706.9</ele>
        <time>2021-11-11T12:03:29Z</time>
      </trkpt>
      <trkpt lat="44.73691" lon="2.53454">
        <ele>745.7</ele>
        <time>2021-11-11T12:03:34Z</time>
      </trkpt>
      <trkpt lat="44.73692" lon="2.5345">
        <ele>729.4</ele>
        <time>2021-11-11T12:03:41Z</time>
      </trkpt>
      <trkpt lat="44.73692" lon="2.53444">
        <ele>715.9</ele>
        <time>2021-11-11T12:03:46Z</time>
      </trkpt>
      <trkpt lat="44.7369" lon="2.53438">
        <ele>722.9</ele>
        <time>2021-11-11T12:03:51Z</time>
      </trkpt>
      <trkpt lat="44.73684" lon="2.53433">
        <ele>721.3</ele>
        <time>2021-11-11T12:03:57Z</time>
      </trkpt>
      <trkpt lat="44.7368" lon="2.53431">
        <ele>721.2</ele>
        <time>2021-11-11T12:04:03Z</time>
      </trkpt>
      <trkpt lat="44.73677" lon="2.53428">
        <ele>714.4</ele>
        <time>2021-11-11T12:04:08Z</time>
      </trkpt>
      <trkpt lat="44.73674" lon="2.53427">
        <ele>734.4</ele>
        <time>2021-11-11T12:04:14Z</time>
      </trkpt>
      <trkpt lat="44.73674" lon="2.53424">
        <ele>730.3</ele>
        <time>2021-11-11T12:04:19Z</time>
      </trkpt>
      <trkpt lat="44.73676" lon="2.53417">
        <ele>743</ele>
        <time>2021-11-11T12:04:24Z</time>
      </trkpt>
      <trkpt lat="44.73668" lon="2.53402">
        <ele>721</ele>
        <time>2021-11-11T12:04:30Z</time>
      </trkpt>
      <trkpt lat="44.73663" lon="2.53399">
        <ele>749.9</ele>
        <time>2021-11-11T12:04:35Z</time>
      </trkpt>
      <trkpt lat="44.73662" lon="2.53395">
        <ele>761.4</ele>
        <time>2021-11-11T12:04:41Z</time>
      </trkpt>
      <trkpt lat="44.73662" lon="2.53394">
        <ele>728.8</ele>
        <time>2021-11-11T12:04:47Z</time>
      </trkpt>
      <trkpt lat="44.73662" lon="2.53395">
        <ele>744.4</ele>
        <time>2021-11-11T12:04:52Z</time>
      </trkpt>
      <trkpt lat="44.73663" lon="2.53387">
        <ele>743.3</ele>
        <time>2021-11-11T12:04:58Z</time>
      </trkpt>
      <trkpt lat="44.73657" lon="2.53374">
        <ele>740.5</ele>
        <time>2021-11-11T12:05:03Z</time>
      </trkpt>
      <trkpt lat="44.73652" lon="2.53369">
        <ele>728.7</ele>
        <time>2021-11-11T12:05:08Z</time>
      </trkpt>
      <trkpt lat="44.73651" lon="2.53364">
        <ele>747.1</ele>
        <time>2021-11-11T12:05:14Z</time>
      </trkpt>
      <trkpt lat="44.73651" lon="2.53361">
        <ele>740.6</ele>
        <time>2021-11-11T12:05:19Z</time>
      </trkpt>
      <trkpt lat="44.73651" lon="2.53358">
        <ele>749.7</ele>
        <time>2021-11-11T12:05:24Z</time>
      </trkpt>
      <trkpt lat="44.73653" lon="2.53358">
        <ele>746.7</ele>
        <time>2021-11-11T12:05:29Z</time>
      </trkpt>
      <trkpt lat="44.73653" lon="2.53344">
        <ele>734.7</ele>
        <time>2021-11-11T12:05:35Z</time>
      </trkpt>
      <trkpt lat="44.7365" lon="2.53329">
        <ele>758.6</ele>
        <time>2021-11-11T12:05:40Z</time>
      </trkpt>
      <trkpt lat="44.73645" lon="2.53321">
        <ele>750.6</ele>
        <time>2021-11-11T12:05:46Z</time>
      </trkpt>
      <trkpt lat="44.73645" lon="2.53312">
        <ele>739.3</ele>
        <time>2021-11-11T12:05:51Z</time>
      </trkpt>
      <trkpt lat="44.73644" lon="2.53312">
        <ele>749.8</ele>
        <time>2021-11-11T12:05:56Z</time>
      </trkpt>
      <trkpt lat="44.73645" lon="2.53309">
        <ele>756.7</ele>
        <time>2021-11-11T12:06:02Z</time>
      </trkpt>
      <trkpt lat="44.73645" lon="2.53287">
        <ele>759.4</ele>
        <time>2021-11-11T12:06:07Z</time>
      </trkpt>
      <trkpt lat="44.73643" lon="2.53277">
        <ele>750</ele>
        <time>2021-11-11T12:06:12Z</time>
      </trkpt>
      <trkpt lat="44.73641" lon="2.53271">
        <ele>744.8</ele>
        <time>2021-11-11T12:06:17Z</time>
      </trkpt>
      <trkpt lat="44.73639" lon="2.53267">
        <ele>751.8</ele>
        <time>2021-11-11T12:06:23Z</time>
      </trkpt>
      <trkpt lat="44.73639" lon="2.53264">
        <ele>743</ele>
        <time>2021-11-11T12:06:28Z</time>
      </trkpt>
      <trkpt lat="44.7364" lon="2.5326">
        <ele>744.9</ele>
        <time>2021-11-11T12:06:34Z</time>
      </trkpt>
      <trkpt lat="44.73644" lon="2.53254">
        <ele>733.7</ele>
        <time>2021-11-11T12:06:39Z</time>
      </trkpt>
      <trkpt lat="44.73642" lon="2.53244">
        <ele>750.9</ele>
        <time>2021-11-11T12:06:44Z</time>
      </trkpt>
      <trkpt lat="44.73634" lon="2.53238">
        <ele>741.4</ele>
        <time>2021-11-11T12:06:49Z</time>
      </trkpt>
      <trkpt lat="44.73632" lon="2.53236">
        <ele>760.1</ele>
        <time>2021-11-11T12:06:54Z</time>
      </trkpt>
      <trkpt lat="44.73631" lon="2.53232">
        <ele>753.5</ele>
        <time>2021-11-11T12:07:00Z</time>
      </trkpt>
      <trkpt lat="44.73634" lon="2.53226">
        <ele>747</ele>
        <time>2021-11-11T12:07:06Z</time>
      </trkpt>
      <trkpt lat="44.73635" lon="2.53222">
        <ele>763.5</ele>
        <time>2021-11-11T12:07:11Z</time>
      </trkpt>
      <trkpt lat="44.73634" lon="2.5322">
        <ele>750.8</ele>
        <time>2021-11-11T12:07:17Z</time>
      </trkpt>
      <trkpt lat="44.73633" lon="2.53219">
        <ele>753.6</ele>
        <time>2021-11-11T12:07:23Z</time>
      </trkpt>
      <trkpt lat="44.73632" lon="2.53219">
        <ele>760.8</ele>
        <time>2021-11-11T12:07:28Z</time>
      </trkpt>
      <trkpt lat="44.73632" lon="2.53219">
        <ele>746</ele>
        <time>2021-11-11T12:07:34Z</time>
      </trkpt>
      <trkpt lat="44.73632" lon="2.53219">
        <ele>749.3</ele>
        <time>2021-11-11T12:07:40Z</time>
      </trkpt>
      <trkpt lat="44.73632" lon="2.53221">
        <ele>751.5</ele>
        <time>2021-11-11T12:07:45Z</time>
      </trkpt>
      <trkpt lat="44.73632" lon="2.5322">
        <ele>728</ele>
        <time>2021-11-11T12:07:50Z</time>
      </trkpt>
      <trkpt lat="44.73632" lon="2.5322">
        <ele>764.4</ele>
        <time>2021-11-11T12:07:55Z</time>
      </trkpt>
      <trkpt lat="44.73632" lon="2.53221">
        <ele>757.6</ele>
        <time>2021-11-11T12:08:02Z</time>
      </trkpt>
      <trkpt lat="44.73631" lon="2.53221">
        <ele>731.6</ele>
        <time>2021-11-11T12:08:07Z</time>
      </trkpt>
      <trkpt lat="44.73631" lon="2.53221">
        <ele>752.2</ele>
        <time>2021-11-11T12:08:12Z</time>
      </trkpt>
      <trkpt lat="44.73631" lon="2.53221">
        <ele>758.7</ele>
        <time>2021-11-11T12:08:18Z</time>
      </trkpt>
      <trkpt lat="44.73631" lon="2.53221">
        <ele>748.5</ele>
        <time>2021-11-11T12:08:24Z</time>
      </trkpt>
      <trkpt lat="44.73631" lon="2.53221">
        <ele>759.2</ele>
        <time>2021-11-11T12:08:30Z</time>
      </trkpt>
      <trkpt lat="44.73631" lon="2.53221">
        <ele>732.9</ele>
        <time>2021-11-11T12:08:37Z</time>
      </trkpt>
      <trkpt lat="44.73631" lon="2.53221">
        <ele>748.8</ele>
        <time>2021-11-11T12:08:42Z</time>
      </trkpt>
      <trkpt lat="44.73631" lon="2.53221">
        <ele>756.9</ele>
        <time>2021-11-11T12:08:47Z</time>
      </trkpt>
      <trkpt lat="44.73631" lon="2.53221">
        <ele>767.3</ele>
        <time>2021-11-11T12:08:53Z</time>
      </trkpt>
      <trkpt lat="44.73631" lon="2.53221">
        <ele>749</ele>
        <time>2021-11-11T12:08:58Z</time>
      </trkpt>
      <trkpt lat="44.73631" lon="2.53221">
        <ele>760.1</ele>
        <time>2021-11-11T12:09:03Z</time>
      </trkpt>
      <trkpt lat="44.73631" lon="2.53221">
        <ele>744.4</ele>
        <time>2021-11-11T12:09:09Z</time>
      </trkpt>
      <trkpt lat="44.73631" lon="2.53221">
        <ele>741.5</ele>
        <time>2021-11-11T12:09:15Z</time>
      </trkpt>
      <trkpt lat="44.73631" lon="2.53221">
        <ele>745.2</ele>
        <time>2021-11-11T12:09:20Z</time>
      </trkpt>
      <trkpt lat="44.73631" lon="2.53221">
        <ele>751</ele>
        <time>2021-11-11T12:09:25Z</time>
      </trkpt>
      <trkpt lat="44.73631" lon="2.53221">
        <ele>760.6</ele>
        <time>2021-11-11T12:09:31Z</time>
      </trkpt>
      <trkpt lat="44.73631" lon="2.53221">
        <ele>756.3</ele>
        <time>2021-11-11T12:09:36Z</time>
      </trkpt>
      <trkpt lat="44.73631" lon="2.53221">
        <ele>752.8</ele>
        <time>2021-11-11T12:09:42Z</time>
      </trkpt>
      <trkpt lat="44.73631" lon="2.53221">
        <ele>758.2</ele>
        <time>2021-11-11T12:09:47Z</time>
      </trkpt>
      <trkpt lat="44.73631" lon="2.53221">
        <ele>739.9</ele>
        <time>2021-11-11T12:09:53Z</time>
      </trkpt>
      <trkpt lat="44.73631" lon="2.53221">
        <ele>747.9</ele>
        <time>2021-11-11T12:09:59Z</time>
      </trkpt>
      <trkpt lat="44.73631" lon="2.53221">
        <ele>749.6</ele>
        <time>2021-11-11T12:10:05Z</time>
      </trkpt>
      <trkpt lat="44.73631" lon="2.53221">
        <ele>745.4</ele>
        <time>2021-11-11T12:10:10Z</time>
      </trkpt>
      <trkpt lat="44.73631" lon="2.53221">
        <ele>756.6</ele>
        <time>2021-11-11T12:10:16Z</time>
      </trkpt>
      <trkpt lat="44.73631" lon="2.53221">
        <ele>743.8</ele>
        <time>2021-11-11T12:10:21Z</time>
      </trkpt>
      <trkpt lat="44.73631" lon="2.53221">
        <ele>735.4</ele>
        <time>2021-11-11T12:10:27Z</time>
      </trkpt>
      <trkpt lat="44.73631" lon="2.53221">
        <ele>749.2</ele>
        <time>2021-11-11T12:10:32Z</time>
      </trkpt>
      <trkpt lat="44.73631" lon="2.53221">
        <ele>732.9</ele>
        <time>2021-11-11T12:10:38Z</time>
      </trkpt>
      <trkpt lat="44.73631" lon="2.53221">
        <ele>757.4</ele>
        <time>2021-11-11T12:10:43Z</time>
      </trkpt>
      <trkpt lat="44.73631" lon="2.53221">
        <ele>749.1</ele>
        <time>2021-11-11T12:10:49Z</time>
      </trkpt>
      <trkpt lat="44.73631" lon="2.53221">
        <ele>748.9</ele>
        <time>2021-11-11T12:10:54Z</time>
      </trkpt>
      <trkpt lat="44.73631" lon="2.53221">
        <ele>754</ele>
        <time>2021-11-11T12:11:00Z</time>
      </trkpt>
      <trkpt lat="44.73631" lon="2.53221">
        <ele>739.9</ele>
        <time>2021-11-11T12:11:06Z</time>
      </trkpt>
      <trkpt lat="44.73631" lon="2.53221">
        <ele>737.5</ele>
        <time>2021-11-11T12:11:11Z</time>
      </trkpt>
      <trkpt lat="44.73631" lon="2.53221">
        <ele>741.1</ele>
        <time>2021-11-11T12:11:17Z</time>
      </trkpt>
      <trkpt lat="44.73631" lon="2.53221">
        <ele>752</ele>
        <time>2021-11-11T12:11:23Z</time>
      </trkpt>
      <trkpt lat="44.73631" lon="2.53221">
        <ele>757.7</ele>
        <time>2021-11-11T12:11:29Z</time>
      </trkpt>
      <trkpt lat="44.73631" lon="2.53221">
        <ele>755.3</ele>
        <time>2021-11-11T12:11:34Z</time>
      </trkpt>
      <trkpt lat="44.73631" lon="2.53221">
        <ele>747.5</ele>
        <time>2021-11-11T12:11:39Z</time>
      </trkpt>
      <trkpt lat="44.73631" lon="2.53221">
        <ele>749.7</ele>
        <time>2021-11-11T12:11:44Z</time>
      </trkpt>
      <trkpt lat="44.73631" lon="2.53221">
        <ele>756.6</ele>
        <time>2021-11-11T12:11:50Z</time>
      </trkpt>
      <trkpt lat="44.73631" lon="2.53221">
        <ele>743</ele>
        <time>2021-11-11T12:11:56Z</time>
      </trkpt>
      <trkpt lat="44.73631" lon="2.53221">
        <ele>755.3</ele>
        <time>2021-11-11T12:12:02Z</time>
      </trkpt>
      <trkpt lat="44.73631" lon="2.53221">
        <ele>742.4</ele>
        <time>2021-11-11T12:12:08Z</time>
      </trkpt>
      <trkpt lat="44.73631" lon="2.53221">
        <ele>747.1</ele>
        <time>2021-11-11T12:12:13Z</time>
      </trkpt>
      <trkpt lat="44.73631" lon="2.53221">
        <ele>745.1</ele>
        <time>2021-11-11T12:12:18Z</time>
      </trkpt>
      <trkpt lat="44.73631" lon="2.53221">
        <ele>749.1</ele>
        <time>2021-11-11T12:12:23Z</time>
      </trkpt>
      <trkpt lat="44.73631" lon="2.53221">
        <ele>763.3</ele>
        <time>2021-11-11T12:12:29Z</time>
      </trkpt>
      <trkpt lat="44.73631" lon="2.53221">
        <ele>749.6</ele>
        <time>2021-11-11T12:12:34Z</time>
      </trkpt>
      <trkpt lat="44.73631" lon="2.53221">
        <ele>745.4</ele>
        <time>2021-11-11T12:12:39Z</time>
      </trkpt>
      <trkpt lat="44.73631" lon="2.53221">
        <ele>744.2</ele>
        <time>2021-11-11T12:12:45Z</time>
      </trkpt>
      <trkpt lat="44.73631" lon="2.53221">
        <ele>746.5</ele>
        <time>2021-11-11T12:12:50Z</time>
      </trkpt>
      <trkpt lat="44.73631" lon="2.53221">
        <ele>758</ele>
        <time>2021-11-11T12:12:55Z</time>
      </trkpt>
      <trkpt lat="44.73631" lon="2.53221">
        <ele>744.7</ele>
        <time>2021-11-11T12:13:01Z</time>
      </trkpt>
      <trkpt lat="44.73631" lon="2.53221">
        <ele>749.8</ele>
        <time>2021-11-11T12:13:08Z</time>
      </trkpt>
      <trkpt lat="44.73631" lon="2.53221">
        <ele>744.7</ele>
        <time>2021-11-11T12:13:13Z</time>
      </trkpt>
      <trkpt lat="44.73631" lon="2.53221">
        <ele>748.9</ele>
        <time>2021-11-11T12:13:19Z</time>
      </trkpt>
      <trkpt lat="44.73631" lon="2.53221">
        <ele>733.4</ele>
        <time>2021-11-11T12:13:24Z</time>
      </trkpt>
      <trkpt lat="44.73631" lon="2.53221">
        <ele>758.3</ele>
        <time>2021-11-11T12:13:30Z</time>
      </trkpt>
      <trkpt lat="44.73631" lon="2.53221">
        <ele>753.6</ele>
        <time>2021-11-11T12:13:35Z</time>
      </trkpt>
      <trkpt lat="44.73631" lon="2.53221">
        <ele>743.2</ele>
        <time>2021-11-11T12:13:41Z</time>
      </trkpt>
      <trkpt lat="44.73631" lon="2.53221">
        <ele>753</ele>
        <time>2021-11-11T12:13:46Z</time>
      </trkpt>
      <trkpt lat="44.73631" lon="2.53221">
        <ele>725.5</ele>
        <time>2021-11-11T12:13:52Z</time>
      </trkpt>
      <trkpt lat="44.73631" lon="2.53221">
        <ele>747.8</ele>
        <time>2021-11-11T12:13:57Z</time>
      </trkpt>
      <trkpt lat="44.73631" lon="2.53221">
        <ele>753.7</ele>
        <time>2021-11-11T12:14:03Z</time>
      </trkpt>
      <trkpt lat="44.73631" lon="2.53221">
        <ele>753.2</ele>
        <time>2021-11-11T12:14:08Z</time>
      </trkpt>
      <trkpt lat="44.73631" lon="2.53221">
        <ele>750.9</ele>
        <time>2021-11-11T12:14:13Z</time>
      </trkpt>
      <trkpt lat="44.73631" lon="2.53221">
        <ele>745.2</ele>
        <time>2021-11-11T12:14:18Z</time>
      </trkpt>
      <trkpt lat="44.73631" lon="2.53221">
        <ele>750.3</ele>
        <time>2021-11-11T12:14:24Z</time>
      </trkpt>
      <trkpt lat="44.73631" lon="2.53221">
        <ele>732.3</ele>
        <time>2021-11-11T12:14:30Z</time>
      </trkpt>
      <trkpt lat="44.73631" lon="2.53221">
        <ele>765.9</ele>
        <time>2021-11-11T12:14:36Z</time>
      </trkpt>
      <trkpt lat="44.73631" lon="2.53221">
        <ele>753.4</ele>
        <time>2021-11-11T12:14:42Z</time>
      </trkpt>
      <trkpt lat="44.73631" lon="2.53221">
        <ele>765.2</ele>
        <time>2021-11-11T12:14:47Z</time>
      </trkpt>
      <trkpt lat="44.73631" lon="2.53221">
        <ele>763.1</ele>
        <time>2021-11-11T12:14:53Z</time>
      </trkpt>
      <trkpt lat="44.73631" lon="2.53221">
        <ele>745.6</ele>
        <time>2021-11-11T12:14:58Z</time>
      </trkpt>
      <trkpt lat="44.73631" lon="2.53221">
        <ele>738.9</ele>
        <time>2021-11-11T12:15:04Z</time>
      </trkpt>
      <trkpt lat="44.73631" lon="2.53221">
        <ele>764</ele>
        <time>2021-11-11T12:15:10Z</time>
      </trkpt>
      <trkpt lat="44.73631" lon="2.53221">
        <ele>741.7</ele>
        <time>2021-11-11T12:15:15Z</time>
      </trkpt>
      <trkpt lat="44.73631" lon="2.53221">
        <ele>741.6</ele>
        <time>2021-11-11T12:15:20Z</time>
      </trkpt>
      <trkpt lat="44.73631" lon="2.53221">
        <ele>761.3</ele>
        <time>2021-11-11T12:15:26Z</time>
      </trkpt>
      <trkpt lat="44.73631" lon="2.53221">
        <ele>757.6</ele>
        <time>2021-11-11T12:15:32Z</time>
      </trkpt>
      <trkpt lat="44.73631" lon="2.53221">
        <ele>751.8</ele>
        <time>2021-11-11T12:15:38Z</time>
      </trkpt>
      <trkpt lat="44.73631" lon="2.53221">
        <ele>751.5</ele>
        <time>2021-11-11T12:15:44Z</time>
      </trkpt>
      <trkpt lat="44.73631" lon="2.53221">
        <ele>746</ele>
        <time>2021-11-11T12:15:50Z</time>
      </trkpt>
      <trkpt lat="44.73631" lon="2.53221">
        <ele>756.5</ele>
        <time>2021-11-11T12:15:55Z</time>
      </trkpt>
      <trkpt lat="44.73631" lon="2.53221">
        <ele>770.2</ele>
        <time>2021-11-11T12:16:01Z</time>
      </trkpt>
      <trkpt lat="44.73631" lon="2.53221">
        <ele>753.8</ele>
        <time>2021-11-11T12:16:06Z</time>
      </trkpt>
      <trkpt lat="44.73631" lon="2.53221">
        <ele>744.4</ele>
        <time>2021-11-11T12:16:12Z</time>
      </trkpt>
      <trkpt lat="44.73631" lon="2.53221">
        <ele>759.8</ele>
        <time>2021-11-11T12:16:18Z</time>
      </trkpt>
      <trkpt lat="44.73631" lon="2.53221">
        <ele>757.1</ele>
        <time>2021-11-11T12:16:23Z</time>
      </trkpt>
      <trkpt lat="44.73631" lon="2.53221">
        <ele>759.5</ele>
        <time>2021-11-11T12:16:28Z</time>
      </trkpt>
      <trkpt lat="44.73631" lon="2.53221">
        <ele>751.3</ele>
        <time>2021-11-11T12:16:34Z</time>
      </trkpt>
      <trkpt lat="44.73631" lon="2.53221">
        <ele>769</ele>
        <time>2021-11-11T12:16:40Z</time>
      </trkpt>
      <trkpt lat="44.73631" lon="2.53221">
        <ele>755.9</ele>
        <time>2021-11-11T12:16:46Z</time>
      </trkpt>
      <trkpt lat="44.73631" lon="2.53221">
        <ele>753.3</ele>
        <time>2021-11-11T12:16:52Z</time>
      </trkpt>
      <trkpt lat="44.73631" lon="2.53221">
        <ele>753.2</ele>
        <time>2021-11-11T12:16:58Z</time>
      </trkpt>
      <trkpt lat="44.73631" lon="2.53221">
        <ele>740.2</ele>
        <time>2021-11-11T12:17:03Z</time>
      </trkpt>
      <trkpt lat="44.73631" lon="2.53221">
        <ele>744.4</ele>
        <time>2021-11-11T12:17:08Z</time>
      </trkpt>
      <trkpt lat="44.73631" lon="2.53221">
        <ele>736.6</ele>
        <time>2021-11-11T12:17:14Z</time>
      </trkpt>
      <trkpt lat="44.73631" lon="2.53221">
        <ele>740.4</ele>
        <time>2021-11-11T12:17:20Z</time>
      </trkpt>
      <trkpt lat="44.73631" lon="2.53221">
        <ele>762.6</ele>
        <time>2021-11-11T12:17:25Z</time>
      </trkpt>
      <trkpt lat="44.73631" lon="2.53221">
        <ele>751.7</ele>
        <time>2021-11-11T12:17:31Z</time>
      </trkpt>
      <trkpt lat="44.73631" lon="2.53221">
        <ele>751.6</ele>
        <time>2021-11-11T12:17:36Z</time>
      </trkpt>
      <trkpt lat="44.73631" lon="2.53221">
        <ele>742</ele>
        <time>2021-11-11T12:17:42Z</time>
      </trkpt>
      <trkpt lat="44.73631" lon="2.53221">
        <ele>774.3</ele>
        <time>2021-11-11T12:17:48Z</time>
      </trkpt>
      <trkpt lat="44.73631" lon="2.53221">
        <ele>749.4</ele>
        <time>2021-11-11T12:17:54Z</time>
      </trkpt>
      <trkpt lat="44.73631" lon="2.53221">
        <ele>752.4</ele>
        <time>2021-11-11T12:17:59Z</time>
      </trkpt>
      <trkpt lat="44.73631" lon="2.53221">
        <ele>737.1</ele>
        <time>2021-11-11T12:18:04Z</time>
      </trkpt>
      <trkpt lat="44.73631" lon="2.53221">
        <ele>734.6</ele>
        <time>2021-11-11T12:18:10Z</time>
      </trkpt>
      <trkpt lat="44.73631" lon="2.53221">
        <ele>755.4</ele>
        <time>2021-11-11T12:18:16Z</time>
      </trkpt>
      <trkpt lat="44.73631" lon="2.53221">
        <ele>760.2</ele>
        <time>2021-11-11T12:18:22Z</time>
      </trkpt>
      <trkpt lat="44.73631" lon="2.53221">
        <ele>760.5</ele>
        <time>2021-11-11T12:18:28Z</time>
      </trkpt>
      <trkpt lat="44.73631" lon="2.53221">
        <ele>746.3</ele>
        <time>2021-11-11T12:18:33Z</time>
      </trkpt>
      <trkpt lat="44.73631" lon="2.53221">
        <ele>747.5</ele>
        <time>2021-11-11T12:18:39Z</time>
      </trkpt>
      <trkpt lat="44.73631" lon="2.53221">
        <ele>760.7</ele>
        <time>2021-11-11T12:18:45Z</time>
      </trkpt>
      <trkpt lat="44.73631" lon="2.53221">
        <ele>744.1</ele>
        <time>2021-11-11T12:18:50Z</time>
      </trkpt>
      <trkpt lat="44.73631" lon="2.53221">
        <ele>738.1</ele>
        <time>2021-11-11T12:18:56Z</time>
      </trkpt>
      <trkpt lat="44.73631" lon="2.53221">
        <ele>757.8</ele>
        <time>2021-11-11T12:19:02Z</time>
      </trkpt>
      <trkpt lat="44.73631" lon="2.53221">
        <ele>763.7</ele>
        <time>2021-11-11T12:19:08Z</time>
      </trkpt>
      <trkpt lat="44.73631" lon="2.53221">
        <ele>748.6</ele>
        <time>2021-11-11T12:19:14Z</time>
      </trkpt>
      <trkpt lat="44.73631" lon="2.53221">
        <ele>748.1</ele>
        <time>2021-11-11T12:19:19Z</time>
      </trkpt>
      <trkpt lat="44.73631" lon="2.53221">
        <ele>763.3</ele>
        <time>2021-11-11T12:19:25Z</time>
      </trkpt>
      <trkpt lat="44.73631" lon="2.53221">
        <ele>752</ele>
        <time>2021-11-11T12:19:30Z</time>
      </trkpt>
      <trkpt lat="44.73631" lon="2.53221">
        <ele>769.8</ele>
        <time>2021-11-11T12:19:36Z</time>
      </trkpt>
      <trkpt lat="44.73631" lon="2.53221">
        <ele>744.7</ele>
        <time>2021-11-11T12:19:42Z</time>
      </trkpt>
      <trkpt lat="44.73631" lon="2.53221">
        <ele>737</ele>
        <time>2021-11-11T12:19:48Z</time>
      </trkpt>
      <trkpt lat="44.73631" lon="2.53221">
        <ele>754.2</ele>
        <time>2021-11-11T12:19:54Z</time>
      </trkpt>
      <trkpt lat="44.73631" lon="2.53221">
        <ele>752.2</ele>
        <time>2021-11-11T12:20:00Z</time>
      </trkpt>
      <trkpt lat="44.73631" lon="2.53221">
        <ele>739.7</ele>
        <time>2021-11-11T12:20:06Z</time>
      </trkpt>
      <trkpt lat="44.73631" lon="2.53221">
        <ele>756.3</ele>
        <time>2021-11-11T12:20:12Z</time>
      </trkpt>
      <trkpt lat="44.73631" lon="2.53221">
        <ele>752.2</ele>
        <time>2021-11-11T12:20:17Z</time>
      </trkpt>
      <trkpt lat="44.73631" lon="2.53221">
        <ele>763.8</ele>
        <time>2021-11-11T12:20:23Z</time>
      </trkpt>
      <trkpt lat="44.73631" lon="2.53221">
        <ele>767.2</ele>
        <time>2021-11-11T12:20:28Z</time>
      </trkpt>
      <trkpt lat="44.73631" lon="2.53221">
        <ele>725.4</ele>
        <time>2021-11-11T12:20:33Z</time>
      </trkpt>
      <trkpt lat="44.73631" lon="2.53221">
        <ele>743.8</ele>
        <time>2021-11-11T12:20:38Z</time>
      </trkpt>
      <trkpt lat="44.73631" lon="2.53221">
        <ele>738</ele>
        <time>2021-11-11T12:20:43Z</time>
      </trkpt>
      <trkpt lat="44.73631" lon="2.53221">
        <ele>745</ele>
        <time>2021-11-11T12:20:49Z</time>
      </trkpt>
      <trkpt lat="44.73631" lon="2.53221">
        <ele>757.4</ele>
        <time>2021-11-11T12:20:55Z</time>
      </trkpt>
      <trkpt lat="44.73631" lon="2.53221">
        <ele>728.8</ele>
        <time>2021-11-11T12:21:01Z</time>
      </trkpt>
      <trkpt lat="44.73631" lon="2.53221">
        <ele>755.5</ele>
        <time>2021-11-11T12:21:06Z</time>
      </trkpt>
      <trkpt lat="44.73631" lon="2.53221">
        <ele>762.5</ele>
        <time>2021-11-11T12:21:12Z</time>
      </trkpt>
      <trkpt lat="44.73631" lon="2.53221">
        <ele>756.7</ele>
        <time>2021-11-11T12:21:18Z</time>
      </trkpt>
      <trkpt lat="44.73631" lon="2.53221">
        <ele>750.4</ele>
        <time>2021-11-11T12:21:23Z</time>
      </trkpt>
      <trkpt lat="44.73631" lon="2.53221">
        <ele>748.9</ele>
        <time>2021-11-11T12:21:28Z</time>
      </trkpt>
      <trkpt lat="44.73631" lon="2.53221">
        <ele>773</ele>
        <time>2021-11-11T12:21:34Z</time>
      </trkpt>
      <trkpt lat="44.73631" lon="2.53221">
        <ele>754.7</ele>
        <time>2021-11-11T12:21:39Z</time>
      </trkpt>
      <trkpt lat="44.73631" lon="2.53221">
        <ele>755.2</ele>
        <time>2021-11-11T12:21:45Z</time>
      </trkpt>
      <trkpt lat="44.73631" lon="2.53221">
        <ele>764.7</ele>
        <time>2021-11-11T12:21:50Z</time>
      </trkpt>
      <trkpt lat="44.73631" lon="2.53221">
        <ele>741.8</ele>
        <time>2021-11-11T12:21:55Z</time>
      </trkpt>
      <trkpt lat="44.73631" lon="2.53221">
        <ele>742.3</ele>
        <time>2021-11-11T12:22:02Z</time>
      </trkpt>
      <trkpt lat="44.73631" lon="2.53221">
        <ele>757.6</ele>
        <time>2021-11-11T12:22:07Z</time>
      </trkpt>
      <trkpt lat="44.73631" lon="2.53221">
        <ele>745.7</ele>
        <time>2021-11-11T12:22:13Z</time>
      </trkpt>
      <trkpt lat="44.73631" lon="2.53221">
        <ele>724.1</ele>
        <time>2021-11-11T12:22:18Z</time>
      </trkpt>
      <trkpt lat="44.73631" lon="2.53221">
        <ele>756.3</ele>
        <time>2021-11-11T12:22:24Z</time>
      </trkpt>
      <trkpt lat="44.73631" lon="2.53221">
        <ele>771</ele>
        <time>2021-11-11T12:22:30Z</time>
      </trkpt>
      <trkpt lat="44.73631" lon="2.53221">
        <ele>739.4</ele>
        <time>2021-11-11T12:22:35Z</time>
      </trkpt>
      <trkpt lat="44.73631" lon="2.53221">
        <ele>754.4</ele>
        <time>2021-11-11T12:22:41Z</time>
      </trkpt>
      <trkpt lat="44.73631" lon="2.53221">
        <ele>733.6</ele>
        <time>2021-11-11T12:22:47Z</time>
      </trkpt>
      <trkpt lat="44.73631" lon="2.53221">
        <ele>755.1</ele>
        <time>2021-11-11T12:22:53Z</time>
      </trkpt>
      <trkpt lat="44.73631" lon="2.53221">
        <ele>752.1</ele>
        <time>2021-11-11T12:22:58Z</time>
      </trkpt>
      <trkpt lat="44.73631" lon="2.53221">
        <ele>735.3</ele>
        <time>2021-11-11T12:23:03Z</time>
      </trkpt>
      <trkpt lat="44.73631" lon="2.53221">
        <ele>742.5</ele>
        <time>2021-11-11T12:23:08Z</time>
      </trkpt>
      <trkpt lat="44.73631" lon="2.53221">
        <ele>738.1</ele>
        <time>2021-11-11T12:23:14Z</time>
      </trkpt>
      <trkpt lat="44.73631" lon="2.53221">
        <ele>754.6</ele>
        <time>2021-11-11T12:23:19Z</time>
      </trkpt>
      <trkpt lat="44.73631" lon="2.53221">
        <ele>755</ele>
        <time>2021-11-11T12:23:25Z</time>
      </trkpt>
      <trkpt lat="44.73631" lon="2.53221">
        <ele>758.4</ele>
        <time>2021-11-11T12:23:32Z</time>
      </trkpt>
      <trkpt lat="44.73631" lon="2.53221">
        <ele>739.4</ele>
        <time>2021-11-11T12:23:37Z</time>
      </trkpt>
      <trkpt lat="44.73631" lon="2.53221">
        <ele>746.9</ele>
        <time>2021-11-11T12:23:43Z</time>
      </trkpt>
      <trkpt lat="44.73631" lon="2.53221">
        <ele>746.4</ele>
        <time>2021-11-11T12:23:48Z</time>
      </trkpt>
      <trkpt lat="44.73631" lon="2.53221">
        <ele>755.7</ele>
        <time>2021-11-11T12:23:54Z</time>
      </trkpt>
      <trkpt lat="44.73631" lon="2.53221">
        <ele>755.3</ele>
        <time>2021-11-11T12:24:00Z</time>
      </trkpt>
      <trkpt lat="44.73631" lon="2.53221">
        <ele>744.9</ele>
        <time>2021-11-11T12:24:05Z</time>
      </trkpt>
      <trkpt lat="44.73631" lon="2.53221">
        <ele>759</ele>
        <time>2021-11-11T12:24:11Z</time>
      </trkpt>
      <trkpt lat="44.73632" lon="2.53221">
        <ele>759</ele>
        <time>2021-11-11T12:24:17Z</time>
      </trkpt>
      <trkpt lat="44.73632" lon="2.53222">
        <ele>755.3</ele>
        <time>2021-11-11T12:24:22Z</time>
      </trkpt>
      <trkpt lat="44.73632" lon="2.53222">
        <ele>749</ele>
        <time>2021-11-11T12:24:27Z</time>
      </trkpt>
      <trkpt lat="44.73632" lon="2.53222">
        <ele>735</ele>
        <time>2021-11-11T12:24:32Z</time>
      </trkpt>
      <trkpt lat="44.73632" lon="2.53222">
        <ele>753</ele>
        <time>2021-11-11T12:24:38Z</time>
      </trkpt>
      <trkpt lat="44.73632" lon="2.53222">
        <ele>746.4</ele>
        <time>2021-11-11T12:24:43Z</time>
      </trkpt>
      <trkpt lat="44.73632" lon="2.53222">
        <ele>738.9</ele>
        <time>2021-11-11T12:24:48Z</time>
      </trkpt>
      <trkpt lat="44.73632" lon="2.53222">
        <ele>767.4</ele>
        <time>2021-11-11T12:24:54Z</time>
      </trkpt>
      <trkpt lat="44.73632" lon="2.53222">
        <ele>751.2</ele>
        <time>2021-11-11T12:24:59Z</time>
      </trkpt>
      <trkpt lat="44.73632" lon="2.53222">
        <ele>742.6</ele>
        <time>2021-11-11T12:25:05Z</time>
      </trkpt>
      <trkpt lat="44.73632" lon="2.53222">
        <ele>742.4</ele>
        <time>2021-11-11T12:25:11Z</time>
      </trkpt>
      <trkpt lat="44.73632" lon="2.53222">
        <ele>748.5</ele>
        <time>2021-11-11T12:25:16Z</time>
      </trkpt>
      <trkpt lat="44.73632" lon="2.53222">
        <ele>743.3</ele>
        <time>2021-11-11T12:25:21Z</time>
      </trkpt>
      <trkpt lat="44.73632" lon="2.53222">
        <ele>750.2</ele>
        <time>2021-11-11T12:25:27Z</time>
      </trkpt>
      <trkpt lat="44.73632" lon="2.53222">
        <ele>753.8</ele>
        <time>2021-11-11T12:25:32Z</time>
      </trkpt>
      <trkpt lat="44.73632" lon="2.53222">
        <ele>747.6</ele>
        <time>2021-11-11T12:25:38Z</time>
      </trkpt>
      <trkpt lat="44.73632" lon="2.53222">
        <ele>780.8</ele>
        <time>2021-11-11T12:25:44Z</time>
      </trkpt>
      <trkpt lat="44.73632" lon="2.53222">
        <ele>752.8</ele>
        <time>2021-11-11T12:25:49Z</time>
      </trkpt>
      <trkpt lat="44.73632" lon="2.53222">
        <ele>751.3</ele>
        <time>2021-11-11T12:25:55Z</time>
      </trkpt>
      <trkpt lat="44.73632" lon="2.53222">
        <ele>739.7</ele>
        <time>2021-11-11T12:26:01Z</time>
      </trkpt>
      <trkpt lat="44.73632" lon="2.53222">
        <ele>739.8</ele>
        <time>2021-11-11T12:26:07Z</time>
      </trkpt>
      <trkpt lat="44.73631" lon="2.53221">
        <ele>751.8</ele>
        <time>2021-11-11T12:26:13Z</time>
      </trkpt>
      <trkpt lat="44.73632" lon="2.53221">
        <ele>752.1</ele>
        <time>2021-11-11T12:26:18Z</time>
      </trkpt>
      <trkpt lat="44.73632" lon="2.53221">
        <ele>753</ele>
        <time>2021-11-11T12:26:24Z</time>
      </trkpt>
      <trkpt lat="44.73632" lon="2.53221">
        <ele>754.7</ele>
        <time>2021-11-11T12:26:30Z</time>
      </trkpt>
      <trkpt lat="44.73632" lon="2.53221">
        <ele>743.6</ele>
        <time>2021-11-11T12:26:36Z</time>
      </trkpt>
      <trkpt lat="44.73632" lon="2.53221">
        <ele>756</ele>
        <time>2021-11-11T12:26:41Z</time>
      </trkpt>
      <trkpt lat="44.73632" lon="2.53221">
        <ele>756.4</ele>
        <time>2021-11-11T12:26:47Z</time>
      </trkpt>
      <trkpt lat="44.73632" lon="2.53221">
        <ele>737.6</ele>
        <time>2021-11-11T12:26:52Z</time>
      </trkpt>
      <trkpt lat="44.73632" lon="2.53221">
        <ele>749.9</ele>
        <time>2021-11-11T12:26:58Z</time>
      </trkpt>
      <trkpt lat="44.73632" lon="2.53221">
        <ele>739.9</ele>
        <time>2021-11-11T12:27:03Z</time>
      </trkpt>
      <trkpt lat="44.73632" lon="2.53221">
        <ele>759.9</ele>
        <time>2021-11-11T12:27:09Z</time>
      </trkpt>
      <trkpt lat="44.73632" lon="2.53221">
        <ele>751.7</ele>
        <time>2021-11-11T12:27:14Z</time>
      </trkpt>
      <trkpt lat="44.73632" lon="2.53221">
        <ele>755.7</ele>
        <time>2021-11-11T12:27:20Z</time>
      </trkpt>
      <trkpt lat="44.73632" lon="2.53221">
        <ele>759.3</ele>
        <time>2021-11-11T12:27:26Z</time>
      </trkpt>
      <trkpt lat="44.73632" lon="2.53221">
        <ele>749.3</ele>
        <time>2021-11-11T12:27:31Z</time>
      </trkpt>
      <trkpt lat="44.73632" lon="2.53221">
        <ele>741.4</ele>
        <time>2021-11-11T12:27:36Z</time>
      </trkpt>
      <trkpt lat="44.73632" lon="2.53221">
        <ele>765.7</ele>
        <time>2021-11-11T12:27:41Z</time>
      </trkpt>
      <trkpt lat="44.73632" lon="2.53221">
        <ele>738.4</ele>
        <time>2021-11-11T12:27:47Z</time>
      </trkpt>
      <trkpt lat="44.73632" lon="2.53221">
        <ele>763.3</ele>
        <time>2021-11-11T12:27:53Z</time>
      </trkpt>
      <trkpt lat="44.73632" lon="2.53221">
        <ele>770</ele>
        <time>2021-11-11T12:27:58Z</time>
      </trkpt>
      <trkpt lat="44.73632" lon="2.53221">
        <ele>750.2</ele>
        <time>2021-11-11T12:28:03Z</time>
      </trkpt>
      <trkpt lat="44.73632" lon="2.53221">
        <ele>742.9</ele>
        <time>2021-11-11T12:28:08Z</time>
      </trkpt>
      <trkpt lat="44.73632" lon="2.53221">
        <ele>733.9</ele>
        <time>2021-11-11T12:28:14Z</time>
      </trkpt>
      <trkpt lat="44.73631" lon="2.53221">
        <ele>746.5</ele>
        <time>2021-11-11T12:28:19Z</time>
      </trkpt>
      <trkpt lat="44.73631" lon="2.53222">
        <ele>725.9</ele>
        <time>2021-11-11T12:28:25Z</time>
      </trkpt>
      <trkpt lat="44.73631" lon="2.53222">
        <ele>744.8</ele>
        <time>2021-11-11T12:28:31Z</time>
      </trkpt>
      <trkpt lat="44.73631" lon="2.53222">
        <ele>758.9</ele>
        <time>2021-11-11T12:28:36Z</time>
      </trkpt>
      <trkpt lat="44.73631" lon="2.53222">
        <ele>752</ele>
        <time>2021-11-11T12:28:42Z</time>
      </trkpt>
      <trkpt lat="44.7363" lon="2.5322">
        <ele>730.9</ele>
        <time>2021-11-11T12:28:48Z</time>
      </trkpt>
      <trkpt lat="44.73629" lon="2.53213">
        <ele>737.9</ele>
        <time>2021-11-11T12:28:54Z</time>
      </trkpt>
      <trkpt lat="44.73627" lon="2.53206">
        <ele>734.1</ele>
        <time>2021-11-11T12:28:59Z</time>
      </trkpt>
      <trkpt lat="44.73625" lon="2.53199">
        <ele>753.8</ele>
        <time>2021-11-11T12:29:05Z</time>
      </trkpt>
      <trkpt lat="44.73624" lon="2.53192">
        <ele>759.1</ele>
        <time>2021-11-11T12:29:11Z</time>
      </trkpt>
      <trkpt lat="44.73622" lon="2.53185">
        <ele>754.5</ele>
        <time>2021-11-11T12:29:16Z</time>
      </trkpt>
      <trkpt lat="44.7362" lon="2.53179">
        <ele>761.8</ele>
        <time>2021-11-11T12:29:22Z</time>
      </trkpt>
      <trkpt lat="44.73614" lon="2.53176">
        <ele>763.7</ele>
        <time>2021-11-11T12:29:27Z</time>
      </trkpt>
      <trkpt lat="44.73612" lon="2.53173">
        <ele>749.8</ele>
        <time>2021-11-11T12:29:32Z</time>
      </trkpt>
      <trkpt lat="44.7361" lon="2.5317">
        <ele>759.1</ele>
        <time>2021-11-11T12:29:38Z</time>
      </trkpt>
      <trkpt lat="44.73611" lon="2.53167">
        <ele>770.4</ele>
        <time>2021-11-11T12:29:43Z</time>
      </trkpt>
      <trkpt lat="44.73613" lon="2.53162">
        <ele>751.8</ele>
        <time>2021-11-11T12:29:48Z</time>
      </trkpt>
      <trkpt lat="44.73613" lon="2.53149">
        <ele>750.4</ele>
        <time>2021-11-11T12:29:54Z</time>
      </trkpt>
      <trkpt lat="44.73612" lon="2.53137">
        <ele>752.1</ele>
        <time>2021-11-11T12:29:59Z</time>
      </trkpt>
      <trkpt lat="44.73607" lon="2.53127">
        <ele>765.4</ele>
        <time>2021-11-11T12:30:04Z</time>
      </trkpt>
      <trkpt lat="44.73603" lon="2.53121">
        <ele>762.4</ele>
        <time>2021-11-11T12:30:09Z</time>
      </trkpt>
      <trkpt lat="44.736" lon="2.53118">
        <ele>759.2</ele>
        <time>2021-11-11T12:30:14Z</time>
      </trkpt>
      <trkpt lat="44.73599" lon="2.53116">
        <ele>764.2</ele>
        <time>2021-11-11T12:30:20Z</time>
      </trkpt>
      <trkpt lat="44.73599" lon="2.53112">
        <ele>767.6</ele>
        <time>2021-11-11T12:30:25Z</time>
      </trkpt>
      <trkpt lat="44.73599" lon="2.53109">
        <ele>768.2</ele>
        <time>2021-11-11T12:30:30Z</time>
      </trkpt>
      <trkpt lat="44.73601" lon="2.53094">
        <ele>759.2</ele>
        <time>2021-11-11T12:30:36Z</time>
      </trkpt>
      <trkpt lat="44.73596" lon="2.53081">
        <ele>750.3</ele>
        <time>2021-11-11T12:30:41Z</time>
      </trkpt>
      <trkpt lat="44.73591" lon="2.53073">
        <ele>737.9</ele>
        <time>2021-11-11T12:30:46Z</time>
      </trkpt>
      <trkpt lat="44.73589" lon="2.53066">
        <ele>738.6</ele>
        <time>2021-11-11T12:30:51Z</time>
      </trkpt>
      <trkpt lat="44.73585" lon="2.53061">
        <ele>753.1</ele>
        <time>2021-11-11T12:30:57Z</time>
      </trkpt>
      <trkpt lat="44.73584" lon="2.53058">
        <ele>764.4</ele>
        <time>2021-11-11T12:31:02Z</time>
      </trkpt>
      <trkpt lat="44.73585" lon="2.53054">
        <ele>748</ele>
        <time>2021-11-11T12:31:08Z</time>
      </trkpt>
      <trkpt lat="44.73588" lon="2.53045">
        <ele>763.8</ele>
        <time>2021-11-11T12:31:13Z</time>
      </trkpt>
      <trkpt lat="44.73586" lon="2.53033">
        <ele>755.3</ele>
        <time>2021-11-11T12:31:18Z</time>
      </trkpt>
      <trkpt lat="44.73579" lon="2.53023">
        <ele>745</ele>
        <time>2021-11-11T12:31:24Z</time>
      </trkpt>
      <trkpt lat="44.73573" lon="2.53017">
        <ele>766.4</ele>
        <time>2021-11-11T12:31:29Z</time>
      </trkpt>
      <trkpt lat="44.73571" lon="2.53015">
        <ele>760.9</ele>
        <time>2021-11-11T12:31:34Z</time>
      </trkpt>
      <trkpt lat="44.73572" lon="2.5301">
        <ele>773.2</ele>
        <time>2021-11-11T12:31:40Z</time>
      </trkpt>
      <trkpt lat="44.73571" lon="2.53007">
        <ele>757.4</ele>
        <time>2021-11-11T12:31:46Z</time>
      </trkpt>
      <trkpt lat="44.73575" lon="2.53007">
        <ele>776.7</ele>
        <time>2021-11-11T12:31:51Z</time>
      </trkpt>
      <trkpt lat="44.7357" lon="2.52986">
        <ele>749.5</ele>
        <time>2021-11-11T12:31:56Z</time>
      </trkpt>
      <trkpt lat="44.7356" lon="2.52979">
        <ele>752.5</ele>
        <time>2021-11-11T12:32:02Z</time>
      </trkpt>
      <trkpt lat="44.73555" lon="2.52974">
        <ele>748.4</ele>
        <time>2021-11-11T12:32:07Z</time>
      </trkpt>
      <trkpt lat="44.73551" lon="2.52971">
        <ele>747.5</ele>
        <time>2021-11-11T12:32:12Z</time>
      </trkpt>
      <trkpt lat="44.73546" lon="2.52969">
        <ele>751.4</ele>
        <time>2021-11-11T12:32:17Z</time>
      </trkpt>
      <trkpt lat="44.7354" lon="2.52966">
        <ele>762.1</ele>
        <time>2021-11-11T12:32:22Z</time>
      </trkpt>
      <trkpt lat="44.73535" lon="2.52964">
        <ele>762</ele>
        <time>2021-11-11T12:32:28Z</time>
      </trkpt>
      <trkpt lat="44.73535" lon="2.52961">
        <ele>761.3</ele>
        <time>2021-11-11T12:32:33Z</time>
      </trkpt>
      <trkpt lat="44.73528" lon="2.52945">
        <ele>763.7</ele>
        <time>2021-11-11T12:32:38Z</time>
      </trkpt>
      <trkpt lat="44.73522" lon="2.52935">
        <ele>755</ele>
        <time>2021-11-11T12:32:43Z</time>
      </trkpt>
      <trkpt lat="44.73519" lon="2.52928">
        <ele>784.9</ele>
        <time>2021-11-11T12:32:49Z</time>
      </trkpt>
      <trkpt lat="44.73515" lon="2.52923">
        <ele>770.5</ele>
        <time>2021-11-11T12:32:54Z</time>
      </trkpt>
      <trkpt lat="44.73513" lon="2.52916">
        <ele>754.6</ele>
        <time>2021-11-11T12:32:59Z</time>
      </trkpt>
      <trkpt lat="44.7351" lon="2.52914">
        <ele>760.9</ele>
        <time>2021-11-11T12:33:05Z</time>
      </trkpt>
      <trkpt lat="44.73508" lon="2.52913">
        <ele>753.2</ele>
        <time>2021-11-11T12:33:10Z</time>
      </trkpt>
      <trkpt lat="44.73511" lon="2.52903">
        <ele>767.8</ele>
        <time>2021-11-11T12:33:15Z</time>
      </trkpt>
      <trkpt lat="44.73514" lon="2.52879">
        <ele>762.2</ele>
        <time>2021-11-11T12:33:20Z</time>
      </trkpt>
      <trkpt lat="44.73513" lon="2.52872">
        <ele>775.3</ele>
        <time>2021-11-11T12:33:25Z</time>
      </trkpt>
      <trkpt lat="44.73515" lon="2.52867">
        <ele>764.5</ele>
        <time>2021-11-11T12:33:31Z</time>
      </trkpt>
      <trkpt lat="44.73517" lon="2.52859">
        <ele>753.8</ele>
        <time>2021-11-11T12:33:36Z</time>
      </trkpt>
      <trkpt lat="44.73518" lon="2.52852">
        <ele>760.4</ele>
        <time>2021-11-11T12:33:41Z</time>
      </trkpt>
      <trkpt lat="44.73517" lon="2.52844">
        <ele>769.4</ele>
        <time>2021-11-11T12:33:47Z</time>
      </trkpt>
      <trkpt lat="44.7352" lon="2.52843">
        <ele>754</ele>
        <time>2021-11-11T12:33:52Z</time>
      </trkpt>
      <trkpt lat="44.73532" lon="2.52836">
        <ele>767.9</ele>
        <time>2021-11-11T12:33:58Z</time>
      </trkpt>
      <trkpt lat="44.73539" lon="2.52826">
        <ele>760.7</ele>
        <time>2021-11-11T12:34:03Z</time>
      </trkpt>
      <trkpt lat="44.7354" lon="2.52818">
        <ele>767.8</ele>
        <time>2021-11-11T12:34:09Z</time>
      </trkpt>
      <trkpt lat="44.73542" lon="2.52815">
        <ele>769.3</ele>
        <time>2021-11-11T12:34:14Z</time>
      </trkpt>
      <trkpt lat="44.73543" lon="2.52817">
        <ele>788.3</ele>
        <time>2021-11-11T12:34:20Z</time>
      </trkpt>
      <trkpt lat="44.73543" lon="2.52818">
        <ele>766</ele>
        <time>2021-11-11T12:34:26Z</time>
      </trkpt>
      <trkpt lat="44.73544" lon="2.52818">
        <ele>760</ele>
        <time>2021-11-11T12:34:32Z</time>
      </trkpt>
      <trkpt lat="44.73547" lon="2.52814">
        <ele>777.3</ele>
        <time>2021-11-11T12:34:38Z</time>
      </trkpt>
      <trkpt lat="44.7355" lon="2.52806">
        <ele>775.5</ele>
        <time>2021-11-11T12:34:43Z</time>
      </trkpt>
      <trkpt lat="44.73551" lon="2.52799">
        <ele>764.7</ele>
        <time>2021-11-11T12:34:48Z</time>
      </trkpt>
      <trkpt lat="44.73553" lon="2.52793">
        <ele>761.3</ele>
        <time>2021-11-11T12:34:54Z</time>
      </trkpt>
      <trkpt lat="44.73555" lon="2.52788">
        <ele>783.5</ele>
        <time>2021-11-11T12:34:59Z</time>
      </trkpt>
      <trkpt lat="44.73556" lon="2.52785">
        <ele>743.5</ele>
        <time>2021-11-11T12:35:05Z</time>
      </trkpt>
      <trkpt lat="44.73556" lon="2.52776">
        <ele>780.6</ele>
        <time>2021-11-11T12:35:10Z</time>
      </trkpt>
      <trkpt lat="44.73561" lon="2.52767">
        <ele>772.2</ele>
        <time>2021-11-11T12:35:16Z</time>
      </trkpt>
      <trkpt lat="44.73565" lon="2.5276">
        <ele>761.9</ele>
        <time>2021-11-11T12:35:22Z</time>
      </trkpt>
      <trkpt lat="44.73568" lon="2.52752">
        <ele>770.7</ele>
        <time>2021-11-11T12:35:27Z</time>
      </trkpt>
      <trkpt lat="44.73567" lon="2.52743">
        <ele>777.4</ele>
        <time>2021-11-11T12:35:33Z</time>
      </trkpt>
      <trkpt lat="44.73567" lon="2.52735">
        <ele>776.1</ele>
        <time>2021-11-11T12:35:38Z</time>
      </trkpt>
      <trkpt lat="44.73567" lon="2.52725">
        <ele>787</ele>
        <time>2021-11-11T12:35:43Z</time>
      </trkpt>
      <trkpt lat="44.73569" lon="2.52715">
        <ele>785.1</ele>
        <time>2021-11-11T12:35:49Z</time>
      </trkpt>
      <trkpt lat="44.7357" lon="2.52704">
        <ele>777.6</ele>
        <time>2021-11-11T12:35:54Z</time>
      </trkpt>
      <trkpt lat="44.7357" lon="2.52695">
        <ele>770.3</ele>
        <time>2021-11-11T12:35:59Z</time>
      </trkpt>
      <trkpt lat="44.7357" lon="2.52686">
        <ele>768.6</ele>
        <time>2021-11-11T12:36:04Z</time>
      </trkpt>
      <trkpt lat="44.73567" lon="2.52676">
        <ele>779.5</ele>
        <time>2021-11-11T12:36:10Z</time>
      </trkpt>
      <trkpt lat="44.73569" lon="2.52667">
        <ele>788.4</ele>
        <time>2021-11-11T12:36:16Z</time>
      </trkpt>
      <trkpt lat="44.73572" lon="2.52658">
        <ele>767.6</ele>
        <time>2021-11-11T12:36:21Z</time>
      </trkpt>
      <trkpt lat="44.73574" lon="2.52648">
        <ele>778.8</ele>
        <time>2021-11-11T12:36:26Z</time>
      </trkpt>
      <trkpt lat="44.73575" lon="2.52638">
        <ele>761.4</ele>
        <time>2021-11-11T12:36:31Z</time>
      </trkpt>
      <trkpt lat="44.73576" lon="2.52629">
        <ele>753.1</ele>
        <time>2021-11-11T12:36:36Z</time>
      </trkpt>
      <trkpt lat="44.73573" lon="2.52618">
        <ele>773.5</ele>
        <time>2021-11-11T12:36:42Z</time>
      </trkpt>
      <trkpt lat="44.73574" lon="2.52609">
        <ele>762.4</ele>
        <time>2021-11-11T12:36:47Z</time>
      </trkpt>
      <trkpt lat="44.73576" lon="2.526">
        <ele>768.9</ele>
        <time>2021-11-11T12:36:52Z</time>
      </trkpt>
      <trkpt lat="44.73577" lon="2.52592">
        <ele>778</ele>
        <time>2021-11-11T12:36:57Z</time>
      </trkpt>
      <trkpt lat="44.73579" lon="2.52583">
        <ele>761</ele>
        <time>2021-11-11T12:37:03Z</time>
      </trkpt>
      <trkpt lat="44.73582" lon="2.52576">
        <ele>778.2</ele>
        <time>2021-11-11T12:37:09Z</time>
      </trkpt>
      <trkpt lat="44.73583" lon="2.52567">
        <ele>772.3</ele>
        <time>2021-11-11T12:37:14Z</time>
      </trkpt>
      <trkpt lat="44.73584" lon="2.52558">
        <ele>772</ele>
        <time>2021-11-11T12:37:19Z</time>
      </trkpt>
      <trkpt lat="44.73584" lon="2.52549">
        <ele>754.3</ele>
        <time>2021-11-11T12:37:26Z</time>
      </trkpt>
      <trkpt lat="44.73583" lon="2.52538">
        <ele>756.9</ele>
        <time>2021-11-11T12:37:31Z</time>
      </trkpt>
      <trkpt lat="44.73582" lon="2.52529">
        <ele>769.4</ele>
        <time>2021-11-11T12:37:36Z</time>
      </trkpt>
      <trkpt lat="44.73581" lon="2.52521">
        <ele>782.7</ele>
        <time>2021-11-11T12:37:41Z</time>
      </trkpt>
      <trkpt lat="44.7358" lon="2.52513">
        <ele>752.7</ele>
        <time>2021-11-11T12:37:46Z</time>
      </trkpt>
      <trkpt lat="44.73582" lon="2.52505">
        <ele>771.5</ele>
        <time>2021-11-11T12:37:51Z</time>
      </trkpt>
      <trkpt lat="44.73584" lon="2.52497">
        <ele>761.7</ele>
        <time>2021-11-11T12:37:57Z</time>
      </trkpt>
      <trkpt lat="44.73585" lon="2.52491">
        <ele>772.9</ele>
        <time>2021-11-11T12:38:02Z</time>
      </trkpt>
      <trkpt lat="44.73592" lon="2.52483">
        <ele>777.7</ele>
        <time>2021-11-11T12:38:08Z</time>
      </trkpt>
      <trkpt lat="44.73593" lon="2.52473">
        <ele>764.6</ele>
        <time>2021-11-11T12:38:13Z</time>
      </trkpt>
      <trkpt lat="44.73593" lon="2.52465">
        <ele>755.1</ele>
        <time>2021-11-11T12:38:19Z</time>
      </trkpt>
      <trkpt lat="44.73595" lon="2.52459">
        <ele>776.6</ele>
        <time>2021-11-11T12:38:24Z</time>
      </trkpt>
      <trkpt lat="44.73596" lon="2.5245">
        <ele>755.5</ele>
        <time>2021-11-11T12:38:29Z</time>
      </trkpt>
      <trkpt lat="44.73601" lon="2.52439">
        <ele>781.4</ele>
        <time>2021-11-11T12:38:35Z</time>
      </trkpt>
      <trkpt lat="44.73604" lon="2.52431">
        <ele>753.4</ele>
        <time>2021-11-11T12:38:40Z</time>
      </trkpt>
      <trkpt lat="44.73609" lon="2.52424">
        <ele>753.6</ele>
        <time>2021-11-11T12:38:46Z</time>
      </trkpt>
      <trkpt lat="44.73613" lon="2.52415">
        <ele>746.8</ele>
        <time>2021-11-11T12:38:51Z</time>
      </trkpt>
      <trkpt lat="44.73615" lon="2.52408">
        <ele>760.9</ele>
        <time>2021-11-11T12:38:57Z</time>
      </trkpt>
      <trkpt lat="44.73617" lon="2.524">
        <ele>751.7</ele>
        <time>2021-11-11T12:39:03Z</time>
      </trkpt>
      <trkpt lat="44.7362" lon="2.5239">
        <ele>761.5</ele>
        <time>2021-11-11T12:39:08Z</time>
      </trkpt>
      <trkpt lat="44.73624" lon="2.52383">
        <ele>775.8</ele>
        <time>2021-11-11T12:39:13Z</time>
      </trkpt>
      <trkpt lat="44.73625" lon="2.52371">
        <ele>763.7</ele>
        <time>2021-11-11T12:39:19Z</time>
      </trkpt>
      <trkpt lat="44.73627" lon="2.52361">
        <ele>743.8</ele>
        <time>2021-11-11T12:39:24Z</time>
      </trkpt>
      <trkpt lat="44.73629" lon="2.52354">
        <ele>758.1</ele>
        <time>2021-11-11T12:39:31Z</time>
      </trkpt>
      <trkpt lat="44.73629" lon="2.52356">
        <ele>766.3</ele>
        <time>2021-11-11T12:39:36Z</time>
      </trkpt>
      <trkpt lat="44.73632" lon="2.52349">
        <ele>743.4</ele>
        <time>2021-11-11T12:39:41Z</time>
      </trkpt>
      <trkpt lat="44.73635" lon="2.52339">
        <ele>754.3</ele>
        <time>2021-11-11T12:39:47Z</time>
      </trkpt>
      <trkpt lat="44.73638" lon="2.52331">
        <ele>738.6</ele>
        <time>2021-11-11T12:39:52Z</time>
      </trkpt>
      <trkpt lat="44.7364" lon="2.52321">
        <ele>734.7</ele>
        <time>2021-11-11T12:39:57Z</time>
      </trkpt>
      <trkpt lat="44.73644" lon="2.52313">
        <ele>749.3</ele>
        <time>2021-11-11T12:40:03Z</time>
      </trkpt>
      <trkpt lat="44.73646" lon="2.52304">
        <ele>747.8</ele>
        <time>2021-11-11T12:40:09Z</time>
      </trkpt>
      <trkpt lat="44.73649" lon="2.52295">
        <ele>754.6</ele>
        <time>2021-11-11T12:40:14Z</time>
      </trkpt>
      <trkpt lat="44.73651" lon="2.52286">
        <ele>750.5</ele>
        <time>2021-11-11T12:40:19Z</time>
      </trkpt>
      <trkpt lat="44.73654" lon="2.52276">
        <ele>749.1</ele>
        <time>2021-11-11T12:40:26Z</time>
      </trkpt>
      <trkpt lat="44.73656" lon="2.52267">
        <ele>756.6</ele>
        <time>2021-11-11T12:40:31Z</time>
      </trkpt>
      <trkpt lat="44.73656" lon="2.5226">
        <ele>766.3</ele>
        <time>2021-11-11T12:40:36Z</time>
      </trkpt>
      <trkpt lat="44.73652" lon="2.52254">
        <ele>736.3</ele>
        <time>2021-11-11T12:40:41Z</time>
      </trkpt>
      <trkpt lat="44.73649" lon="2.52246">
        <ele>747.7</ele>
        <time>2021-11-11T12:40:47Z</time>
      </trkpt>
      <trkpt lat="44.73646" lon="2.52238">
        <ele>760.4</ele>
        <time>2021-11-11T12:40:52Z</time>
      </trkpt>
      <trkpt lat="44.73643" lon="2.52231">
        <ele>764.1</ele>
        <time>2021-11-11T12:40:57Z</time>
      </trkpt>
      <trkpt lat="44.7364" lon="2.52222">
        <ele>748.8</ele>
        <time>2021-11-11T12:41:03Z</time>
      </trkpt>
      <trkpt lat="44.73638" lon="2.52212">
        <ele>764.2</ele>
        <time>2021-11-11T12:41:08Z</time>
      </trkpt>
      <trkpt lat="44.73639" lon="2.52206">
        <ele>751.5</ele>
        <time>2021-11-11T12:41:13Z</time>
      </trkpt>
      <trkpt lat="44.7364" lon="2.52198">
        <ele>744.8</ele>
        <time>2021-11-11T12:41:19Z</time>
      </trkpt>
      <trkpt lat="44.73639" lon="2.52189">
        <ele>745.4</ele>
        <time>2021-11-11T12:41:24Z</time>
      </trkpt>
      <trkpt lat="44.73637" lon="2.52181">
        <ele>761.3</ele>
        <time>2021-11-11T12:41:29Z</time>
      </trkpt>
      <trkpt lat="44.73635" lon="2.52172">
        <ele>766.8</ele>
        <time>2021-11-11T12:41:35Z</time>
      </trkpt>
      <trkpt lat="44.73633" lon="2.52167">
        <ele>762.3</ele>
        <time>2021-11-11T12:41:40Z</time>
      </trkpt>
      <trkpt lat="44.73628" lon="2.5216">
        <ele>763.2</ele>
        <time>2021-11-11T12:41:46Z</time>
      </trkpt>
      <trkpt lat="44.73624" lon="2.52154">
        <ele>765.7</ele>
        <time>2021-11-11T12:41:51Z</time>
      </trkpt>
      <trkpt lat="44.73623" lon="2.52144">
        <ele>766.8</ele>
        <time>2021-11-11T12:41:56Z</time>
      </trkpt>
      <trkpt lat="44.73621" lon="2.5213">
        <ele>751.4</ele>
        <time>2021-11-11T12:42:01Z</time>
      </trkpt>
      <trkpt lat="44.73619" lon="2.52122">
        <ele>764.6</ele>
        <time>2021-11-11T12:42:06Z</time>
      </trkpt>
      <trkpt lat="44.73617" lon="2.52113">
        <ele>768.1</ele>
        <time>2021-11-11T12:42:12Z</time>
      </trkpt>
      <trkpt lat="44.73614" lon="2.52105">
        <ele>739</ele>
        <time>2021-11-11T12:42:17Z</time>
      </trkpt>
      <trkpt lat="44.73609" lon="2.52101">
        <ele>764</ele>
        <time>2021-11-11T12:42:23Z</time>
      </trkpt>
      <trkpt lat="44.73605" lon="2.52091">
        <ele>758.5</ele>
        <time>2021-11-11T12:42:29Z</time>
      </trkpt>
      <trkpt lat="44.73603" lon="2.52082">
        <ele>755.8</ele>
        <time>2021-11-11T12:42:34Z</time>
      </trkpt>
      <trkpt lat="44.736" lon="2.52073">
        <ele>765.2</ele>
        <time>2021-11-11T12:42:39Z</time>
      </trkpt>
      <trkpt lat="44.73597" lon="2.52063">
        <ele>758.1</ele>
        <time>2021-11-11T12:42:45Z</time>
      </trkpt>
      <trkpt lat="44.73593" lon="2.52056">
        <ele>747.7</ele>
        <time>2021-11-11T12:42:50Z</time>
      </trkpt>
      <trkpt lat="44.73588" lon="2.52051">
        <ele>759.3</ele>
        <time>2021-11-11T12:42:57Z</time>
      </trkpt>
      <trkpt lat="44.73588" lon="2.52047">
        <ele>761.2</ele>
        <time>2021-11-11T12:43:02Z</time>
      </trkpt>
      <trkpt lat="44.73585" lon="2.5205">
        <ele>757.7</ele>
        <time>2021-11-11T12:43:07Z</time>
      </trkpt>
      <trkpt lat="44.73587" lon="2.52018">
        <ele>748.4</ele>
        <time>2021-11-11T12:43:13Z</time>
      </trkpt>
      <trkpt lat="44.73584" lon="2.52007">
        <ele>766.9</ele>
        <time>2021-11-11T12:43:18Z</time>
      </trkpt>
      <trkpt lat="44.73583" lon="2.51997">
        <ele>767.5</ele>
        <time>2021-11-11T12:43:24Z</time>
      </trkpt>
      <trkpt lat="44.73585" lon="2.51983">
        <ele>767</ele>
        <time>2021-11-11T12:43:29Z</time>
      </trkpt>
      <trkpt lat="44.73582" lon="2.51975">
        <ele>751.6</ele>
        <time>2021-11-11T12:43:34Z</time>
      </trkpt>
      <trkpt lat="44.7358" lon="2.51967">
        <ele>772.1</ele>
        <time>2021-11-11T12:43:39Z</time>
      </trkpt>
      <trkpt lat="44.73581" lon="2.51957">
        <ele>762.9</ele>
        <time>2021-11-11T12:43:44Z</time>
      </trkpt>
      <trkpt lat="44.7358" lon="2.51945">
        <ele>767.1</ele>
        <time>2021-11-11T12:43:50Z</time>
      </trkpt>
      <trkpt lat="44.7358" lon="2.51936">
        <ele>774.9</ele>
        <time>2021-11-11T12:43:55Z</time>
      </trkpt>
      <trkpt lat="44.73581" lon="2.51927">
        <ele>742.7</ele>
        <time>2021-11-11T12:44:00Z</time>
      </trkpt>
      <trkpt lat="44.7358" lon="2.51917">
        <ele>784.9</ele>
        <time>2021-11-11T12:44:06Z</time>
      </trkpt>
      <trkpt lat="44.73579" lon="2.51908">
        <ele>770.2</ele>
        <time>2021-11-11T12:44:11Z</time>
      </trkpt>
      <trkpt lat="44.73585" lon="2.519">
        <ele>760.4</ele>
        <time>2021-11-11T12:44:16Z</time>
      </trkpt>
      <trkpt lat="44.73591" lon="2.51899">
        <ele>762.2</ele>
        <time>2021-11-11T12:44:22Z</time>
      </trkpt>
      <trkpt lat="44.73594" lon="2.51898">
        <ele>762.1</ele>
        <time>2021-11-11T12:44:27Z</time>
      </trkpt>
      <trkpt lat="44.73596" lon="2.51896">
        <ele>746.7</ele>
        <time>2021-11-11T12:44:32Z</time>
      </trkpt>
      <trkpt lat="44.73598" lon="2.51893">
        <ele>758.9</ele>
        <time>2021-11-11T12:44:37Z</time>
      </trkpt>
      <trkpt lat="44.73604" lon="2.5189">
        <ele>769.3</ele>
        <time>2021-11-11T12:44:42Z</time>
      </trkpt>
      <trkpt lat="44.73609" lon="2.51885">
        <ele>761.6</ele>
        <time>2021-11-11T12:44:48Z</time>
      </trkpt>
      <trkpt lat="44.73613" lon="2.51887">
        <ele>771.5</ele>
        <time>2021-11-11T12:44:53Z</time>
      </trkpt>
      <trkpt lat="44.73615" lon="2.51878">
        <ele>764.5</ele>
        <time>2021-11-11T12:44:59Z</time>
      </trkpt>
      <trkpt lat="44.73635" lon="2.51885">
        <ele>787.8</ele>
        <time>2021-11-11T12:45:04Z</time>
      </trkpt>
      <trkpt lat="44.73644" lon="2.51878">
        <ele>771.4</ele>
        <time>2021-11-11T12:45:10Z</time>
      </trkpt>
      <trkpt lat="44.73649" lon="2.51872">
        <ele>773</ele>
        <time>2021-11-11T12:45:15Z</time>
      </trkpt>
      <trkpt lat="44.73655" lon="2.51866">
        <ele>754.9</ele>
        <time>2021-11-11T12:45:20Z</time>
      </trkpt>
      <trkpt lat="44.73659" lon="2.51857">
        <ele>763</ele>
        <time>2021-11-11T12:45:25Z</time>
      </trkpt>
      <trkpt lat="44.73662" lon="2.51853">
        <ele>774.5</ele>
        <time>2021-11-11T12:45:31Z</time>
      </trkpt>
      <trkpt lat="44.73667" lon="2.51849">
        <ele>769</ele>
        <time>2021-11-11T12:45:36Z</time>
      </trkpt>
      <trkpt lat="44.73671" lon="2.51844">
        <ele>777</ele>
        <time>2021-11-11T12:45:41Z</time>
      </trkpt>
      <trkpt lat="44.73676" lon="2.51839">
        <ele>781.1</ele>
        <time>2021-11-11T12:45:46Z</time>
      </trkpt>
      <trkpt lat="44.73682" lon="2.51835">
        <ele>791.3</ele>
        <time>2021-11-11T12:45:51Z</time>
      </trkpt>
      <trkpt lat="44.73687" lon="2.51831">
        <ele>757.2</ele>
        <time>2021-11-11T12:45:57Z</time>
      </trkpt>
      <trkpt lat="44.73696" lon="2.5183">
        <ele>779.2</ele>
        <time>2021-11-11T12:46:02Z</time>
      </trkpt>
      <trkpt lat="44.73706" lon="2.51826">
        <ele>762.7</ele>
        <time>2021-11-11T12:46:08Z</time>
      </trkpt>
      <trkpt lat="44.73712" lon="2.51822">
        <ele>788.7</ele>
        <time>2021-11-11T12:46:13Z</time>
      </trkpt>
      <trkpt lat="44.73718" lon="2.51814">
        <ele>760.6</ele>
        <time>2021-11-11T12:46:18Z</time>
      </trkpt>
      <trkpt lat="44.73725" lon="2.51811">
        <ele>772.1</ele>
        <time>2021-11-11T12:46:24Z</time>
      </trkpt>
      <trkpt lat="44.73731" lon="2.51804">
        <ele>780.6</ele>
        <time>2021-11-11T12:46:30Z</time>
      </trkpt>
      <trkpt lat="44.73737" lon="2.51799">
        <ele>748.8</ele>
        <time>2021-11-11T12:46:35Z</time>
      </trkpt>
      <trkpt lat="44.73739" lon="2.51795">
        <ele>756</ele>
        <time>2021-11-11T12:46:40Z</time>
      </trkpt>
      <trkpt lat="44.73737" lon="2.51793">
        <ele>768.8</ele>
        <time>2021-11-11T12:46:45Z</time>
      </trkpt>
      <trkpt lat="44.73735" lon="2.5179">
        <ele>780.5</ele>
        <time>2021-11-11T12:46:51Z</time>
      </trkpt>
      <trkpt lat="44.73734" lon="2.51789">
        <ele>765.9</ele>
        <time>2021-11-11T12:46:56Z</time>
      </trkpt>
      <trkpt lat="44.73734" lon="2.51789">
        <ele>766.8</ele>
        <time>2021-11-11T12:47:01Z</time>
      </trkpt>
      <trkpt lat="44.73735" lon="2.51777">
        <ele>783.6</ele>
        <time>2021-11-11T12:47:08Z</time>
      </trkpt>
      <trkpt lat="44.73732" lon="2.51768">
        <ele>753</ele>
        <time>2021-11-11T12:47:13Z</time>
      </trkpt>
      <trkpt lat="44.73732" lon="2.51758">
        <ele>743.6</ele>
        <time>2021-11-11T12:47:18Z</time>
      </trkpt>
      <trkpt lat="44.7373" lon="2.5175">
        <ele>762.3</ele>
        <time>2021-11-11T12:47:24Z</time>
      </trkpt>
      <trkpt lat="44.7373" lon="2.51743">
        <ele>760.3</ele>
        <time>2021-11-11T12:47:29Z</time>
      </trkpt>
      <trkpt lat="44.73732" lon="2.51735">
        <ele>757.3</ele>
        <time>2021-11-11T12:47:34Z</time>
      </trkpt>
      <trkpt lat="44.73732" lon="2.51726">
        <ele>753.7</ele>
        <time>2021-11-11T12:47:40Z</time>
      </trkpt>
      <trkpt lat="44.73731" lon="2.51717">
        <ele>746.4</ele>
        <time>2021-11-11T12:47:45Z</time>
      </trkpt>
      <trkpt lat="44.73729" lon="2.51707">
        <ele>749.2</ele>
        <time>2021-11-11T12:47:51Z</time>
      </trkpt>
      <trkpt lat="44.73729" lon="2.51699">
        <ele>750.3</ele>
        <time>2021-11-11T12:47:56Z</time>
      </trkpt>
      <trkpt lat="44.73729" lon="2.5169">
        <ele>750.7</ele>
        <time>2021-11-11T12:48:01Z</time>
      </trkpt>
      <trkpt lat="44.73727" lon="2.51682">
        <ele>768.4</ele>
        <time>2021-11-11T12:48:06Z</time>
      </trkpt>
      <trkpt lat="44.73725" lon="2.51675">
        <ele>763.3</ele>
        <time>2021-11-11T12:48:11Z</time>
      </trkpt>
      <trkpt lat="44.73726" lon="2.51667">
        <ele>764.4</ele>
        <time>2021-11-11T12:48:17Z</time>
      </trkpt>
      <trkpt lat="44.73727" lon="2.5166">
        <ele>765.9</ele>
        <time>2021-11-11T12:48:22Z</time>
      </trkpt>
      <trkpt lat="44.73729" lon="2.51653">
        <ele>751.7</ele>
        <time>2021-11-11T12:48:27Z</time>
      </trkpt>
      <trkpt lat="44.73731" lon="2.51646">
        <ele>755.3</ele>
        <time>2021-11-11T12:48:32Z</time>
      </trkpt>
      <trkpt lat="44.73732" lon="2.51639">
        <ele>764.2</ele>
        <time>2021-11-11T12:48:37Z</time>
      </trkpt>
      <trkpt lat="44.73734" lon="2.51631">
        <ele>753.7</ele>
        <time>2021-11-11T12:48:43Z</time>
      </trkpt>
      <trkpt lat="44.73734" lon="2.51623">
        <ele>767.3</ele>
        <time>2021-11-11T12:48:48Z</time>
      </trkpt>
      <trkpt lat="44.73735" lon="2.51612">
        <ele>746.4</ele>
        <time>2021-11-11T12:48:54Z</time>
      </trkpt>
      <trkpt lat="44.73739" lon="2.51604">
        <ele>759.6</ele>
        <time>2021-11-11T12:48:59Z</time>
      </trkpt>
      <trkpt lat="44.7374" lon="2.51595">
        <ele>759.2</ele>
        <time>2021-11-11T12:49:04Z</time>
      </trkpt>
      <trkpt lat="44.73743" lon="2.51586">
        <ele>754.5</ele>
        <time>2021-11-11T12:49:10Z</time>
      </trkpt>
      <trkpt lat="44.73743" lon="2.51579">
        <ele>746.9</ele>
        <time>2021-11-11T12:49:15Z</time>
      </trkpt>
      <trkpt lat="44.73746" lon="2.51568">
        <ele>751.2</ele>
        <time>2021-11-11T12:49:21Z</time>
      </trkpt>
      <trkpt lat="44.73747" lon="2.51557">
        <ele>735.7</ele>
        <time>2021-11-11T12:49:27Z</time>
      </trkpt>
      <trkpt lat="44.73746" lon="2.51551">
        <ele>754.1</ele>
        <time>2021-11-11T12:49:32Z</time>
      </trkpt>
      <trkpt lat="44.73744" lon="2.51543">
        <ele>752.7</ele>
        <time>2021-11-11T12:49:38Z</time>
      </trkpt>
      <trkpt lat="44.73745" lon="2.51535">
        <ele>752</ele>
        <time>2021-11-11T12:49:43Z</time>
      </trkpt>
      <trkpt lat="44.73747" lon="2.51525">
        <ele>764.8</ele>
        <time>2021-11-11T12:49:48Z</time>
      </trkpt>
      <trkpt lat="44.73754" lon="2.51513">
        <ele>747.2</ele>
        <time>2021-11-11T12:49:53Z</time>
      </trkpt>
      <trkpt lat="44.73762" lon="2.51508">
        <ele>752.6</ele>
        <time>2021-11-11T12:49:59Z</time>
      </trkpt>
      <trkpt lat="44.73767" lon="2.51502">
        <ele>746</ele>
        <time>2021-11-11T12:50:05Z</time>
      </trkpt>
      <trkpt lat="44.73769" lon="2.51493">
        <ele>763.6</ele>
        <time>2021-11-11T12:50:10Z</time>
      </trkpt>
      <trkpt lat="44.73769" lon="2.51486">
        <ele>747.8</ele>
        <time>2021-11-11T12:50:15Z</time>
      </trkpt>
      <trkpt lat="44.73771" lon="2.51478">
        <ele>759.6</ele>
        <time>2021-11-11T12:50:20Z</time>
      </trkpt>
      <trkpt lat="44.73772" lon="2.51471">
        <ele>734.5</ele>
        <time>2021-11-11T12:50:26Z</time>
      </trkpt>
      <trkpt lat="44.73775" lon="2.51462">
        <ele>742.4</ele>
        <time>2021-11-11T12:50:32Z</time>
      </trkpt>
      <trkpt lat="44.73777" lon="2.51455">
        <ele>734.6</ele>
        <time>2021-11-11T12:50:37Z</time>
      </trkpt>
      <trkpt lat="44.73777" lon="2.51448">
        <ele>755.3</ele>
        <time>2021-11-11T12:50:42Z</time>
      </trkpt>
      <trkpt lat="44.73778" lon="2.51441">
        <ele>774.7</ele>
        <time>2021-11-11T12:50:48Z</time>
      </trkpt>
      <trkpt lat="44.73779" lon="2.51435">
        <ele>752.7</ele>
        <time>2021-11-11T12:50:53Z</time>
      </trkpt>
      <trkpt lat="44.73782" lon="2.51428">
        <ele>735.5</ele>
        <time>2021-11-11T12:50:58Z</time>
      </trkpt>
      <trkpt lat="44.73791" lon="2.51416">
        <ele>761.8</ele>
        <time>2021-11-11T12:51:05Z</time>
      </trkpt>
      <trkpt lat="44.738" lon="2.5141">
        <ele>724</ele>
        <time>2021-11-11T12:51:10Z</time>
      </trkpt>
      <trkpt lat="44.73805" lon="2.51406">
        <ele>746.1</ele>
        <time>2021-11-11T12:51:15Z</time>
      </trkpt>
      <trkpt lat="44.73808" lon="2.51401">
        <ele>750.8</ele>
        <time>2021-11-11T12:51:20Z</time>
      </trkpt>
      <trkpt lat="44.73809" lon="2.51393">
        <ele>732.7</ele>
        <time>2021-11-11T12:51:26Z</time>
      </trkpt>
      <trkpt lat="44.7381" lon="2.5139">
        <ele>736</ele>
        <time>2021-11-11T12:51:32Z</time>
      </trkpt>
      <trkpt lat="44.7381" lon="2.51387">
        <ele>745.1</ele>
        <time>2021-11-11T12:51:37Z</time>
      </trkpt>
      <trkpt lat="44.7381" lon="2.51384">
        <ele>732.5</ele>
        <time>2021-11-11T12:51:43Z</time>
      </trkpt>
      <trkpt lat="44.7381" lon="2.51377">
        <ele>731.9</ele>
        <time>2021-11-11T12:51:48Z</time>
      </trkpt>
      <trkpt lat="44.73811" lon="2.51371">
        <ele>751.5</ele>
        <time>2021-11-11T12:51:53Z</time>
      </trkpt>
      <trkpt lat="44.73811" lon="2.5137">
        <ele>741.4</ele>
        <time>2021-11-11T12:51:59Z</time>
      </trkpt>
      <trkpt lat="44.73811" lon="2.5137">
        <ele>734.7</ele>
        <time>2021-11-11T12:52:04Z</time>
      </trkpt>
      <trkpt lat="44.73811" lon="2.5137">
        <ele>724.2</ele>
        <time>2021-11-11T12:52:10Z</time>
      </trkpt>
      <trkpt lat="44.7381" lon="2.51365">
        <ele>735.3</ele>
        <time>2021-11-11T12:52:15Z</time>
      </trkpt>
      <trkpt lat="44.73811" lon="2.51361">
        <ele>740.3</ele>
        <time>2021-11-11T12:52:21Z</time>
      </trkpt>
      <trkpt lat="44.73811" lon="2.51359">
        <ele>727.9</ele>
        <time>2021-11-11T12:52:27Z</time>
      </trkpt>
      <trkpt lat="44.73811" lon="2.51358">
        <ele>715.3</ele>
        <time>2021-11-11T12:52:32Z</time>
      </trkpt>
      <trkpt lat="44.73813" lon="2.51357">
        <ele>736.2</ele>
        <time>2021-11-11T12:52:37Z</time>
      </trkpt>
      <trkpt lat="44.73814" lon="2.51355">
        <ele>718.3</ele>
        <time>2021-11-11T12:52:43Z</time>
      </trkpt>
      <trkpt lat="44.73815" lon="2.51352">
        <ele>733</ele>
        <time>2021-11-11T12:52:48Z</time>
      </trkpt>
      <trkpt lat="44.73815" lon="2.51344">
        <ele>728.3</ele>
        <time>2021-11-11T12:52:53Z</time>
      </trkpt>
      <trkpt lat="44.73814" lon="2.51339">
        <ele>722.1</ele>
        <time>2021-11-11T12:52:59Z</time>
      </trkpt>
      <trkpt lat="44.73813" lon="2.51335">
        <ele>710.9</ele>
        <time>2021-11-11T12:53:05Z</time>
      </trkpt>
      <trkpt lat="44.73813" lon="2.51334">
        <ele>748.6</ele>
        <time>2021-11-11T12:53:10Z</time>
      </trkpt>
      <trkpt lat="44.73812" lon="2.51333">
        <ele>718.3</ele>
        <time>2021-11-11T12:53:15Z</time>
      </trkpt>
      <trkpt lat="44.73811" lon="2.5133">
        <ele>734.5</ele>
        <time>2021-11-11T12:53:21Z</time>
      </trkpt>
      <trkpt lat="44.7381" lon="2.51325">
        <ele>718.7</ele>
        <time>2021-11-11T12:53:27Z</time>
      </trkpt>
      <trkpt lat="44.7381" lon="2.51323">
        <ele>724</ele>
        <time>2021-11-11T12:53:32Z</time>
      </trkpt>
      <trkpt lat="44.73814" lon="2.51316">
        <ele>743.9</ele>
        <time>2021-11-11T12:53:37Z</time>
      </trkpt>
      <trkpt lat="44.73815" lon="2.51312">
        <ele>742.9</ele>
        <time>2021-11-11T12:53:43Z</time>
      </trkpt>
      <trkpt lat="44.73818" lon="2.51309">
        <ele>740.9</ele>
        <time>2021-11-11T12:53:49Z</time>
      </trkpt>
      <trkpt lat="44.73819" lon="2.51308">
        <ele>737.7</ele>
        <time>2021-11-11T12:53:55Z</time>
      </trkpt>
      <trkpt lat="44.73822" lon="2.51308">
        <ele>731.3</ele>
        <time>2021-11-11T12:54:00Z</time>
      </trkpt>
      <trkpt lat="44.73827" lon="2.51308">
        <ele>749.9</ele>
        <time>2021-11-11T12:54:05Z</time>
      </trkpt>
      <trkpt lat="44.73829" lon="2.51304">
        <ele>730.9</ele>
        <time>2021-11-11T12:54:12Z</time>
      </trkpt>
      <trkpt lat="44.7383" lon="2.51298">
        <ele>734.4</ele>
        <time>2021-11-11T12:54:17Z</time>
      </trkpt>
      <trkpt lat="44.73827" lon="2.51291">
        <ele>737.9</ele>
        <time>2021-11-11T12:54:23Z</time>
      </trkpt>
      <trkpt lat="44.73824" lon="2.51283">
        <ele>738.9</ele>
        <time>2021-11-11T12:54:28Z</time>
      </trkpt>
      <trkpt lat="44.73823" lon="2.51278">
        <ele>744</ele>
        <time>2021-11-11T12:54:33Z</time>
      </trkpt>
      <trkpt lat="44.73824" lon="2.51273">
        <ele>758.6</ele>
        <time>2021-11-11T12:54:39Z</time>
      </trkpt>
      <trkpt lat="44.73825" lon="2.51266">
        <ele>727.3</ele>
        <time>2021-11-11T12:54:44Z</time>
      </trkpt>
      <trkpt lat="44.73826" lon="2.5126">
        <ele>729.7</ele>
        <time>2021-11-11T12:54:49Z</time>
      </trkpt>
      <trkpt lat="44.73826" lon="2.51252">
        <ele>752.2</ele>
        <time>2021-11-11T12:54:55Z</time>
      </trkpt>
      <trkpt lat="44.73827" lon="2.51247">
        <ele>736.9</ele>
        <time>2021-11-11T12:55:00Z</time>
      </trkpt>
      <trkpt lat="44.73827" lon="2.51243">
        <ele>750.2</ele>
        <time>2021-11-11T12:55:06Z</time>
      </trkpt>
      <trkpt lat="44.73827" lon="2.51239">
        <ele>754.2</ele>
        <time>2021-11-11T12:55:11Z</time>
      </trkpt>
      <trkpt lat="44.73828" lon="2.51236">
        <ele>738.6</ele>
        <time>2021-11-11T12:55:16Z</time>
      </trkpt>
      <trkpt lat="44.73829" lon="2.51234">
        <ele>766.1</ele>
        <time>2021-11-11T12:55:22Z</time>
      </trkpt>
      <trkpt lat="44.73829" lon="2.51229">
        <ele>742.2</ele>
        <time>2021-11-11T12:55:27Z</time>
      </trkpt>
      <trkpt lat="44.73829" lon="2.51224">
        <ele>741.5</ele>
        <time>2021-11-11T12:55:33Z</time>
      </trkpt>
      <trkpt lat="44.73828" lon="2.51222">
        <ele>746.7</ele>
        <time>2021-11-11T12:55:38Z</time>
      </trkpt>
      <trkpt lat="44.73828" lon="2.51216">
        <ele>773.2</ele>
        <time>2021-11-11T12:55:43Z</time>
      </trkpt>
      <trkpt lat="44.73828" lon="2.51212">
        <ele>752.3</ele>
        <time>2021-11-11T12:55:49Z</time>
      </trkpt>
      <trkpt lat="44.73829" lon="2.51211">
        <ele>749.4</ele>
        <time>2021-11-11T12:55:54Z</time>
      </trkpt>
      <trkpt lat="44.73829" lon="2.51208">
        <ele>759.6</ele>
        <time>2021-11-11T12:56:00Z</time>
      </trkpt>
      <trkpt lat="44.73829" lon="2.51204">
        <ele>768.4</ele>
        <time>2021-11-11T12:56:05Z</time>
      </trkpt>
      <trkpt lat="44.73829" lon="2.512">
        <ele>758.1</ele>
        <time>2021-11-11T12:56:11Z</time>
      </trkpt>
      <trkpt lat="44.73829" lon="2.51195">
        <ele>771.4</ele>
        <time>2021-11-11T12:56:16Z</time>
      </trkpt>
      <trkpt lat="44.73829" lon="2.51192">
        <ele>751.1</ele>
        <time>2021-11-11T12:56:21Z</time>
      </trkpt>
      <trkpt lat="44.73828" lon="2.51185">
        <ele>754.1</ele>
        <time>2021-11-11T12:56:26Z</time>
      </trkpt>
      <trkpt lat="44.73828" lon="2.51179">
        <ele>758.6</ele>
        <time>2021-11-11T12:56:33Z</time>
      </trkpt>
      <trkpt lat="44.73829" lon="2.51173">
        <ele>765</ele>
        <time>2021-11-11T12:56:38Z</time>
      </trkpt>
      <trkpt lat="44.7383" lon="2.51167">
        <ele>763.2</ele>
        <time>2021-11-11T12:56:44Z</time>
      </trkpt>
      <trkpt lat="44.73831" lon="2.51161">
        <ele>748.5</ele>
        <time>2021-11-11T12:56:49Z</time>
      </trkpt>
      <trkpt lat="44.73831" lon="2.51154">
        <ele>750.7</ele>
        <time>2021-11-11T12:56:55Z</time>
      </trkpt>
      <trkpt lat="44.73833" lon="2.51149">
        <ele>764.1</ele>
        <time>2021-11-11T12:57:01Z</time>
      </trkpt>
      <trkpt lat="44.73833" lon="2.51144">
        <ele>757.2</ele>
        <time>2021-11-11T12:57:06Z</time>
      </trkpt>
      <trkpt lat="44.73836" lon="2.51138">
        <ele>786.5</ele>
        <time>2021-11-11T12:57:12Z</time>
      </trkpt>
      <trkpt lat="44.73839" lon="2.51131">
        <ele>782.4</ele>
        <time>2021-11-11T12:57:18Z</time>
      </trkpt>
      <trkpt lat="44.73841" lon="2.51125">
        <ele>779.6</ele>
        <time>2021-11-11T12:57:23Z</time>
      </trkpt>
      <trkpt lat="44.73856" lon="2.51123">
        <ele>766.6</ele>
        <time>2021-11-11T12:57:28Z</time>
      </trkpt>
      <trkpt lat="44.73864" lon="2.51115">
        <ele>768.2</ele>
        <time>2021-11-11T12:57:34Z</time>
      </trkpt>
      <trkpt lat="44.7387" lon="2.5111">
        <ele>757</ele>
        <time>2021-11-11T12:57:39Z</time>
      </trkpt>
      <trkpt lat="44.73874" lon="2.51101">
        <ele>780.8</ele>
        <time>2021-11-11T12:57:45Z</time>
      </trkpt>
      <trkpt lat="44.73876" lon="2.51093">
        <ele>741.5</ele>
        <time>2021-11-11T12:57:50Z</time>
      </trkpt>
      <trkpt lat="44.73875" lon="2.51084">
        <ele>756.9</ele>
        <time>2021-11-11T12:57:55Z</time>
      </trkpt>
      <trkpt lat="44.73876" lon="2.51072">
        <ele>764.6</ele>
        <time>2021-11-11T12:58:02Z</time>
      </trkpt>
      <trkpt lat="44.73872" lon="2.51063">
        <ele>747.6</ele>
        <time>2021-11-11T12:58:07Z</time>
      </trkpt>
      <trkpt lat="44.73869" lon="2.51053">
        <ele>756</ele>
        <time>2021-11-11T12:58:13Z</time>
      </trkpt>
      <trkpt lat="44.73866" lon="2.51043">
        <ele>752</ele>
        <time>2021-11-11T12:58:18Z</time>
      </trkpt>
      <trkpt lat="44.73867" lon="2.51034">
        <ele>747.1</ele>
        <time>2021-11-11T12:58:24Z</time>
      </trkpt>
      <trkpt lat="44.73872" lon="2.5103">
        <ele>745.8</ele>
        <time>2021-11-11T12:58:29Z</time>
      </trkpt>
      <trkpt lat="44.73879" lon="2.51027">
        <ele>751.9</ele>
        <time>2021-11-11T12:58:35Z</time>
      </trkpt>
      <trkpt lat="44.73885" lon="2.51022">
        <ele>756.3</ele>
        <time>2021-11-11T12:58:40Z</time>
      </trkpt>
      <trkpt lat="44.73891" lon="2.51017">
        <ele>744.2</ele>
        <time>2021-11-11T12:58:45Z</time>
      </trkpt>
      <trkpt lat="44.73897" lon="2.51013">
        <ele>754.6</ele>
        <time>2021-11-11T12:58:51Z</time>
      </trkpt>
      <trkpt lat="44.73904" lon="2.5101">
        <ele>752.3</ele>
        <time>2021-11-11T12:58:56Z</time>
      </trkpt>
      <trkpt lat="44.73909" lon="2.51009">
        <ele>755.8</ele>
        <time>2021-11-11T12:59:01Z</time>
      </trkpt>
      <trkpt lat="44.73913" lon="2.51006">
        <ele>774.8</ele>
        <time>2021-11-11T12:59:07Z</time>
      </trkpt>
      <trkpt lat="44.73915" lon="2.51006">
        <ele>762.1</ele>
        <time>2021-11-11T12:59:12Z</time>
      </trkpt>
      <trkpt lat="44.73921" lon="2.51009">
        <ele>748.9</ele>
        <time>2021-11-11T12:59:17Z</time>
      </trkpt>
      <trkpt lat="44.73926" lon="2.51012">
        <ele>750.3</ele>
        <time>2021-11-11T12:59:22Z</time>
      </trkpt>
      <trkpt lat="44.73933" lon="2.5101">
        <ele>765.9</ele>
        <time>2021-11-11T12:59:27Z</time>
      </trkpt>
      <trkpt lat="44.73941" lon="2.51009">
        <ele>770.5</ele>
        <time>2021-11-11T12:59:32Z</time>
      </trkpt>
      <trkpt lat="44.73945" lon="2.51007">
        <ele>760.7</ele>
        <time>2021-11-11T12:59:38Z</time>
      </trkpt>
      <trkpt lat="44.73948" lon="2.51008">
        <ele>771</ele>
        <time>2021-11-11T12:59:43Z</time>
      </trkpt>
      <trkpt lat="44.73953" lon="2.51008">
        <ele>749.3</ele>
        <time>2021-11-11T12:59:48Z</time>
      </trkpt>
      <trkpt lat="44.73958" lon="2.51009">
        <ele>762.7</ele>
        <time>2021-11-11T12:59:54Z</time>
      </trkpt>
      <trkpt lat="44.73965" lon="2.51007">
        <ele>766.1</ele>
        <time>2021-11-11T12:59:59Z</time>
      </trkpt>
      <trkpt lat="44.73973" lon="2.51004">
        <ele>736.2</ele>
        <time>2021-11-11T13:00:04Z</time>
      </trkpt>
      <trkpt lat="44.7398" lon="2.51005">
        <ele>764.2</ele>
        <time>2021-11-11T13:00:10Z</time>
      </trkpt>
      <trkpt lat="44.7399" lon="2.51006">
        <ele>769.5</ele>
        <time>2021-11-11T13:00:15Z</time>
      </trkpt>
      <trkpt lat="44.73998" lon="2.51011">
        <ele>752.5</ele>
        <time>2021-11-11T13:00:21Z</time>
      </trkpt>
      <trkpt lat="44.74006" lon="2.51007">
        <ele>749.9</ele>
        <time>2021-11-11T13:00:27Z</time>
      </trkpt>
      <trkpt lat="44.74013" lon="2.5101">
        <ele>752.4</ele>
        <time>2021-11-11T13:00:32Z</time>
      </trkpt>
      <trkpt lat="44.74018" lon="2.51015">
        <ele>765.7</ele>
        <time>2021-11-11T13:00:37Z</time>
      </trkpt>
      <trkpt lat="44.74022" lon="2.51022">
        <ele>752.7</ele>
        <time>2021-11-11T13:00:43Z</time>
      </trkpt>
      <trkpt lat="44.74027" lon="2.51031">
        <ele>748.4</ele>
        <time>2021-11-11T13:00:48Z</time>
      </trkpt>
      <trkpt lat="44.7403" lon="2.51039">
        <ele>779.2</ele>
        <time>2021-11-11T13:00:54Z</time>
      </trkpt>
      <trkpt lat="44.74033" lon="2.51048">
        <ele>756.1</ele>
        <time>2021-11-11T13:00:59Z</time>
      </trkpt>
      <trkpt lat="44.74033" lon="2.51059">
        <ele>757</ele>
        <time>2021-11-11T13:01:04Z</time>
      </trkpt>
      <trkpt lat="44.74035" lon="2.51069">
        <ele>752.2</ele>
        <time>2021-11-11T13:01:10Z</time>
      </trkpt>
      <trkpt lat="44.74038" lon="2.51077">
        <ele>745.1</ele>
        <time>2021-11-11T13:01:15Z</time>
      </trkpt>
      <trkpt lat="44.7404" lon="2.51087">
        <ele>750.9</ele>
        <time>2021-11-11T13:01:20Z</time>
      </trkpt>
      <trkpt lat="44.74042" lon="2.51095">
        <ele>758.3</ele>
        <time>2021-11-11T13:01:25Z</time>
      </trkpt>
      <trkpt lat="44.74045" lon="2.51103">
        <ele>757.3</ele>
        <time>2021-11-11T13:01:30Z</time>
      </trkpt>
      <trkpt lat="44.74047" lon="2.51113">
        <ele>746.8</ele>
        <time>2021-11-11T13:01:36Z</time>
      </trkpt>
      <trkpt lat="44.74051" lon="2.51118">
        <ele>768</ele>
        <time>2021-11-11T13:01:41Z</time>
      </trkpt>
      <trkpt lat="44.7406" lon="2.51116">
        <ele>747.1</ele>
        <time>2021-11-11T13:01:47Z</time>
      </trkpt>
      <trkpt lat="44.74068" lon="2.51109">
        <ele>743.9</ele>
        <time>2021-11-11T13:01:52Z</time>
      </trkpt>
      <trkpt lat="44.74075" lon="2.51103">
        <ele>755.4</ele>
        <time>2021-11-11T13:01:57Z</time>
      </trkpt>
      <trkpt lat="44.74082" lon="2.51099">
        <ele>756.6</ele>
        <time>2021-11-11T13:02:03Z</time>
      </trkpt>
      <trkpt lat="44.74087" lon="2.51096">
        <ele>753.9</ele>
        <time>2021-11-11T13:02:08Z</time>
      </trkpt>
      <trkpt lat="44.74093" lon="2.51092">
        <ele>757.8</ele>
        <time>2021-11-11T13:02:14Z</time>
      </trkpt>
      <trkpt lat="44.74101" lon="2.5109">
        <ele>755.7</ele>
        <time>2021-11-11T13:02:20Z</time>
      </trkpt>
      <trkpt lat="44.74108" lon="2.51087">
        <ele>737.1</ele>
        <time>2021-11-11T13:02:25Z</time>
      </trkpt>
      <trkpt lat="44.74115" lon="2.51084">
        <ele>759.7</ele>
        <time>2021-11-11T13:02:31Z</time>
      </trkpt>
      <trkpt lat="44.7412" lon="2.51081">
        <ele>740.3</ele>
        <time>2021-11-11T13:02:36Z</time>
      </trkpt>
      <trkpt lat="44.74126" lon="2.51078">
        <ele>742.3</ele>
        <time>2021-11-11T13:02:41Z</time>
      </trkpt>
      <trkpt lat="44.74132" lon="2.51075">
        <ele>732.8</ele>
        <time>2021-11-11T13:02:46Z</time>
      </trkpt>
      <trkpt lat="44.74137" lon="2.51067">
        <ele>734.7</ele>
        <time>2021-11-11T13:02:51Z</time>
      </trkpt>
      <trkpt lat="44.74144" lon="2.51063">
        <ele>749</ele>
        <time>2021-11-11T13:02:57Z</time>
      </trkpt>
      <trkpt lat="44.7415" lon="2.51054">
        <ele>755.8</ele>
        <time>2021-11-11T13:03:03Z</time>
      </trkpt>
      <trkpt lat="44.74154" lon="2.51047">
        <ele>757.7</ele>
        <time>2021-11-11T13:03:08Z</time>
      </trkpt>
      <trkpt lat="44.74159" lon="2.51038">
        <ele>755.4</ele>
        <time>2021-11-11T13:03:14Z</time>
      </trkpt>
      <trkpt lat="44.74164" lon="2.5103">
        <ele>736.1</ele>
        <time>2021-11-11T13:03:19Z</time>
      </trkpt>
      <trkpt lat="44.74167" lon="2.51022">
        <ele>745.5</ele>
        <time>2021-11-11T13:03:25Z</time>
      </trkpt>
      <trkpt lat="44.7417" lon="2.51014">
        <ele>746.9</ele>
        <time>2021-11-11T13:03:30Z</time>
      </trkpt>
      <trkpt lat="44.74172" lon="2.51005">
        <ele>754.8</ele>
        <time>2021-11-11T13:03:35Z</time>
      </trkpt>
      <trkpt lat="44.74175" lon="2.50996">
        <ele>734.8</ele>
        <time>2021-11-11T13:03:41Z</time>
      </trkpt>
      <trkpt lat="44.74176" lon="2.50987">
        <ele>763.5</ele>
        <time>2021-11-11T13:03:46Z</time>
      </trkpt>
      <trkpt lat="44.74179" lon="2.50979">
        <ele>738.9</ele>
        <time>2021-11-11T13:03:51Z</time>
      </trkpt>
      <trkpt lat="44.74186" lon="2.50972">
        <ele>743.5</ele>
        <time>2021-11-11T13:03:57Z</time>
      </trkpt>
      <trkpt lat="44.74189" lon="2.50963">
        <ele>747.2</ele>
        <time>2021-11-11T13:04:02Z</time>
      </trkpt>
      <trkpt lat="44.74193" lon="2.50958">
        <ele>731.2</ele>
        <time>2021-11-11T13:04:07Z</time>
      </trkpt>
      <trkpt lat="44.74201" lon="2.50957">
        <ele>749.3</ele>
        <time>2021-11-11T13:04:13Z</time>
      </trkpt>
      <trkpt lat="44.74208" lon="2.50954">
        <ele>748.8</ele>
        <time>2021-11-11T13:04:18Z</time>
      </trkpt>
      <trkpt lat="44.74214" lon="2.50951">
        <ele>747.6</ele>
        <time>2021-11-11T13:04:23Z</time>
      </trkpt>
      <trkpt lat="44.74221" lon="2.50947">
        <ele>737.8</ele>
        <time>2021-11-11T13:04:29Z</time>
      </trkpt>
      <trkpt lat="44.74227" lon="2.50947">
        <ele>761.3</ele>
        <time>2021-11-11T13:04:34Z</time>
      </trkpt>
      <trkpt lat="44.74231" lon="2.50945">
        <ele>742.4</ele>
        <time>2021-11-11T13:04:39Z</time>
      </trkpt>
      <trkpt lat="44.74238" lon="2.50943">
        <ele>757.8</ele>
        <time>2021-11-11T13:04:45Z</time>
      </trkpt>
      <trkpt lat="44.74244" lon="2.50944">
        <ele>753.1</ele>
        <time>2021-11-11T13:04:50Z</time>
      </trkpt>
      <trkpt lat="44.7425" lon="2.50941">
        <ele>760.2</ele>
        <time>2021-11-11T13:04:56Z</time>
      </trkpt>
      <trkpt lat="44.74257" lon="2.50943">
        <ele>749.2</ele>
        <time>2021-11-11T13:05:01Z</time>
      </trkpt>
      <trkpt lat="44.74263" lon="2.50949">
        <ele>734.7</ele>
        <time>2021-11-11T13:05:07Z</time>
      </trkpt>
      <trkpt lat="44.74269" lon="2.50964">
        <ele>761.3</ele>
        <time>2021-11-11T13:05:12Z</time>
      </trkpt>
      <trkpt lat="44.74275" lon="2.50963">
        <ele>743.3</ele>
        <time>2021-11-11T13:05:17Z</time>
      </trkpt>
      <trkpt lat="44.74281" lon="2.50961">
        <ele>763</ele>
        <time>2021-11-11T13:05:22Z</time>
      </trkpt>
      <trkpt lat="44.74287" lon="2.50964">
        <ele>745.6</ele>
        <time>2021-11-11T13:05:27Z</time>
      </trkpt>
      <trkpt lat="44.74296" lon="2.50977">
        <ele>753.2</ele>
        <time>2021-11-11T13:05:33Z</time>
      </trkpt>
      <trkpt lat="44.74302" lon="2.5098">
        <ele>756.1</ele>
        <time>2021-11-11T13:05:38Z</time>
      </trkpt>
      <trkpt lat="44.74308" lon="2.50984">
        <ele>740.3</ele>
        <time>2021-11-11T13:05:43Z</time>
      </trkpt>
      <trkpt lat="44.74317" lon="2.50986">
        <ele>752.4</ele>
        <time>2021-11-11T13:05:49Z</time>
      </trkpt>
      <trkpt lat="44.74324" lon="2.5099">
        <ele>752.6</ele>
        <time>2021-11-11T13:05:54Z</time>
      </trkpt>
      <trkpt lat="44.7433" lon="2.50992">
        <ele>743.3</ele>
        <time>2021-11-11T13:06:00Z</time>
      </trkpt>
      <trkpt lat="44.74337" lon="2.50994">
        <ele>742.5</ele>
        <time>2021-11-11T13:06:05Z</time>
      </trkpt>
      <trkpt lat="44.74344" lon="2.50996">
        <ele>732.6</ele>
        <time>2021-11-11T13:06:10Z</time>
      </trkpt>
      <trkpt lat="44.7435" lon="2.51">
        <ele>744.4</ele>
        <time>2021-11-11T13:06:16Z</time>
      </trkpt>
      <trkpt lat="44.74357" lon="2.51001">
        <ele>749.1</ele>
        <time>2021-11-11T13:06:21Z</time>
      </trkpt>
      <trkpt lat="44.74363" lon="2.51002">
        <ele>729.1</ele>
        <time>2021-11-11T13:06:27Z</time>
      </trkpt>
      <trkpt lat="44.74371" lon="2.51003">
        <ele>753.7</ele>
        <time>2021-11-11T13:06:32Z</time>
      </trkpt>
      <trkpt lat="44.74377" lon="2.51005">
        <ele>746</ele>
        <time>2021-11-11T13:06:37Z</time>
      </trkpt>
      <trkpt lat="44.74383" lon="2.51007">
        <ele>739.2</ele>
        <time>2021-11-11T13:06:43Z</time>
      </trkpt>
      <trkpt lat="44.74391" lon="2.51001">
        <ele>754.9</ele>
        <time>2021-11-11T13:06:48Z</time>
      </trkpt>
      <trkpt lat="44.74398" lon="2.51002">
        <ele>751</ele>
        <time>2021-11-11T13:06:53Z</time>
      </trkpt>
      <trkpt lat="44.74406" lon="2.50999">
        <ele>743.4</ele>
        <time>2021-11-11T13:07:00Z</time>
      </trkpt>
      <trkpt lat="44.74412" lon="2.50997">
        <ele>742.6</ele>
        <time>2021-11-11T13:07:05Z</time>
      </trkpt>
      <trkpt lat="44.74419" lon="2.50996">
        <ele>742.7</ele>
        <time>2021-11-11T13:07:10Z</time>
      </trkpt>
      <trkpt lat="44.74427" lon="2.50994">
        <ele>734</ele>
        <time>2021-11-11T13:07:16Z</time>
      </trkpt>
      <trkpt lat="44.74433" lon="2.50992">
        <ele>745.6</ele>
        <time>2021-11-11T13:07:21Z</time>
      </trkpt>
      <trkpt lat="44.74439" lon="2.50989">
        <ele>746.2</ele>
        <time>2021-11-11T13:07:26Z</time>
      </trkpt>
      <trkpt lat="44.74445" lon="2.50986">
        <ele>724.5</ele>
        <time>2021-11-11T13:07:32Z</time>
      </trkpt>
      <trkpt lat="44.7445" lon="2.50985">
        <ele>713.7</ele>
        <time>2021-11-11T13:07:37Z</time>
      </trkpt>
      <trkpt lat="44.74455" lon="2.50983">
        <ele>721.6</ele>
        <time>2021-11-11T13:07:42Z</time>
      </trkpt>
      <trkpt lat="44.7446" lon="2.50979">
        <ele>716.4</ele>
        <time>2021-11-11T13:07:48Z</time>
      </trkpt>
      <trkpt lat="44.74467" lon="2.50975">
        <ele>742.1</ele>
        <time>2021-11-11T13:07:54Z</time>
      </trkpt>
      <trkpt lat="44.74473" lon="2.50974">
        <ele>715.8</ele>
        <time>2021-11-11T13:07:59Z</time>
      </trkpt>
      <trkpt lat="44.74479" lon="2.50975">
        <ele>733.8</ele>
        <time>2021-11-11T13:08:04Z</time>
      </trkpt>
      <trkpt lat="44.74486" lon="2.50976">
        <ele>731.4</ele>
        <time>2021-11-11T13:08:09Z</time>
      </trkpt>
      <trkpt lat="44.74493" lon="2.50977">
        <ele>733.6</ele>
        <time>2021-11-11T13:08:14Z</time>
      </trkpt>
      <trkpt lat="44.74496" lon="2.50982">
        <ele>734.6</ele>
        <time>2021-11-11T13:08:19Z</time>
      </trkpt>
      <trkpt lat="44.74502" lon="2.50983">
        <ele>720</ele>
        <time>2021-11-11T13:08:25Z</time>
      </trkpt>
      <trkpt lat="44.74508" lon="2.50986">
        <ele>732.7</ele>
        <time>2021-11-11T13:08:30Z</time>
      </trkpt>
      <trkpt lat="44.74513" lon="2.50988">
        <ele>739.3</ele>
        <time>2021-11-11T13:08:35Z</time>
      </trkpt>
      <trkpt lat="44.74517" lon="2.50991">
        <ele>725.1</ele>
        <time>2021-11-11T13:08:41Z</time>
      </trkpt>
      <trkpt lat="44.74522" lon="2.50989">
        <ele>737</ele>
        <time>2021-11-11T13:08:47Z</time>
      </trkpt>
      <trkpt lat="44.74525" lon="2.50987">
        <ele>727</ele>
        <time>2021-11-11T13:08:52Z</time>
      </trkpt>
      <trkpt lat="44.74527" lon="2.50989">
        <ele>726.1</ele>
        <time>2021-11-11T13:08:58Z</time>
      </trkpt>
      <trkpt lat="44.74531" lon="2.5099">
        <ele>737.4</ele>
        <time>2021-11-11T13:09:03Z</time>
      </trkpt>
      <trkpt lat="44.74538" lon="2.50998">
        <ele>736.8</ele>
        <time>2021-11-11T13:09:09Z</time>
      </trkpt>
      <trkpt lat="44.74544" lon="2.51003">
        <ele>723.8</ele>
        <time>2021-11-11T13:09:14Z</time>
      </trkpt>
      <trkpt lat="44.74551" lon="2.51006">
        <ele>723.1</ele>
        <time>2021-11-11T13:09:19Z</time>
      </trkpt>
      <trkpt lat="44.74556" lon="2.51004">
        <ele>720.5</ele>
        <time>2021-11-11T13:09:24Z</time>
      </trkpt>
      <trkpt lat="44.7456" lon="2.50999">
        <ele>729.3</ele>
        <time>2021-11-11T13:09:29Z</time>
      </trkpt>
      <trkpt lat="44.74564" lon="2.50994">
        <ele>727.7</ele>
        <time>2021-11-11T13:09:35Z</time>
      </trkpt>
      <trkpt lat="44.7457" lon="2.50991">
        <ele>724.3</ele>
        <time>2021-11-11T13:09:41Z</time>
      </trkpt>
      <trkpt lat="44.74581" lon="2.50987">
        <ele>717.6</ele>
        <time>2021-11-11T13:09:46Z</time>
      </trkpt>
      <trkpt lat="44.74588" lon="2.50984">
        <ele>721.1</ele>
        <time>2021-11-11T13:09:52Z</time>
      </trkpt>
      <trkpt lat="44.74594" lon="2.50985">
        <ele>718</ele>
        <time>2021-11-11T13:09:57Z</time>
      </trkpt>
      <trkpt lat="44.746" lon="2.50986">
        <ele>707.1</ele>
        <time>2021-11-11T13:10:03Z</time>
      </trkpt>
      <trkpt lat="44.74605" lon="2.50986">
        <ele>689.4</ele>
        <time>2021-11-11T13:10:08Z</time>
      </trkpt>
      <trkpt lat="44.74609" lon="2.50984">
        <ele>706.1</ele>
        <time>2021-11-11T13:10:13Z</time>
      </trkpt>
      <trkpt lat="44.74615" lon="2.5098">
        <ele>703.6</ele>
        <time>2021-11-11T13:10:18Z</time>
      </trkpt>
      <trkpt lat="44.74622" lon="2.50978">
        <ele>708.6</ele>
        <time>2021-11-11T13:10:24Z</time>
      </trkpt>
      <trkpt lat="44.74629" lon="2.50976">
        <ele>704.6</ele>
        <time>2021-11-11T13:10:29Z</time>
      </trkpt>
      <trkpt lat="44.74634" lon="2.50971">
        <ele>705.3</ele>
        <time>2021-11-11T13:10:35Z</time>
      </trkpt>
      <trkpt lat="44.74639" lon="2.50969">
        <ele>709.4</ele>
        <time>2021-11-11T13:10:40Z</time>
      </trkpt>
      <trkpt lat="44.74645" lon="2.50965">
        <ele>688.1</ele>
        <time>2021-11-11T13:10:45Z</time>
      </trkpt>
      <trkpt lat="44.74649" lon="2.50961">
        <ele>711.2</ele>
        <time>2021-11-11T13:10:50Z</time>
      </trkpt>
      <trkpt lat="44.74655" lon="2.50958">
        <ele>687.2</ele>
        <time>2021-11-11T13:10:56Z</time>
      </trkpt>
      <trkpt lat="44.74661" lon="2.50955">
        <ele>703.7</ele>
        <time>2021-11-11T13:11:02Z</time>
      </trkpt>
      <trkpt lat="44.74667" lon="2.50947">
        <ele>697.9</ele>
        <time>2021-11-11T13:11:08Z</time>
      </trkpt>
      <trkpt lat="44.74673" lon="2.50943">
        <ele>703.4</ele>
        <time>2021-11-11T13:11:13Z</time>
      </trkpt>
      <trkpt lat="44.74677" lon="2.50935">
        <ele>704</ele>
        <time>2021-11-11T13:11:18Z</time>
      </trkpt>
      <trkpt lat="44.74685" lon="2.50932">
        <ele>696.4</ele>
        <time>2021-11-11T13:11:24Z</time>
      </trkpt>
      <trkpt lat="44.74689" lon="2.50926">
        <ele>693.7</ele>
        <time>2021-11-11T13:11:30Z</time>
      </trkpt>
      <trkpt lat="44.74696" lon="2.50922">
        <ele>691.5</ele>
        <time>2021-11-11T13:11:35Z</time>
      </trkpt>
      <trkpt lat="44.74702" lon="2.50921">
        <ele>689.3</ele>
        <time>2021-11-11T13:11:40Z</time>
      </trkpt>
      <trkpt lat="44.74706" lon="2.50915">
        <ele>688.5</ele>
        <time>2021-11-11T13:11:45Z</time>
      </trkpt>
      <trkpt lat="44.74712" lon="2.5091">
        <ele>696.6</ele>
        <time>2021-11-11T13:11:51Z</time>
      </trkpt>
      <trkpt lat="44.74718" lon="2.50908">
        <ele>693.8</ele>
        <time>2021-11-11T13:11:56Z</time>
      </trkpt>
      <trkpt lat="44.74722" lon="2.50903">
        <ele>699.5</ele>
        <time>2021-11-11T13:12:01Z</time>
      </trkpt>
      <trkpt lat="44.74727" lon="2.50898">
        <ele>692.8</ele>
        <time>2021-11-11T13:12:07Z</time>
      </trkpt>
      <trkpt lat="44.74732" lon="2.50893">
        <ele>681.5</ele>
        <time>2021-11-11T13:12:12Z</time>
      </trkpt>
      <trkpt lat="44.74738" lon="2.5089">
        <ele>707</ele>
        <time>2021-11-11T13:12:17Z</time>
      </trkpt>
      <trkpt lat="44.74742" lon="2.50892">
        <ele>690.5</ele>
        <time>2021-11-11T13:12:23Z</time>
      </trkpt>
      <trkpt lat="44.74747" lon="2.50895">
        <ele>667</ele>
        <time>2021-11-11T13:12:29Z</time>
      </trkpt>
      <trkpt lat="44.74751" lon="2.50895">
        <ele>683.5</ele>
        <time>2021-11-11T13:12:34Z</time>
      </trkpt>
      <trkpt lat="44.74755" lon="2.50895">
        <ele>689.7</ele>
        <time>2021-11-11T13:12:39Z</time>
      </trkpt>
      <trkpt lat="44.74759" lon="2.50896">
        <ele>688</ele>
        <time>2021-11-11T13:12:44Z</time>
      </trkpt>
      <trkpt lat="44.74762" lon="2.50897">
        <ele>682.3</ele>
        <time>2021-11-11T13:12:50Z</time>
      </trkpt>
      <trkpt lat="44.74769" lon="2.50894">
        <ele>671.1</ele>
        <time>2021-11-11T13:12:55Z</time>
      </trkpt>
      <trkpt lat="44.74774" lon="2.50894">
        <ele>684.2</ele>
        <time>2021-11-11T13:13:00Z</time>
      </trkpt>
      <trkpt lat="44.7478" lon="2.50891">
        <ele>685.3</ele>
        <time>2021-11-11T13:13:05Z</time>
      </trkpt>
      <trkpt lat="44.74789" lon="2.50883">
        <ele>691.8</ele>
        <time>2021-11-11T13:13:10Z</time>
      </trkpt>
      <trkpt lat="44.74788" lon="2.5088">
        <ele>689.7</ele>
        <time>2021-11-11T13:13:15Z</time>
      </trkpt>
      <trkpt lat="44.74789" lon="2.50878">
        <ele>691.2</ele>
        <time>2021-11-11T13:13:20Z</time>
      </trkpt>
      <trkpt lat="44.7479" lon="2.50875">
        <ele>668.3</ele>
        <time>2021-11-11T13:13:26Z</time>
      </trkpt>
      <trkpt lat="44.7479" lon="2.50873">
        <ele>676.6</ele>
        <time>2021-11-11T13:13:32Z</time>
      </trkpt>
      <trkpt lat="44.74789" lon="2.50866">
        <ele>679.5</ele>
        <time>2021-11-11T13:13:37Z</time>
      </trkpt>
      <trkpt lat="44.74788" lon="2.50864">
        <ele>682.5</ele>
        <time>2021-11-11T13:13:43Z</time>
      </trkpt>
      <trkpt lat="44.74787" lon="2.50867">
        <ele>671.9</ele>
        <time>2021-11-11T13:13:48Z</time>
      </trkpt>
      <trkpt lat="44.74787" lon="2.50865">
        <ele>676.6</ele>
        <time>2021-11-11T13:13:54Z</time>
      </trkpt>
      <trkpt lat="44.74787" lon="2.50864">
        <ele>682.6</ele>
        <time>2021-11-11T13:14:00Z</time>
      </trkpt>
      <trkpt lat="44.74786" lon="2.50863">
        <ele>683.2</ele>
        <time>2021-11-11T13:14:05Z</time>
      </trkpt>
      <trkpt lat="44.74787" lon="2.50863">
        <ele>669</ele>
        <time>2021-11-11T13:14:10Z</time>
      </trkpt>
      <trkpt lat="44.74786" lon="2.50861">
        <ele>668.1</ele>
        <time>2021-11-11T13:14:15Z</time>
      </trkpt>
      <trkpt lat="44.74786" lon="2.5086">
        <ele>673</ele>
        <time>2021-11-11T13:14:20Z</time>
      </trkpt>
      <trkpt lat="44.7479" lon="2.50854">
        <ele>679.3</ele>
        <time>2021-11-11T13:14:26Z</time>
      </trkpt>
      <trkpt lat="44.74797" lon="2.50847">
        <ele>670.6</ele>
        <time>2021-11-11T13:14:31Z</time>
      </trkpt>
      <trkpt lat="44.74802" lon="2.50841">
        <ele>666.7</ele>
        <time>2021-11-11T13:14:36Z</time>
      </trkpt>
      <trkpt lat="44.74804" lon="2.50837">
        <ele>667.7</ele>
        <time>2021-11-11T13:14:42Z</time>
      </trkpt>
      <trkpt lat="44.74812" lon="2.50837">
        <ele>680.5</ele>
        <time>2021-11-11T13:14:47Z</time>
      </trkpt>
      <trkpt lat="44.74823" lon="2.5084">
        <ele>672.4</ele>
        <time>2021-11-11T13:14:53Z</time>
      </trkpt>
      <trkpt lat="44.74829" lon="2.50839">
        <ele>677.9</ele>
        <time>2021-11-11T13:14:58Z</time>
      </trkpt>
      <trkpt lat="44.74834" lon="2.5084">
        <ele>681.4</ele>
        <time>2021-11-11T13:15:04Z</time>
      </trkpt>
      <trkpt lat="44.74838" lon="2.50845">
        <ele>628.4</ele>
        <time>2021-11-11T13:15:09Z</time>
      </trkpt>
      <trkpt lat="44.74841" lon="2.50846">
        <ele>628.5</ele>
        <time>2021-11-11T13:15:14Z</time>
      </trkpt>
      <trkpt lat="44.74844" lon="2.50845">
        <ele>628.6</ele>
        <time>2021-11-11T13:15:19Z</time>
      </trkpt>
      <trkpt lat="44.74848" lon="2.50846">
        <ele>628.4</ele>
        <time>2021-11-11T13:15:25Z</time>
      </trkpt>
      <trkpt lat="44.74849" lon="2.50847">
        <ele>628.5</ele>
        <time>2021-11-11T13:15:30Z</time>
      </trkpt>
      <trkpt lat="44.74851" lon="2.50847">
        <ele>628.5</ele>
        <time>2021-11-11T13:15:35Z</time>
      </trkpt>
      <trkpt lat="44.74853" lon="2.5085">
        <ele>628.4</ele>
        <time>2021-11-11T13:15:40Z</time>
      </trkpt>
      <trkpt lat="44.74856" lon="2.50857">
        <ele>628.6</ele>
        <time>2021-11-11T13:15:46Z</time>
      </trkpt>
      <trkpt lat="44.74862" lon="2.50863">
        <ele>628.6</ele>
        <time>2021-11-11T13:15:51Z</time>
      </trkpt>
      <trkpt lat="44.74875" lon="2.50872">
        <ele>628.6</ele>
        <time>2021-11-11T13:15:57Z</time>
      </trkpt>
      <trkpt lat="44.74886" lon="2.5087">
        <ele>628.6</ele>
        <time>2021-11-11T13:16:02Z</time>
      </trkpt>
      <trkpt lat="44.74887" lon="2.5087">
        <ele>628.7</ele>
        <time>2021-11-11T13:16:07Z</time>
      </trkpt>
      <trkpt lat="44.7489" lon="2.50867">
        <ele>628.6</ele>
        <time>2021-11-11T13:16:13Z</time>
      </trkpt>
      <trkpt lat="44.74897" lon="2.50863">
        <ele>628.6</ele>
        <time>2021-11-11T13:16:18Z</time>
      </trkpt>
      <trkpt lat="44.74903" lon="2.50861">
        <ele>628.7</ele>
        <time>2021-11-11T13:16:23Z</time>
      </trkpt>
      <trkpt lat="44.74909" lon="2.50863">
        <ele>628.7</ele>
        <time>2021-11-11T13:16:28Z</time>
      </trkpt>
      <trkpt lat="44.74915" lon="2.50864">
        <ele>628.7</ele>
        <time>2021-11-11T13:16:33Z</time>
      </trkpt>
      <trkpt lat="44.74923" lon="2.50866">
        <ele>628.7</ele>
        <time>2021-11-11T13:16:38Z</time>
      </trkpt>
      <trkpt lat="44.74928" lon="2.5087">
        <ele>628.7</ele>
        <time>2021-11-11T13:16:43Z</time>
      </trkpt>
      <trkpt lat="44.74932" lon="2.50872">
        <ele>628.5</ele>
        <time>2021-11-11T13:16:49Z</time>
      </trkpt>
      <trkpt lat="44.74935" lon="2.50869">
        <ele>628.6</ele>
        <time>2021-11-11T13:16:55Z</time>
      </trkpt>
      <trkpt lat="44.74936" lon="2.50871">
        <ele>628.5</ele>
        <time>2021-11-11T13:17:01Z</time>
      </trkpt>
      <trkpt lat="44.74938" lon="2.50895">
        <ele>628.6</ele>
        <time>2021-11-11T13:17:07Z</time>
      </trkpt>
      <trkpt lat="44.74942" lon="2.50911">
        <ele>628.5</ele>
        <time>2021-11-11T13:17:12Z</time>
      </trkpt>
      <trkpt lat="44.74947" lon="2.50916">
        <ele>628.5</ele>
        <time>2021-11-11T13:17:17Z</time>
      </trkpt>
      <trkpt lat="44.74952" lon="2.50919">
        <ele>628.6</ele>
        <time>2021-11-11T13:17:22Z</time>
      </trkpt>
      <trkpt lat="44.74955" lon="2.50925">
        <ele>628.6</ele>
        <time>2021-11-11T13:17:27Z</time>
      </trkpt>
      <trkpt lat="44.74957" lon="2.50931">
        <ele>628.5</ele>
        <time>2021-11-11T13:17:32Z</time>
      </trkpt>
      <trkpt lat="44.7496" lon="2.50935">
        <ele>628.6</ele>
        <time>2021-11-11T13:17:37Z</time>
      </trkpt>
      <trkpt lat="44.74966" lon="2.50936">
        <ele>628.7</ele>
        <time>2021-11-11T13:17:43Z</time>
      </trkpt>
      <trkpt lat="44.74971" lon="2.50934">
        <ele>628.7</ele>
        <time>2021-11-11T13:17:49Z</time>
      </trkpt>
      <trkpt lat="44.74975" lon="2.50933">
        <ele>628.6</ele>
        <time>2021-11-11T13:17:54Z</time>
      </trkpt>
      <trkpt lat="44.74979" lon="2.50932">
        <ele>628.4</ele>
        <time>2021-11-11T13:18:00Z</time>
      </trkpt>
      <trkpt lat="44.74979" lon="2.50936">
        <ele>628.3</ele>
        <time>2021-11-11T13:18:05Z</time>
      </trkpt>
      <trkpt lat="44.7498" lon="2.50939">
        <ele>628.6</ele>
        <time>2021-11-11T13:18:10Z</time>
      </trkpt>
      <trkpt lat="44.74982" lon="2.50945">
        <ele>628.6</ele>
        <time>2021-11-11T13:18:16Z</time>
      </trkpt>
      <trkpt lat="44.74984" lon="2.50948">
        <ele>628.6</ele>
        <time>2021-11-11T13:18:21Z</time>
      </trkpt>
      <trkpt lat="44.74985" lon="2.50953">
        <ele>628.7</ele>
        <time>2021-11-11T13:18:26Z</time>
      </trkpt>
      <trkpt lat="44.74988" lon="2.5096">
        <ele>628.7</ele>
        <time>2021-11-11T13:18:31Z</time>
      </trkpt>
      <trkpt lat="44.74992" lon="2.50972">
        <ele>628.6</ele>
        <time>2021-11-11T13:18:37Z</time>
      </trkpt>
      <trkpt lat="44.75003" lon="2.50985">
        <ele>628.5</ele>
        <time>2021-11-11T13:18:43Z</time>
      </trkpt>
      <trkpt lat="44.75016" lon="2.50991">
        <ele>628.6</ele>
        <time>2021-11-11T13:18:48Z</time>
      </trkpt>
      <trkpt lat="44.7502" lon="2.50997">
        <ele>628.6</ele>
        <time>2021-11-11T13:18:54Z</time>
      </trkpt>
      <trkpt lat="44.75022" lon="2.51003">
        <ele>628.6</ele>
        <time>2021-11-11T13:18:59Z</time>
      </trkpt>
      <trkpt lat="44.75025" lon="2.5101">
        <ele>628.6</ele>
        <time>2021-11-11T13:19:04Z</time>
      </trkpt>
      <trkpt lat="44.75029" lon="2.51017">
        <ele>628.7</ele>
        <time>2021-11-11T13:19:10Z</time>
      </trkpt>
      <trkpt lat="44.75029" lon="2.51026">
        <ele>628.7</ele>
        <time>2021-11-11T13:19:15Z</time>
      </trkpt>
      <trkpt lat="44.7503" lon="2.51031">
        <ele>628.7</ele>
        <time>2021-11-11T13:19:21Z</time>
      </trkpt>
      <trkpt lat="44.75029" lon="2.51032">
        <ele>628.7</ele>
        <time>2021-11-11T13:19:26Z</time>
      </trkpt>
      <trkpt lat="44.75029" lon="2.51034">
        <ele>628.7</ele>
        <time>2021-11-11T13:19:32Z</time>
      </trkpt>
      <trkpt lat="44.75028" lon="2.51034">
        <ele>628.6</ele>
        <time>2021-11-11T13:19:37Z</time>
      </trkpt>
      <trkpt lat="44.75025" lon="2.51031">
        <ele>621.6</ele>
        <time>2021-11-11T13:19:42Z</time>
      </trkpt>
      <trkpt lat="44.75021" lon="2.51024">
        <ele>636.6</ele>
        <time>2021-11-11T13:19:48Z</time>
      </trkpt>
      <trkpt lat="44.75023" lon="2.51013">
        <ele>628.2</ele>
        <time>2021-11-11T13:19:53Z</time>
      </trkpt>
      <trkpt lat="44.75022" lon="2.51007">
        <ele>628.2</ele>
        <time>2021-11-11T13:19:59Z</time>
      </trkpt>
      <trkpt lat="44.7502" lon="2.51001">
        <ele>628.2</ele>
        <time>2021-11-11T13:20:05Z</time>
      </trkpt>
      <trkpt lat="44.75021" lon="2.50995">
        <ele>628.3</ele>
        <time>2021-11-11T13:20:10Z</time>
      </trkpt>
      <trkpt lat="44.75022" lon="2.50991">
        <ele>628.4</ele>
        <time>2021-11-11T13:20:15Z</time>
      </trkpt>
      <trkpt lat="44.75017" lon="2.50983">
        <ele>628.5</ele>
        <time>2021-11-11T13:20:20Z</time>
      </trkpt>
      <trkpt lat="44.75014" lon="2.50981">
        <ele>628.4</ele>
        <time>2021-11-11T13:20:25Z</time>
      </trkpt>
      <trkpt lat="44.75012" lon="2.50975">
        <ele>628.5</ele>
        <time>2021-11-11T13:20:30Z</time>
      </trkpt>
      <trkpt lat="44.75012" lon="2.50969">
        <ele>628.6</ele>
        <time>2021-11-11T13:20:36Z</time>
      </trkpt>
      <trkpt lat="44.75015" lon="2.50965">
        <ele>628.6</ele>
        <time>2021-11-11T13:20:41Z</time>
      </trkpt>
      <trkpt lat="44.75018" lon="2.50947">
        <ele>628.6</ele>
        <time>2021-11-11T13:20:47Z</time>
      </trkpt>
      <trkpt lat="44.75016" lon="2.5092">
        <ele>628.7</ele>
        <time>2021-11-11T13:20:53Z</time>
      </trkpt>
      <trkpt lat="44.75014" lon="2.50909">
        <ele>628.7</ele>
        <time>2021-11-11T13:20:58Z</time>
      </trkpt>
      <trkpt lat="44.75008" lon="2.50905">
        <ele>628.9</ele>
        <time>2021-11-11T13:21:03Z</time>
      </trkpt>
      <trkpt lat="44.75004" lon="2.50903">
        <ele>628.8</ele>
        <time>2021-11-11T13:21:08Z</time>
      </trkpt>
      <trkpt lat="44.75002" lon="2.50901">
        <ele>628.7</ele>
        <time>2021-11-11T13:21:14Z</time>
      </trkpt>
      <trkpt lat="44.75002" lon="2.50895">
        <ele>628.6</ele>
        <time>2021-11-11T13:21:19Z</time>
      </trkpt>
      <trkpt lat="44.75" lon="2.5089">
        <ele>628.6</ele>
        <time>2021-11-11T13:21:25Z</time>
      </trkpt>
      <trkpt lat="44.75" lon="2.50883">
        <ele>628.5</ele>
        <time>2021-11-11T13:21:30Z</time>
      </trkpt>
      <trkpt lat="44.75004" lon="2.5087">
        <ele>628.4</ele>
        <time>2021-11-11T13:21:35Z</time>
      </trkpt>
      <trkpt lat="44.75012" lon="2.50845">
        <ele>628.5</ele>
        <time>2021-11-11T13:21:41Z</time>
      </trkpt>
      <trkpt lat="44.75016" lon="2.50842">
        <ele>628.6</ele>
        <time>2021-11-11T13:21:46Z</time>
      </trkpt>
      <trkpt lat="44.7502" lon="2.50838">
        <ele>628.6</ele>
        <time>2021-11-11T13:21:51Z</time>
      </trkpt>
      <trkpt lat="44.75023" lon="2.50838">
        <ele>628.8</ele>
        <time>2021-11-11T13:21:57Z</time>
      </trkpt>
      <trkpt lat="44.75026" lon="2.50838">
        <ele>628.7</ele>
        <time>2021-11-11T13:22:02Z</time>
      </trkpt>
      <trkpt lat="44.75036" lon="2.50832">
        <ele>628.8</ele>
        <time>2021-11-11T13:22:07Z</time>
      </trkpt>
      <trkpt lat="44.75041" lon="2.50825">
        <ele>628.8</ele>
        <time>2021-11-11T13:22:13Z</time>
      </trkpt>
      <trkpt lat="44.75048" lon="2.50822">
        <ele>628.7</ele>
        <time>2021-11-11T13:22:18Z</time>
      </trkpt>
      <trkpt lat="44.75053" lon="2.50814">
        <ele>628.7</ele>
        <time>2021-11-11T13:22:23Z</time>
      </trkpt>
      <trkpt lat="44.75057" lon="2.50809">
        <ele>628.7</ele>
        <time>2021-11-11T13:22:29Z</time>
      </trkpt>
      <trkpt lat="44.75061" lon="2.50804">
        <ele>628.8</ele>
        <time>2021-11-11T13:22:34Z</time>
      </trkpt>
      <trkpt lat="44.75064" lon="2.50799">
        <ele>628.8</ele>
        <time>2021-11-11T13:22:39Z</time>
      </trkpt>
      <trkpt lat="44.75076" lon="2.50796">
        <ele>628.7</ele>
        <time>2021-11-11T13:22:45Z</time>
      </trkpt>
      <trkpt lat="44.75088" lon="2.50797">
        <ele>628.7</ele>
        <time>2021-11-11T13:22:51Z</time>
      </trkpt>
      <trkpt lat="44.75096" lon="2.50799">
        <ele>628.7</ele>
        <time>2021-11-11T13:22:56Z</time>
      </trkpt>
      <trkpt lat="44.75104" lon="2.50799">
        <ele>628.7</ele>
        <time>2021-11-11T13:23:01Z</time>
      </trkpt>
      <trkpt lat="44.7511" lon="2.50798">
        <ele>628.5</ele>
        <time>2021-11-11T13:23:06Z</time>
      </trkpt>
      <trkpt lat="44.75118" lon="2.508">
        <ele>628.6</ele>
        <time>2021-11-11T13:23:11Z</time>
      </trkpt>
      <trkpt lat="44.75125" lon="2.50803">
        <ele>628.5</ele>
        <time>2021-11-11T13:23:17Z</time>
      </trkpt>
      <trkpt lat="44.75131" lon="2.50805">
        <ele>628.6</ele>
        <time>2021-11-11T13:23:22Z</time>
      </trkpt>
      <trkpt lat="44.75138" lon="2.50807">
        <ele>628.5</ele>
        <time>2021-11-11T13:23:28Z</time>
      </trkpt>
      <trkpt lat="44.75145" lon="2.5081">
        <ele>628.6</ele>
        <time>2021-11-11T13:23:34Z</time>
      </trkpt>
      <trkpt lat="44.75152" lon="2.50809">
        <ele>628.6</ele>
        <time>2021-11-11T13:23:39Z</time>
      </trkpt>
      <trkpt lat="44.7516" lon="2.50808">
        <ele>628.7</ele>
        <time>2021-11-11T13:23:44Z</time>
      </trkpt>
      <trkpt lat="44.75166" lon="2.50809">
        <ele>628.7</ele>
        <time>2021-11-11T13:23:49Z</time>
      </trkpt>
      <trkpt lat="44.75172" lon="2.50813">
        <ele>628.7</ele>
        <time>2021-11-11T13:23:54Z</time>
      </trkpt>
      <trkpt lat="44.75178" lon="2.50815">
        <ele>628.8</ele>
        <time>2021-11-11T13:24:00Z</time>
      </trkpt>
      <trkpt lat="44.75184" lon="2.50815">
        <ele>628.6</ele>
        <time>2021-11-11T13:24:05Z</time>
      </trkpt>
      <trkpt lat="44.75191" lon="2.50817">
        <ele>628.6</ele>
        <time>2021-11-11T13:24:11Z</time>
      </trkpt>
      <trkpt lat="44.75197" lon="2.50821">
        <ele>628.7</ele>
        <time>2021-11-11T13:24:16Z</time>
      </trkpt>
      <trkpt lat="44.75204" lon="2.50825">
        <ele>628.7</ele>
        <time>2021-11-11T13:24:21Z</time>
      </trkpt>
      <trkpt lat="44.75211" lon="2.50828">
        <ele>628.7</ele>
        <time>2021-11-11T13:24:26Z</time>
      </trkpt>
      <trkpt lat="44.75218" lon="2.50829">
        <ele>628.7</ele>
        <time>2021-11-11T13:24:32Z</time>
      </trkpt>
      <trkpt lat="44.75225" lon="2.5083">
        <ele>628.7</ele>
        <time>2021-11-11T13:24:37Z</time>
      </trkpt>
      <trkpt lat="44.75231" lon="2.50831">
        <ele>628.8</ele>
        <time>2021-11-11T13:24:43Z</time>
      </trkpt>
      <trkpt lat="44.75237" lon="2.50833">
        <ele>628.7</ele>
        <time>2021-11-11T13:24:48Z</time>
      </trkpt>
      <trkpt lat="44.75245" lon="2.50838">
        <ele>628.6</ele>
        <time>2021-11-11T13:24:54Z</time>
      </trkpt>
      <trkpt lat="44.75252" lon="2.5084">
        <ele>628.6</ele>
        <time>2021-11-11T13:24:59Z</time>
      </trkpt>
      <trkpt lat="44.75258" lon="2.5084">
        <ele>628.7</ele>
        <time>2021-11-11T13:25:04Z</time>
      </trkpt>
      <trkpt lat="44.75265" lon="2.5084">
        <ele>628.7</ele>
        <time>2021-11-11T13:25:09Z</time>
      </trkpt>
      <trkpt lat="44.75272" lon="2.50841">
        <ele>628.6</ele>
        <time>2021-11-11T13:25:14Z</time>
      </trkpt>
      <trkpt lat="44.75279" lon="2.50843">
        <ele>628.5</ele>
        <time>2021-11-11T13:25:20Z</time>
      </trkpt>
      <trkpt lat="44.75285" lon="2.50845">
        <ele>628.5</ele>
        <time>2021-11-11T13:25:25Z</time>
      </trkpt>
      <trkpt lat="44.75292" lon="2.50847">
        <ele>628.4</ele>
        <time>2021-11-11T13:25:31Z</time>
      </trkpt>
      <trkpt lat="44.75298" lon="2.50852">
        <ele>628.3</ele>
        <time>2021-11-11T13:25:37Z</time>
      </trkpt>
      <trkpt lat="44.75304" lon="2.50855">
        <ele>628.4</ele>
        <time>2021-11-11T13:25:42Z</time>
      </trkpt>
      <trkpt lat="44.7531" lon="2.50856">
        <ele>628.3</ele>
        <time>2021-11-11T13:25:47Z</time>
      </trkpt>
      <trkpt lat="44.75316" lon="2.50857">
        <ele>628.3</ele>
        <time>2021-11-11T13:25:53Z</time>
      </trkpt>
      <trkpt lat="44.75322" lon="2.50857">
        <ele>628.4</ele>
        <time>2021-11-11T13:25:58Z</time>
      </trkpt>
      <trkpt lat="44.75329" lon="2.50857">
        <ele>628.4</ele>
        <time>2021-11-11T13:26:03Z</time>
      </trkpt>
      <trkpt lat="44.75335" lon="2.50855">
        <ele>628.4</ele>
        <time>2021-11-11T13:26:08Z</time>
      </trkpt>
      <trkpt lat="44.75342" lon="2.50855">
        <ele>628.4</ele>
        <time>2021-11-11T13:26:13Z</time>
      </trkpt>
      <trkpt lat="44.75347" lon="2.50854">
        <ele>628.4</ele>
        <time>2021-11-11T13:26:19Z</time>
      </trkpt>
      <trkpt lat="44.75353" lon="2.50855">
        <ele>628.3</ele>
        <time>2021-11-11T13:26:24Z</time>
      </trkpt>
      <trkpt lat="44.75359" lon="2.50856">
        <ele>628.3</ele>
        <time>2021-11-11T13:26:29Z</time>
      </trkpt>
      <trkpt lat="44.75365" lon="2.50855">
        <ele>628.3</ele>
        <time>2021-11-11T13:26:34Z</time>
      </trkpt>
      <trkpt lat="44.75374" lon="2.5086">
        <ele>628.3</ele>
        <time>2021-11-11T13:26:39Z</time>
      </trkpt>
      <trkpt lat="44.75379" lon="2.50862">
        <ele>628.4</ele>
        <time>2021-11-11T13:26:45Z</time>
      </trkpt>
      <trkpt lat="44.75384" lon="2.50864">
        <ele>628.3</ele>
        <time>2021-11-11T13:26:50Z</time>
      </trkpt>
      <trkpt lat="44.7539" lon="2.50867">
        <ele>628.3</ele>
        <time>2021-11-11T13:26:55Z</time>
      </trkpt>
      <trkpt lat="44.75396" lon="2.50875">
        <ele>628.4</ele>
        <time>2021-11-11T13:27:01Z</time>
      </trkpt>
      <trkpt lat="44.75402" lon="2.5088">
        <ele>628.4</ele>
        <time>2021-11-11T13:27:06Z</time>
      </trkpt>
      <trkpt lat="44.75409" lon="2.50881">
        <ele>628.3</ele>
        <time>2021-11-11T13:27:12Z</time>
      </trkpt>
      <trkpt lat="44.75414" lon="2.50882">
        <ele>628.3</ele>
        <time>2021-11-11T13:27:17Z</time>
      </trkpt>
      <trkpt lat="44.75417" lon="2.50881">
        <ele>634.2</ele>
        <time>2021-11-11T13:27:22Z</time>
      </trkpt>
      <trkpt lat="44.75422" lon="2.50875">
        <ele>634.1</ele>
        <time>2021-11-11T13:27:28Z</time>
      </trkpt>
      <trkpt lat="44.7543" lon="2.50881">
        <ele>634.1</ele>
        <time>2021-11-11T13:27:33Z</time>
      </trkpt>
      <trkpt lat="44.75436" lon="2.50882">
        <ele>634</ele>
        <time>2021-11-11T13:27:38Z</time>
      </trkpt>
      <trkpt lat="44.75443" lon="2.50879">
        <ele>634</ele>
        <time>2021-11-11T13:27:43Z</time>
      </trkpt>
      <trkpt lat="44.75448" lon="2.50874">
        <ele>634</ele>
        <time>2021-11-11T13:27:49Z</time>
      </trkpt>
      <trkpt lat="44.75451" lon="2.5087">
        <ele>633.9</ele>
        <time>2021-11-11T13:27:54Z</time>
      </trkpt>
      <trkpt lat="44.7546" lon="2.50876">
        <ele>634</ele>
        <time>2021-11-11T13:28:00Z</time>
      </trkpt>
      <trkpt lat="44.7547" lon="2.5088">
        <ele>634.1</ele>
        <time>2021-11-11T13:28:05Z</time>
      </trkpt>
      <trkpt lat="44.75477" lon="2.50878">
        <ele>634</ele>
        <time>2021-11-11T13:28:11Z</time>
      </trkpt>
      <trkpt lat="44.75481" lon="2.50873">
        <ele>634.1</ele>
        <time>2021-11-11T13:28:16Z</time>
      </trkpt>
      <trkpt lat="44.75487" lon="2.50878">
        <ele>634.1</ele>
        <time>2021-11-11T13:28:21Z</time>
      </trkpt>
      <trkpt lat="44.75493" lon="2.50876">
        <ele>634.2</ele>
        <time>2021-11-11T13:28:27Z</time>
      </trkpt>
      <trkpt lat="44.75499" lon="2.50875">
        <ele>634.2</ele>
        <time>2021-11-11T13:28:32Z</time>
      </trkpt>
      <trkpt lat="44.75502" lon="2.50875">
        <ele>634.4</ele>
        <time>2021-11-11T13:28:38Z</time>
      </trkpt>
      <trkpt lat="44.75502" lon="2.50877">
        <ele>634.4</ele>
        <time>2021-11-11T13:28:43Z</time>
      </trkpt>
      <trkpt lat="44.75503" lon="2.50877">
        <ele>634.4</ele>
        <time>2021-11-11T13:28:49Z</time>
      </trkpt>
      <trkpt lat="44.75503" lon="2.50878">
        <ele>634.4</ele>
        <time>2021-11-11T13:28:54Z</time>
      </trkpt>
      <trkpt lat="44.75504" lon="2.5088">
        <ele>634.3</ele>
        <time>2021-11-11T13:29:00Z</time>
      </trkpt>
      <trkpt lat="44.75504" lon="2.5088">
        <ele>634.2</ele>
        <time>2021-11-11T13:29:05Z</time>
      </trkpt>
      <trkpt lat="44.75504" lon="2.5088">
        <ele>634.2</ele>
        <time>2021-11-11T13:29:11Z</time>
      </trkpt>
      <trkpt lat="44.75504" lon="2.50878">
        <ele>634.1</ele>
        <time>2021-11-11T13:29:16Z</time>
      </trkpt>
      <trkpt lat="44.75504" lon="2.50878">
        <ele>634.2</ele>
        <time>2021-11-11T13:29:22Z</time>
      </trkpt>
      <trkpt lat="44.75503" lon="2.50878">
        <ele>638.6</ele>
        <time>2021-11-11T13:29:27Z</time>
      </trkpt>
      <trkpt lat="44.75504" lon="2.50877">
        <ele>638.5</ele>
        <time>2021-11-11T13:29:33Z</time>
      </trkpt>
      <trkpt lat="44.75504" lon="2.50878">
        <ele>647.2</ele>
        <time>2021-11-11T13:29:39Z</time>
      </trkpt>
    </trkseg>
  </trk>
</gpx>